<?xml version="1.0" encoding="UTF-8" standalone="no" ?>
<gpx xmlns="http://www.topografix.com/GPX/1/1" xmlns:xsi="http://www.w3.org/2001/XMLSchema-instance" xsi:schemaLocation="http://www.topografix.com/GPX/1/1 http://www.topografix.com/GPX/1/1/gpx.xsd" version="1.1" creator="VisuGPX - https://www.visugpx.com">
  <metadata>
    <name>Combe de Tardevant</name>
    <desc><![CDATA[AlpineQuest Track 3/21/26 08:57:27]]></desc>
  </metadata>
  <trk>
    <name><![CDATA[Combe de Tardevant_1]]></name>
    <trkseg>
      <trkpt lat="45.92238" lon="6.48412">
        <ele>1452.785</ele>
        <time>2026-03-21T08:27:23Z</time>
      </trkpt>
      <trkpt lat="45.92234" lon="6.48415">
        <ele>1453.14</ele>
        <time>2026-03-21T08:27:28Z</time>
      </trkpt>
      <trkpt lat="45.92231" lon="6.48419">
        <ele>1454.24</ele>
        <time>2026-03-21T08:27:33Z</time>
      </trkpt>
      <trkpt lat="45.92228" lon="6.48424">
        <ele>1454.093</ele>
        <time>2026-03-21T08:27:38Z</time>
      </trkpt>
      <trkpt lat="45.92225" lon="6.48428">
        <ele>1454.93</ele>
        <time>2026-03-21T08:27:43Z</time>
      </trkpt>
      <trkpt lat="45.92221" lon="6.48431">
        <ele>1455.351</ele>
        <time>2026-03-21T08:27:48Z</time>
      </trkpt>
      <trkpt lat="45.92217" lon="6.48434">
        <ele>1456.152</ele>
        <time>2026-03-21T08:27:53Z</time>
      </trkpt>
      <trkpt lat="45.92213" lon="6.48437">
        <ele>1457.293</ele>
        <time>2026-03-21T08:27:58Z</time>
      </trkpt>
      <trkpt lat="45.92209" lon="6.4844">
        <ele>1458.54</ele>
        <time>2026-03-21T08:28:03Z</time>
      </trkpt>
      <trkpt lat="45.92206" lon="6.48445">
        <ele>1459.219</ele>
        <time>2026-03-21T08:28:08Z</time>
      </trkpt>
      <trkpt lat="45.92203" lon="6.48449">
        <ele>1459.085</ele>
        <time>2026-03-21T08:28:13Z</time>
      </trkpt>
      <trkpt lat="45.92199" lon="6.48453">
        <ele>1460.092</ele>
        <time>2026-03-21T08:28:18Z</time>
      </trkpt>
      <trkpt lat="45.92195" lon="6.48457">
        <ele>1460.851</ele>
        <time>2026-03-21T08:28:23Z</time>
      </trkpt>
      <trkpt lat="45.92191" lon="6.48461">
        <ele>1461.662</ele>
        <time>2026-03-21T08:28:28Z</time>
      </trkpt>
      <trkpt lat="45.92188" lon="6.48466">
        <ele>1462.247</ele>
        <time>2026-03-21T08:28:33Z</time>
      </trkpt>
      <trkpt lat="45.92185" lon="6.4847">
        <ele>1463.422</ele>
        <time>2026-03-21T08:28:38Z</time>
      </trkpt>
      <trkpt lat="45.92181" lon="6.48474">
        <ele>1464.095</ele>
        <time>2026-03-21T08:28:43Z</time>
      </trkpt>
      <trkpt lat="45.92178" lon="6.48478">
        <ele>1464.055</ele>
        <time>2026-03-21T08:28:48Z</time>
      </trkpt>
      <trkpt lat="45.92175" lon="6.48483">
        <ele>1464.729</ele>
        <time>2026-03-21T08:28:53Z</time>
      </trkpt>
      <trkpt lat="45.92171" lon="6.48487">
        <ele>1465.312</ele>
        <time>2026-03-21T08:28:58Z</time>
      </trkpt>
      <trkpt lat="45.92168" lon="6.48492">
        <ele>1467</ele>
        <time>2026-03-21T08:29:03Z</time>
      </trkpt>
      <trkpt lat="45.92166" lon="6.48496">
        <ele>1467.693</ele>
        <time>2026-03-21T08:29:08Z</time>
      </trkpt>
      <trkpt lat="45.92164" lon="6.485">
        <ele>1467.514</ele>
        <time>2026-03-21T08:29:13Z</time>
      </trkpt>
      <trkpt lat="45.9216" lon="6.48502">
        <ele>1467.955</ele>
        <time>2026-03-21T08:29:18Z</time>
      </trkpt>
      <trkpt lat="45.92159" lon="6.48504">
        <ele>1468.233</ele>
        <time>2026-03-21T08:29:23Z</time>
      </trkpt>
      <trkpt lat="45.92158" lon="6.48506">
        <ele>1470.327</ele>
        <time>2026-03-21T08:29:28Z</time>
      </trkpt>
      <trkpt lat="45.92156" lon="6.4851">
        <ele>1470.055</ele>
        <time>2026-03-21T08:29:33Z</time>
      </trkpt>
      <trkpt lat="45.92153" lon="6.48512">
        <ele>1469.848</ele>
        <time>2026-03-21T08:29:38Z</time>
      </trkpt>
      <trkpt lat="45.92153" lon="6.48511">
        <ele>1469.768</ele>
        <time>2026-03-21T08:29:43Z</time>
      </trkpt>
      <trkpt lat="45.92153" lon="6.48511">
        <ele>1469.766</ele>
        <time>2026-03-21T08:29:48Z</time>
      </trkpt>
      <trkpt lat="45.92153" lon="6.48511">
        <ele>1469.769</ele>
        <time>2026-03-21T08:29:53Z</time>
      </trkpt>
      <trkpt lat="45.92153" lon="6.48511">
        <ele>1469.599</ele>
        <time>2026-03-21T08:29:58Z</time>
      </trkpt>
      <trkpt lat="45.92153" lon="6.48511">
        <ele>1469.59</ele>
        <time>2026-03-21T08:30:03Z</time>
      </trkpt>
      <trkpt lat="45.92153" lon="6.48511">
        <ele>1469.59</ele>
        <time>2026-03-21T08:30:08Z</time>
      </trkpt>
      <trkpt lat="45.92153" lon="6.48511">
        <ele>1469.599</ele>
        <time>2026-03-21T08:30:13Z</time>
      </trkpt>
      <trkpt lat="45.92153" lon="6.48511">
        <ele>1469.556</ele>
        <time>2026-03-21T08:30:18Z</time>
      </trkpt>
      <trkpt lat="45.92153" lon="6.48511">
        <ele>1469.543</ele>
        <time>2026-03-21T08:30:23Z</time>
      </trkpt>
      <trkpt lat="45.92153" lon="6.48511">
        <ele>1469.544</ele>
        <time>2026-03-21T08:30:28Z</time>
      </trkpt>
      <trkpt lat="45.92153" lon="6.48511">
        <ele>1469.552</ele>
        <time>2026-03-21T08:30:33Z</time>
      </trkpt>
      <trkpt lat="45.92153" lon="6.48511">
        <ele>1469.549</ele>
        <time>2026-03-21T08:30:38Z</time>
      </trkpt>
      <trkpt lat="45.92153" lon="6.48511">
        <ele>1475.791</ele>
        <time>2026-03-21T08:30:42Z</time>
      </trkpt>
      <trkpt lat="45.92153" lon="6.48511">
        <ele>1476.62</ele>
        <time>2026-03-21T08:30:48Z</time>
      </trkpt>
      <trkpt lat="45.92153" lon="6.48511">
        <ele>1475.653</ele>
        <time>2026-03-21T08:30:52Z</time>
      </trkpt>
      <trkpt lat="45.92153" lon="6.48511">
        <ele>1475.203</ele>
        <time>2026-03-21T08:30:58Z</time>
      </trkpt>
      <trkpt lat="45.92153" lon="6.48511">
        <ele>1475.146</ele>
        <time>2026-03-21T08:31:03Z</time>
      </trkpt>
      <trkpt lat="45.92153" lon="6.48511">
        <ele>1475.114</ele>
        <time>2026-03-21T08:31:08Z</time>
      </trkpt>
      <trkpt lat="45.92153" lon="6.48511">
        <ele>1473.716</ele>
        <time>2026-03-21T08:31:13Z</time>
      </trkpt>
      <trkpt lat="45.92153" lon="6.48511">
        <ele>1472.302</ele>
        <time>2026-03-21T08:31:18Z</time>
      </trkpt>
      <trkpt lat="45.92153" lon="6.48511">
        <ele>1473.71</ele>
        <time>2026-03-21T08:31:23Z</time>
      </trkpt>
      <trkpt lat="45.92153" lon="6.48511">
        <ele>1474.972</ele>
        <time>2026-03-21T08:31:28Z</time>
      </trkpt>
      <trkpt lat="45.92153" lon="6.48511">
        <ele>1475.313</ele>
        <time>2026-03-21T08:31:33Z</time>
      </trkpt>
      <trkpt lat="45.92153" lon="6.48511">
        <ele>1475.313</ele>
        <time>2026-03-21T08:31:38Z</time>
      </trkpt>
      <trkpt lat="45.92153" lon="6.48511">
        <ele>1475.311</ele>
        <time>2026-03-21T08:31:43Z</time>
      </trkpt>
      <trkpt lat="45.92153" lon="6.48511">
        <ele>1475.304</ele>
        <time>2026-03-21T08:31:48Z</time>
      </trkpt>
      <trkpt lat="45.92153" lon="6.48511">
        <ele>1475.301</ele>
        <time>2026-03-21T08:31:53Z</time>
      </trkpt>
      <trkpt lat="45.92153" lon="6.48511">
        <ele>1475.294</ele>
        <time>2026-03-21T08:31:58Z</time>
      </trkpt>
      <trkpt lat="45.92153" lon="6.48511">
        <ele>1475.293</ele>
        <time>2026-03-21T08:32:03Z</time>
      </trkpt>
      <trkpt lat="45.92153" lon="6.48511">
        <ele>1475.289</ele>
        <time>2026-03-21T08:32:08Z</time>
      </trkpt>
      <trkpt lat="45.92153" lon="6.48511">
        <ele>1475.283</ele>
        <time>2026-03-21T08:32:13Z</time>
      </trkpt>
      <trkpt lat="45.92153" lon="6.48511">
        <ele>1475.28</ele>
        <time>2026-03-21T08:32:18Z</time>
      </trkpt>
      <trkpt lat="45.92153" lon="6.48511">
        <ele>1475.275</ele>
        <time>2026-03-21T08:32:23Z</time>
      </trkpt>
      <trkpt lat="45.92153" lon="6.48511">
        <ele>1475.272</ele>
        <time>2026-03-21T08:32:28Z</time>
      </trkpt>
      <trkpt lat="45.92153" lon="6.48511">
        <ele>1475.266</ele>
        <time>2026-03-21T08:32:33Z</time>
      </trkpt>
      <trkpt lat="45.92153" lon="6.48511">
        <ele>1475.259</ele>
        <time>2026-03-21T08:32:38Z</time>
      </trkpt>
      <trkpt lat="45.92153" lon="6.48511">
        <ele>1475.255</ele>
        <time>2026-03-21T08:32:43Z</time>
      </trkpt>
      <trkpt lat="45.92153" lon="6.48511">
        <ele>1475.254</ele>
        <time>2026-03-21T08:32:48Z</time>
      </trkpt>
      <trkpt lat="45.92154" lon="6.48517">
        <ele>1475.698</ele>
        <time>2026-03-21T08:32:53Z</time>
      </trkpt>
      <trkpt lat="45.92153" lon="6.48522">
        <ele>1476.039</ele>
        <time>2026-03-21T08:32:58Z</time>
      </trkpt>
      <trkpt lat="45.92151" lon="6.48528">
        <ele>1472.926</ele>
        <time>2026-03-21T08:33:03Z</time>
      </trkpt>
      <trkpt lat="45.92149" lon="6.48532">
        <ele>1470.702</ele>
        <time>2026-03-21T08:33:08Z</time>
      </trkpt>
      <trkpt lat="45.9215" lon="6.48533">
        <ele>1470.544</ele>
        <time>2026-03-21T08:33:13Z</time>
      </trkpt>
      <trkpt lat="45.9215" lon="6.48534">
        <ele>1470.156</ele>
        <time>2026-03-21T08:33:18Z</time>
      </trkpt>
      <trkpt lat="45.9215" lon="6.48535">
        <ele>1471.34</ele>
        <time>2026-03-21T08:33:23Z</time>
      </trkpt>
      <trkpt lat="45.92149" lon="6.48535">
        <ele>1472.235</ele>
        <time>2026-03-21T08:33:28Z</time>
      </trkpt>
      <trkpt lat="45.92148" lon="6.48539">
        <ele>1473.183</ele>
        <time>2026-03-21T08:33:33Z</time>
      </trkpt>
      <trkpt lat="45.92149" lon="6.48543">
        <ele>1472.375</ele>
        <time>2026-03-21T08:33:38Z</time>
      </trkpt>
      <trkpt lat="45.92149" lon="6.48543">
        <ele>1473.179</ele>
        <time>2026-03-21T08:33:43Z</time>
      </trkpt>
      <trkpt lat="45.92149" lon="6.48543">
        <ele>1476.874</ele>
        <time>2026-03-21T08:33:48Z</time>
      </trkpt>
      <trkpt lat="45.92149" lon="6.48543">
        <ele>1478.974</ele>
        <time>2026-03-21T08:33:53Z</time>
      </trkpt>
      <trkpt lat="45.92149" lon="6.48543">
        <ele>1479.815</ele>
        <time>2026-03-21T08:33:58Z</time>
      </trkpt>
      <trkpt lat="45.92149" lon="6.48543">
        <ele>1479.582</ele>
        <time>2026-03-21T08:34:03Z</time>
      </trkpt>
      <trkpt lat="45.92149" lon="6.48543">
        <ele>1479.506</ele>
        <time>2026-03-21T08:34:08Z</time>
      </trkpt>
      <trkpt lat="45.92149" lon="6.48543">
        <ele>1478.385</ele>
        <time>2026-03-21T08:34:13Z</time>
      </trkpt>
      <trkpt lat="45.92149" lon="6.48543">
        <ele>1477.792</ele>
        <time>2026-03-21T08:34:18Z</time>
      </trkpt>
      <trkpt lat="45.92149" lon="6.48543">
        <ele>1478.28</ele>
        <time>2026-03-21T08:34:23Z</time>
      </trkpt>
      <trkpt lat="45.92149" lon="6.48543">
        <ele>1479.068</ele>
        <time>2026-03-21T08:34:28Z</time>
      </trkpt>
      <trkpt lat="45.92149" lon="6.48543">
        <ele>1478.547</ele>
        <time>2026-03-21T08:34:33Z</time>
      </trkpt>
      <trkpt lat="45.92149" lon="6.48543">
        <ele>1478.563</ele>
        <time>2026-03-21T08:34:38Z</time>
      </trkpt>
      <trkpt lat="45.92149" lon="6.48543">
        <ele>1478.356</ele>
        <time>2026-03-21T08:34:43Z</time>
      </trkpt>
      <trkpt lat="45.92149" lon="6.48543">
        <ele>1478.524</ele>
        <time>2026-03-21T08:34:48Z</time>
      </trkpt>
      <trkpt lat="45.92149" lon="6.48543">
        <ele>1478.5</ele>
        <time>2026-03-21T08:34:53Z</time>
      </trkpt>
      <trkpt lat="45.92149" lon="6.48543">
        <ele>1478.514</ele>
        <time>2026-03-21T08:34:58Z</time>
      </trkpt>
      <trkpt lat="45.92149" lon="6.48543">
        <ele>1478.495</ele>
        <time>2026-03-21T08:35:03Z</time>
      </trkpt>
      <trkpt lat="45.92149" lon="6.48543">
        <ele>1478.469</ele>
        <time>2026-03-21T08:35:08Z</time>
      </trkpt>
      <trkpt lat="45.92149" lon="6.48543">
        <ele>1478.394</ele>
        <time>2026-03-21T08:35:13Z</time>
      </trkpt>
      <trkpt lat="45.92149" lon="6.48543">
        <ele>1478.148</ele>
        <time>2026-03-21T08:35:18Z</time>
      </trkpt>
      <trkpt lat="45.92149" lon="6.48543">
        <ele>1478.121</ele>
        <time>2026-03-21T08:35:23Z</time>
      </trkpt>
      <trkpt lat="45.92149" lon="6.48543">
        <ele>1477.604</ele>
        <time>2026-03-21T08:35:28Z</time>
      </trkpt>
      <trkpt lat="45.92149" lon="6.48543">
        <ele>1477.481</ele>
        <time>2026-03-21T08:35:33Z</time>
      </trkpt>
      <trkpt lat="45.92149" lon="6.48543">
        <ele>1477.548</ele>
        <time>2026-03-21T08:35:38Z</time>
      </trkpt>
      <trkpt lat="45.92149" lon="6.48543">
        <ele>1479.143</ele>
        <time>2026-03-21T08:35:43Z</time>
      </trkpt>
      <trkpt lat="45.92149" lon="6.48543">
        <ele>1481.492</ele>
        <time>2026-03-21T08:35:48Z</time>
      </trkpt>
      <trkpt lat="45.92149" lon="6.48543">
        <ele>1480.428</ele>
        <time>2026-03-21T08:35:53Z</time>
      </trkpt>
      <trkpt lat="45.92149" lon="6.48543">
        <ele>1479.416</ele>
        <time>2026-03-21T08:35:58Z</time>
      </trkpt>
      <trkpt lat="45.92149" lon="6.48543">
        <ele>1479.388</ele>
        <time>2026-03-21T08:36:03Z</time>
      </trkpt>
      <trkpt lat="45.92149" lon="6.48543">
        <ele>1479.133</ele>
        <time>2026-03-21T08:36:08Z</time>
      </trkpt>
      <trkpt lat="45.92149" lon="6.48543">
        <ele>1478.741</ele>
        <time>2026-03-21T08:36:13Z</time>
      </trkpt>
      <trkpt lat="45.92149" lon="6.48543">
        <ele>1479.436</ele>
        <time>2026-03-21T08:36:18Z</time>
      </trkpt>
      <trkpt lat="45.92149" lon="6.48543">
        <ele>1478.996</ele>
        <time>2026-03-21T08:36:23Z</time>
      </trkpt>
      <trkpt lat="45.92149" lon="6.48543">
        <ele>1478.772</ele>
        <time>2026-03-21T08:36:28Z</time>
      </trkpt>
      <trkpt lat="45.92149" lon="6.48543">
        <ele>1478.001</ele>
        <time>2026-03-21T08:36:33Z</time>
      </trkpt>
      <trkpt lat="45.92149" lon="6.48543">
        <ele>1477.287</ele>
        <time>2026-03-21T08:36:38Z</time>
      </trkpt>
      <trkpt lat="45.92149" lon="6.48543">
        <ele>1477.406</ele>
        <time>2026-03-21T08:36:43Z</time>
      </trkpt>
      <trkpt lat="45.92149" lon="6.48543">
        <ele>1476.903</ele>
        <time>2026-03-21T08:36:48Z</time>
      </trkpt>
      <trkpt lat="45.92149" lon="6.48543">
        <ele>1477.333</ele>
        <time>2026-03-21T08:36:53Z</time>
      </trkpt>
      <trkpt lat="45.92149" lon="6.48543">
        <ele>1477.917</ele>
        <time>2026-03-21T08:36:58Z</time>
      </trkpt>
      <trkpt lat="45.92149" lon="6.48543">
        <ele>1475.002</ele>
        <time>2026-03-21T08:37:03Z</time>
      </trkpt>
      <trkpt lat="45.92149" lon="6.48543">
        <ele>1475.229</ele>
        <time>2026-03-21T08:37:08Z</time>
      </trkpt>
      <trkpt lat="45.92149" lon="6.48543">
        <ele>1474.18</ele>
        <time>2026-03-21T08:37:13Z</time>
      </trkpt>
      <trkpt lat="45.92149" lon="6.48543">
        <ele>1472.925</ele>
        <time>2026-03-21T08:37:18Z</time>
      </trkpt>
      <trkpt lat="45.92149" lon="6.48543">
        <ele>1473.497</ele>
        <time>2026-03-21T08:37:23Z</time>
      </trkpt>
      <trkpt lat="45.92146" lon="6.48554">
        <ele>1473.153</ele>
        <time>2026-03-21T08:37:28Z</time>
      </trkpt>
      <trkpt lat="45.92149" lon="6.4856">
        <ele>1472.557</ele>
        <time>2026-03-21T08:37:33Z</time>
      </trkpt>
      <trkpt lat="45.92148" lon="6.48564">
        <ele>1475.555</ele>
        <time>2026-03-21T08:37:38Z</time>
      </trkpt>
      <trkpt lat="45.92146" lon="6.48568">
        <ele>1476.617</ele>
        <time>2026-03-21T08:37:43Z</time>
      </trkpt>
      <trkpt lat="45.92144" lon="6.48575">
        <ele>1477.529</ele>
        <time>2026-03-21T08:37:48Z</time>
      </trkpt>
      <trkpt lat="45.92141" lon="6.48583">
        <ele>1477.678</ele>
        <time>2026-03-21T08:37:53Z</time>
      </trkpt>
      <trkpt lat="45.92138" lon="6.48588">
        <ele>1477.887</ele>
        <time>2026-03-21T08:37:58Z</time>
      </trkpt>
      <trkpt lat="45.92137" lon="6.48597">
        <ele>1475.501</ele>
        <time>2026-03-21T08:38:03Z</time>
      </trkpt>
      <trkpt lat="45.92135" lon="6.48605">
        <ele>1475.639</ele>
        <time>2026-03-21T08:38:08Z</time>
      </trkpt>
      <trkpt lat="45.92132" lon="6.48613">
        <ele>1475.605</ele>
        <time>2026-03-21T08:38:13Z</time>
      </trkpt>
      <trkpt lat="45.9213" lon="6.48622">
        <ele>1474.604</ele>
        <time>2026-03-21T08:38:18Z</time>
      </trkpt>
      <trkpt lat="45.92128" lon="6.48629">
        <ele>1474.564</ele>
        <time>2026-03-21T08:38:23Z</time>
      </trkpt>
      <trkpt lat="45.92125" lon="6.48637">
        <ele>1474.024</ele>
        <time>2026-03-21T08:38:28Z</time>
      </trkpt>
      <trkpt lat="45.92123" lon="6.48644">
        <ele>1474.189</ele>
        <time>2026-03-21T08:38:33Z</time>
      </trkpt>
      <trkpt lat="45.92124" lon="6.48653">
        <ele>1473.111</ele>
        <time>2026-03-21T08:38:38Z</time>
      </trkpt>
      <trkpt lat="45.92126" lon="6.48659">
        <ele>1472.536</ele>
        <time>2026-03-21T08:38:43Z</time>
      </trkpt>
      <trkpt lat="45.92129" lon="6.48666">
        <ele>1471.776</ele>
        <time>2026-03-21T08:38:48Z</time>
      </trkpt>
      <trkpt lat="45.92132" lon="6.48672">
        <ele>1471.018</ele>
        <time>2026-03-21T08:38:53Z</time>
      </trkpt>
      <trkpt lat="45.92135" lon="6.48678">
        <ele>1470.013</ele>
        <time>2026-03-21T08:38:58Z</time>
      </trkpt>
      <trkpt lat="45.92138" lon="6.48683">
        <ele>1469.762</ele>
        <time>2026-03-21T08:39:03Z</time>
      </trkpt>
      <trkpt lat="45.92141" lon="6.48688">
        <ele>1470.237</ele>
        <time>2026-03-21T08:39:08Z</time>
      </trkpt>
      <trkpt lat="45.92146" lon="6.48693">
        <ele>1470.985</ele>
        <time>2026-03-21T08:39:13Z</time>
      </trkpt>
      <trkpt lat="45.9215" lon="6.48698">
        <ele>1471.73</ele>
        <time>2026-03-21T08:39:18Z</time>
      </trkpt>
      <trkpt lat="45.92155" lon="6.48703">
        <ele>1471.042</ele>
        <time>2026-03-21T08:39:23Z</time>
      </trkpt>
      <trkpt lat="45.92159" lon="6.4871">
        <ele>1470.029</ele>
        <time>2026-03-21T08:39:28Z</time>
      </trkpt>
      <trkpt lat="45.92163" lon="6.48718">
        <ele>1470.073</ele>
        <time>2026-03-21T08:39:33Z</time>
      </trkpt>
      <trkpt lat="45.92166" lon="6.48725">
        <ele>1469.757</ele>
        <time>2026-03-21T08:39:38Z</time>
      </trkpt>
      <trkpt lat="45.92168" lon="6.48733">
        <ele>1469.81</ele>
        <time>2026-03-21T08:39:43Z</time>
      </trkpt>
      <trkpt lat="45.92171" lon="6.48742">
        <ele>1468.969</ele>
        <time>2026-03-21T08:39:48Z</time>
      </trkpt>
      <trkpt lat="45.92174" lon="6.48751">
        <ele>1467.687</ele>
        <time>2026-03-21T08:39:53Z</time>
      </trkpt>
      <trkpt lat="45.92176" lon="6.48761">
        <ele>1466.979</ele>
        <time>2026-03-21T08:39:58Z</time>
      </trkpt>
      <trkpt lat="45.92179" lon="6.48771">
        <ele>1466.238</ele>
        <time>2026-03-21T08:40:03Z</time>
      </trkpt>
      <trkpt lat="45.92181" lon="6.4878">
        <ele>1465.781</ele>
        <time>2026-03-21T08:40:08Z</time>
      </trkpt>
      <trkpt lat="45.92183" lon="6.48787">
        <ele>1466.425</ele>
        <time>2026-03-21T08:40:13Z</time>
      </trkpt>
      <trkpt lat="45.92184" lon="6.48795">
        <ele>1465.721</ele>
        <time>2026-03-21T08:40:18Z</time>
      </trkpt>
      <trkpt lat="45.92185" lon="6.48802">
        <ele>1464.606</ele>
        <time>2026-03-21T08:40:23Z</time>
      </trkpt>
      <trkpt lat="45.92186" lon="6.48811">
        <ele>1464.322</ele>
        <time>2026-03-21T08:40:28Z</time>
      </trkpt>
      <trkpt lat="45.92185" lon="6.4882">
        <ele>1462.924</ele>
        <time>2026-03-21T08:40:33Z</time>
      </trkpt>
      <trkpt lat="45.92183" lon="6.4883">
        <ele>1461.614</ele>
        <time>2026-03-21T08:40:38Z</time>
      </trkpt>
      <trkpt lat="45.92179" lon="6.48839">
        <ele>1460.626</ele>
        <time>2026-03-21T08:40:43Z</time>
      </trkpt>
      <trkpt lat="45.92175" lon="6.48846">
        <ele>1460.415</ele>
        <time>2026-03-21T08:40:48Z</time>
      </trkpt>
      <trkpt lat="45.92173" lon="6.48852">
        <ele>1460.821</ele>
        <time>2026-03-21T08:40:53Z</time>
      </trkpt>
      <trkpt lat="45.9217" lon="6.4886">
        <ele>1460.391</ele>
        <time>2026-03-21T08:40:58Z</time>
      </trkpt>
      <trkpt lat="45.92169" lon="6.48868">
        <ele>1460.04</ele>
        <time>2026-03-21T08:41:03Z</time>
      </trkpt>
      <trkpt lat="45.9217" lon="6.48875">
        <ele>1460.219</ele>
        <time>2026-03-21T08:41:08Z</time>
      </trkpt>
      <trkpt lat="45.92172" lon="6.48881">
        <ele>1459.434</ele>
        <time>2026-03-21T08:41:13Z</time>
      </trkpt>
      <trkpt lat="45.92175" lon="6.48887">
        <ele>1458.787</ele>
        <time>2026-03-21T08:41:18Z</time>
      </trkpt>
      <trkpt lat="45.92178" lon="6.48892">
        <ele>1458.714</ele>
        <time>2026-03-21T08:41:23Z</time>
      </trkpt>
      <trkpt lat="45.92181" lon="6.48896">
        <ele>1459.38</ele>
        <time>2026-03-21T08:41:28Z</time>
      </trkpt>
      <trkpt lat="45.92184" lon="6.48901">
        <ele>1459.031</ele>
        <time>2026-03-21T08:41:33Z</time>
      </trkpt>
      <trkpt lat="45.92184" lon="6.489">
        <ele>1459.519</ele>
        <time>2026-03-21T08:41:38Z</time>
      </trkpt>
      <trkpt lat="45.92187" lon="6.48903">
        <ele>1460.146</ele>
        <time>2026-03-21T08:41:43Z</time>
      </trkpt>
      <trkpt lat="45.92191" lon="6.48907">
        <ele>1460.936</ele>
        <time>2026-03-21T08:41:48Z</time>
      </trkpt>
      <trkpt lat="45.92195" lon="6.48912">
        <ele>1462.013</ele>
        <time>2026-03-21T08:41:53Z</time>
      </trkpt>
      <trkpt lat="45.92199" lon="6.48916">
        <ele>1462.509</ele>
        <time>2026-03-21T08:41:58Z</time>
      </trkpt>
      <trkpt lat="45.92202" lon="6.48919">
        <ele>1462.314</ele>
        <time>2026-03-21T08:42:03Z</time>
      </trkpt>
      <trkpt lat="45.92206" lon="6.48923">
        <ele>1462.986</ele>
        <time>2026-03-21T08:42:08Z</time>
      </trkpt>
      <trkpt lat="45.9221" lon="6.48927">
        <ele>1464.237</ele>
        <time>2026-03-21T08:42:13Z</time>
      </trkpt>
      <trkpt lat="45.92213" lon="6.48931">
        <ele>1463.471</ele>
        <time>2026-03-21T08:42:18Z</time>
      </trkpt>
      <trkpt lat="45.92215" lon="6.48936">
        <ele>1462.778</ele>
        <time>2026-03-21T08:42:23Z</time>
      </trkpt>
      <trkpt lat="45.92218" lon="6.48942">
        <ele>1463.374</ele>
        <time>2026-03-21T08:42:28Z</time>
      </trkpt>
      <trkpt lat="45.92221" lon="6.48946">
        <ele>1463.013</ele>
        <time>2026-03-21T08:42:33Z</time>
      </trkpt>
      <trkpt lat="45.92224" lon="6.48951">
        <ele>1464.403</ele>
        <time>2026-03-21T08:42:38Z</time>
      </trkpt>
      <trkpt lat="45.92227" lon="6.48955">
        <ele>1464.582</ele>
        <time>2026-03-21T08:42:43Z</time>
      </trkpt>
      <trkpt lat="45.92229" lon="6.48959">
        <ele>1464.52</ele>
        <time>2026-03-21T08:42:48Z</time>
      </trkpt>
      <trkpt lat="45.92232" lon="6.48963">
        <ele>1465.082</ele>
        <time>2026-03-21T08:42:53Z</time>
      </trkpt>
      <trkpt lat="45.92235" lon="6.48967">
        <ele>1466.49</ele>
        <time>2026-03-21T08:42:58Z</time>
      </trkpt>
      <trkpt lat="45.92237" lon="6.48971">
        <ele>1466.478</ele>
        <time>2026-03-21T08:43:03Z</time>
      </trkpt>
      <trkpt lat="45.9224" lon="6.48976">
        <ele>1466.823</ele>
        <time>2026-03-21T08:43:08Z</time>
      </trkpt>
      <trkpt lat="45.92242" lon="6.4898">
        <ele>1466.844</ele>
        <time>2026-03-21T08:43:13Z</time>
      </trkpt>
      <trkpt lat="45.92245" lon="6.48985">
        <ele>1466.102</ele>
        <time>2026-03-21T08:43:18Z</time>
      </trkpt>
      <trkpt lat="45.92249" lon="6.48989">
        <ele>1467.195</ele>
        <time>2026-03-21T08:43:23Z</time>
      </trkpt>
      <trkpt lat="45.92252" lon="6.48993">
        <ele>1467.874</ele>
        <time>2026-03-21T08:43:28Z</time>
      </trkpt>
      <trkpt lat="45.92255" lon="6.48996">
        <ele>1468.621</ele>
        <time>2026-03-21T08:43:33Z</time>
      </trkpt>
      <trkpt lat="45.92258" lon="6.49">
        <ele>1469.145</ele>
        <time>2026-03-21T08:43:38Z</time>
      </trkpt>
      <trkpt lat="45.92262" lon="6.49004">
        <ele>1469.897</ele>
        <time>2026-03-21T08:43:43Z</time>
      </trkpt>
      <trkpt lat="45.92266" lon="6.49008">
        <ele>1470.584</ele>
        <time>2026-03-21T08:43:48Z</time>
      </trkpt>
      <trkpt lat="45.92268" lon="6.49011">
        <ele>1470.696</ele>
        <time>2026-03-21T08:43:53Z</time>
      </trkpt>
      <trkpt lat="45.9227" lon="6.49014">
        <ele>1471.076</ele>
        <time>2026-03-21T08:43:58Z</time>
      </trkpt>
      <trkpt lat="45.92274" lon="6.49018">
        <ele>1471.266</ele>
        <time>2026-03-21T08:44:03Z</time>
      </trkpt>
      <trkpt lat="45.92276" lon="6.49023">
        <ele>1471.565</ele>
        <time>2026-03-21T08:44:08Z</time>
      </trkpt>
      <trkpt lat="45.92279" lon="6.49028">
        <ele>1472.594</ele>
        <time>2026-03-21T08:44:13Z</time>
      </trkpt>
      <trkpt lat="45.92282" lon="6.49032">
        <ele>1472.964</ele>
        <time>2026-03-21T08:44:18Z</time>
      </trkpt>
      <trkpt lat="45.92284" lon="6.49035">
        <ele>1473.398</ele>
        <time>2026-03-21T08:44:23Z</time>
      </trkpt>
      <trkpt lat="45.92286" lon="6.49038">
        <ele>1473.176</ele>
        <time>2026-03-21T08:44:28Z</time>
      </trkpt>
      <trkpt lat="45.92289" lon="6.49043">
        <ele>1474.167</ele>
        <time>2026-03-21T08:44:33Z</time>
      </trkpt>
      <trkpt lat="45.92292" lon="6.49046">
        <ele>1475.923</ele>
        <time>2026-03-21T08:44:38Z</time>
      </trkpt>
      <trkpt lat="45.92295" lon="6.4905">
        <ele>1476.93</ele>
        <time>2026-03-21T08:44:43Z</time>
      </trkpt>
      <trkpt lat="45.92298" lon="6.49053">
        <ele>1477.623</ele>
        <time>2026-03-21T08:44:48Z</time>
      </trkpt>
      <trkpt lat="45.92301" lon="6.49057">
        <ele>1477.827</ele>
        <time>2026-03-21T08:44:53Z</time>
      </trkpt>
      <trkpt lat="45.92304" lon="6.49059">
        <ele>1478.857</ele>
        <time>2026-03-21T08:44:58Z</time>
      </trkpt>
      <trkpt lat="45.92308" lon="6.49061">
        <ele>1479.349</ele>
        <time>2026-03-21T08:45:03Z</time>
      </trkpt>
      <trkpt lat="45.92312" lon="6.49062">
        <ele>1481.136</ele>
        <time>2026-03-21T08:45:08Z</time>
      </trkpt>
      <trkpt lat="45.92316" lon="6.49064">
        <ele>1481.93</ele>
        <time>2026-03-21T08:45:13Z</time>
      </trkpt>
      <trkpt lat="45.9232" lon="6.49065">
        <ele>1482.522</ele>
        <time>2026-03-21T08:45:18Z</time>
      </trkpt>
      <trkpt lat="45.92324" lon="6.49066">
        <ele>1482.95</ele>
        <time>2026-03-21T08:45:23Z</time>
      </trkpt>
      <trkpt lat="45.92327" lon="6.49068">
        <ele>1482.961</ele>
        <time>2026-03-21T08:45:28Z</time>
      </trkpt>
      <trkpt lat="45.92331" lon="6.49069">
        <ele>1483.916</ele>
        <time>2026-03-21T08:45:33Z</time>
      </trkpt>
      <trkpt lat="45.92334" lon="6.4907">
        <ele>1485.305</ele>
        <time>2026-03-21T08:45:38Z</time>
      </trkpt>
      <trkpt lat="45.92338" lon="6.49072">
        <ele>1485.751</ele>
        <time>2026-03-21T08:45:43Z</time>
      </trkpt>
      <trkpt lat="45.92342" lon="6.49074">
        <ele>1486.196</ele>
        <time>2026-03-21T08:45:48Z</time>
      </trkpt>
      <trkpt lat="45.92345" lon="6.49076">
        <ele>1486.691</ele>
        <time>2026-03-21T08:45:53Z</time>
      </trkpt>
      <trkpt lat="45.92349" lon="6.49077">
        <ele>1487.353</ele>
        <time>2026-03-21T08:45:58Z</time>
      </trkpt>
      <trkpt lat="45.92352" lon="6.49079">
        <ele>1487.823</ele>
        <time>2026-03-21T08:46:03Z</time>
      </trkpt>
      <trkpt lat="45.92356" lon="6.49081">
        <ele>1488.299</ele>
        <time>2026-03-21T08:46:08Z</time>
      </trkpt>
      <trkpt lat="45.9236" lon="6.49083">
        <ele>1488.786</ele>
        <time>2026-03-21T08:46:13Z</time>
      </trkpt>
      <trkpt lat="45.92364" lon="6.49085">
        <ele>1490.157</ele>
        <time>2026-03-21T08:46:18Z</time>
      </trkpt>
      <trkpt lat="45.92367" lon="6.49086">
        <ele>1490.848</ele>
        <time>2026-03-21T08:46:23Z</time>
      </trkpt>
      <trkpt lat="45.92369" lon="6.49088">
        <ele>1491.527</ele>
        <time>2026-03-21T08:46:28Z</time>
      </trkpt>
      <trkpt lat="45.92372" lon="6.49089">
        <ele>1491.646</ele>
        <time>2026-03-21T08:46:33Z</time>
      </trkpt>
      <trkpt lat="45.92376" lon="6.49091">
        <ele>1492.6</ele>
        <time>2026-03-21T08:46:38Z</time>
      </trkpt>
      <trkpt lat="45.92379" lon="6.49092">
        <ele>1492.658</ele>
        <time>2026-03-21T08:46:43Z</time>
      </trkpt>
      <trkpt lat="45.92382" lon="6.49094">
        <ele>1492.638</ele>
        <time>2026-03-21T08:46:48Z</time>
      </trkpt>
      <trkpt lat="45.92386" lon="6.49096">
        <ele>1492.863</ele>
        <time>2026-03-21T08:46:53Z</time>
      </trkpt>
      <trkpt lat="45.92389" lon="6.49098">
        <ele>1493.315</ele>
        <time>2026-03-21T08:46:58Z</time>
      </trkpt>
      <trkpt lat="45.92393" lon="6.491">
        <ele>1494.106</ele>
        <time>2026-03-21T08:47:03Z</time>
      </trkpt>
      <trkpt lat="45.92396" lon="6.49101">
        <ele>1493.295</ele>
        <time>2026-03-21T08:47:08Z</time>
      </trkpt>
      <trkpt lat="45.924" lon="6.49103">
        <ele>1493.721</ele>
        <time>2026-03-21T08:47:13Z</time>
      </trkpt>
      <trkpt lat="45.92402" lon="6.49105">
        <ele>1494.06</ele>
        <time>2026-03-21T08:47:18Z</time>
      </trkpt>
      <trkpt lat="45.92405" lon="6.49107">
        <ele>1494.967</ele>
        <time>2026-03-21T08:47:23Z</time>
      </trkpt>
      <trkpt lat="45.92408" lon="6.49108">
        <ele>1496.379</ele>
        <time>2026-03-21T08:47:28Z</time>
      </trkpt>
      <trkpt lat="45.92412" lon="6.4911">
        <ele>1496.886</ele>
        <time>2026-03-21T08:47:33Z</time>
      </trkpt>
      <trkpt lat="45.92415" lon="6.49112">
        <ele>1498.368</ele>
        <time>2026-03-21T08:47:38Z</time>
      </trkpt>
      <trkpt lat="45.92418" lon="6.49112">
        <ele>1499.936</ele>
        <time>2026-03-21T08:47:43Z</time>
      </trkpt>
      <trkpt lat="45.92422" lon="6.49112">
        <ele>1500.072</ele>
        <time>2026-03-21T08:47:48Z</time>
      </trkpt>
      <trkpt lat="45.92426" lon="6.49112">
        <ele>1500.719</ele>
        <time>2026-03-21T08:47:53Z</time>
      </trkpt>
      <trkpt lat="45.92429" lon="6.49111">
        <ele>1501.375</ele>
        <time>2026-03-21T08:47:58Z</time>
      </trkpt>
      <trkpt lat="45.92433" lon="6.4911">
        <ele>1501.576</ele>
        <time>2026-03-21T08:48:03Z</time>
      </trkpt>
      <trkpt lat="45.92437" lon="6.4911">
        <ele>1502.125</ele>
        <time>2026-03-21T08:48:08Z</time>
      </trkpt>
      <trkpt lat="45.92441" lon="6.49111">
        <ele>1503.143</ele>
        <time>2026-03-21T08:48:13Z</time>
      </trkpt>
      <trkpt lat="45.92444" lon="6.49113">
        <ele>1502.559</ele>
        <time>2026-03-21T08:48:18Z</time>
      </trkpt>
      <trkpt lat="45.92446" lon="6.49114">
        <ele>1501.885</ele>
        <time>2026-03-21T08:48:23Z</time>
      </trkpt>
      <trkpt lat="45.92449" lon="6.49117">
        <ele>1503.01</ele>
        <time>2026-03-21T08:48:28Z</time>
      </trkpt>
      <trkpt lat="45.92451" lon="6.4912">
        <ele>1503.071</ele>
        <time>2026-03-21T08:48:33Z</time>
      </trkpt>
      <trkpt lat="45.92453" lon="6.49124">
        <ele>1503.008</ele>
        <time>2026-03-21T08:48:38Z</time>
      </trkpt>
      <trkpt lat="45.92455" lon="6.49128">
        <ele>1503.677</ele>
        <time>2026-03-21T08:48:43Z</time>
      </trkpt>
      <trkpt lat="45.92457" lon="6.49132">
        <ele>1502.934</ele>
        <time>2026-03-21T08:48:48Z</time>
      </trkpt>
      <trkpt lat="45.92459" lon="6.49135">
        <ele>1504.169</ele>
        <time>2026-03-21T08:48:53Z</time>
      </trkpt>
      <trkpt lat="45.9246" lon="6.49139">
        <ele>1504.002</ele>
        <time>2026-03-21T08:48:58Z</time>
      </trkpt>
      <trkpt lat="45.92462" lon="6.49143">
        <ele>1504.156</ele>
        <time>2026-03-21T08:49:03Z</time>
      </trkpt>
      <trkpt lat="45.92465" lon="6.49148">
        <ele>1505.472</ele>
        <time>2026-03-21T08:49:08Z</time>
      </trkpt>
      <trkpt lat="45.92468" lon="6.49152">
        <ele>1506.131</ele>
        <time>2026-03-21T08:49:13Z</time>
      </trkpt>
      <trkpt lat="45.92471" lon="6.49156">
        <ele>1506.137</ele>
        <time>2026-03-21T08:49:18Z</time>
      </trkpt>
      <trkpt lat="45.92474" lon="6.49159">
        <ele>1506.781</ele>
        <time>2026-03-21T08:49:23Z</time>
      </trkpt>
      <trkpt lat="45.92476" lon="6.49163">
        <ele>1506.898</ele>
        <time>2026-03-21T08:49:28Z</time>
      </trkpt>
      <trkpt lat="45.92478" lon="6.49167">
        <ele>1506.955</ele>
        <time>2026-03-21T08:49:33Z</time>
      </trkpt>
      <trkpt lat="45.9248" lon="6.49172">
        <ele>1505.822</ele>
        <time>2026-03-21T08:49:38Z</time>
      </trkpt>
      <trkpt lat="45.92482" lon="6.49175">
        <ele>1505.498</ele>
        <time>2026-03-21T08:49:43Z</time>
      </trkpt>
      <trkpt lat="45.92483" lon="6.49176">
        <ele>1505.919</ele>
        <time>2026-03-21T08:49:48Z</time>
      </trkpt>
      <trkpt lat="45.92487" lon="6.4918">
        <ele>1505.958</ele>
        <time>2026-03-21T08:49:53Z</time>
      </trkpt>
      <trkpt lat="45.92491" lon="6.49184">
        <ele>1505.606</ele>
        <time>2026-03-21T08:49:58Z</time>
      </trkpt>
      <trkpt lat="45.92495" lon="6.4919">
        <ele>1505.062</ele>
        <time>2026-03-21T08:50:03Z</time>
      </trkpt>
      <trkpt lat="45.92501" lon="6.49193">
        <ele>1504.054</ele>
        <time>2026-03-21T08:50:08Z</time>
      </trkpt>
      <trkpt lat="45.92506" lon="6.49197">
        <ele>1503.109</ele>
        <time>2026-03-21T08:50:13Z</time>
      </trkpt>
      <trkpt lat="45.92512" lon="6.492">
        <ele>1503.779</ele>
        <time>2026-03-21T08:50:18Z</time>
      </trkpt>
      <trkpt lat="45.92517" lon="6.49201">
        <ele>1505.191</ele>
        <time>2026-03-21T08:50:23Z</time>
      </trkpt>
      <trkpt lat="45.92522" lon="6.49202">
        <ele>1506.703</ele>
        <time>2026-03-21T08:50:28Z</time>
      </trkpt>
      <trkpt lat="45.92525" lon="6.49201">
        <ele>1507.595</ele>
        <time>2026-03-21T08:50:33Z</time>
      </trkpt>
      <trkpt lat="45.92526" lon="6.492">
        <ele>1507.523</ele>
        <time>2026-03-21T08:50:38Z</time>
      </trkpt>
      <trkpt lat="45.92526" lon="6.492">
        <ele>1507.524</ele>
        <time>2026-03-21T08:50:43Z</time>
      </trkpt>
      <trkpt lat="45.92526" lon="6.492">
        <ele>1507.509</ele>
        <time>2026-03-21T08:50:48Z</time>
      </trkpt>
      <trkpt lat="45.92526" lon="6.492">
        <ele>1507.081</ele>
        <time>2026-03-21T08:50:53Z</time>
      </trkpt>
      <trkpt lat="45.92526" lon="6.492">
        <ele>1507.045</ele>
        <time>2026-03-21T08:50:58Z</time>
      </trkpt>
      <trkpt lat="45.92526" lon="6.492">
        <ele>1507.028</ele>
        <time>2026-03-21T08:51:03Z</time>
      </trkpt>
      <trkpt lat="45.92526" lon="6.492">
        <ele>1507.013</ele>
        <time>2026-03-21T08:51:08Z</time>
      </trkpt>
      <trkpt lat="45.92526" lon="6.492">
        <ele>1507.002</ele>
        <time>2026-03-21T08:51:13Z</time>
      </trkpt>
      <trkpt lat="45.92526" lon="6.492">
        <ele>1506.997</ele>
        <time>2026-03-21T08:51:18Z</time>
      </trkpt>
      <trkpt lat="45.92526" lon="6.492">
        <ele>1506.99</ele>
        <time>2026-03-21T08:51:23Z</time>
      </trkpt>
      <trkpt lat="45.92525" lon="6.49201">
        <ele>1505.933</ele>
        <time>2026-03-21T08:51:28Z</time>
      </trkpt>
      <trkpt lat="45.92527" lon="6.49205">
        <ele>1505.447</ele>
        <time>2026-03-21T08:51:33Z</time>
      </trkpt>
      <trkpt lat="45.92529" lon="6.49206">
        <ele>1505.92</ele>
        <time>2026-03-21T08:51:38Z</time>
      </trkpt>
      <trkpt lat="45.9253" lon="6.49207">
        <ele>1505.511</ele>
        <time>2026-03-21T08:51:43Z</time>
      </trkpt>
      <trkpt lat="45.92534" lon="6.49209">
        <ele>1505.182</ele>
        <time>2026-03-21T08:51:48Z</time>
      </trkpt>
      <trkpt lat="45.92538" lon="6.49212">
        <ele>1504.845</ele>
        <time>2026-03-21T08:51:53Z</time>
      </trkpt>
      <trkpt lat="45.92542" lon="6.49214">
        <ele>1504.67</ele>
        <time>2026-03-21T08:51:58Z</time>
      </trkpt>
      <trkpt lat="45.92544" lon="6.49215">
        <ele>1504.888</ele>
        <time>2026-03-21T08:52:03Z</time>
      </trkpt>
      <trkpt lat="45.92548" lon="6.49216">
        <ele>1505.065</ele>
        <time>2026-03-21T08:52:08Z</time>
      </trkpt>
      <trkpt lat="45.92553" lon="6.49217">
        <ele>1505.526</ele>
        <time>2026-03-21T08:52:13Z</time>
      </trkpt>
      <trkpt lat="45.92556" lon="6.49218">
        <ele>1505.429</ele>
        <time>2026-03-21T08:52:18Z</time>
      </trkpt>
      <trkpt lat="45.92561" lon="6.49218">
        <ele>1506.026</ele>
        <time>2026-03-21T08:52:23Z</time>
      </trkpt>
      <trkpt lat="45.92566" lon="6.49219">
        <ele>1505.62</ele>
        <time>2026-03-21T08:52:28Z</time>
      </trkpt>
      <trkpt lat="45.9257" lon="6.49219">
        <ele>1505.993</ele>
        <time>2026-03-21T08:52:33Z</time>
      </trkpt>
      <trkpt lat="45.92571" lon="6.49219">
        <ele>1505.761</ele>
        <time>2026-03-21T08:52:38Z</time>
      </trkpt>
      <trkpt lat="45.92573" lon="6.4922">
        <ele>1506.177</ele>
        <time>2026-03-21T08:52:43Z</time>
      </trkpt>
      <trkpt lat="45.92574" lon="6.49219">
        <ele>1505.97</ele>
        <time>2026-03-21T08:52:48Z</time>
      </trkpt>
      <trkpt lat="45.92574" lon="6.49219">
        <ele>1505.962</ele>
        <time>2026-03-21T08:52:53Z</time>
      </trkpt>
      <trkpt lat="45.92573" lon="6.49217">
        <ele>1506.574</ele>
        <time>2026-03-21T08:52:58Z</time>
      </trkpt>
      <trkpt lat="45.92573" lon="6.49218">
        <ele>1505.674</ele>
        <time>2026-03-21T08:53:03Z</time>
      </trkpt>
      <trkpt lat="45.92576" lon="6.4922">
        <ele>1505.731</ele>
        <time>2026-03-21T08:53:08Z</time>
      </trkpt>
      <trkpt lat="45.9258" lon="6.49221">
        <ele>1505.406</ele>
        <time>2026-03-21T08:53:13Z</time>
      </trkpt>
      <trkpt lat="45.92584" lon="6.49221">
        <ele>1504.415</ele>
        <time>2026-03-21T08:53:18Z</time>
      </trkpt>
      <trkpt lat="45.92589" lon="6.49222">
        <ele>1503.619</ele>
        <time>2026-03-21T08:53:23Z</time>
      </trkpt>
      <trkpt lat="45.92592" lon="6.49224">
        <ele>1503.697</ele>
        <time>2026-03-21T08:53:28Z</time>
      </trkpt>
      <trkpt lat="45.92594" lon="6.49226">
        <ele>1503.659</ele>
        <time>2026-03-21T08:53:33Z</time>
      </trkpt>
      <trkpt lat="45.92595" lon="6.49226">
        <ele>1504.041</ele>
        <time>2026-03-21T08:53:38Z</time>
      </trkpt>
      <trkpt lat="45.92597" lon="6.49227">
        <ele>1503.338</ele>
        <time>2026-03-21T08:53:43Z</time>
      </trkpt>
      <trkpt lat="45.926" lon="6.49228">
        <ele>1503.26</ele>
        <time>2026-03-21T08:53:48Z</time>
      </trkpt>
      <trkpt lat="45.926" lon="6.49228">
        <ele>1503.119</ele>
        <time>2026-03-21T08:53:53Z</time>
      </trkpt>
      <trkpt lat="45.92604" lon="6.49228">
        <ele>1503.209</ele>
        <time>2026-03-21T08:53:58Z</time>
      </trkpt>
      <trkpt lat="45.92606" lon="6.49229">
        <ele>1503.564</ele>
        <time>2026-03-21T08:54:03Z</time>
      </trkpt>
      <trkpt lat="45.92607" lon="6.49229">
        <ele>1503.441</ele>
        <time>2026-03-21T08:54:08Z</time>
      </trkpt>
      <trkpt lat="45.92607" lon="6.49229">
        <ele>1503.423</ele>
        <time>2026-03-21T08:54:13Z</time>
      </trkpt>
      <trkpt lat="45.92607" lon="6.49229">
        <ele>1503.415</ele>
        <time>2026-03-21T08:54:18Z</time>
      </trkpt>
      <trkpt lat="45.92607" lon="6.49229">
        <ele>1503.406</ele>
        <time>2026-03-21T08:54:23Z</time>
      </trkpt>
      <trkpt lat="45.92607" lon="6.49229">
        <ele>1503.389</ele>
        <time>2026-03-21T08:54:28Z</time>
      </trkpt>
      <trkpt lat="45.92607" lon="6.49229">
        <ele>1503.379</ele>
        <time>2026-03-21T08:54:33Z</time>
      </trkpt>
      <trkpt lat="45.92607" lon="6.49229">
        <ele>1503.37</ele>
        <time>2026-03-21T08:54:38Z</time>
      </trkpt>
      <trkpt lat="45.92607" lon="6.49229">
        <ele>1503.139</ele>
        <time>2026-03-21T08:54:43Z</time>
      </trkpt>
      <trkpt lat="45.92609" lon="6.49227">
        <ele>1502.616</ele>
        <time>2026-03-21T08:54:48Z</time>
      </trkpt>
      <trkpt lat="45.92611" lon="6.49227">
        <ele>1501.859</ele>
        <time>2026-03-21T08:54:53Z</time>
      </trkpt>
      <trkpt lat="45.92614" lon="6.49229">
        <ele>1500.935</ele>
        <time>2026-03-21T08:54:58Z</time>
      </trkpt>
      <trkpt lat="45.92614" lon="6.49229">
        <ele>1500.923</ele>
        <time>2026-03-21T08:55:03Z</time>
      </trkpt>
      <trkpt lat="45.92614" lon="6.49229">
        <ele>1500.907</ele>
        <time>2026-03-21T08:55:08Z</time>
      </trkpt>
      <trkpt lat="45.92614" lon="6.4923">
        <ele>1500.886</ele>
        <time>2026-03-21T08:55:13Z</time>
      </trkpt>
      <trkpt lat="45.92617" lon="6.49231">
        <ele>1500.819</ele>
        <time>2026-03-21T08:55:18Z</time>
      </trkpt>
      <trkpt lat="45.92621" lon="6.49232">
        <ele>1501.008</ele>
        <time>2026-03-21T08:55:23Z</time>
      </trkpt>
      <trkpt lat="45.92622" lon="6.49233">
        <ele>1500.612</ele>
        <time>2026-03-21T08:55:28Z</time>
      </trkpt>
      <trkpt lat="45.92622" lon="6.49234">
        <ele>1500.735</ele>
        <time>2026-03-21T08:55:33Z</time>
      </trkpt>
      <trkpt lat="45.92625" lon="6.49236">
        <ele>1499.883</ele>
        <time>2026-03-21T08:55:38Z</time>
      </trkpt>
      <trkpt lat="45.92631" lon="6.4924">
        <ele>1499.528</ele>
        <time>2026-03-21T08:55:43Z</time>
      </trkpt>
      <trkpt lat="45.92636" lon="6.49244">
        <ele>1498.416</ele>
        <time>2026-03-21T08:55:48Z</time>
      </trkpt>
      <trkpt lat="45.9264" lon="6.49248">
        <ele>1497.516</ele>
        <time>2026-03-21T08:55:53Z</time>
      </trkpt>
      <trkpt lat="45.92643" lon="6.49252">
        <ele>1497.642</ele>
        <time>2026-03-21T08:55:58Z</time>
      </trkpt>
      <trkpt lat="45.92643" lon="6.49253">
        <ele>1497.621</ele>
        <time>2026-03-21T08:56:03Z</time>
      </trkpt>
      <trkpt lat="45.92643" lon="6.49254">
        <ele>1497.459</ele>
        <time>2026-03-21T08:56:08Z</time>
      </trkpt>
      <trkpt lat="45.92643" lon="6.49254">
        <ele>1497.488</ele>
        <time>2026-03-21T08:56:13Z</time>
      </trkpt>
      <trkpt lat="45.92643" lon="6.49254">
        <ele>1497.483</ele>
        <time>2026-03-21T08:56:18Z</time>
      </trkpt>
      <trkpt lat="45.92644" lon="6.49256">
        <ele>1497.141</ele>
        <time>2026-03-21T08:56:23Z</time>
      </trkpt>
      <trkpt lat="45.92648" lon="6.49258">
        <ele>1496.936</ele>
        <time>2026-03-21T08:56:28Z</time>
      </trkpt>
      <trkpt lat="45.92652" lon="6.49261">
        <ele>1497.297</ele>
        <time>2026-03-21T08:56:33Z</time>
      </trkpt>
      <trkpt lat="45.92657" lon="6.49263">
        <ele>1496.901</ele>
        <time>2026-03-21T08:56:38Z</time>
      </trkpt>
      <trkpt lat="45.92662" lon="6.49266">
        <ele>1496.541</ele>
        <time>2026-03-21T08:56:43Z</time>
      </trkpt>
      <trkpt lat="45.92667" lon="6.4927">
        <ele>1495.417</ele>
        <time>2026-03-21T08:56:48Z</time>
      </trkpt>
      <trkpt lat="45.92673" lon="6.49273">
        <ele>1495.687</ele>
        <time>2026-03-21T08:56:53Z</time>
      </trkpt>
      <trkpt lat="45.92678" lon="6.49276">
        <ele>1496.414</ele>
        <time>2026-03-21T08:56:58Z</time>
      </trkpt>
      <trkpt lat="45.92683" lon="6.49278">
        <ele>1496.19</ele>
        <time>2026-03-21T08:57:03Z</time>
      </trkpt>
      <trkpt lat="45.92688" lon="6.49282">
        <ele>1497.055</ele>
        <time>2026-03-21T08:57:08Z</time>
      </trkpt>
      <trkpt lat="45.92692" lon="6.49285">
        <ele>1496.229</ele>
        <time>2026-03-21T08:57:13Z</time>
      </trkpt>
      <trkpt lat="45.92695" lon="6.49289">
        <ele>1495.51</ele>
        <time>2026-03-21T08:57:18Z</time>
      </trkpt>
      <trkpt lat="45.92698" lon="6.49293">
        <ele>1494.949</ele>
        <time>2026-03-21T08:57:23Z</time>
      </trkpt>
      <trkpt lat="45.92701" lon="6.49298">
        <ele>1494.094</ele>
        <time>2026-03-21T08:57:28Z</time>
      </trkpt>
      <trkpt lat="45.92703" lon="6.49302">
        <ele>1494.562</ele>
        <time>2026-03-21T08:57:33Z</time>
      </trkpt>
      <trkpt lat="45.92706" lon="6.49307">
        <ele>1493.998</ele>
        <time>2026-03-21T08:57:38Z</time>
      </trkpt>
      <trkpt lat="45.92709" lon="6.49311">
        <ele>1494.4</ele>
        <time>2026-03-21T08:57:43Z</time>
      </trkpt>
      <trkpt lat="45.92711" lon="6.49316">
        <ele>1495.14</ele>
        <time>2026-03-21T08:57:48Z</time>
      </trkpt>
      <trkpt lat="45.92713" lon="6.49321">
        <ele>1494.89</ele>
        <time>2026-03-21T08:57:53Z</time>
      </trkpt>
      <trkpt lat="45.92713" lon="6.49327">
        <ele>1494.555</ele>
        <time>2026-03-21T08:57:58Z</time>
      </trkpt>
      <trkpt lat="45.92714" lon="6.49333">
        <ele>1495.115</ele>
        <time>2026-03-21T08:58:03Z</time>
      </trkpt>
      <trkpt lat="45.92715" lon="6.49339">
        <ele>1495.151</ele>
        <time>2026-03-21T08:58:08Z</time>
      </trkpt>
      <trkpt lat="45.92716" lon="6.49344">
        <ele>1496.263</ele>
        <time>2026-03-21T08:58:13Z</time>
      </trkpt>
      <trkpt lat="45.92717" lon="6.49349">
        <ele>1497.222</ele>
        <time>2026-03-21T08:58:18Z</time>
      </trkpt>
      <trkpt lat="45.92719" lon="6.49355">
        <ele>1497.085</ele>
        <time>2026-03-21T08:58:23Z</time>
      </trkpt>
      <trkpt lat="45.9272" lon="6.49361">
        <ele>1496.987</ele>
        <time>2026-03-21T08:58:28Z</time>
      </trkpt>
      <trkpt lat="45.92722" lon="6.49365">
        <ele>1498.109</ele>
        <time>2026-03-21T08:58:33Z</time>
      </trkpt>
      <trkpt lat="45.92724" lon="6.49369">
        <ele>1498.688</ele>
        <time>2026-03-21T08:58:38Z</time>
      </trkpt>
      <trkpt lat="45.92726" lon="6.49373">
        <ele>1498.54</ele>
        <time>2026-03-21T08:58:43Z</time>
      </trkpt>
      <trkpt lat="45.92729" lon="6.49378">
        <ele>1499.474</ele>
        <time>2026-03-21T08:58:48Z</time>
      </trkpt>
      <trkpt lat="45.92732" lon="6.49383">
        <ele>1500.838</ele>
        <time>2026-03-21T08:58:53Z</time>
      </trkpt>
      <trkpt lat="45.92734" lon="6.49387">
        <ele>1500.135</ele>
        <time>2026-03-21T08:58:58Z</time>
      </trkpt>
      <trkpt lat="45.92734" lon="6.49394">
        <ele>1500.628</ele>
        <time>2026-03-21T08:59:03Z</time>
      </trkpt>
      <trkpt lat="45.92734" lon="6.49399">
        <ele>1500.211</ele>
        <time>2026-03-21T08:59:08Z</time>
      </trkpt>
      <trkpt lat="45.92735" lon="6.49404">
        <ele>1500.36</ele>
        <time>2026-03-21T08:59:13Z</time>
      </trkpt>
      <trkpt lat="45.92735" lon="6.49409">
        <ele>1501.477</ele>
        <time>2026-03-21T08:59:18Z</time>
      </trkpt>
      <trkpt lat="45.92734" lon="6.49414">
        <ele>1502.111</ele>
        <time>2026-03-21T08:59:23Z</time>
      </trkpt>
      <trkpt lat="45.92732" lon="6.49419">
        <ele>1501.757</ele>
        <time>2026-03-21T08:59:28Z</time>
      </trkpt>
      <trkpt lat="45.92732" lon="6.49423">
        <ele>1502.999</ele>
        <time>2026-03-21T08:59:33Z</time>
      </trkpt>
      <trkpt lat="45.92732" lon="6.49424">
        <ele>1503.074</ele>
        <time>2026-03-21T08:59:38Z</time>
      </trkpt>
      <trkpt lat="45.92732" lon="6.49424">
        <ele>1503.077</ele>
        <time>2026-03-21T08:59:43Z</time>
      </trkpt>
      <trkpt lat="45.92732" lon="6.49424">
        <ele>1503.07</ele>
        <time>2026-03-21T08:59:48Z</time>
      </trkpt>
      <trkpt lat="45.92732" lon="6.49424">
        <ele>1503.078</ele>
        <time>2026-03-21T08:59:53Z</time>
      </trkpt>
      <trkpt lat="45.92732" lon="6.49424">
        <ele>1503.081</ele>
        <time>2026-03-21T08:59:58Z</time>
      </trkpt>
      <trkpt lat="45.92732" lon="6.49424">
        <ele>1503.079</ele>
        <time>2026-03-21T09:00:03Z</time>
      </trkpt>
      <trkpt lat="45.92732" lon="6.49424">
        <ele>1502.572</ele>
        <time>2026-03-21T09:00:08Z</time>
      </trkpt>
      <trkpt lat="45.92732" lon="6.49425">
        <ele>1502.561</ele>
        <time>2026-03-21T09:00:13Z</time>
      </trkpt>
      <trkpt lat="45.92732" lon="6.49425">
        <ele>1502.552</ele>
        <time>2026-03-21T09:00:18Z</time>
      </trkpt>
      <trkpt lat="45.92732" lon="6.49425">
        <ele>1502.883</ele>
        <time>2026-03-21T09:00:23Z</time>
      </trkpt>
      <trkpt lat="45.92732" lon="6.49425">
        <ele>1502.878</ele>
        <time>2026-03-21T09:00:28Z</time>
      </trkpt>
      <trkpt lat="45.92732" lon="6.49425">
        <ele>1502.875</ele>
        <time>2026-03-21T09:00:33Z</time>
      </trkpt>
      <trkpt lat="45.92732" lon="6.49425">
        <ele>1502.875</ele>
        <time>2026-03-21T09:00:38Z</time>
      </trkpt>
      <trkpt lat="45.92732" lon="6.49425">
        <ele>1502.881</ele>
        <time>2026-03-21T09:00:43Z</time>
      </trkpt>
      <trkpt lat="45.92732" lon="6.49425">
        <ele>1502.929</ele>
        <time>2026-03-21T09:00:48Z</time>
      </trkpt>
      <trkpt lat="45.92732" lon="6.49425">
        <ele>1502.936</ele>
        <time>2026-03-21T09:00:53Z</time>
      </trkpt>
      <trkpt lat="45.92732" lon="6.49425">
        <ele>1502.945</ele>
        <time>2026-03-21T09:00:58Z</time>
      </trkpt>
      <trkpt lat="45.92732" lon="6.49425">
        <ele>1502.979</ele>
        <time>2026-03-21T09:01:03Z</time>
      </trkpt>
      <trkpt lat="45.92732" lon="6.49425">
        <ele>1503.096</ele>
        <time>2026-03-21T09:01:08Z</time>
      </trkpt>
      <trkpt lat="45.92732" lon="6.49425">
        <ele>1503.6</ele>
        <time>2026-03-21T09:01:13Z</time>
      </trkpt>
      <trkpt lat="45.92732" lon="6.49425">
        <ele>1503.601</ele>
        <time>2026-03-21T09:01:18Z</time>
      </trkpt>
      <trkpt lat="45.92732" lon="6.49425">
        <ele>1503.602</ele>
        <time>2026-03-21T09:01:23Z</time>
      </trkpt>
      <trkpt lat="45.92732" lon="6.49425">
        <ele>1503.606</ele>
        <time>2026-03-21T09:01:28Z</time>
      </trkpt>
      <trkpt lat="45.92732" lon="6.49425">
        <ele>1503.607</ele>
        <time>2026-03-21T09:01:33Z</time>
      </trkpt>
      <trkpt lat="45.92732" lon="6.49425">
        <ele>1503.665</ele>
        <time>2026-03-21T09:01:38Z</time>
      </trkpt>
      <trkpt lat="45.92732" lon="6.49425">
        <ele>1503.664</ele>
        <time>2026-03-21T09:01:43Z</time>
      </trkpt>
      <trkpt lat="45.92732" lon="6.49425">
        <ele>1503.244</ele>
        <time>2026-03-21T09:01:48Z</time>
      </trkpt>
      <trkpt lat="45.92732" lon="6.49425">
        <ele>1503.348</ele>
        <time>2026-03-21T09:01:53Z</time>
      </trkpt>
      <trkpt lat="45.92732" lon="6.49425">
        <ele>1503.126</ele>
        <time>2026-03-21T09:01:58Z</time>
      </trkpt>
      <trkpt lat="45.92732" lon="6.49425">
        <ele>1503.145</ele>
        <time>2026-03-21T09:02:03Z</time>
      </trkpt>
      <trkpt lat="45.92732" lon="6.49425">
        <ele>1503.14</ele>
        <time>2026-03-21T09:02:08Z</time>
      </trkpt>
      <trkpt lat="45.92732" lon="6.49425">
        <ele>1503.087</ele>
        <time>2026-03-21T09:02:13Z</time>
      </trkpt>
      <trkpt lat="45.92732" lon="6.49425">
        <ele>1503.082</ele>
        <time>2026-03-21T09:02:18Z</time>
      </trkpt>
      <trkpt lat="45.9273" lon="6.49424">
        <ele>1503.663</ele>
        <time>2026-03-21T09:02:23Z</time>
      </trkpt>
      <trkpt lat="45.92729" lon="6.49427">
        <ele>1504.056</ele>
        <time>2026-03-21T09:02:28Z</time>
      </trkpt>
      <trkpt lat="45.92727" lon="6.49432">
        <ele>1505.156</ele>
        <time>2026-03-21T09:02:33Z</time>
      </trkpt>
      <trkpt lat="45.92725" lon="6.49437">
        <ele>1504.959</ele>
        <time>2026-03-21T09:02:38Z</time>
      </trkpt>
      <trkpt lat="45.92724" lon="6.4944">
        <ele>1506.25</ele>
        <time>2026-03-21T09:02:43Z</time>
      </trkpt>
      <trkpt lat="45.92721" lon="6.49442">
        <ele>1506.609</ele>
        <time>2026-03-21T09:02:48Z</time>
      </trkpt>
      <trkpt lat="45.9272" lon="6.49443">
        <ele>1506.342</ele>
        <time>2026-03-21T09:02:53Z</time>
      </trkpt>
      <trkpt lat="45.9272" lon="6.49443">
        <ele>1506.364</ele>
        <time>2026-03-21T09:02:58Z</time>
      </trkpt>
      <trkpt lat="45.9272" lon="6.49444">
        <ele>1506.841</ele>
        <time>2026-03-21T09:03:03Z</time>
      </trkpt>
      <trkpt lat="45.92718" lon="6.49444">
        <ele>1506.934</ele>
        <time>2026-03-21T09:03:08Z</time>
      </trkpt>
      <trkpt lat="45.92716" lon="6.49445">
        <ele>1507.267</ele>
        <time>2026-03-21T09:03:13Z</time>
      </trkpt>
      <trkpt lat="45.92716" lon="6.49445">
        <ele>1507.294</ele>
        <time>2026-03-21T09:03:18Z</time>
      </trkpt>
      <trkpt lat="45.92714" lon="6.49445">
        <ele>1507.268</ele>
        <time>2026-03-21T09:03:23Z</time>
      </trkpt>
      <trkpt lat="45.92712" lon="6.49445">
        <ele>1507.596</ele>
        <time>2026-03-21T09:03:28Z</time>
      </trkpt>
      <trkpt lat="45.92711" lon="6.49446">
        <ele>1507.197</ele>
        <time>2026-03-21T09:03:33Z</time>
      </trkpt>
      <trkpt lat="45.92709" lon="6.49446">
        <ele>1507.549</ele>
        <time>2026-03-21T09:03:38Z</time>
      </trkpt>
      <trkpt lat="45.92708" lon="6.49446">
        <ele>1507.082</ele>
        <time>2026-03-21T09:03:43Z</time>
      </trkpt>
      <trkpt lat="45.92706" lon="6.49448">
        <ele>1506.504</ele>
        <time>2026-03-21T09:03:48Z</time>
      </trkpt>
      <trkpt lat="45.92703" lon="6.49448">
        <ele>1506.619</ele>
        <time>2026-03-21T09:03:53Z</time>
      </trkpt>
      <trkpt lat="45.927" lon="6.49449">
        <ele>1506.156</ele>
        <time>2026-03-21T09:03:58Z</time>
      </trkpt>
      <trkpt lat="45.92697" lon="6.49451">
        <ele>1505.532</ele>
        <time>2026-03-21T09:04:03Z</time>
      </trkpt>
      <trkpt lat="45.92694" lon="6.49452">
        <ele>1505.99</ele>
        <time>2026-03-21T09:04:08Z</time>
      </trkpt>
      <trkpt lat="45.9269" lon="6.49454">
        <ele>1505.623</ele>
        <time>2026-03-21T09:04:13Z</time>
      </trkpt>
      <trkpt lat="45.92688" lon="6.49455">
        <ele>1505.231</ele>
        <time>2026-03-21T09:04:18Z</time>
      </trkpt>
      <trkpt lat="45.92687" lon="6.49455">
        <ele>1504.958</ele>
        <time>2026-03-21T09:04:23Z</time>
      </trkpt>
      <trkpt lat="45.92685" lon="6.49456">
        <ele>1506.452</ele>
        <time>2026-03-21T09:04:28Z</time>
      </trkpt>
      <trkpt lat="45.92684" lon="6.49457">
        <ele>1507.669</ele>
        <time>2026-03-21T09:04:33Z</time>
      </trkpt>
      <trkpt lat="45.92684" lon="6.49457">
        <ele>1507.756</ele>
        <time>2026-03-21T09:04:38Z</time>
      </trkpt>
      <trkpt lat="45.92684" lon="6.49457">
        <ele>1507.751</ele>
        <time>2026-03-21T09:04:43Z</time>
      </trkpt>
      <trkpt lat="45.92684" lon="6.49459">
        <ele>1507.923</ele>
        <time>2026-03-21T09:04:48Z</time>
      </trkpt>
      <trkpt lat="45.92682" lon="6.49462">
        <ele>1506.855</ele>
        <time>2026-03-21T09:04:53Z</time>
      </trkpt>
      <trkpt lat="45.92681" lon="6.49464">
        <ele>1506.475</ele>
        <time>2026-03-21T09:04:58Z</time>
      </trkpt>
      <trkpt lat="45.92681" lon="6.49465">
        <ele>1506.469</ele>
        <time>2026-03-21T09:05:03Z</time>
      </trkpt>
      <trkpt lat="45.9268" lon="6.49468">
        <ele>1506.986</ele>
        <time>2026-03-21T09:05:08Z</time>
      </trkpt>
      <trkpt lat="45.92677" lon="6.49473">
        <ele>1505.049</ele>
        <time>2026-03-21T09:05:13Z</time>
      </trkpt>
      <trkpt lat="45.92675" lon="6.49476">
        <ele>1505.231</ele>
        <time>2026-03-21T09:05:18Z</time>
      </trkpt>
      <trkpt lat="45.92673" lon="6.49481">
        <ele>1505.326</ele>
        <time>2026-03-21T09:05:23Z</time>
      </trkpt>
      <trkpt lat="45.92671" lon="6.49486">
        <ele>1504.933</ele>
        <time>2026-03-21T09:05:28Z</time>
      </trkpt>
      <trkpt lat="45.92669" lon="6.49489">
        <ele>1503.936</ele>
        <time>2026-03-21T09:05:33Z</time>
      </trkpt>
      <trkpt lat="45.92666" lon="6.49493">
        <ele>1503.54</ele>
        <time>2026-03-21T09:05:38Z</time>
      </trkpt>
      <trkpt lat="45.92665" lon="6.49496">
        <ele>1503.421</ele>
        <time>2026-03-21T09:05:43Z</time>
      </trkpt>
      <trkpt lat="45.92663" lon="6.49501">
        <ele>1504.27</ele>
        <time>2026-03-21T09:05:48Z</time>
      </trkpt>
      <trkpt lat="45.92661" lon="6.49504">
        <ele>1503.413</ele>
        <time>2026-03-21T09:05:53Z</time>
      </trkpt>
      <trkpt lat="45.92659" lon="6.49507">
        <ele>1503.736</ele>
        <time>2026-03-21T09:05:58Z</time>
      </trkpt>
      <trkpt lat="45.92657" lon="6.49512">
        <ele>1502.165</ele>
        <time>2026-03-21T09:06:03Z</time>
      </trkpt>
      <trkpt lat="45.92655" lon="6.49517">
        <ele>1502.67</ele>
        <time>2026-03-21T09:06:08Z</time>
      </trkpt>
      <trkpt lat="45.92654" lon="6.49521">
        <ele>1504.067</ele>
        <time>2026-03-21T09:06:13Z</time>
      </trkpt>
      <trkpt lat="45.92654" lon="6.49524">
        <ele>1503.889</ele>
        <time>2026-03-21T09:06:18Z</time>
      </trkpt>
      <trkpt lat="45.92652" lon="6.49528">
        <ele>1503.696</ele>
        <time>2026-03-21T09:06:23Z</time>
      </trkpt>
      <trkpt lat="45.92651" lon="6.49533">
        <ele>1503.915</ele>
        <time>2026-03-21T09:06:28Z</time>
      </trkpt>
      <trkpt lat="45.9265" lon="6.49538">
        <ele>1504.104</ele>
        <time>2026-03-21T09:06:33Z</time>
      </trkpt>
      <trkpt lat="45.92648" lon="6.49545">
        <ele>1503.781</ele>
        <time>2026-03-21T09:06:38Z</time>
      </trkpt>
      <trkpt lat="45.92647" lon="6.49551">
        <ele>1502.961</ele>
        <time>2026-03-21T09:06:43Z</time>
      </trkpt>
      <trkpt lat="45.92646" lon="6.49557">
        <ele>1502.794</ele>
        <time>2026-03-21T09:06:48Z</time>
      </trkpt>
      <trkpt lat="45.92646" lon="6.49565">
        <ele>1502.887</ele>
        <time>2026-03-21T09:06:53Z</time>
      </trkpt>
      <trkpt lat="45.92645" lon="6.49571">
        <ele>1503.088</ele>
        <time>2026-03-21T09:06:58Z</time>
      </trkpt>
      <trkpt lat="45.92643" lon="6.49576">
        <ele>1502.153</ele>
        <time>2026-03-21T09:07:03Z</time>
      </trkpt>
      <trkpt lat="45.92643" lon="6.4958">
        <ele>1502.116</ele>
        <time>2026-03-21T09:07:08Z</time>
      </trkpt>
      <trkpt lat="45.92642" lon="6.49585">
        <ele>1502.711</ele>
        <time>2026-03-21T09:07:13Z</time>
      </trkpt>
      <trkpt lat="45.92642" lon="6.49588">
        <ele>1503.786</ele>
        <time>2026-03-21T09:07:18Z</time>
      </trkpt>
      <trkpt lat="45.92642" lon="6.49593">
        <ele>1505.105</ele>
        <time>2026-03-21T09:07:23Z</time>
      </trkpt>
      <trkpt lat="45.92641" lon="6.49599">
        <ele>1505.245</ele>
        <time>2026-03-21T09:07:28Z</time>
      </trkpt>
      <trkpt lat="45.92642" lon="6.49603">
        <ele>1506.028</ele>
        <time>2026-03-21T09:07:33Z</time>
      </trkpt>
      <trkpt lat="45.92641" lon="6.49608">
        <ele>1506.55</ele>
        <time>2026-03-21T09:07:38Z</time>
      </trkpt>
      <trkpt lat="45.92641" lon="6.49615">
        <ele>1507.339</ele>
        <time>2026-03-21T09:07:43Z</time>
      </trkpt>
      <trkpt lat="45.92642" lon="6.49622">
        <ele>1509.161</ele>
        <time>2026-03-21T09:07:48Z</time>
      </trkpt>
      <trkpt lat="45.92641" lon="6.49628">
        <ele>1510.037</ele>
        <time>2026-03-21T09:07:53Z</time>
      </trkpt>
      <trkpt lat="45.9264" lon="6.49632">
        <ele>1510.833</ele>
        <time>2026-03-21T09:07:58Z</time>
      </trkpt>
      <trkpt lat="45.92638" lon="6.49636">
        <ele>1511.303</ele>
        <time>2026-03-21T09:08:03Z</time>
      </trkpt>
      <trkpt lat="45.92637" lon="6.49642">
        <ele>1511.938</ele>
        <time>2026-03-21T09:08:08Z</time>
      </trkpt>
      <trkpt lat="45.92635" lon="6.49646">
        <ele>1513.085</ele>
        <time>2026-03-21T09:08:13Z</time>
      </trkpt>
      <trkpt lat="45.92634" lon="6.4965">
        <ele>1512.541</ele>
        <time>2026-03-21T09:08:18Z</time>
      </trkpt>
      <trkpt lat="45.92634" lon="6.49655">
        <ele>1513.629</ele>
        <time>2026-03-21T09:08:23Z</time>
      </trkpt>
      <trkpt lat="45.92634" lon="6.49659">
        <ele>1515.574</ele>
        <time>2026-03-21T09:08:28Z</time>
      </trkpt>
      <trkpt lat="45.92633" lon="6.49665">
        <ele>1515.402</ele>
        <time>2026-03-21T09:08:33Z</time>
      </trkpt>
      <trkpt lat="45.92633" lon="6.4967">
        <ele>1517.252</ele>
        <time>2026-03-21T09:08:38Z</time>
      </trkpt>
      <trkpt lat="45.92633" lon="6.49675">
        <ele>1517.045</ele>
        <time>2026-03-21T09:08:43Z</time>
      </trkpt>
      <trkpt lat="45.92633" lon="6.49679">
        <ele>1516.539</ele>
        <time>2026-03-21T09:08:48Z</time>
      </trkpt>
      <trkpt lat="45.92633" lon="6.49683">
        <ele>1517.682</ele>
        <time>2026-03-21T09:08:53Z</time>
      </trkpt>
      <trkpt lat="45.92633" lon="6.49687">
        <ele>1518.061</ele>
        <time>2026-03-21T09:08:58Z</time>
      </trkpt>
      <trkpt lat="45.92634" lon="6.4969">
        <ele>1517.657</ele>
        <time>2026-03-21T09:09:03Z</time>
      </trkpt>
      <trkpt lat="45.92634" lon="6.49695">
        <ele>1517.683</ele>
        <time>2026-03-21T09:09:08Z</time>
      </trkpt>
      <trkpt lat="45.92636" lon="6.49701">
        <ele>1520.341</ele>
        <time>2026-03-21T09:09:13Z</time>
      </trkpt>
      <trkpt lat="45.92638" lon="6.49706">
        <ele>1520.652</ele>
        <time>2026-03-21T09:09:18Z</time>
      </trkpt>
      <trkpt lat="45.92639" lon="6.49709">
        <ele>1520.142</ele>
        <time>2026-03-21T09:09:23Z</time>
      </trkpt>
      <trkpt lat="45.92641" lon="6.49714">
        <ele>1520.75</ele>
        <time>2026-03-21T09:09:28Z</time>
      </trkpt>
      <trkpt lat="45.92643" lon="6.49719">
        <ele>1521.674</ele>
        <time>2026-03-21T09:09:33Z</time>
      </trkpt>
      <trkpt lat="45.92645" lon="6.49724">
        <ele>1523.174</ele>
        <time>2026-03-21T09:09:38Z</time>
      </trkpt>
      <trkpt lat="45.92647" lon="6.49727">
        <ele>1523.117</ele>
        <time>2026-03-21T09:09:43Z</time>
      </trkpt>
      <trkpt lat="45.92649" lon="6.4973">
        <ele>1523.936</ele>
        <time>2026-03-21T09:09:48Z</time>
      </trkpt>
      <trkpt lat="45.9265" lon="6.49734">
        <ele>1523.227</ele>
        <time>2026-03-21T09:09:53Z</time>
      </trkpt>
      <trkpt lat="45.92651" lon="6.49739">
        <ele>1524.96</ele>
        <time>2026-03-21T09:09:58Z</time>
      </trkpt>
      <trkpt lat="45.92654" lon="6.49743">
        <ele>1525.959</ele>
        <time>2026-03-21T09:10:03Z</time>
      </trkpt>
      <trkpt lat="45.92657" lon="6.49745">
        <ele>1527.857</ele>
        <time>2026-03-21T09:10:08Z</time>
      </trkpt>
      <trkpt lat="45.9266" lon="6.49748">
        <ele>1528.585</ele>
        <time>2026-03-21T09:10:13Z</time>
      </trkpt>
      <trkpt lat="45.92661" lon="6.49751">
        <ele>1528.183</ele>
        <time>2026-03-21T09:10:18Z</time>
      </trkpt>
      <trkpt lat="45.92662" lon="6.49753">
        <ele>1527.706</ele>
        <time>2026-03-21T09:10:23Z</time>
      </trkpt>
      <trkpt lat="45.92663" lon="6.49757">
        <ele>1527.002</ele>
        <time>2026-03-21T09:10:28Z</time>
      </trkpt>
      <trkpt lat="45.92663" lon="6.4976">
        <ele>1528.139</ele>
        <time>2026-03-21T09:10:33Z</time>
      </trkpt>
      <trkpt lat="45.92664" lon="6.49763">
        <ele>1527.988</ele>
        <time>2026-03-21T09:10:38Z</time>
      </trkpt>
      <trkpt lat="45.92664" lon="6.49767">
        <ele>1528.147</ele>
        <time>2026-03-21T09:10:43Z</time>
      </trkpt>
      <trkpt lat="45.92665" lon="6.49771">
        <ele>1528.089</ele>
        <time>2026-03-21T09:10:48Z</time>
      </trkpt>
      <trkpt lat="45.92665" lon="6.49776">
        <ele>1528.236</ele>
        <time>2026-03-21T09:10:53Z</time>
      </trkpt>
      <trkpt lat="45.92665" lon="6.49779">
        <ele>1528.414</ele>
        <time>2026-03-21T09:10:58Z</time>
      </trkpt>
      <trkpt lat="45.92664" lon="6.49782">
        <ele>1529.788</ele>
        <time>2026-03-21T09:11:03Z</time>
      </trkpt>
      <trkpt lat="45.92665" lon="6.49786">
        <ele>1530.715</ele>
        <time>2026-03-21T09:11:08Z</time>
      </trkpt>
      <trkpt lat="45.92666" lon="6.49789">
        <ele>1531.261</ele>
        <time>2026-03-21T09:11:13Z</time>
      </trkpt>
      <trkpt lat="45.92666" lon="6.49794">
        <ele>1530.94</ele>
        <time>2026-03-21T09:11:18Z</time>
      </trkpt>
      <trkpt lat="45.92667" lon="6.49796">
        <ele>1530.813</ele>
        <time>2026-03-21T09:11:23Z</time>
      </trkpt>
      <trkpt lat="45.92667" lon="6.49798">
        <ele>1530.879</ele>
        <time>2026-03-21T09:11:28Z</time>
      </trkpt>
      <trkpt lat="45.92667" lon="6.498">
        <ele>1531.638</ele>
        <time>2026-03-21T09:11:33Z</time>
      </trkpt>
      <trkpt lat="45.92668" lon="6.49801">
        <ele>1532.48</ele>
        <time>2026-03-21T09:11:38Z</time>
      </trkpt>
      <trkpt lat="45.92669" lon="6.49804">
        <ele>1532.118</ele>
        <time>2026-03-21T09:11:43Z</time>
      </trkpt>
      <trkpt lat="45.92671" lon="6.49808">
        <ele>1532.254</ele>
        <time>2026-03-21T09:11:48Z</time>
      </trkpt>
      <trkpt lat="45.92672" lon="6.49812">
        <ele>1534.501</ele>
        <time>2026-03-21T09:11:53Z</time>
      </trkpt>
      <trkpt lat="45.92673" lon="6.49816">
        <ele>1534.87</ele>
        <time>2026-03-21T09:11:58Z</time>
      </trkpt>
      <trkpt lat="45.92675" lon="6.49819">
        <ele>1536.034</ele>
        <time>2026-03-21T09:12:03Z</time>
      </trkpt>
      <trkpt lat="45.92676" lon="6.49821">
        <ele>1537.138</ele>
        <time>2026-03-21T09:12:08Z</time>
      </trkpt>
      <trkpt lat="45.92678" lon="6.49824">
        <ele>1537.018</ele>
        <time>2026-03-21T09:12:13Z</time>
      </trkpt>
      <trkpt lat="45.92678" lon="6.49829">
        <ele>1536.955</ele>
        <time>2026-03-21T09:12:18Z</time>
      </trkpt>
      <trkpt lat="45.9268" lon="6.49831">
        <ele>1537.523</ele>
        <time>2026-03-21T09:12:23Z</time>
      </trkpt>
      <trkpt lat="45.9268" lon="6.49834">
        <ele>1538.378</ele>
        <time>2026-03-21T09:12:28Z</time>
      </trkpt>
      <trkpt lat="45.9268" lon="6.49837">
        <ele>1540.098</ele>
        <time>2026-03-21T09:12:33Z</time>
      </trkpt>
      <trkpt lat="45.92681" lon="6.4984">
        <ele>1539.986</ele>
        <time>2026-03-21T09:12:38Z</time>
      </trkpt>
      <trkpt lat="45.92682" lon="6.49843">
        <ele>1539.804</ele>
        <time>2026-03-21T09:12:43Z</time>
      </trkpt>
      <trkpt lat="45.92682" lon="6.49846">
        <ele>1540.084</ele>
        <time>2026-03-21T09:12:48Z</time>
      </trkpt>
      <trkpt lat="45.92683" lon="6.49847">
        <ele>1539.713</ele>
        <time>2026-03-21T09:12:53Z</time>
      </trkpt>
      <trkpt lat="45.92683" lon="6.49848">
        <ele>1539.821</ele>
        <time>2026-03-21T09:12:58Z</time>
      </trkpt>
      <trkpt lat="45.92683" lon="6.49848">
        <ele>1539.804</ele>
        <time>2026-03-21T09:13:03Z</time>
      </trkpt>
      <trkpt lat="45.92683" lon="6.49849">
        <ele>1540.098</ele>
        <time>2026-03-21T09:13:08Z</time>
      </trkpt>
      <trkpt lat="45.92683" lon="6.49854">
        <ele>1539.771</ele>
        <time>2026-03-21T09:13:13Z</time>
      </trkpt>
      <trkpt lat="45.92682" lon="6.49858">
        <ele>1539.682</ele>
        <time>2026-03-21T09:13:18Z</time>
      </trkpt>
      <trkpt lat="45.92682" lon="6.49859">
        <ele>1539.506</ele>
        <time>2026-03-21T09:13:23Z</time>
      </trkpt>
      <trkpt lat="45.92681" lon="6.4986">
        <ele>1539.561</ele>
        <time>2026-03-21T09:13:28Z</time>
      </trkpt>
      <trkpt lat="45.92682" lon="6.49863">
        <ele>1539.234</ele>
        <time>2026-03-21T09:13:33Z</time>
      </trkpt>
      <trkpt lat="45.92682" lon="6.49867">
        <ele>1539.528</ele>
        <time>2026-03-21T09:13:38Z</time>
      </trkpt>
      <trkpt lat="45.92682" lon="6.49871">
        <ele>1540.125</ele>
        <time>2026-03-21T09:13:43Z</time>
      </trkpt>
      <trkpt lat="45.92682" lon="6.49875">
        <ele>1540.052</ele>
        <time>2026-03-21T09:13:48Z</time>
      </trkpt>
      <trkpt lat="45.92683" lon="6.4988">
        <ele>1540.412</ele>
        <time>2026-03-21T09:13:53Z</time>
      </trkpt>
      <trkpt lat="45.92683" lon="6.49883">
        <ele>1540.584</ele>
        <time>2026-03-21T09:13:58Z</time>
      </trkpt>
      <trkpt lat="45.92683" lon="6.49885">
        <ele>1544.176</ele>
        <time>2026-03-21T09:14:02Z</time>
      </trkpt>
      <trkpt lat="45.92682" lon="6.49891">
        <ele>1542.234</ele>
        <time>2026-03-21T09:14:08Z</time>
      </trkpt>
      <trkpt lat="45.92683" lon="6.49895">
        <ele>1541.98</ele>
        <time>2026-03-21T09:14:12Z</time>
      </trkpt>
      <trkpt lat="45.92684" lon="6.49898">
        <ele>1541.712</ele>
        <time>2026-03-21T09:14:18Z</time>
      </trkpt>
      <trkpt lat="45.92684" lon="6.49901">
        <ele>1541.604</ele>
        <time>2026-03-21T09:14:23Z</time>
      </trkpt>
      <trkpt lat="45.92685" lon="6.49906">
        <ele>1542.984</ele>
        <time>2026-03-21T09:14:28Z</time>
      </trkpt>
      <trkpt lat="45.92685" lon="6.49909">
        <ele>1542.808</ele>
        <time>2026-03-21T09:14:33Z</time>
      </trkpt>
      <trkpt lat="45.92685" lon="6.49912">
        <ele>1542.503</ele>
        <time>2026-03-21T09:14:38Z</time>
      </trkpt>
      <trkpt lat="45.92685" lon="6.49916">
        <ele>1542.866</ele>
        <time>2026-03-21T09:14:43Z</time>
      </trkpt>
      <trkpt lat="45.92684" lon="6.49921">
        <ele>1543.705</ele>
        <time>2026-03-21T09:14:48Z</time>
      </trkpt>
      <trkpt lat="45.92684" lon="6.49924">
        <ele>1545.3</ele>
        <time>2026-03-21T09:14:53Z</time>
      </trkpt>
      <trkpt lat="45.92684" lon="6.49926">
        <ele>1546.134</ele>
        <time>2026-03-21T09:14:58Z</time>
      </trkpt>
      <trkpt lat="45.92683" lon="6.4993">
        <ele>1546.335</ele>
        <time>2026-03-21T09:15:03Z</time>
      </trkpt>
      <trkpt lat="45.92683" lon="6.49932">
        <ele>1546.879</ele>
        <time>2026-03-21T09:15:08Z</time>
      </trkpt>
      <trkpt lat="45.92683" lon="6.49934">
        <ele>1547.553</ele>
        <time>2026-03-21T09:15:13Z</time>
      </trkpt>
      <trkpt lat="45.92684" lon="6.49938">
        <ele>1548.506</ele>
        <time>2026-03-21T09:15:18Z</time>
      </trkpt>
      <trkpt lat="45.92684" lon="6.49942">
        <ele>1547.934</ele>
        <time>2026-03-21T09:15:23Z</time>
      </trkpt>
      <trkpt lat="45.92684" lon="6.49945">
        <ele>1548.33</ele>
        <time>2026-03-21T09:15:28Z</time>
      </trkpt>
      <trkpt lat="45.92684" lon="6.49949">
        <ele>1549.48</ele>
        <time>2026-03-21T09:15:33Z</time>
      </trkpt>
      <trkpt lat="45.92684" lon="6.49952">
        <ele>1550.024</ele>
        <time>2026-03-21T09:15:38Z</time>
      </trkpt>
      <trkpt lat="45.92684" lon="6.49955">
        <ele>1549.82</ele>
        <time>2026-03-21T09:15:43Z</time>
      </trkpt>
      <trkpt lat="45.92684" lon="6.49958">
        <ele>1550.206</ele>
        <time>2026-03-21T09:15:48Z</time>
      </trkpt>
      <trkpt lat="45.92685" lon="6.49962">
        <ele>1550.555</ele>
        <time>2026-03-21T09:15:53Z</time>
      </trkpt>
      <trkpt lat="45.92686" lon="6.49965">
        <ele>1551.919</ele>
        <time>2026-03-21T09:15:58Z</time>
      </trkpt>
      <trkpt lat="45.92686" lon="6.49969">
        <ele>1551.504</ele>
        <time>2026-03-21T09:16:03Z</time>
      </trkpt>
      <trkpt lat="45.92687" lon="6.49973">
        <ele>1552.485</ele>
        <time>2026-03-21T09:16:08Z</time>
      </trkpt>
      <trkpt lat="45.92687" lon="6.49974">
        <ele>1552.431</ele>
        <time>2026-03-21T09:16:13Z</time>
      </trkpt>
      <trkpt lat="45.92687" lon="6.49975">
        <ele>1553.558</ele>
        <time>2026-03-21T09:16:18Z</time>
      </trkpt>
      <trkpt lat="45.92687" lon="6.49978">
        <ele>1554.449</ele>
        <time>2026-03-21T09:16:23Z</time>
      </trkpt>
      <trkpt lat="45.92688" lon="6.49978">
        <ele>1555.285</ele>
        <time>2026-03-21T09:16:28Z</time>
      </trkpt>
      <trkpt lat="45.92688" lon="6.49981">
        <ele>1554.929</ele>
        <time>2026-03-21T09:16:33Z</time>
      </trkpt>
      <trkpt lat="45.92689" lon="6.49984">
        <ele>1556.317</ele>
        <time>2026-03-21T09:16:38Z</time>
      </trkpt>
      <trkpt lat="45.9269" lon="6.49986">
        <ele>1556.195</ele>
        <time>2026-03-21T09:16:43Z</time>
      </trkpt>
      <trkpt lat="45.92691" lon="6.49989">
        <ele>1557.153</ele>
        <time>2026-03-21T09:16:48Z</time>
      </trkpt>
      <trkpt lat="45.92692" lon="6.49992">
        <ele>1556.735</ele>
        <time>2026-03-21T09:16:53Z</time>
      </trkpt>
      <trkpt lat="45.92691" lon="6.49995">
        <ele>1557.859</ele>
        <time>2026-03-21T09:16:58Z</time>
      </trkpt>
      <trkpt lat="45.92687" lon="6.49995">
        <ele>1557.979</ele>
        <time>2026-03-21T09:17:03Z</time>
      </trkpt>
      <trkpt lat="45.92684" lon="6.49997">
        <ele>1559.372</ele>
        <time>2026-03-21T09:17:08Z</time>
      </trkpt>
      <trkpt lat="45.92685" lon="6.50001">
        <ele>1559.721</ele>
        <time>2026-03-21T09:17:13Z</time>
      </trkpt>
      <trkpt lat="45.92685" lon="6.50003">
        <ele>1559.816</ele>
        <time>2026-03-21T09:17:18Z</time>
      </trkpt>
      <trkpt lat="45.92684" lon="6.50006">
        <ele>1560.204</ele>
        <time>2026-03-21T09:17:23Z</time>
      </trkpt>
      <trkpt lat="45.92685" lon="6.5001">
        <ele>1561.513</ele>
        <time>2026-03-21T09:17:28Z</time>
      </trkpt>
      <trkpt lat="45.92686" lon="6.50013">
        <ele>1562.127</ele>
        <time>2026-03-21T09:17:33Z</time>
      </trkpt>
      <trkpt lat="45.92686" lon="6.50019">
        <ele>1561.763</ele>
        <time>2026-03-21T09:17:38Z</time>
      </trkpt>
      <trkpt lat="45.92687" lon="6.50024">
        <ele>1562.559</ele>
        <time>2026-03-21T09:17:43Z</time>
      </trkpt>
      <trkpt lat="45.92687" lon="6.50029">
        <ele>1562.513</ele>
        <time>2026-03-21T09:17:48Z</time>
      </trkpt>
      <trkpt lat="45.92688" lon="6.50032">
        <ele>1561.629</ele>
        <time>2026-03-21T09:17:53Z</time>
      </trkpt>
      <trkpt lat="45.92689" lon="6.50035">
        <ele>1561.739</ele>
        <time>2026-03-21T09:17:58Z</time>
      </trkpt>
      <trkpt lat="45.9269" lon="6.50038">
        <ele>1562.139</ele>
        <time>2026-03-21T09:18:03Z</time>
      </trkpt>
      <trkpt lat="45.92691" lon="6.50041">
        <ele>1563.517</ele>
        <time>2026-03-21T09:18:08Z</time>
      </trkpt>
      <trkpt lat="45.92693" lon="6.50045">
        <ele>1565.396</ele>
        <time>2026-03-21T09:18:13Z</time>
      </trkpt>
      <trkpt lat="45.92695" lon="6.50047">
        <ele>1565.56</ele>
        <time>2026-03-21T09:18:18Z</time>
      </trkpt>
      <trkpt lat="45.92696" lon="6.50049">
        <ele>1567.015</ele>
        <time>2026-03-21T09:18:23Z</time>
      </trkpt>
      <trkpt lat="45.92698" lon="6.50052">
        <ele>1568.488</ele>
        <time>2026-03-21T09:18:28Z</time>
      </trkpt>
      <trkpt lat="45.92699" lon="6.50054">
        <ele>1569.147</ele>
        <time>2026-03-21T09:18:33Z</time>
      </trkpt>
      <trkpt lat="45.92701" lon="6.50056">
        <ele>1570.001</ele>
        <time>2026-03-21T09:18:38Z</time>
      </trkpt>
      <trkpt lat="45.92701" lon="6.50059">
        <ele>1570.854</ele>
        <time>2026-03-21T09:18:43Z</time>
      </trkpt>
      <trkpt lat="45.92701" lon="6.50062">
        <ele>1571.99</ele>
        <time>2026-03-21T09:18:48Z</time>
      </trkpt>
      <trkpt lat="45.92701" lon="6.50065">
        <ele>1572.946</ele>
        <time>2026-03-21T09:18:53Z</time>
      </trkpt>
      <trkpt lat="45.92701" lon="6.50066">
        <ele>1572.806</ele>
        <time>2026-03-21T09:18:58Z</time>
      </trkpt>
      <trkpt lat="45.927" lon="6.50069">
        <ele>1574.571</ele>
        <time>2026-03-21T09:19:03Z</time>
      </trkpt>
      <trkpt lat="45.92699" lon="6.50071">
        <ele>1574.882</ele>
        <time>2026-03-21T09:19:08Z</time>
      </trkpt>
      <trkpt lat="45.92698" lon="6.50074">
        <ele>1575.73</ele>
        <time>2026-03-21T09:19:13Z</time>
      </trkpt>
      <trkpt lat="45.92699" lon="6.50076">
        <ele>1575.429</ele>
        <time>2026-03-21T09:19:18Z</time>
      </trkpt>
      <trkpt lat="45.92699" lon="6.50079">
        <ele>1576.115</ele>
        <time>2026-03-21T09:19:23Z</time>
      </trkpt>
      <trkpt lat="45.927" lon="6.50084">
        <ele>1577.365</ele>
        <time>2026-03-21T09:19:28Z</time>
      </trkpt>
      <trkpt lat="45.927" lon="6.50087">
        <ele>1577.895</ele>
        <time>2026-03-21T09:19:33Z</time>
      </trkpt>
      <trkpt lat="45.92701" lon="6.50091">
        <ele>1579.105</ele>
        <time>2026-03-21T09:19:38Z</time>
      </trkpt>
      <trkpt lat="45.92701" lon="6.50096">
        <ele>1579.935</ele>
        <time>2026-03-21T09:19:43Z</time>
      </trkpt>
      <trkpt lat="45.92703" lon="6.50099">
        <ele>1579.844</ele>
        <time>2026-03-21T09:19:48Z</time>
      </trkpt>
      <trkpt lat="45.92705" lon="6.50102">
        <ele>1579.596</ele>
        <time>2026-03-21T09:19:53Z</time>
      </trkpt>
      <trkpt lat="45.92707" lon="6.50104">
        <ele>1580.182</ele>
        <time>2026-03-21T09:19:58Z</time>
      </trkpt>
      <trkpt lat="45.9271" lon="6.50104">
        <ele>1580.822</ele>
        <time>2026-03-21T09:20:03Z</time>
      </trkpt>
      <trkpt lat="45.92714" lon="6.50103">
        <ele>1581.884</ele>
        <time>2026-03-21T09:20:08Z</time>
      </trkpt>
      <trkpt lat="45.92718" lon="6.50101">
        <ele>1582.392</ele>
        <time>2026-03-21T09:20:13Z</time>
      </trkpt>
      <trkpt lat="45.92721" lon="6.501">
        <ele>1582.215</ele>
        <time>2026-03-21T09:20:18Z</time>
      </trkpt>
      <trkpt lat="45.92725" lon="6.501">
        <ele>1583.042</ele>
        <time>2026-03-21T09:20:23Z</time>
      </trkpt>
      <trkpt lat="45.92728" lon="6.50102">
        <ele>1582.704</ele>
        <time>2026-03-21T09:20:28Z</time>
      </trkpt>
      <trkpt lat="45.92731" lon="6.50104">
        <ele>1582.325</ele>
        <time>2026-03-21T09:20:33Z</time>
      </trkpt>
      <trkpt lat="45.92733" lon="6.50108">
        <ele>1582.383</ele>
        <time>2026-03-21T09:20:38Z</time>
      </trkpt>
      <trkpt lat="45.92734" lon="6.50112">
        <ele>1583.094</ele>
        <time>2026-03-21T09:20:43Z</time>
      </trkpt>
      <trkpt lat="45.92735" lon="6.50115">
        <ele>1584.157</ele>
        <time>2026-03-21T09:20:48Z</time>
      </trkpt>
      <trkpt lat="45.92738" lon="6.50117">
        <ele>1584.321</ele>
        <time>2026-03-21T09:20:53Z</time>
      </trkpt>
      <trkpt lat="45.9274" lon="6.50122">
        <ele>1585.324</ele>
        <time>2026-03-21T09:20:58Z</time>
      </trkpt>
      <trkpt lat="45.92742" lon="6.50127">
        <ele>1584.584</ele>
        <time>2026-03-21T09:21:03Z</time>
      </trkpt>
      <trkpt lat="45.92744" lon="6.50131">
        <ele>1583.722</ele>
        <time>2026-03-21T09:21:08Z</time>
      </trkpt>
      <trkpt lat="45.92746" lon="6.50136">
        <ele>1584.301</ele>
        <time>2026-03-21T09:21:13Z</time>
      </trkpt>
      <trkpt lat="45.92747" lon="6.50139">
        <ele>1584.65</ele>
        <time>2026-03-21T09:21:18Z</time>
      </trkpt>
      <trkpt lat="45.92749" lon="6.50142">
        <ele>1585.929</ele>
        <time>2026-03-21T09:21:23Z</time>
      </trkpt>
      <trkpt lat="45.92751" lon="6.50147">
        <ele>1587.315</ele>
        <time>2026-03-21T09:21:28Z</time>
      </trkpt>
      <trkpt lat="45.92751" lon="6.50152">
        <ele>1588.022</ele>
        <time>2026-03-21T09:21:33Z</time>
      </trkpt>
      <trkpt lat="45.92752" lon="6.50155">
        <ele>1587.973</ele>
        <time>2026-03-21T09:21:38Z</time>
      </trkpt>
      <trkpt lat="45.92754" lon="6.50157">
        <ele>1589.655</ele>
        <time>2026-03-21T09:21:43Z</time>
      </trkpt>
      <trkpt lat="45.92756" lon="6.50159">
        <ele>1590.217</ele>
        <time>2026-03-21T09:21:48Z</time>
      </trkpt>
      <trkpt lat="45.92759" lon="6.50162">
        <ele>1590.088</ele>
        <time>2026-03-21T09:21:53Z</time>
      </trkpt>
      <trkpt lat="45.9276" lon="6.50165">
        <ele>1589.868</ele>
        <time>2026-03-21T09:21:58Z</time>
      </trkpt>
      <trkpt lat="45.92763" lon="6.50169">
        <ele>1590.041</ele>
        <time>2026-03-21T09:22:03Z</time>
      </trkpt>
      <trkpt lat="45.92766" lon="6.50172">
        <ele>1590.534</ele>
        <time>2026-03-21T09:22:08Z</time>
      </trkpt>
      <trkpt lat="45.92769" lon="6.50175">
        <ele>1592.3</ele>
        <time>2026-03-21T09:22:13Z</time>
      </trkpt>
      <trkpt lat="45.92771" lon="6.50177">
        <ele>1592.359</ele>
        <time>2026-03-21T09:22:18Z</time>
      </trkpt>
      <trkpt lat="45.92773" lon="6.5018">
        <ele>1592.394</ele>
        <time>2026-03-21T09:22:23Z</time>
      </trkpt>
      <trkpt lat="45.92774" lon="6.50183">
        <ele>1592.696</ele>
        <time>2026-03-21T09:22:28Z</time>
      </trkpt>
      <trkpt lat="45.92775" lon="6.50185">
        <ele>1593.004</ele>
        <time>2026-03-21T09:22:33Z</time>
      </trkpt>
      <trkpt lat="45.92779" lon="6.50188">
        <ele>1593.596</ele>
        <time>2026-03-21T09:22:38Z</time>
      </trkpt>
      <trkpt lat="45.92782" lon="6.50191">
        <ele>1594.134</ele>
        <time>2026-03-21T09:22:43Z</time>
      </trkpt>
      <trkpt lat="45.92784" lon="6.50195">
        <ele>1595.718</ele>
        <time>2026-03-21T09:22:48Z</time>
      </trkpt>
      <trkpt lat="45.92787" lon="6.50198">
        <ele>1596.798</ele>
        <time>2026-03-21T09:22:53Z</time>
      </trkpt>
      <trkpt lat="45.92791" lon="6.50201">
        <ele>1596.93</ele>
        <time>2026-03-21T09:22:58Z</time>
      </trkpt>
      <trkpt lat="45.92794" lon="6.50204">
        <ele>1597.887</ele>
        <time>2026-03-21T09:23:03Z</time>
      </trkpt>
      <trkpt lat="45.92796" lon="6.50206">
        <ele>1598.438</ele>
        <time>2026-03-21T09:23:08Z</time>
      </trkpt>
      <trkpt lat="45.92799" lon="6.50209">
        <ele>1597.902</ele>
        <time>2026-03-21T09:23:13Z</time>
      </trkpt>
      <trkpt lat="45.928" lon="6.50213">
        <ele>1599.536</ele>
        <time>2026-03-21T09:23:18Z</time>
      </trkpt>
      <trkpt lat="45.92802" lon="6.50218">
        <ele>1599.174</ele>
        <time>2026-03-21T09:23:23Z</time>
      </trkpt>
      <trkpt lat="45.92804" lon="6.50222">
        <ele>1599.386</ele>
        <time>2026-03-21T09:23:28Z</time>
      </trkpt>
      <trkpt lat="45.92805" lon="6.50226">
        <ele>1600.291</ele>
        <time>2026-03-21T09:23:33Z</time>
      </trkpt>
      <trkpt lat="45.92807" lon="6.50228">
        <ele>1600.596</ele>
        <time>2026-03-21T09:23:38Z</time>
      </trkpt>
      <trkpt lat="45.92809" lon="6.50231">
        <ele>1600.573</ele>
        <time>2026-03-21T09:23:43Z</time>
      </trkpt>
      <trkpt lat="45.9281" lon="6.50235">
        <ele>1601.719</ele>
        <time>2026-03-21T09:23:48Z</time>
      </trkpt>
      <trkpt lat="45.92811" lon="6.50238">
        <ele>1602.576</ele>
        <time>2026-03-21T09:23:53Z</time>
      </trkpt>
      <trkpt lat="45.92812" lon="6.5024">
        <ele>1602.763</ele>
        <time>2026-03-21T09:23:58Z</time>
      </trkpt>
      <trkpt lat="45.92813" lon="6.5024">
        <ele>1603.07</ele>
        <time>2026-03-21T09:24:03Z</time>
      </trkpt>
      <trkpt lat="45.92814" lon="6.50243">
        <ele>1603.553</ele>
        <time>2026-03-21T09:24:08Z</time>
      </trkpt>
      <trkpt lat="45.92815" lon="6.50247">
        <ele>1604.221</ele>
        <time>2026-03-21T09:24:13Z</time>
      </trkpt>
      <trkpt lat="45.92817" lon="6.5025">
        <ele>1604.995</ele>
        <time>2026-03-21T09:24:18Z</time>
      </trkpt>
      <trkpt lat="45.92818" lon="6.50252">
        <ele>1605.349</ele>
        <time>2026-03-21T09:24:23Z</time>
      </trkpt>
      <trkpt lat="45.92821" lon="6.50254">
        <ele>1606.362</ele>
        <time>2026-03-21T09:24:28Z</time>
      </trkpt>
      <trkpt lat="45.92822" lon="6.50257">
        <ele>1607.321</ele>
        <time>2026-03-21T09:24:33Z</time>
      </trkpt>
      <trkpt lat="45.92823" lon="6.50259">
        <ele>1609.539</ele>
        <time>2026-03-21T09:24:38Z</time>
      </trkpt>
      <trkpt lat="45.92824" lon="6.50262">
        <ele>1610.179</ele>
        <time>2026-03-21T09:24:43Z</time>
      </trkpt>
      <trkpt lat="45.92824" lon="6.50266">
        <ele>1611.061</ele>
        <time>2026-03-21T09:24:48Z</time>
      </trkpt>
      <trkpt lat="45.92823" lon="6.50268">
        <ele>1611.064</ele>
        <time>2026-03-21T09:24:53Z</time>
      </trkpt>
      <trkpt lat="45.92822" lon="6.5027">
        <ele>1611.197</ele>
        <time>2026-03-21T09:24:58Z</time>
      </trkpt>
      <trkpt lat="45.92821" lon="6.50271">
        <ele>1612.136</ele>
        <time>2026-03-21T09:25:03Z</time>
      </trkpt>
      <trkpt lat="45.92819" lon="6.50273">
        <ele>1612.657</ele>
        <time>2026-03-21T09:25:08Z</time>
      </trkpt>
      <trkpt lat="45.92817" lon="6.50275">
        <ele>1613.603</ele>
        <time>2026-03-21T09:25:13Z</time>
      </trkpt>
      <trkpt lat="45.92815" lon="6.50276">
        <ele>1614.64</ele>
        <time>2026-03-21T09:25:18Z</time>
      </trkpt>
      <trkpt lat="45.92814" lon="6.50277">
        <ele>1614.929</ele>
        <time>2026-03-21T09:25:23Z</time>
      </trkpt>
      <trkpt lat="45.92811" lon="6.50279">
        <ele>1615.562</ele>
        <time>2026-03-21T09:25:28Z</time>
      </trkpt>
      <trkpt lat="45.92809" lon="6.5028">
        <ele>1615.792</ele>
        <time>2026-03-21T09:25:33Z</time>
      </trkpt>
      <trkpt lat="45.92809" lon="6.50281">
        <ele>1616.58</ele>
        <time>2026-03-21T09:25:38Z</time>
      </trkpt>
      <trkpt lat="45.92807" lon="6.50283">
        <ele>1617.504</ele>
        <time>2026-03-21T09:25:43Z</time>
      </trkpt>
      <trkpt lat="45.92804" lon="6.50284">
        <ele>1617.291</ele>
        <time>2026-03-21T09:25:48Z</time>
      </trkpt>
      <trkpt lat="45.92802" lon="6.50286">
        <ele>1617.906</ele>
        <time>2026-03-21T09:25:53Z</time>
      </trkpt>
      <trkpt lat="45.92801" lon="6.50286">
        <ele>1618.004</ele>
        <time>2026-03-21T09:25:58Z</time>
      </trkpt>
      <trkpt lat="45.928" lon="6.50287">
        <ele>1617.821</ele>
        <time>2026-03-21T09:26:03Z</time>
      </trkpt>
      <trkpt lat="45.928" lon="6.50286">
        <ele>1617.148</ele>
        <time>2026-03-21T09:26:08Z</time>
      </trkpt>
      <trkpt lat="45.928" lon="6.50286">
        <ele>1617.463</ele>
        <time>2026-03-21T09:26:13Z</time>
      </trkpt>
      <trkpt lat="45.928" lon="6.50286">
        <ele>1618.027</ele>
        <time>2026-03-21T09:26:18Z</time>
      </trkpt>
      <trkpt lat="45.928" lon="6.50286">
        <ele>1618.736</ele>
        <time>2026-03-21T09:26:23Z</time>
      </trkpt>
      <trkpt lat="45.928" lon="6.50286">
        <ele>1619.327</ele>
        <time>2026-03-21T09:26:28Z</time>
      </trkpt>
      <trkpt lat="45.928" lon="6.50286">
        <ele>1620.274</ele>
        <time>2026-03-21T09:26:33Z</time>
      </trkpt>
      <trkpt lat="45.928" lon="6.50286">
        <ele>1621.929</ele>
        <time>2026-03-21T09:26:38Z</time>
      </trkpt>
      <trkpt lat="45.928" lon="6.50286">
        <ele>1622.155</ele>
        <time>2026-03-21T09:26:43Z</time>
      </trkpt>
      <trkpt lat="45.928" lon="6.50286">
        <ele>1622.527</ele>
        <time>2026-03-21T09:26:48Z</time>
      </trkpt>
      <trkpt lat="45.928" lon="6.50286">
        <ele>1622.611</ele>
        <time>2026-03-21T09:26:53Z</time>
      </trkpt>
      <trkpt lat="45.92803" lon="6.50298">
        <ele>1621.932</ele>
        <time>2026-03-21T09:26:58Z</time>
      </trkpt>
      <trkpt lat="45.92806" lon="6.50301">
        <ele>1623.084</ele>
        <time>2026-03-21T09:27:03Z</time>
      </trkpt>
      <trkpt lat="45.92809" lon="6.50303">
        <ele>1622.399</ele>
        <time>2026-03-21T09:27:08Z</time>
      </trkpt>
      <trkpt lat="45.92811" lon="6.50304">
        <ele>1623.033</ele>
        <time>2026-03-21T09:27:13Z</time>
      </trkpt>
      <trkpt lat="45.92813" lon="6.50308">
        <ele>1624.504</ele>
        <time>2026-03-21T09:27:18Z</time>
      </trkpt>
      <trkpt lat="45.92815" lon="6.5031">
        <ele>1626.537</ele>
        <time>2026-03-21T09:27:23Z</time>
      </trkpt>
      <trkpt lat="45.92817" lon="6.50313">
        <ele>1628.05</ele>
        <time>2026-03-21T09:27:28Z</time>
      </trkpt>
      <trkpt lat="45.92818" lon="6.50315">
        <ele>1628.417</ele>
        <time>2026-03-21T09:27:33Z</time>
      </trkpt>
      <trkpt lat="45.9282" lon="6.50318">
        <ele>1629.276</ele>
        <time>2026-03-21T09:27:38Z</time>
      </trkpt>
      <trkpt lat="45.92821" lon="6.5032">
        <ele>1628.76</ele>
        <time>2026-03-21T09:27:43Z</time>
      </trkpt>
      <trkpt lat="45.92822" lon="6.50324">
        <ele>1629.041</ele>
        <time>2026-03-21T09:27:48Z</time>
      </trkpt>
      <trkpt lat="45.92824" lon="6.50327">
        <ele>1629.835</ele>
        <time>2026-03-21T09:27:53Z</time>
      </trkpt>
      <trkpt lat="45.92825" lon="6.50331">
        <ele>1629.637</ele>
        <time>2026-03-21T09:27:58Z</time>
      </trkpt>
      <trkpt lat="45.92826" lon="6.50334">
        <ele>1631.438</ele>
        <time>2026-03-21T09:28:03Z</time>
      </trkpt>
      <trkpt lat="45.92827" lon="6.50337">
        <ele>1633.168</ele>
        <time>2026-03-21T09:28:08Z</time>
      </trkpt>
      <trkpt lat="45.92827" lon="6.50337">
        <ele>1633.132</ele>
        <time>2026-03-21T09:28:13Z</time>
      </trkpt>
      <trkpt lat="45.92827" lon="6.50337">
        <ele>1633.245</ele>
        <time>2026-03-21T09:28:18Z</time>
      </trkpt>
      <trkpt lat="45.92829" lon="6.50338">
        <ele>1633.431</ele>
        <time>2026-03-21T09:28:23Z</time>
      </trkpt>
      <trkpt lat="45.92831" lon="6.50339">
        <ele>1634.636</ele>
        <time>2026-03-21T09:28:28Z</time>
      </trkpt>
      <trkpt lat="45.92832" lon="6.50342">
        <ele>1636.552</ele>
        <time>2026-03-21T09:28:33Z</time>
      </trkpt>
      <trkpt lat="45.92835" lon="6.50343">
        <ele>1637.215</ele>
        <time>2026-03-21T09:28:38Z</time>
      </trkpt>
      <trkpt lat="45.92835" lon="6.50345">
        <ele>1636.988</ele>
        <time>2026-03-21T09:28:43Z</time>
      </trkpt>
      <trkpt lat="45.92838" lon="6.50348">
        <ele>1637.856</ele>
        <time>2026-03-21T09:28:48Z</time>
      </trkpt>
      <trkpt lat="45.92839" lon="6.5035">
        <ele>1638.296</ele>
        <time>2026-03-21T09:28:53Z</time>
      </trkpt>
      <trkpt lat="45.92841" lon="6.50352">
        <ele>1638.325</ele>
        <time>2026-03-21T09:28:58Z</time>
      </trkpt>
      <trkpt lat="45.92842" lon="6.50354">
        <ele>1639.469</ele>
        <time>2026-03-21T09:29:03Z</time>
      </trkpt>
      <trkpt lat="45.92843" lon="6.50356">
        <ele>1639.393</ele>
        <time>2026-03-21T09:29:08Z</time>
      </trkpt>
      <trkpt lat="45.92843" lon="6.50358">
        <ele>1639.574</ele>
        <time>2026-03-21T09:29:13Z</time>
      </trkpt>
      <trkpt lat="45.92842" lon="6.50361">
        <ele>1640.084</ele>
        <time>2026-03-21T09:29:18Z</time>
      </trkpt>
      <trkpt lat="45.92842" lon="6.50362">
        <ele>1640.582</ele>
        <time>2026-03-21T09:29:23Z</time>
      </trkpt>
      <trkpt lat="45.92844" lon="6.50363">
        <ele>1639.739</ele>
        <time>2026-03-21T09:29:28Z</time>
      </trkpt>
      <trkpt lat="45.92845" lon="6.50365">
        <ele>1640.801</ele>
        <time>2026-03-21T09:29:33Z</time>
      </trkpt>
      <trkpt lat="45.92846" lon="6.50365">
        <ele>1640.807</ele>
        <time>2026-03-21T09:29:38Z</time>
      </trkpt>
      <trkpt lat="45.92846" lon="6.50365">
        <ele>1640.817</ele>
        <time>2026-03-21T09:29:43Z</time>
      </trkpt>
      <trkpt lat="45.92845" lon="6.50368">
        <ele>1641.347</ele>
        <time>2026-03-21T09:29:48Z</time>
      </trkpt>
      <trkpt lat="45.92843" lon="6.50371">
        <ele>1640.775</ele>
        <time>2026-03-21T09:29:53Z</time>
      </trkpt>
      <trkpt lat="45.92843" lon="6.50372">
        <ele>1641.209</ele>
        <time>2026-03-21T09:29:58Z</time>
      </trkpt>
      <trkpt lat="45.92843" lon="6.50374">
        <ele>1641.945</ele>
        <time>2026-03-21T09:30:03Z</time>
      </trkpt>
      <trkpt lat="45.92844" lon="6.50375">
        <ele>1642.461</ele>
        <time>2026-03-21T09:30:08Z</time>
      </trkpt>
      <trkpt lat="45.92844" lon="6.50378">
        <ele>1643.25</ele>
        <time>2026-03-21T09:30:13Z</time>
      </trkpt>
      <trkpt lat="45.92846" lon="6.50379">
        <ele>1644.397</ele>
        <time>2026-03-21T09:30:18Z</time>
      </trkpt>
      <trkpt lat="45.92848" lon="6.50377">
        <ele>1644.658</ele>
        <time>2026-03-21T09:30:23Z</time>
      </trkpt>
      <trkpt lat="45.9285" lon="6.50375">
        <ele>1644.862</ele>
        <time>2026-03-21T09:30:28Z</time>
      </trkpt>
      <trkpt lat="45.92852" lon="6.50377">
        <ele>1647.495</ele>
        <time>2026-03-21T09:30:33Z</time>
      </trkpt>
      <trkpt lat="45.92852" lon="6.50378">
        <ele>1648.48</ele>
        <time>2026-03-21T09:30:38Z</time>
      </trkpt>
      <trkpt lat="45.92853" lon="6.50381">
        <ele>1649.184</ele>
        <time>2026-03-21T09:30:43Z</time>
      </trkpt>
      <trkpt lat="45.92853" lon="6.50383">
        <ele>1649.51</ele>
        <time>2026-03-21T09:30:48Z</time>
      </trkpt>
      <trkpt lat="45.92852" lon="6.50383">
        <ele>1649.805</ele>
        <time>2026-03-21T09:30:53Z</time>
      </trkpt>
      <trkpt lat="45.9285" lon="6.50386">
        <ele>1650.568</ele>
        <time>2026-03-21T09:30:58Z</time>
      </trkpt>
      <trkpt lat="45.92851" lon="6.50388">
        <ele>1650.845</ele>
        <time>2026-03-21T09:31:03Z</time>
      </trkpt>
      <trkpt lat="45.9285" lon="6.5039">
        <ele>1650.399</ele>
        <time>2026-03-21T09:31:08Z</time>
      </trkpt>
      <trkpt lat="45.9285" lon="6.5039">
        <ele>1650.414</ele>
        <time>2026-03-21T09:31:13Z</time>
      </trkpt>
      <trkpt lat="45.9285" lon="6.5039">
        <ele>1650.436</ele>
        <time>2026-03-21T09:31:18Z</time>
      </trkpt>
      <trkpt lat="45.9285" lon="6.5039">
        <ele>1650.459</ele>
        <time>2026-03-21T09:31:23Z</time>
      </trkpt>
      <trkpt lat="45.9285" lon="6.5039">
        <ele>1650.469</ele>
        <time>2026-03-21T09:31:28Z</time>
      </trkpt>
      <trkpt lat="45.9285" lon="6.5039">
        <ele>1650.477</ele>
        <time>2026-03-21T09:31:33Z</time>
      </trkpt>
      <trkpt lat="45.9285" lon="6.5039">
        <ele>1650.82</ele>
        <time>2026-03-21T09:31:38Z</time>
      </trkpt>
      <trkpt lat="45.92851" lon="6.50394">
        <ele>1651.19</ele>
        <time>2026-03-21T09:31:43Z</time>
      </trkpt>
      <trkpt lat="45.92851" lon="6.50399">
        <ele>1652.519</ele>
        <time>2026-03-21T09:31:48Z</time>
      </trkpt>
      <trkpt lat="45.92851" lon="6.50402">
        <ele>1653.523</ele>
        <time>2026-03-21T09:31:53Z</time>
      </trkpt>
      <trkpt lat="45.92851" lon="6.50404">
        <ele>1653.932</ele>
        <time>2026-03-21T09:31:58Z</time>
      </trkpt>
      <trkpt lat="45.92851" lon="6.50407">
        <ele>1654.16</ele>
        <time>2026-03-21T09:32:03Z</time>
      </trkpt>
      <trkpt lat="45.92852" lon="6.50409">
        <ele>1653.838</ele>
        <time>2026-03-21T09:32:08Z</time>
      </trkpt>
      <trkpt lat="45.92854" lon="6.50409">
        <ele>1655.871</ele>
        <time>2026-03-21T09:32:13Z</time>
      </trkpt>
      <trkpt lat="45.92856" lon="6.5041">
        <ele>1656.627</ele>
        <time>2026-03-21T09:32:18Z</time>
      </trkpt>
      <trkpt lat="45.92858" lon="6.50411">
        <ele>1657.159</ele>
        <time>2026-03-21T09:32:23Z</time>
      </trkpt>
      <trkpt lat="45.9286" lon="6.50414">
        <ele>1657.592</ele>
        <time>2026-03-21T09:32:28Z</time>
      </trkpt>
      <trkpt lat="45.92862" lon="6.50418">
        <ele>1658.483</ele>
        <time>2026-03-21T09:32:33Z</time>
      </trkpt>
      <trkpt lat="45.92863" lon="6.50422">
        <ele>1659.264</ele>
        <time>2026-03-21T09:32:38Z</time>
      </trkpt>
      <trkpt lat="45.92862" lon="6.50424">
        <ele>1659.184</ele>
        <time>2026-03-21T09:32:43Z</time>
      </trkpt>
      <trkpt lat="45.9286" lon="6.50427">
        <ele>1660.818</ele>
        <time>2026-03-21T09:32:48Z</time>
      </trkpt>
      <trkpt lat="45.92859" lon="6.50429">
        <ele>1661.048</ele>
        <time>2026-03-21T09:32:53Z</time>
      </trkpt>
      <trkpt lat="45.92858" lon="6.5043">
        <ele>1661.292</ele>
        <time>2026-03-21T09:32:58Z</time>
      </trkpt>
      <trkpt lat="45.92858" lon="6.5043">
        <ele>1661.309</ele>
        <time>2026-03-21T09:33:03Z</time>
      </trkpt>
      <trkpt lat="45.92858" lon="6.5043">
        <ele>1661.32</ele>
        <time>2026-03-21T09:33:08Z</time>
      </trkpt>
      <trkpt lat="45.92858" lon="6.5043">
        <ele>1661.334</ele>
        <time>2026-03-21T09:33:13Z</time>
      </trkpt>
      <trkpt lat="45.92858" lon="6.5043">
        <ele>1661.343</ele>
        <time>2026-03-21T09:33:18Z</time>
      </trkpt>
      <trkpt lat="45.92858" lon="6.5043">
        <ele>1661.527</ele>
        <time>2026-03-21T09:33:23Z</time>
      </trkpt>
      <trkpt lat="45.92856" lon="6.50433">
        <ele>1663.013</ele>
        <time>2026-03-21T09:33:28Z</time>
      </trkpt>
      <trkpt lat="45.92853" lon="6.50436">
        <ele>1664.264</ele>
        <time>2026-03-21T09:33:33Z</time>
      </trkpt>
      <trkpt lat="45.92852" lon="6.5044">
        <ele>1665.929</ele>
        <time>2026-03-21T09:33:38Z</time>
      </trkpt>
      <trkpt lat="45.92852" lon="6.50445">
        <ele>1665.477</ele>
        <time>2026-03-21T09:33:43Z</time>
      </trkpt>
      <trkpt lat="45.92852" lon="6.50449">
        <ele>1665.743</ele>
        <time>2026-03-21T09:33:48Z</time>
      </trkpt>
      <trkpt lat="45.92854" lon="6.5045">
        <ele>1665.714</ele>
        <time>2026-03-21T09:33:53Z</time>
      </trkpt>
      <trkpt lat="45.92854" lon="6.5045">
        <ele>1665.7</ele>
        <time>2026-03-21T09:33:58Z</time>
      </trkpt>
      <trkpt lat="45.92854" lon="6.5045">
        <ele>1665.695</ele>
        <time>2026-03-21T09:34:03Z</time>
      </trkpt>
      <trkpt lat="45.92854" lon="6.5045">
        <ele>1665.8</ele>
        <time>2026-03-21T09:34:08Z</time>
      </trkpt>
      <trkpt lat="45.92856" lon="6.50452">
        <ele>1666.75</ele>
        <time>2026-03-21T09:34:13Z</time>
      </trkpt>
      <trkpt lat="45.92858" lon="6.50455">
        <ele>1666.205</ele>
        <time>2026-03-21T09:34:18Z</time>
      </trkpt>
      <trkpt lat="45.9286" lon="6.50457">
        <ele>1666.787</ele>
        <time>2026-03-21T09:34:23Z</time>
      </trkpt>
      <trkpt lat="45.92863" lon="6.50458">
        <ele>1666.412</ele>
        <time>2026-03-21T09:34:28Z</time>
      </trkpt>
      <trkpt lat="45.92866" lon="6.50459">
        <ele>1667.302</ele>
        <time>2026-03-21T09:34:33Z</time>
      </trkpt>
      <trkpt lat="45.92869" lon="6.50461">
        <ele>1667.223</ele>
        <time>2026-03-21T09:34:38Z</time>
      </trkpt>
      <trkpt lat="45.9287" lon="6.50461">
        <ele>1667.589</ele>
        <time>2026-03-21T09:34:43Z</time>
      </trkpt>
      <trkpt lat="45.9287" lon="6.50461">
        <ele>1667.577</ele>
        <time>2026-03-21T09:34:48Z</time>
      </trkpt>
      <trkpt lat="45.9287" lon="6.50461">
        <ele>1667.565</ele>
        <time>2026-03-21T09:34:53Z</time>
      </trkpt>
      <trkpt lat="45.9287" lon="6.50461">
        <ele>1667.551</ele>
        <time>2026-03-21T09:34:58Z</time>
      </trkpt>
      <trkpt lat="45.9287" lon="6.50461">
        <ele>1667.544</ele>
        <time>2026-03-21T09:35:03Z</time>
      </trkpt>
      <trkpt lat="45.9287" lon="6.50461">
        <ele>1667.537</ele>
        <time>2026-03-21T09:35:08Z</time>
      </trkpt>
      <trkpt lat="45.9287" lon="6.50461">
        <ele>1667.534</ele>
        <time>2026-03-21T09:35:13Z</time>
      </trkpt>
      <trkpt lat="45.92872" lon="6.50462">
        <ele>1667.993</ele>
        <time>2026-03-21T09:35:18Z</time>
      </trkpt>
      <trkpt lat="45.92874" lon="6.50463">
        <ele>1668.381</ele>
        <time>2026-03-21T09:35:23Z</time>
      </trkpt>
      <trkpt lat="45.92878" lon="6.50464">
        <ele>1669.015</ele>
        <time>2026-03-21T09:35:28Z</time>
      </trkpt>
      <trkpt lat="45.92881" lon="6.50465">
        <ele>1668.819</ele>
        <time>2026-03-21T09:35:33Z</time>
      </trkpt>
      <trkpt lat="45.92883" lon="6.50467">
        <ele>1669.132</ele>
        <time>2026-03-21T09:35:38Z</time>
      </trkpt>
      <trkpt lat="45.92886" lon="6.50468">
        <ele>1669.532</ele>
        <time>2026-03-21T09:35:43Z</time>
      </trkpt>
      <trkpt lat="45.92888" lon="6.50468">
        <ele>1670.096</ele>
        <time>2026-03-21T09:35:48Z</time>
      </trkpt>
      <trkpt lat="45.92891" lon="6.50468">
        <ele>1671.091</ele>
        <time>2026-03-21T09:35:53Z</time>
      </trkpt>
      <trkpt lat="45.92893" lon="6.50468">
        <ele>1672.604</ele>
        <time>2026-03-21T09:35:58Z</time>
      </trkpt>
      <trkpt lat="45.92895" lon="6.50469">
        <ele>1672.978</ele>
        <time>2026-03-21T09:36:03Z</time>
      </trkpt>
      <trkpt lat="45.92897" lon="6.50471">
        <ele>1673.272</ele>
        <time>2026-03-21T09:36:08Z</time>
      </trkpt>
      <trkpt lat="45.92897" lon="6.50471">
        <ele>1673.61</ele>
        <time>2026-03-21T09:36:13Z</time>
      </trkpt>
      <trkpt lat="45.92897" lon="6.50471">
        <ele>1673.623</ele>
        <time>2026-03-21T09:36:18Z</time>
      </trkpt>
      <trkpt lat="45.92897" lon="6.50471">
        <ele>1673.952</ele>
        <time>2026-03-21T09:36:23Z</time>
      </trkpt>
      <trkpt lat="45.92897" lon="6.50471">
        <ele>1673.957</ele>
        <time>2026-03-21T09:36:28Z</time>
      </trkpt>
      <trkpt lat="45.92897" lon="6.50471">
        <ele>1673.958</ele>
        <time>2026-03-21T09:36:33Z</time>
      </trkpt>
      <trkpt lat="45.92897" lon="6.50472">
        <ele>1674.862</ele>
        <time>2026-03-21T09:36:38Z</time>
      </trkpt>
      <trkpt lat="45.92897" lon="6.50474">
        <ele>1675.952</ele>
        <time>2026-03-21T09:36:43Z</time>
      </trkpt>
      <trkpt lat="45.92896" lon="6.50477">
        <ele>1676.8</ele>
        <time>2026-03-21T09:36:48Z</time>
      </trkpt>
      <trkpt lat="45.92897" lon="6.5048">
        <ele>1677.282</ele>
        <time>2026-03-21T09:36:53Z</time>
      </trkpt>
      <trkpt lat="45.92899" lon="6.50483">
        <ele>1679.266</ele>
        <time>2026-03-21T09:36:58Z</time>
      </trkpt>
      <trkpt lat="45.92901" lon="6.50486">
        <ele>1679.747</ele>
        <time>2026-03-21T09:37:03Z</time>
      </trkpt>
      <trkpt lat="45.92902" lon="6.50489">
        <ele>1681.089</ele>
        <time>2026-03-21T09:37:08Z</time>
      </trkpt>
      <trkpt lat="45.92904" lon="6.50491">
        <ele>1683.053</ele>
        <time>2026-03-21T09:37:13Z</time>
      </trkpt>
      <trkpt lat="45.92906" lon="6.50495">
        <ele>1682.899</ele>
        <time>2026-03-21T09:37:18Z</time>
      </trkpt>
      <trkpt lat="45.92909" lon="6.50498">
        <ele>1682.639</ele>
        <time>2026-03-21T09:37:23Z</time>
      </trkpt>
      <trkpt lat="45.92911" lon="6.505">
        <ele>1683.516</ele>
        <time>2026-03-21T09:37:28Z</time>
      </trkpt>
      <trkpt lat="45.92912" lon="6.50502">
        <ele>1683.603</ele>
        <time>2026-03-21T09:37:33Z</time>
      </trkpt>
      <trkpt lat="45.92912" lon="6.50502">
        <ele>1683.613</ele>
        <time>2026-03-21T09:37:38Z</time>
      </trkpt>
      <trkpt lat="45.92912" lon="6.50502">
        <ele>1683.611</ele>
        <time>2026-03-21T09:37:43Z</time>
      </trkpt>
      <trkpt lat="45.92912" lon="6.50502">
        <ele>1683.607</ele>
        <time>2026-03-21T09:37:48Z</time>
      </trkpt>
      <trkpt lat="45.92912" lon="6.50502">
        <ele>1683.408</ele>
        <time>2026-03-21T09:37:53Z</time>
      </trkpt>
      <trkpt lat="45.92912" lon="6.50502">
        <ele>1683.418</ele>
        <time>2026-03-21T09:37:58Z</time>
      </trkpt>
      <trkpt lat="45.92912" lon="6.50502">
        <ele>1683.411</ele>
        <time>2026-03-21T09:38:03Z</time>
      </trkpt>
      <trkpt lat="45.92912" lon="6.50502">
        <ele>1683.41</ele>
        <time>2026-03-21T09:38:08Z</time>
      </trkpt>
      <trkpt lat="45.92912" lon="6.50502">
        <ele>1683.4</ele>
        <time>2026-03-21T09:38:13Z</time>
      </trkpt>
      <trkpt lat="45.92912" lon="6.50502">
        <ele>1683.348</ele>
        <time>2026-03-21T09:38:18Z</time>
      </trkpt>
      <trkpt lat="45.92912" lon="6.50502">
        <ele>1683.266</ele>
        <time>2026-03-21T09:38:23Z</time>
      </trkpt>
      <trkpt lat="45.92912" lon="6.50502">
        <ele>1683.277</ele>
        <time>2026-03-21T09:38:28Z</time>
      </trkpt>
      <trkpt lat="45.92912" lon="6.50502">
        <ele>1683.278</ele>
        <time>2026-03-21T09:38:33Z</time>
      </trkpt>
      <trkpt lat="45.92912" lon="6.50502">
        <ele>1683.539</ele>
        <time>2026-03-21T09:38:38Z</time>
      </trkpt>
      <trkpt lat="45.92912" lon="6.50502">
        <ele>1683.534</ele>
        <time>2026-03-21T09:38:43Z</time>
      </trkpt>
      <trkpt lat="45.92912" lon="6.50502">
        <ele>1683.537</ele>
        <time>2026-03-21T09:38:48Z</time>
      </trkpt>
      <trkpt lat="45.92912" lon="6.50502">
        <ele>1683.576</ele>
        <time>2026-03-21T09:38:53Z</time>
      </trkpt>
      <trkpt lat="45.92912" lon="6.50502">
        <ele>1683.573</ele>
        <time>2026-03-21T09:38:58Z</time>
      </trkpt>
      <trkpt lat="45.92912" lon="6.50502">
        <ele>1683.567</ele>
        <time>2026-03-21T09:39:03Z</time>
      </trkpt>
      <trkpt lat="45.92912" lon="6.50502">
        <ele>1683.576</ele>
        <time>2026-03-21T09:39:08Z</time>
      </trkpt>
      <trkpt lat="45.92912" lon="6.50502">
        <ele>1683.58</ele>
        <time>2026-03-21T09:39:13Z</time>
      </trkpt>
      <trkpt lat="45.92912" lon="6.50502">
        <ele>1683.582</ele>
        <time>2026-03-21T09:39:18Z</time>
      </trkpt>
      <trkpt lat="45.92912" lon="6.50502">
        <ele>1683.583</ele>
        <time>2026-03-21T09:39:23Z</time>
      </trkpt>
      <trkpt lat="45.92912" lon="6.50502">
        <ele>1683.582</ele>
        <time>2026-03-21T09:39:28Z</time>
      </trkpt>
      <trkpt lat="45.92912" lon="6.50502">
        <ele>1683.583</ele>
        <time>2026-03-21T09:39:33Z</time>
      </trkpt>
      <trkpt lat="45.92912" lon="6.50502">
        <ele>1683.587</ele>
        <time>2026-03-21T09:39:38Z</time>
      </trkpt>
      <trkpt lat="45.92912" lon="6.50502">
        <ele>1683.598</ele>
        <time>2026-03-21T09:39:43Z</time>
      </trkpt>
      <trkpt lat="45.92912" lon="6.50502">
        <ele>1683.605</ele>
        <time>2026-03-21T09:39:48Z</time>
      </trkpt>
      <trkpt lat="45.92912" lon="6.50502">
        <ele>1683.612</ele>
        <time>2026-03-21T09:39:53Z</time>
      </trkpt>
      <trkpt lat="45.92912" lon="6.50502">
        <ele>1683.613</ele>
        <time>2026-03-21T09:39:58Z</time>
      </trkpt>
      <trkpt lat="45.92912" lon="6.50502">
        <ele>1683.537</ele>
        <time>2026-03-21T09:40:03Z</time>
      </trkpt>
      <trkpt lat="45.92912" lon="6.50502">
        <ele>1683.727</ele>
        <time>2026-03-21T09:40:08Z</time>
      </trkpt>
      <trkpt lat="45.92912" lon="6.50502">
        <ele>1684.177</ele>
        <time>2026-03-21T09:40:13Z</time>
      </trkpt>
      <trkpt lat="45.92912" lon="6.50502">
        <ele>1684.378</ele>
        <time>2026-03-21T09:40:18Z</time>
      </trkpt>
      <trkpt lat="45.92912" lon="6.50502">
        <ele>1684.384</ele>
        <time>2026-03-21T09:40:23Z</time>
      </trkpt>
      <trkpt lat="45.92912" lon="6.50502">
        <ele>1684.383</ele>
        <time>2026-03-21T09:40:28Z</time>
      </trkpt>
      <trkpt lat="45.92912" lon="6.50502">
        <ele>1684.39</ele>
        <time>2026-03-21T09:40:33Z</time>
      </trkpt>
      <trkpt lat="45.92912" lon="6.50502">
        <ele>1684.391</ele>
        <time>2026-03-21T09:40:38Z</time>
      </trkpt>
      <trkpt lat="45.92912" lon="6.50502">
        <ele>1684.377</ele>
        <time>2026-03-21T09:40:43Z</time>
      </trkpt>
      <trkpt lat="45.92912" lon="6.50502">
        <ele>1684.373</ele>
        <time>2026-03-21T09:40:48Z</time>
      </trkpt>
      <trkpt lat="45.92912" lon="6.50502">
        <ele>1684.372</ele>
        <time>2026-03-21T09:40:53Z</time>
      </trkpt>
      <trkpt lat="45.92912" lon="6.50502">
        <ele>1684.377</ele>
        <time>2026-03-21T09:40:58Z</time>
      </trkpt>
      <trkpt lat="45.92912" lon="6.50502">
        <ele>1684.378</ele>
        <time>2026-03-21T09:41:03Z</time>
      </trkpt>
      <trkpt lat="45.92912" lon="6.50502">
        <ele>1684.377</ele>
        <time>2026-03-21T09:41:08Z</time>
      </trkpt>
      <trkpt lat="45.92912" lon="6.50502">
        <ele>1684.383</ele>
        <time>2026-03-21T09:41:13Z</time>
      </trkpt>
      <trkpt lat="45.92912" lon="6.50502">
        <ele>1684.373</ele>
        <time>2026-03-21T09:41:18Z</time>
      </trkpt>
      <trkpt lat="45.92912" lon="6.50502">
        <ele>1684.374</ele>
        <time>2026-03-21T09:41:23Z</time>
      </trkpt>
      <trkpt lat="45.92912" lon="6.50502">
        <ele>1684.225</ele>
        <time>2026-03-21T09:41:28Z</time>
      </trkpt>
      <trkpt lat="45.92912" lon="6.50502">
        <ele>1684.169</ele>
        <time>2026-03-21T09:41:33Z</time>
      </trkpt>
      <trkpt lat="45.92912" lon="6.50502">
        <ele>1684.538</ele>
        <time>2026-03-21T09:41:38Z</time>
      </trkpt>
      <trkpt lat="45.92912" lon="6.50502">
        <ele>1684.663</ele>
        <time>2026-03-21T09:41:43Z</time>
      </trkpt>
      <trkpt lat="45.92912" lon="6.50502">
        <ele>1684.655</ele>
        <time>2026-03-21T09:41:48Z</time>
      </trkpt>
      <trkpt lat="45.92912" lon="6.50502">
        <ele>1684.653</ele>
        <time>2026-03-21T09:41:53Z</time>
      </trkpt>
      <trkpt lat="45.92912" lon="6.50502">
        <ele>1684.606</ele>
        <time>2026-03-21T09:41:58Z</time>
      </trkpt>
      <trkpt lat="45.92912" lon="6.50502">
        <ele>1684.41</ele>
        <time>2026-03-21T09:42:03Z</time>
      </trkpt>
      <trkpt lat="45.92912" lon="6.50502">
        <ele>1684.423</ele>
        <time>2026-03-21T09:42:08Z</time>
      </trkpt>
      <trkpt lat="45.92912" lon="6.50502">
        <ele>1684.414</ele>
        <time>2026-03-21T09:42:13Z</time>
      </trkpt>
      <trkpt lat="45.92912" lon="6.50502">
        <ele>1684.41</ele>
        <time>2026-03-21T09:42:18Z</time>
      </trkpt>
      <trkpt lat="45.92912" lon="6.50502">
        <ele>1683.483</ele>
        <time>2026-03-21T09:42:23Z</time>
      </trkpt>
      <trkpt lat="45.92912" lon="6.50502">
        <ele>1683.48</ele>
        <time>2026-03-21T09:42:28Z</time>
      </trkpt>
      <trkpt lat="45.92912" lon="6.50502">
        <ele>1683.471</ele>
        <time>2026-03-21T09:42:33Z</time>
      </trkpt>
      <trkpt lat="45.92912" lon="6.50502">
        <ele>1683.467</ele>
        <time>2026-03-21T09:42:38Z</time>
      </trkpt>
      <trkpt lat="45.92912" lon="6.50502">
        <ele>1683.462</ele>
        <time>2026-03-21T09:42:43Z</time>
      </trkpt>
      <trkpt lat="45.92912" lon="6.50502">
        <ele>1683.457</ele>
        <time>2026-03-21T09:42:48Z</time>
      </trkpt>
      <trkpt lat="45.92912" lon="6.50502">
        <ele>1683.459</ele>
        <time>2026-03-21T09:42:53Z</time>
      </trkpt>
      <trkpt lat="45.92912" lon="6.50502">
        <ele>1683.46</ele>
        <time>2026-03-21T09:42:58Z</time>
      </trkpt>
      <trkpt lat="45.92912" lon="6.50502">
        <ele>1683.457</ele>
        <time>2026-03-21T09:43:03Z</time>
      </trkpt>
      <trkpt lat="45.92912" lon="6.50502">
        <ele>1683.255</ele>
        <time>2026-03-21T09:43:08Z</time>
      </trkpt>
      <trkpt lat="45.92912" lon="6.50502">
        <ele>1683.262</ele>
        <time>2026-03-21T09:43:13Z</time>
      </trkpt>
      <trkpt lat="45.92912" lon="6.50502">
        <ele>1683.265</ele>
        <time>2026-03-21T09:43:18Z</time>
      </trkpt>
      <trkpt lat="45.92912" lon="6.50502">
        <ele>1683.266</ele>
        <time>2026-03-21T09:43:23Z</time>
      </trkpt>
      <trkpt lat="45.92912" lon="6.50502">
        <ele>1683.267</ele>
        <time>2026-03-21T09:43:28Z</time>
      </trkpt>
      <trkpt lat="45.92912" lon="6.50502">
        <ele>1683.269</ele>
        <time>2026-03-21T09:43:33Z</time>
      </trkpt>
      <trkpt lat="45.92912" lon="6.50502">
        <ele>1683.268</ele>
        <time>2026-03-21T09:43:38Z</time>
      </trkpt>
      <trkpt lat="45.92912" lon="6.50502">
        <ele>1683.43</ele>
        <time>2026-03-21T09:43:43Z</time>
      </trkpt>
      <trkpt lat="45.92912" lon="6.50502">
        <ele>1683.361</ele>
        <time>2026-03-21T09:43:48Z</time>
      </trkpt>
      <trkpt lat="45.92912" lon="6.50502">
        <ele>1683.362</ele>
        <time>2026-03-21T09:43:53Z</time>
      </trkpt>
      <trkpt lat="45.92912" lon="6.50502">
        <ele>1683.362</ele>
        <time>2026-03-21T09:43:58Z</time>
      </trkpt>
      <trkpt lat="45.92912" lon="6.50502">
        <ele>1683.355</ele>
        <time>2026-03-21T09:44:03Z</time>
      </trkpt>
      <trkpt lat="45.92912" lon="6.50502">
        <ele>1683.355</ele>
        <time>2026-03-21T09:44:08Z</time>
      </trkpt>
      <trkpt lat="45.92912" lon="6.50502">
        <ele>1683.352</ele>
        <time>2026-03-21T09:44:13Z</time>
      </trkpt>
      <trkpt lat="45.92912" lon="6.50502">
        <ele>1683.351</ele>
        <time>2026-03-21T09:44:18Z</time>
      </trkpt>
      <trkpt lat="45.92912" lon="6.50502">
        <ele>1683.348</ele>
        <time>2026-03-21T09:44:23Z</time>
      </trkpt>
      <trkpt lat="45.92912" lon="6.50502">
        <ele>1683.348</ele>
        <time>2026-03-21T09:44:28Z</time>
      </trkpt>
      <trkpt lat="45.92912" lon="6.50502">
        <ele>1683.346</ele>
        <time>2026-03-21T09:44:33Z</time>
      </trkpt>
      <trkpt lat="45.92912" lon="6.50502">
        <ele>1683.35</ele>
        <time>2026-03-21T09:44:38Z</time>
      </trkpt>
      <trkpt lat="45.92912" lon="6.50502">
        <ele>1683.351</ele>
        <time>2026-03-21T09:44:43Z</time>
      </trkpt>
      <trkpt lat="45.92912" lon="6.50502">
        <ele>1683.047</ele>
        <time>2026-03-21T09:44:48Z</time>
      </trkpt>
      <trkpt lat="45.92912" lon="6.50501">
        <ele>1683.081</ele>
        <time>2026-03-21T09:44:53Z</time>
      </trkpt>
      <trkpt lat="45.92912" lon="6.50501">
        <ele>1683.136</ele>
        <time>2026-03-21T09:44:58Z</time>
      </trkpt>
      <trkpt lat="45.92912" lon="6.50501">
        <ele>1683.133</ele>
        <time>2026-03-21T09:45:03Z</time>
      </trkpt>
      <trkpt lat="45.92912" lon="6.50501">
        <ele>1683.129</ele>
        <time>2026-03-21T09:45:08Z</time>
      </trkpt>
      <trkpt lat="45.92912" lon="6.50501">
        <ele>1683.128</ele>
        <time>2026-03-21T09:45:13Z</time>
      </trkpt>
      <trkpt lat="45.92912" lon="6.50502">
        <ele>1682.924</ele>
        <time>2026-03-21T09:45:18Z</time>
      </trkpt>
      <trkpt lat="45.92912" lon="6.50502">
        <ele>1683.008</ele>
        <time>2026-03-21T09:45:23Z</time>
      </trkpt>
      <trkpt lat="45.92913" lon="6.50505">
        <ele>1684.162</ele>
        <time>2026-03-21T09:45:28Z</time>
      </trkpt>
      <trkpt lat="45.92914" lon="6.50507">
        <ele>1684.115</ele>
        <time>2026-03-21T09:45:33Z</time>
      </trkpt>
      <trkpt lat="45.92915" lon="6.50508">
        <ele>1684.466</ele>
        <time>2026-03-21T09:45:38Z</time>
      </trkpt>
      <trkpt lat="45.92916" lon="6.5051">
        <ele>1684.961</ele>
        <time>2026-03-21T09:45:43Z</time>
      </trkpt>
      <trkpt lat="45.92917" lon="6.50512">
        <ele>1685.923</ele>
        <time>2026-03-21T09:45:48Z</time>
      </trkpt>
      <trkpt lat="45.92919" lon="6.50515">
        <ele>1685.778</ele>
        <time>2026-03-21T09:45:53Z</time>
      </trkpt>
      <trkpt lat="45.92923" lon="6.50521">
        <ele>1685.153</ele>
        <time>2026-03-21T09:45:58Z</time>
      </trkpt>
      <trkpt lat="45.92926" lon="6.50524">
        <ele>1684.654</ele>
        <time>2026-03-21T09:46:03Z</time>
      </trkpt>
      <trkpt lat="45.92928" lon="6.50527">
        <ele>1684.646</ele>
        <time>2026-03-21T09:46:08Z</time>
      </trkpt>
      <trkpt lat="45.92928" lon="6.50527">
        <ele>1684.456</ele>
        <time>2026-03-21T09:46:13Z</time>
      </trkpt>
      <trkpt lat="45.92931" lon="6.5053">
        <ele>1684.508</ele>
        <time>2026-03-21T09:46:18Z</time>
      </trkpt>
      <trkpt lat="45.92934" lon="6.50533">
        <ele>1684.432</ele>
        <time>2026-03-21T09:46:23Z</time>
      </trkpt>
      <trkpt lat="45.92937" lon="6.50537">
        <ele>1684.247</ele>
        <time>2026-03-21T09:46:28Z</time>
      </trkpt>
      <trkpt lat="45.92939" lon="6.50541">
        <ele>1685.062</ele>
        <time>2026-03-21T09:46:33Z</time>
      </trkpt>
      <trkpt lat="45.9294" lon="6.50545">
        <ele>1685.291</ele>
        <time>2026-03-21T09:46:38Z</time>
      </trkpt>
      <trkpt lat="45.92941" lon="6.50551">
        <ele>1685.432</ele>
        <time>2026-03-21T09:46:43Z</time>
      </trkpt>
      <trkpt lat="45.92941" lon="6.50557">
        <ele>1685.629</ele>
        <time>2026-03-21T09:46:48Z</time>
      </trkpt>
      <trkpt lat="45.9294" lon="6.50558">
        <ele>1685.313</ele>
        <time>2026-03-21T09:46:53Z</time>
      </trkpt>
      <trkpt lat="45.92941" lon="6.50561">
        <ele>1685.096</ele>
        <time>2026-03-21T09:46:58Z</time>
      </trkpt>
      <trkpt lat="45.9294" lon="6.50565">
        <ele>1684.711</ele>
        <time>2026-03-21T09:47:03Z</time>
      </trkpt>
      <trkpt lat="45.9294" lon="6.5057">
        <ele>1684.797</ele>
        <time>2026-03-21T09:47:08Z</time>
      </trkpt>
      <trkpt lat="45.9294" lon="6.50572">
        <ele>1684.979</ele>
        <time>2026-03-21T09:47:13Z</time>
      </trkpt>
      <trkpt lat="45.9294" lon="6.50577">
        <ele>1684.941</ele>
        <time>2026-03-21T09:47:18Z</time>
      </trkpt>
      <trkpt lat="45.9294" lon="6.50582">
        <ele>1685</ele>
        <time>2026-03-21T09:47:23Z</time>
      </trkpt>
      <trkpt lat="45.92941" lon="6.50585">
        <ele>1684.839</ele>
        <time>2026-03-21T09:47:28Z</time>
      </trkpt>
      <trkpt lat="45.92941" lon="6.50589">
        <ele>1684.966</ele>
        <time>2026-03-21T09:47:33Z</time>
      </trkpt>
      <trkpt lat="45.92941" lon="6.50595">
        <ele>1685.756</ele>
        <time>2026-03-21T09:47:38Z</time>
      </trkpt>
      <trkpt lat="45.92942" lon="6.50601">
        <ele>1685.163</ele>
        <time>2026-03-21T09:47:43Z</time>
      </trkpt>
      <trkpt lat="45.92944" lon="6.50607">
        <ele>1684.689</ele>
        <time>2026-03-21T09:47:48Z</time>
      </trkpt>
      <trkpt lat="45.92945" lon="6.50611">
        <ele>1683.624</ele>
        <time>2026-03-21T09:47:53Z</time>
      </trkpt>
      <trkpt lat="45.92947" lon="6.50615">
        <ele>1683.955</ele>
        <time>2026-03-21T09:47:58Z</time>
      </trkpt>
      <trkpt lat="45.92949" lon="6.50619">
        <ele>1684.348</ele>
        <time>2026-03-21T09:48:03Z</time>
      </trkpt>
      <trkpt lat="45.92951" lon="6.50623">
        <ele>1684.922</ele>
        <time>2026-03-21T09:48:08Z</time>
      </trkpt>
      <trkpt lat="45.92954" lon="6.50626">
        <ele>1685.96</ele>
        <time>2026-03-21T09:48:13Z</time>
      </trkpt>
      <trkpt lat="45.92956" lon="6.50629">
        <ele>1686.786</ele>
        <time>2026-03-21T09:48:18Z</time>
      </trkpt>
      <trkpt lat="45.92958" lon="6.50633">
        <ele>1686.877</ele>
        <time>2026-03-21T09:48:23Z</time>
      </trkpt>
      <trkpt lat="45.92962" lon="6.50637">
        <ele>1687.432</ele>
        <time>2026-03-21T09:48:28Z</time>
      </trkpt>
      <trkpt lat="45.92965" lon="6.50641">
        <ele>1688.47</ele>
        <time>2026-03-21T09:48:33Z</time>
      </trkpt>
      <trkpt lat="45.92967" lon="6.50645">
        <ele>1689.466</ele>
        <time>2026-03-21T09:48:38Z</time>
      </trkpt>
      <trkpt lat="45.92969" lon="6.50649">
        <ele>1689.622</ele>
        <time>2026-03-21T09:48:43Z</time>
      </trkpt>
      <trkpt lat="45.92972" lon="6.50653">
        <ele>1690.135</ele>
        <time>2026-03-21T09:48:48Z</time>
      </trkpt>
      <trkpt lat="45.92975" lon="6.50656">
        <ele>1691.81</ele>
        <time>2026-03-21T09:48:53Z</time>
      </trkpt>
      <trkpt lat="45.92977" lon="6.50658">
        <ele>1691.74</ele>
        <time>2026-03-21T09:48:58Z</time>
      </trkpt>
      <trkpt lat="45.92978" lon="6.5066">
        <ele>1692.83</ele>
        <time>2026-03-21T09:49:03Z</time>
      </trkpt>
      <trkpt lat="45.92978" lon="6.5066">
        <ele>1692.948</ele>
        <time>2026-03-21T09:49:08Z</time>
      </trkpt>
      <trkpt lat="45.9298" lon="6.50663">
        <ele>1693.399</ele>
        <time>2026-03-21T09:49:13Z</time>
      </trkpt>
      <trkpt lat="45.9298" lon="6.50663">
        <ele>1693.398</ele>
        <time>2026-03-21T09:49:18Z</time>
      </trkpt>
      <trkpt lat="45.9298" lon="6.50663">
        <ele>1693.387</ele>
        <time>2026-03-21T09:49:23Z</time>
      </trkpt>
      <trkpt lat="45.92982" lon="6.50665">
        <ele>1693.523</ele>
        <time>2026-03-21T09:49:28Z</time>
      </trkpt>
      <trkpt lat="45.92984" lon="6.50667">
        <ele>1693.184</ele>
        <time>2026-03-21T09:49:33Z</time>
      </trkpt>
      <trkpt lat="45.92986" lon="6.50669">
        <ele>1693.007</ele>
        <time>2026-03-21T09:49:38Z</time>
      </trkpt>
      <trkpt lat="45.92987" lon="6.50673">
        <ele>1693.928</ele>
        <time>2026-03-21T09:49:43Z</time>
      </trkpt>
      <trkpt lat="45.92989" lon="6.50676">
        <ele>1693.94</ele>
        <time>2026-03-21T09:49:48Z</time>
      </trkpt>
      <trkpt lat="45.92992" lon="6.5068">
        <ele>1694.57</ele>
        <time>2026-03-21T09:49:53Z</time>
      </trkpt>
      <trkpt lat="45.92994" lon="6.50682">
        <ele>1694.999</ele>
        <time>2026-03-21T09:49:58Z</time>
      </trkpt>
      <trkpt lat="45.92997" lon="6.50687">
        <ele>1695.069</ele>
        <time>2026-03-21T09:50:03Z</time>
      </trkpt>
      <trkpt lat="45.93" lon="6.50691">
        <ele>1695.309</ele>
        <time>2026-03-21T09:50:08Z</time>
      </trkpt>
      <trkpt lat="45.93002" lon="6.50695">
        <ele>1695.654</ele>
        <time>2026-03-21T09:50:13Z</time>
      </trkpt>
      <trkpt lat="45.93005" lon="6.50699">
        <ele>1696.222</ele>
        <time>2026-03-21T09:50:18Z</time>
      </trkpt>
      <trkpt lat="45.93007" lon="6.50702">
        <ele>1697.427</ele>
        <time>2026-03-21T09:50:23Z</time>
      </trkpt>
      <trkpt lat="45.9301" lon="6.50705">
        <ele>1698.191</ele>
        <time>2026-03-21T09:50:28Z</time>
      </trkpt>
      <trkpt lat="45.93012" lon="6.5071">
        <ele>1698.058</ele>
        <time>2026-03-21T09:50:33Z</time>
      </trkpt>
      <trkpt lat="45.93014" lon="6.50714">
        <ele>1697.901</ele>
        <time>2026-03-21T09:50:38Z</time>
      </trkpt>
      <trkpt lat="45.93018" lon="6.50718">
        <ele>1699.259</ele>
        <time>2026-03-21T09:50:43Z</time>
      </trkpt>
      <trkpt lat="45.93021" lon="6.50722">
        <ele>1700.087</ele>
        <time>2026-03-21T09:50:48Z</time>
      </trkpt>
      <trkpt lat="45.93023" lon="6.50727">
        <ele>1700.868</ele>
        <time>2026-03-21T09:50:53Z</time>
      </trkpt>
      <trkpt lat="45.93025" lon="6.50732">
        <ele>1700.997</ele>
        <time>2026-03-21T09:50:58Z</time>
      </trkpt>
      <trkpt lat="45.93028" lon="6.50736">
        <ele>1701.617</ele>
        <time>2026-03-21T09:51:03Z</time>
      </trkpt>
      <trkpt lat="45.93031" lon="6.50739">
        <ele>1701.425</ele>
        <time>2026-03-21T09:51:08Z</time>
      </trkpt>
      <trkpt lat="45.93033" lon="6.50743">
        <ele>1702.709</ele>
        <time>2026-03-21T09:51:13Z</time>
      </trkpt>
      <trkpt lat="45.93034" lon="6.50747">
        <ele>1703.503</ele>
        <time>2026-03-21T09:51:18Z</time>
      </trkpt>
      <trkpt lat="45.93035" lon="6.50751">
        <ele>1705.238</ele>
        <time>2026-03-21T09:51:23Z</time>
      </trkpt>
      <trkpt lat="45.93037" lon="6.50756">
        <ele>1706.031</ele>
        <time>2026-03-21T09:51:28Z</time>
      </trkpt>
      <trkpt lat="45.93039" lon="6.50759">
        <ele>1705.593</ele>
        <time>2026-03-21T09:51:33Z</time>
      </trkpt>
      <trkpt lat="45.93041" lon="6.50763">
        <ele>1706.134</ele>
        <time>2026-03-21T09:51:38Z</time>
      </trkpt>
      <trkpt lat="45.93042" lon="6.50767">
        <ele>1706.442</ele>
        <time>2026-03-21T09:51:43Z</time>
      </trkpt>
      <trkpt lat="45.93045" lon="6.50772">
        <ele>1707.072</ele>
        <time>2026-03-21T09:51:48Z</time>
      </trkpt>
      <trkpt lat="45.93047" lon="6.50776">
        <ele>1707.036</ele>
        <time>2026-03-21T09:51:53Z</time>
      </trkpt>
      <trkpt lat="45.93051" lon="6.50778">
        <ele>1707.19</ele>
        <time>2026-03-21T09:51:58Z</time>
      </trkpt>
      <trkpt lat="45.93054" lon="6.5078">
        <ele>1707.548</ele>
        <time>2026-03-21T09:52:03Z</time>
      </trkpt>
      <trkpt lat="45.93056" lon="6.50783">
        <ele>1707.911</ele>
        <time>2026-03-21T09:52:08Z</time>
      </trkpt>
      <trkpt lat="45.93059" lon="6.50787">
        <ele>1709.237</ele>
        <time>2026-03-21T09:52:13Z</time>
      </trkpt>
      <trkpt lat="45.93061" lon="6.50791">
        <ele>1709.351</ele>
        <time>2026-03-21T09:52:18Z</time>
      </trkpt>
      <trkpt lat="45.93064" lon="6.50795">
        <ele>1708.813</ele>
        <time>2026-03-21T09:52:23Z</time>
      </trkpt>
      <trkpt lat="45.93067" lon="6.50799">
        <ele>1709.214</ele>
        <time>2026-03-21T09:52:28Z</time>
      </trkpt>
      <trkpt lat="45.93069" lon="6.50802">
        <ele>1709.673</ele>
        <time>2026-03-21T09:52:33Z</time>
      </trkpt>
      <trkpt lat="45.93072" lon="6.50805">
        <ele>1710.683</ele>
        <time>2026-03-21T09:52:38Z</time>
      </trkpt>
      <trkpt lat="45.93075" lon="6.50809">
        <ele>1710.828</ele>
        <time>2026-03-21T09:52:43Z</time>
      </trkpt>
      <trkpt lat="45.93077" lon="6.50812">
        <ele>1711.639</ele>
        <time>2026-03-21T09:52:48Z</time>
      </trkpt>
      <trkpt lat="45.93079" lon="6.50816">
        <ele>1712.492</ele>
        <time>2026-03-21T09:52:53Z</time>
      </trkpt>
      <trkpt lat="45.93081" lon="6.5082">
        <ele>1713.377</ele>
        <time>2026-03-21T09:52:58Z</time>
      </trkpt>
      <trkpt lat="45.93082" lon="6.50825">
        <ele>1714.662</ele>
        <time>2026-03-21T09:53:03Z</time>
      </trkpt>
      <trkpt lat="45.93083" lon="6.5083">
        <ele>1716.104</ele>
        <time>2026-03-21T09:53:08Z</time>
      </trkpt>
      <trkpt lat="45.93084" lon="6.50833">
        <ele>1716.077</ele>
        <time>2026-03-21T09:53:13Z</time>
      </trkpt>
      <trkpt lat="45.93086" lon="6.50836">
        <ele>1716.939</ele>
        <time>2026-03-21T09:53:18Z</time>
      </trkpt>
      <trkpt lat="45.93087" lon="6.5084">
        <ele>1716.862</ele>
        <time>2026-03-21T09:53:23Z</time>
      </trkpt>
      <trkpt lat="45.93088" lon="6.50843">
        <ele>1717.698</ele>
        <time>2026-03-21T09:53:28Z</time>
      </trkpt>
      <trkpt lat="45.9309" lon="6.50847">
        <ele>1717.565</ele>
        <time>2026-03-21T09:53:33Z</time>
      </trkpt>
      <trkpt lat="45.93092" lon="6.5085">
        <ele>1718.009</ele>
        <time>2026-03-21T09:53:38Z</time>
      </trkpt>
      <trkpt lat="45.93093" lon="6.50853">
        <ele>1718.121</ele>
        <time>2026-03-21T09:53:43Z</time>
      </trkpt>
      <trkpt lat="45.93095" lon="6.50856">
        <ele>1718.85</ele>
        <time>2026-03-21T09:53:48Z</time>
      </trkpt>
      <trkpt lat="45.93096" lon="6.5086">
        <ele>1719.189</ele>
        <time>2026-03-21T09:53:53Z</time>
      </trkpt>
      <trkpt lat="45.93098" lon="6.50864">
        <ele>1720.204</ele>
        <time>2026-03-21T09:53:58Z</time>
      </trkpt>
      <trkpt lat="45.931" lon="6.50867">
        <ele>1721.215</ele>
        <time>2026-03-21T09:54:03Z</time>
      </trkpt>
      <trkpt lat="45.93101" lon="6.5087">
        <ele>1721.873</ele>
        <time>2026-03-21T09:54:08Z</time>
      </trkpt>
      <trkpt lat="45.93102" lon="6.50873">
        <ele>1722.59</ele>
        <time>2026-03-21T09:54:13Z</time>
      </trkpt>
      <trkpt lat="45.93104" lon="6.50876">
        <ele>1723.813</ele>
        <time>2026-03-21T09:54:18Z</time>
      </trkpt>
      <trkpt lat="45.93105" lon="6.5088">
        <ele>1724.587</ele>
        <time>2026-03-21T09:54:23Z</time>
      </trkpt>
      <trkpt lat="45.93107" lon="6.50884">
        <ele>1725.515</ele>
        <time>2026-03-21T09:54:28Z</time>
      </trkpt>
      <trkpt lat="45.93108" lon="6.50887">
        <ele>1725.714</ele>
        <time>2026-03-21T09:54:33Z</time>
      </trkpt>
      <trkpt lat="45.9311" lon="6.50891">
        <ele>1725.547</ele>
        <time>2026-03-21T09:54:38Z</time>
      </trkpt>
      <trkpt lat="45.93112" lon="6.50895">
        <ele>1725.726</ele>
        <time>2026-03-21T09:54:43Z</time>
      </trkpt>
      <trkpt lat="45.93114" lon="6.50898">
        <ele>1726.895</ele>
        <time>2026-03-21T09:54:48Z</time>
      </trkpt>
      <trkpt lat="45.93115" lon="6.509">
        <ele>1728.312</ele>
        <time>2026-03-21T09:54:53Z</time>
      </trkpt>
      <trkpt lat="45.93117" lon="6.50904">
        <ele>1728.79</ele>
        <time>2026-03-21T09:54:58Z</time>
      </trkpt>
      <trkpt lat="45.93119" lon="6.50908">
        <ele>1729.156</ele>
        <time>2026-03-21T09:55:03Z</time>
      </trkpt>
      <trkpt lat="45.93121" lon="6.50911">
        <ele>1730.062</ele>
        <time>2026-03-21T09:55:08Z</time>
      </trkpt>
      <trkpt lat="45.93123" lon="6.50914">
        <ele>1729.885</ele>
        <time>2026-03-21T09:55:13Z</time>
      </trkpt>
      <trkpt lat="45.93124" lon="6.50918">
        <ele>1729.711</ele>
        <time>2026-03-21T09:55:18Z</time>
      </trkpt>
      <trkpt lat="45.93126" lon="6.50921">
        <ele>1731.144</ele>
        <time>2026-03-21T09:55:23Z</time>
      </trkpt>
      <trkpt lat="45.93128" lon="6.50924">
        <ele>1732.093</ele>
        <time>2026-03-21T09:55:28Z</time>
      </trkpt>
      <trkpt lat="45.93129" lon="6.50928">
        <ele>1732.883</ele>
        <time>2026-03-21T09:55:33Z</time>
      </trkpt>
      <trkpt lat="45.93131" lon="6.50931">
        <ele>1734.357</ele>
        <time>2026-03-21T09:55:38Z</time>
      </trkpt>
      <trkpt lat="45.93132" lon="6.50934">
        <ele>1735.234</ele>
        <time>2026-03-21T09:55:43Z</time>
      </trkpt>
      <trkpt lat="45.93133" lon="6.50937">
        <ele>1735.735</ele>
        <time>2026-03-21T09:55:48Z</time>
      </trkpt>
      <trkpt lat="45.93134" lon="6.50941">
        <ele>1736.059</ele>
        <time>2026-03-21T09:55:53Z</time>
      </trkpt>
      <trkpt lat="45.93136" lon="6.50943">
        <ele>1736.874</ele>
        <time>2026-03-21T09:55:58Z</time>
      </trkpt>
      <trkpt lat="45.93138" lon="6.50947">
        <ele>1737.795</ele>
        <time>2026-03-21T09:56:03Z</time>
      </trkpt>
      <trkpt lat="45.9314" lon="6.5095">
        <ele>1737.841</ele>
        <time>2026-03-21T09:56:08Z</time>
      </trkpt>
      <trkpt lat="45.93142" lon="6.50953">
        <ele>1737.794</ele>
        <time>2026-03-21T09:56:13Z</time>
      </trkpt>
      <trkpt lat="45.93143" lon="6.50956">
        <ele>1738.267</ele>
        <time>2026-03-21T09:56:18Z</time>
      </trkpt>
      <trkpt lat="45.93145" lon="6.50959">
        <ele>1739.861</ele>
        <time>2026-03-21T09:56:23Z</time>
      </trkpt>
      <trkpt lat="45.93147" lon="6.50963">
        <ele>1739.433</ele>
        <time>2026-03-21T09:56:28Z</time>
      </trkpt>
      <trkpt lat="45.93149" lon="6.50966">
        <ele>1739.86</ele>
        <time>2026-03-21T09:56:33Z</time>
      </trkpt>
      <trkpt lat="45.93151" lon="6.50968">
        <ele>1740.772</ele>
        <time>2026-03-21T09:56:38Z</time>
      </trkpt>
      <trkpt lat="45.93153" lon="6.50971">
        <ele>1741.033</ele>
        <time>2026-03-21T09:56:43Z</time>
      </trkpt>
      <trkpt lat="45.93154" lon="6.50974">
        <ele>1741.6</ele>
        <time>2026-03-21T09:56:48Z</time>
      </trkpt>
      <trkpt lat="45.93154" lon="6.50978">
        <ele>1743.015</ele>
        <time>2026-03-21T09:56:53Z</time>
      </trkpt>
      <trkpt lat="45.93155" lon="6.50979">
        <ele>1744.149</ele>
        <time>2026-03-21T09:56:58Z</time>
      </trkpt>
      <trkpt lat="45.93155" lon="6.50979">
        <ele>1744.146</ele>
        <time>2026-03-21T09:57:03Z</time>
      </trkpt>
      <trkpt lat="45.93155" lon="6.5098">
        <ele>1745.594</ele>
        <time>2026-03-21T09:57:08Z</time>
      </trkpt>
      <trkpt lat="45.93155" lon="6.50981">
        <ele>1746.096</ele>
        <time>2026-03-21T09:57:13Z</time>
      </trkpt>
      <trkpt lat="45.93156" lon="6.50984">
        <ele>1746.341</ele>
        <time>2026-03-21T09:57:18Z</time>
      </trkpt>
      <trkpt lat="45.93158" lon="6.50986">
        <ele>1747.044</ele>
        <time>2026-03-21T09:57:23Z</time>
      </trkpt>
      <trkpt lat="45.9316" lon="6.5099">
        <ele>1746.818</ele>
        <time>2026-03-21T09:57:28Z</time>
      </trkpt>
      <trkpt lat="45.93161" lon="6.50993">
        <ele>1748.458</ele>
        <time>2026-03-21T09:57:33Z</time>
      </trkpt>
      <trkpt lat="45.93162" lon="6.50996">
        <ele>1748.886</ele>
        <time>2026-03-21T09:57:38Z</time>
      </trkpt>
      <trkpt lat="45.93164" lon="6.50999">
        <ele>1749.234</ele>
        <time>2026-03-21T09:57:43Z</time>
      </trkpt>
      <trkpt lat="45.93164" lon="6.51003">
        <ele>1749.754</ele>
        <time>2026-03-21T09:57:48Z</time>
      </trkpt>
      <trkpt lat="45.93165" lon="6.51005">
        <ele>1750.379</ele>
        <time>2026-03-21T09:57:53Z</time>
      </trkpt>
      <trkpt lat="45.93165" lon="6.51008">
        <ele>1750.681</ele>
        <time>2026-03-21T09:57:58Z</time>
      </trkpt>
      <trkpt lat="45.93165" lon="6.51009">
        <ele>1750.841</ele>
        <time>2026-03-21T09:58:03Z</time>
      </trkpt>
      <trkpt lat="45.93164" lon="6.5101">
        <ele>1751.565</ele>
        <time>2026-03-21T09:58:08Z</time>
      </trkpt>
      <trkpt lat="45.93161" lon="6.51009">
        <ele>1751.998</ele>
        <time>2026-03-21T09:58:13Z</time>
      </trkpt>
      <trkpt lat="45.93159" lon="6.51009">
        <ele>1753.395</ele>
        <time>2026-03-21T09:58:18Z</time>
      </trkpt>
      <trkpt lat="45.93156" lon="6.51009">
        <ele>1754.102</ele>
        <time>2026-03-21T09:58:23Z</time>
      </trkpt>
      <trkpt lat="45.93153" lon="6.5101">
        <ele>1755.228</ele>
        <time>2026-03-21T09:58:28Z</time>
      </trkpt>
      <trkpt lat="45.93151" lon="6.5101">
        <ele>1755.065</ele>
        <time>2026-03-21T09:58:33Z</time>
      </trkpt>
      <trkpt lat="45.93148" lon="6.5101">
        <ele>1755.619</ele>
        <time>2026-03-21T09:58:38Z</time>
      </trkpt>
      <trkpt lat="45.93146" lon="6.5101">
        <ele>1756.931</ele>
        <time>2026-03-21T09:58:43Z</time>
      </trkpt>
      <trkpt lat="45.93143" lon="6.51009">
        <ele>1758.06</ele>
        <time>2026-03-21T09:58:48Z</time>
      </trkpt>
      <trkpt lat="45.9314" lon="6.51009">
        <ele>1758.497</ele>
        <time>2026-03-21T09:58:53Z</time>
      </trkpt>
      <trkpt lat="45.93136" lon="6.51008">
        <ele>1758.704</ele>
        <time>2026-03-21T09:58:58Z</time>
      </trkpt>
      <trkpt lat="45.93134" lon="6.51008">
        <ele>1758.985</ele>
        <time>2026-03-21T09:59:03Z</time>
      </trkpt>
      <trkpt lat="45.93132" lon="6.51008">
        <ele>1759.44</ele>
        <time>2026-03-21T09:59:08Z</time>
      </trkpt>
      <trkpt lat="45.93129" lon="6.51008">
        <ele>1760.556</ele>
        <time>2026-03-21T09:59:13Z</time>
      </trkpt>
      <trkpt lat="45.93127" lon="6.51006">
        <ele>1761.349</ele>
        <time>2026-03-21T09:59:18Z</time>
      </trkpt>
      <trkpt lat="45.93125" lon="6.51006">
        <ele>1761.878</ele>
        <time>2026-03-21T09:59:23Z</time>
      </trkpt>
      <trkpt lat="45.93122" lon="6.51005">
        <ele>1762.967</ele>
        <time>2026-03-21T09:59:28Z</time>
      </trkpt>
      <trkpt lat="45.93122" lon="6.51008">
        <ele>1763.859</ele>
        <time>2026-03-21T09:59:33Z</time>
      </trkpt>
      <trkpt lat="45.93123" lon="6.51013">
        <ele>1765.29</ele>
        <time>2026-03-21T09:59:38Z</time>
      </trkpt>
      <trkpt lat="45.93125" lon="6.51017">
        <ele>1766.186</ele>
        <time>2026-03-21T09:59:43Z</time>
      </trkpt>
      <trkpt lat="45.93126" lon="6.5102">
        <ele>1766.896</ele>
        <time>2026-03-21T09:59:48Z</time>
      </trkpt>
      <trkpt lat="45.93127" lon="6.51025">
        <ele>1767.214</ele>
        <time>2026-03-21T09:59:53Z</time>
      </trkpt>
      <trkpt lat="45.93128" lon="6.51028">
        <ele>1767.31</ele>
        <time>2026-03-21T09:59:58Z</time>
      </trkpt>
      <trkpt lat="45.93129" lon="6.51032">
        <ele>1766.881</ele>
        <time>2026-03-21T10:00:03Z</time>
      </trkpt>
      <trkpt lat="45.9313" lon="6.51036">
        <ele>1767.458</ele>
        <time>2026-03-21T10:00:08Z</time>
      </trkpt>
      <trkpt lat="45.93132" lon="6.51039">
        <ele>1768.524</ele>
        <time>2026-03-21T10:00:13Z</time>
      </trkpt>
      <trkpt lat="45.93133" lon="6.51042">
        <ele>1769.877</ele>
        <time>2026-03-21T10:00:18Z</time>
      </trkpt>
      <trkpt lat="45.93133" lon="6.51044">
        <ele>1770.439</ele>
        <time>2026-03-21T10:00:23Z</time>
      </trkpt>
      <trkpt lat="45.93133" lon="6.51044">
        <ele>1770.442</ele>
        <time>2026-03-21T10:00:28Z</time>
      </trkpt>
      <trkpt lat="45.93133" lon="6.51044">
        <ele>1770.441</ele>
        <time>2026-03-21T10:00:33Z</time>
      </trkpt>
      <trkpt lat="45.93133" lon="6.51044">
        <ele>1770.442</ele>
        <time>2026-03-21T10:00:38Z</time>
      </trkpt>
      <trkpt lat="45.93133" lon="6.51044">
        <ele>1770.444</ele>
        <time>2026-03-21T10:00:43Z</time>
      </trkpt>
      <trkpt lat="45.93133" lon="6.51044">
        <ele>1770.444</ele>
        <time>2026-03-21T10:00:48Z</time>
      </trkpt>
      <trkpt lat="45.93133" lon="6.51044">
        <ele>1770.444</ele>
        <time>2026-03-21T10:00:53Z</time>
      </trkpt>
      <trkpt lat="45.93133" lon="6.51044">
        <ele>1770.437</ele>
        <time>2026-03-21T10:00:58Z</time>
      </trkpt>
      <trkpt lat="45.93133" lon="6.51044">
        <ele>1770.439</ele>
        <time>2026-03-21T10:01:03Z</time>
      </trkpt>
      <trkpt lat="45.93133" lon="6.51044">
        <ele>1770.451</ele>
        <time>2026-03-21T10:01:08Z</time>
      </trkpt>
      <trkpt lat="45.93133" lon="6.51045">
        <ele>1770.824</ele>
        <time>2026-03-21T10:01:13Z</time>
      </trkpt>
      <trkpt lat="45.93134" lon="6.51048">
        <ele>1771.099</ele>
        <time>2026-03-21T10:01:18Z</time>
      </trkpt>
      <trkpt lat="45.93136" lon="6.51054">
        <ele>1771.72</ele>
        <time>2026-03-21T10:01:23Z</time>
      </trkpt>
      <trkpt lat="45.93138" lon="6.51059">
        <ele>1771.904</ele>
        <time>2026-03-21T10:01:28Z</time>
      </trkpt>
      <trkpt lat="45.93139" lon="6.51064">
        <ele>1772.618</ele>
        <time>2026-03-21T10:01:33Z</time>
      </trkpt>
      <trkpt lat="45.9314" lon="6.51068">
        <ele>1773.694</ele>
        <time>2026-03-21T10:01:38Z</time>
      </trkpt>
      <trkpt lat="45.93141" lon="6.51073">
        <ele>1774.353</ele>
        <time>2026-03-21T10:01:43Z</time>
      </trkpt>
      <trkpt lat="45.93142" lon="6.51077">
        <ele>1775.607</ele>
        <time>2026-03-21T10:01:48Z</time>
      </trkpt>
      <trkpt lat="45.93143" lon="6.51081">
        <ele>1775.678</ele>
        <time>2026-03-21T10:01:53Z</time>
      </trkpt>
      <trkpt lat="45.93144" lon="6.51085">
        <ele>1776.832</ele>
        <time>2026-03-21T10:01:58Z</time>
      </trkpt>
      <trkpt lat="45.93144" lon="6.51089">
        <ele>1777.926</ele>
        <time>2026-03-21T10:02:03Z</time>
      </trkpt>
      <trkpt lat="45.93144" lon="6.51092">
        <ele>1779.273</ele>
        <time>2026-03-21T10:02:08Z</time>
      </trkpt>
      <trkpt lat="45.93142" lon="6.51094">
        <ele>1779.676</ele>
        <time>2026-03-21T10:02:13Z</time>
      </trkpt>
      <trkpt lat="45.93139" lon="6.51096">
        <ele>1779.922</ele>
        <time>2026-03-21T10:02:18Z</time>
      </trkpt>
      <trkpt lat="45.93136" lon="6.51096">
        <ele>1780.84</ele>
        <time>2026-03-21T10:02:23Z</time>
      </trkpt>
      <trkpt lat="45.93133" lon="6.51097">
        <ele>1782.257</ele>
        <time>2026-03-21T10:02:28Z</time>
      </trkpt>
      <trkpt lat="45.93131" lon="6.51098">
        <ele>1782.713</ele>
        <time>2026-03-21T10:02:33Z</time>
      </trkpt>
      <trkpt lat="45.93129" lon="6.51098">
        <ele>1783.713</ele>
        <time>2026-03-21T10:02:38Z</time>
      </trkpt>
      <trkpt lat="45.93126" lon="6.51099">
        <ele>1783.801</ele>
        <time>2026-03-21T10:02:43Z</time>
      </trkpt>
      <trkpt lat="45.93124" lon="6.511">
        <ele>1785.94</ele>
        <time>2026-03-21T10:02:48Z</time>
      </trkpt>
      <trkpt lat="45.93121" lon="6.51101">
        <ele>1787.485</ele>
        <time>2026-03-21T10:02:53Z</time>
      </trkpt>
      <trkpt lat="45.93118" lon="6.51102">
        <ele>1789.39</ele>
        <time>2026-03-21T10:02:58Z</time>
      </trkpt>
      <trkpt lat="45.93116" lon="6.51103">
        <ele>1789.298</ele>
        <time>2026-03-21T10:03:03Z</time>
      </trkpt>
      <trkpt lat="45.93113" lon="6.51104">
        <ele>1789.411</ele>
        <time>2026-03-21T10:03:08Z</time>
      </trkpt>
      <trkpt lat="45.9311" lon="6.51104">
        <ele>1789.961</ele>
        <time>2026-03-21T10:03:13Z</time>
      </trkpt>
      <trkpt lat="45.93107" lon="6.51104">
        <ele>1790.756</ele>
        <time>2026-03-21T10:03:18Z</time>
      </trkpt>
      <trkpt lat="45.93105" lon="6.51103">
        <ele>1791.464</ele>
        <time>2026-03-21T10:03:23Z</time>
      </trkpt>
      <trkpt lat="45.93102" lon="6.51102">
        <ele>1791.358</ele>
        <time>2026-03-21T10:03:28Z</time>
      </trkpt>
      <trkpt lat="45.93099" lon="6.51101">
        <ele>1792.994</ele>
        <time>2026-03-21T10:03:33Z</time>
      </trkpt>
      <trkpt lat="45.93096" lon="6.511">
        <ele>1793.038</ele>
        <time>2026-03-21T10:03:38Z</time>
      </trkpt>
      <trkpt lat="45.93094" lon="6.51099">
        <ele>1794.239</ele>
        <time>2026-03-21T10:03:43Z</time>
      </trkpt>
      <trkpt lat="45.93091" lon="6.51098">
        <ele>1794.741</ele>
        <time>2026-03-21T10:03:48Z</time>
      </trkpt>
      <trkpt lat="45.93088" lon="6.51097">
        <ele>1795.977</ele>
        <time>2026-03-21T10:03:53Z</time>
      </trkpt>
      <trkpt lat="45.93085" lon="6.51097">
        <ele>1796.975</ele>
        <time>2026-03-21T10:03:58Z</time>
      </trkpt>
      <trkpt lat="45.93082" lon="6.51097">
        <ele>1797.874</ele>
        <time>2026-03-21T10:04:03Z</time>
      </trkpt>
      <trkpt lat="45.9308" lon="6.51097">
        <ele>1798.383</ele>
        <time>2026-03-21T10:04:08Z</time>
      </trkpt>
      <trkpt lat="45.93077" lon="6.51097">
        <ele>1798.665</ele>
        <time>2026-03-21T10:04:13Z</time>
      </trkpt>
      <trkpt lat="45.93074" lon="6.51098">
        <ele>1799.604</ele>
        <time>2026-03-21T10:04:18Z</time>
      </trkpt>
      <trkpt lat="45.93071" lon="6.51099">
        <ele>1800.019</ele>
        <time>2026-03-21T10:04:23Z</time>
      </trkpt>
      <trkpt lat="45.93069" lon="6.511">
        <ele>1800.655</ele>
        <time>2026-03-21T10:04:28Z</time>
      </trkpt>
      <trkpt lat="45.93067" lon="6.51102">
        <ele>1801.009</ele>
        <time>2026-03-21T10:04:33Z</time>
      </trkpt>
      <trkpt lat="45.93066" lon="6.51106">
        <ele>1801.638</ele>
        <time>2026-03-21T10:04:38Z</time>
      </trkpt>
      <trkpt lat="45.93065" lon="6.5111">
        <ele>1802.106</ele>
        <time>2026-03-21T10:04:43Z</time>
      </trkpt>
      <trkpt lat="45.93065" lon="6.51114">
        <ele>1802.254</ele>
        <time>2026-03-21T10:04:48Z</time>
      </trkpt>
      <trkpt lat="45.93065" lon="6.51118">
        <ele>1802.981</ele>
        <time>2026-03-21T10:04:53Z</time>
      </trkpt>
      <trkpt lat="45.93065" lon="6.51121">
        <ele>1803.86</ele>
        <time>2026-03-21T10:04:58Z</time>
      </trkpt>
      <trkpt lat="45.93065" lon="6.51125">
        <ele>1805.69</ele>
        <time>2026-03-21T10:05:03Z</time>
      </trkpt>
      <trkpt lat="45.93065" lon="6.51128">
        <ele>1805.021</ele>
        <time>2026-03-21T10:05:08Z</time>
      </trkpt>
      <trkpt lat="45.93065" lon="6.51131">
        <ele>1805.95</ele>
        <time>2026-03-21T10:05:13Z</time>
      </trkpt>
      <trkpt lat="45.93065" lon="6.51135">
        <ele>1807.236</ele>
        <time>2026-03-21T10:05:18Z</time>
      </trkpt>
      <trkpt lat="45.93065" lon="6.51138">
        <ele>1807.433</ele>
        <time>2026-03-21T10:05:23Z</time>
      </trkpt>
      <trkpt lat="45.93065" lon="6.51142">
        <ele>1808.023</ele>
        <time>2026-03-21T10:05:28Z</time>
      </trkpt>
      <trkpt lat="45.93064" lon="6.51145">
        <ele>1808.296</ele>
        <time>2026-03-21T10:05:33Z</time>
      </trkpt>
      <trkpt lat="45.93063" lon="6.51149">
        <ele>1809.276</ele>
        <time>2026-03-21T10:05:38Z</time>
      </trkpt>
      <trkpt lat="45.93063" lon="6.51151">
        <ele>1810.127</ele>
        <time>2026-03-21T10:05:43Z</time>
      </trkpt>
      <trkpt lat="45.93062" lon="6.51155">
        <ele>1811.225</ele>
        <time>2026-03-21T10:05:48Z</time>
      </trkpt>
      <trkpt lat="45.93061" lon="6.51159">
        <ele>1812.212</ele>
        <time>2026-03-21T10:05:53Z</time>
      </trkpt>
      <trkpt lat="45.9306" lon="6.51163">
        <ele>1813.123</ele>
        <time>2026-03-21T10:05:58Z</time>
      </trkpt>
      <trkpt lat="45.93059" lon="6.51166">
        <ele>1813.899</ele>
        <time>2026-03-21T10:06:03Z</time>
      </trkpt>
      <trkpt lat="45.93058" lon="6.51168">
        <ele>1815.687</ele>
        <time>2026-03-21T10:06:08Z</time>
      </trkpt>
      <trkpt lat="45.93056" lon="6.5117">
        <ele>1816.222</ele>
        <time>2026-03-21T10:06:13Z</time>
      </trkpt>
      <trkpt lat="45.93054" lon="6.51172">
        <ele>1817.615</ele>
        <time>2026-03-21T10:06:18Z</time>
      </trkpt>
      <trkpt lat="45.93051" lon="6.51174">
        <ele>1819.008</ele>
        <time>2026-03-21T10:06:23Z</time>
      </trkpt>
      <trkpt lat="45.93048" lon="6.51176">
        <ele>1819.792</ele>
        <time>2026-03-21T10:06:28Z</time>
      </trkpt>
      <trkpt lat="45.93046" lon="6.51177">
        <ele>1820.683</ele>
        <time>2026-03-21T10:06:33Z</time>
      </trkpt>
      <trkpt lat="45.93043" lon="6.51177">
        <ele>1820.833</ele>
        <time>2026-03-21T10:06:38Z</time>
      </trkpt>
      <trkpt lat="45.93041" lon="6.51178">
        <ele>1821.518</ele>
        <time>2026-03-21T10:06:43Z</time>
      </trkpt>
      <trkpt lat="45.93039" lon="6.51179">
        <ele>1822.31</ele>
        <time>2026-03-21T10:06:48Z</time>
      </trkpt>
      <trkpt lat="45.93037" lon="6.5118">
        <ele>1822.99</ele>
        <time>2026-03-21T10:06:53Z</time>
      </trkpt>
      <trkpt lat="45.93034" lon="6.51182">
        <ele>1824.216</ele>
        <time>2026-03-21T10:06:58Z</time>
      </trkpt>
      <trkpt lat="45.93031" lon="6.51183">
        <ele>1824.939</ele>
        <time>2026-03-21T10:07:03Z</time>
      </trkpt>
      <trkpt lat="45.93029" lon="6.51184">
        <ele>1825.415</ele>
        <time>2026-03-21T10:07:08Z</time>
      </trkpt>
      <trkpt lat="45.93026" lon="6.51185">
        <ele>1826.133</ele>
        <time>2026-03-21T10:07:13Z</time>
      </trkpt>
      <trkpt lat="45.93023" lon="6.51187">
        <ele>1826.803</ele>
        <time>2026-03-21T10:07:18Z</time>
      </trkpt>
      <trkpt lat="45.9302" lon="6.51188">
        <ele>1827.433</ele>
        <time>2026-03-21T10:07:23Z</time>
      </trkpt>
      <trkpt lat="45.93018" lon="6.51189">
        <ele>1827.898</ele>
        <time>2026-03-21T10:07:28Z</time>
      </trkpt>
      <trkpt lat="45.93015" lon="6.5119">
        <ele>1828.576</ele>
        <time>2026-03-21T10:07:33Z</time>
      </trkpt>
      <trkpt lat="45.93013" lon="6.51193">
        <ele>1829.302</ele>
        <time>2026-03-21T10:07:38Z</time>
      </trkpt>
      <trkpt lat="45.93011" lon="6.51195">
        <ele>1829.649</ele>
        <time>2026-03-21T10:07:43Z</time>
      </trkpt>
      <trkpt lat="45.93009" lon="6.51198">
        <ele>1830.055</ele>
        <time>2026-03-21T10:07:48Z</time>
      </trkpt>
      <trkpt lat="45.93007" lon="6.51201">
        <ele>1830.752</ele>
        <time>2026-03-21T10:07:53Z</time>
      </trkpt>
      <trkpt lat="45.93005" lon="6.51204">
        <ele>1831.607</ele>
        <time>2026-03-21T10:07:58Z</time>
      </trkpt>
      <trkpt lat="45.93004" lon="6.51206">
        <ele>1832.126</ele>
        <time>2026-03-21T10:08:03Z</time>
      </trkpt>
      <trkpt lat="45.93002" lon="6.51208">
        <ele>1832.197</ele>
        <time>2026-03-21T10:08:08Z</time>
      </trkpt>
      <trkpt lat="45.93" lon="6.51211">
        <ele>1833.455</ele>
        <time>2026-03-21T10:08:13Z</time>
      </trkpt>
      <trkpt lat="45.92999" lon="6.51213">
        <ele>1833.772</ele>
        <time>2026-03-21T10:08:18Z</time>
      </trkpt>
      <trkpt lat="45.92996" lon="6.51216">
        <ele>1833.895</ele>
        <time>2026-03-21T10:08:23Z</time>
      </trkpt>
      <trkpt lat="45.92994" lon="6.51218">
        <ele>1835.11</ele>
        <time>2026-03-21T10:08:28Z</time>
      </trkpt>
      <trkpt lat="45.92992" lon="6.5122">
        <ele>1835.166</ele>
        <time>2026-03-21T10:08:33Z</time>
      </trkpt>
      <trkpt lat="45.92991" lon="6.51223">
        <ele>1835.815</ele>
        <time>2026-03-21T10:08:38Z</time>
      </trkpt>
      <trkpt lat="45.9299" lon="6.51226">
        <ele>1835.867</ele>
        <time>2026-03-21T10:08:43Z</time>
      </trkpt>
      <trkpt lat="45.9299" lon="6.51229">
        <ele>1836.568</ele>
        <time>2026-03-21T10:08:48Z</time>
      </trkpt>
      <trkpt lat="45.92988" lon="6.51233">
        <ele>1838.065</ele>
        <time>2026-03-21T10:08:53Z</time>
      </trkpt>
      <trkpt lat="45.92986" lon="6.51235">
        <ele>1839.183</ele>
        <time>2026-03-21T10:08:58Z</time>
      </trkpt>
      <trkpt lat="45.92985" lon="6.51239">
        <ele>1839.269</ele>
        <time>2026-03-21T10:09:03Z</time>
      </trkpt>
      <trkpt lat="45.92984" lon="6.51242">
        <ele>1839.653</ele>
        <time>2026-03-21T10:09:08Z</time>
      </trkpt>
      <trkpt lat="45.92984" lon="6.51246">
        <ele>1840.558</ele>
        <time>2026-03-21T10:09:13Z</time>
      </trkpt>
      <trkpt lat="45.92983" lon="6.5125">
        <ele>1841.413</ele>
        <time>2026-03-21T10:09:18Z</time>
      </trkpt>
      <trkpt lat="45.92982" lon="6.51253">
        <ele>1842.207</ele>
        <time>2026-03-21T10:09:23Z</time>
      </trkpt>
      <trkpt lat="45.92981" lon="6.51256">
        <ele>1842.441</ele>
        <time>2026-03-21T10:09:28Z</time>
      </trkpt>
      <trkpt lat="45.9298" lon="6.51259">
        <ele>1843.166</ele>
        <time>2026-03-21T10:09:33Z</time>
      </trkpt>
      <trkpt lat="45.9298" lon="6.51261">
        <ele>1843.055</ele>
        <time>2026-03-21T10:09:38Z</time>
      </trkpt>
      <trkpt lat="45.9298" lon="6.51263">
        <ele>1843.729</ele>
        <time>2026-03-21T10:09:43Z</time>
      </trkpt>
      <trkpt lat="45.92979" lon="6.51265">
        <ele>1844.11</ele>
        <time>2026-03-21T10:09:48Z</time>
      </trkpt>
      <trkpt lat="45.92979" lon="6.51268">
        <ele>1844.198</ele>
        <time>2026-03-21T10:09:53Z</time>
      </trkpt>
      <trkpt lat="45.92977" lon="6.51271">
        <ele>1845.113</ele>
        <time>2026-03-21T10:09:58Z</time>
      </trkpt>
      <trkpt lat="45.92976" lon="6.51274">
        <ele>1845.216</ele>
        <time>2026-03-21T10:10:03Z</time>
      </trkpt>
      <trkpt lat="45.92974" lon="6.51277">
        <ele>1846.825</ele>
        <time>2026-03-21T10:10:08Z</time>
      </trkpt>
      <trkpt lat="45.92973" lon="6.51279">
        <ele>1848.124</ele>
        <time>2026-03-21T10:10:13Z</time>
      </trkpt>
      <trkpt lat="45.92972" lon="6.51281">
        <ele>1849.026</ele>
        <time>2026-03-21T10:10:18Z</time>
      </trkpt>
      <trkpt lat="45.92971" lon="6.51284">
        <ele>1849.371</ele>
        <time>2026-03-21T10:10:23Z</time>
      </trkpt>
      <trkpt lat="45.9297" lon="6.51288">
        <ele>1849.562</ele>
        <time>2026-03-21T10:10:28Z</time>
      </trkpt>
      <trkpt lat="45.92968" lon="6.51291">
        <ele>1850.502</ele>
        <time>2026-03-21T10:10:33Z</time>
      </trkpt>
      <trkpt lat="45.92967" lon="6.51295">
        <ele>1851.065</ele>
        <time>2026-03-21T10:10:38Z</time>
      </trkpt>
      <trkpt lat="45.92966" lon="6.51298">
        <ele>1851.767</ele>
        <time>2026-03-21T10:10:43Z</time>
      </trkpt>
      <trkpt lat="45.92965" lon="6.51302">
        <ele>1852.416</ele>
        <time>2026-03-21T10:10:48Z</time>
      </trkpt>
      <trkpt lat="45.92963" lon="6.51306">
        <ele>1852.326</ele>
        <time>2026-03-21T10:10:53Z</time>
      </trkpt>
      <trkpt lat="45.92961" lon="6.51311">
        <ele>1852.339</ele>
        <time>2026-03-21T10:10:58Z</time>
      </trkpt>
      <trkpt lat="45.9296" lon="6.51314">
        <ele>1853.59</ele>
        <time>2026-03-21T10:11:03Z</time>
      </trkpt>
      <trkpt lat="45.92958" lon="6.51317">
        <ele>1854.29</ele>
        <time>2026-03-21T10:11:08Z</time>
      </trkpt>
      <trkpt lat="45.92956" lon="6.51319">
        <ele>1854.376</ele>
        <time>2026-03-21T10:11:13Z</time>
      </trkpt>
      <trkpt lat="45.92954" lon="6.51322">
        <ele>1854.89</ele>
        <time>2026-03-21T10:11:18Z</time>
      </trkpt>
      <trkpt lat="45.92952" lon="6.51324">
        <ele>1855.748</ele>
        <time>2026-03-21T10:11:23Z</time>
      </trkpt>
      <trkpt lat="45.92952" lon="6.51325">
        <ele>1855.777</ele>
        <time>2026-03-21T10:11:28Z</time>
      </trkpt>
      <trkpt lat="45.9295" lon="6.51326">
        <ele>1856.39</ele>
        <time>2026-03-21T10:11:33Z</time>
      </trkpt>
      <trkpt lat="45.92948" lon="6.51328">
        <ele>1857.21</ele>
        <time>2026-03-21T10:11:38Z</time>
      </trkpt>
      <trkpt lat="45.92945" lon="6.51331">
        <ele>1857.52</ele>
        <time>2026-03-21T10:11:43Z</time>
      </trkpt>
      <trkpt lat="45.92943" lon="6.51334">
        <ele>1858.122</ele>
        <time>2026-03-21T10:11:48Z</time>
      </trkpt>
      <trkpt lat="45.92941" lon="6.51337">
        <ele>1859.27</ele>
        <time>2026-03-21T10:11:53Z</time>
      </trkpt>
      <trkpt lat="45.92939" lon="6.51339">
        <ele>1859.696</ele>
        <time>2026-03-21T10:11:58Z</time>
      </trkpt>
      <trkpt lat="45.92937" lon="6.51341">
        <ele>1860.07</ele>
        <time>2026-03-21T10:12:03Z</time>
      </trkpt>
      <trkpt lat="45.92935" lon="6.51343">
        <ele>1860.842</ele>
        <time>2026-03-21T10:12:08Z</time>
      </trkpt>
      <trkpt lat="45.92933" lon="6.51345">
        <ele>1860.607</ele>
        <time>2026-03-21T10:12:13Z</time>
      </trkpt>
      <trkpt lat="45.92931" lon="6.51347">
        <ele>1861.611</ele>
        <time>2026-03-21T10:12:18Z</time>
      </trkpt>
      <trkpt lat="45.92929" lon="6.51349">
        <ele>1861.371</ele>
        <time>2026-03-21T10:12:23Z</time>
      </trkpt>
      <trkpt lat="45.92927" lon="6.5135">
        <ele>1862.947</ele>
        <time>2026-03-21T10:12:28Z</time>
      </trkpt>
      <trkpt lat="45.92925" lon="6.51351">
        <ele>1864.165</ele>
        <time>2026-03-21T10:12:33Z</time>
      </trkpt>
      <trkpt lat="45.92922" lon="6.51353">
        <ele>1864.539</ele>
        <time>2026-03-21T10:12:38Z</time>
      </trkpt>
      <trkpt lat="45.92919" lon="6.51354">
        <ele>1864.639</ele>
        <time>2026-03-21T10:12:43Z</time>
      </trkpt>
      <trkpt lat="45.92917" lon="6.51354">
        <ele>1865.251</ele>
        <time>2026-03-21T10:12:48Z</time>
      </trkpt>
      <trkpt lat="45.92915" lon="6.51354">
        <ele>1865.652</ele>
        <time>2026-03-21T10:12:53Z</time>
      </trkpt>
      <trkpt lat="45.92912" lon="6.51354">
        <ele>1866.926</ele>
        <time>2026-03-21T10:12:58Z</time>
      </trkpt>
      <trkpt lat="45.9291" lon="6.51355">
        <ele>1867.642</ele>
        <time>2026-03-21T10:13:03Z</time>
      </trkpt>
      <trkpt lat="45.92907" lon="6.51355">
        <ele>1868.159</ele>
        <time>2026-03-21T10:13:08Z</time>
      </trkpt>
      <trkpt lat="45.92905" lon="6.51355">
        <ele>1869.055</ele>
        <time>2026-03-21T10:13:13Z</time>
      </trkpt>
      <trkpt lat="45.92903" lon="6.51355">
        <ele>1869.768</ele>
        <time>2026-03-21T10:13:18Z</time>
      </trkpt>
      <trkpt lat="45.92901" lon="6.51354">
        <ele>1870.778</ele>
        <time>2026-03-21T10:13:23Z</time>
      </trkpt>
      <trkpt lat="45.92899" lon="6.51353">
        <ele>1871.291</ele>
        <time>2026-03-21T10:13:28Z</time>
      </trkpt>
      <trkpt lat="45.92897" lon="6.51353">
        <ele>1871.163</ele>
        <time>2026-03-21T10:13:33Z</time>
      </trkpt>
      <trkpt lat="45.92895" lon="6.51354">
        <ele>1872.359</ele>
        <time>2026-03-21T10:13:38Z</time>
      </trkpt>
      <trkpt lat="45.92892" lon="6.51355">
        <ele>1873.129</ele>
        <time>2026-03-21T10:13:43Z</time>
      </trkpt>
      <trkpt lat="45.9289" lon="6.51356">
        <ele>1873.466</ele>
        <time>2026-03-21T10:13:48Z</time>
      </trkpt>
      <trkpt lat="45.92887" lon="6.51356">
        <ele>1873.357</ele>
        <time>2026-03-21T10:13:53Z</time>
      </trkpt>
      <trkpt lat="45.92886" lon="6.51357">
        <ele>1875.01</ele>
        <time>2026-03-21T10:13:58Z</time>
      </trkpt>
      <trkpt lat="45.92883" lon="6.51359">
        <ele>1875.852</ele>
        <time>2026-03-21T10:14:03Z</time>
      </trkpt>
      <trkpt lat="45.92882" lon="6.5136">
        <ele>1876.292</ele>
        <time>2026-03-21T10:14:08Z</time>
      </trkpt>
      <trkpt lat="45.9288" lon="6.51361">
        <ele>1876.285</ele>
        <time>2026-03-21T10:14:13Z</time>
      </trkpt>
      <trkpt lat="45.92877" lon="6.51362">
        <ele>1875.692</ele>
        <time>2026-03-21T10:14:18Z</time>
      </trkpt>
      <trkpt lat="45.92875" lon="6.51363">
        <ele>1876.225</ele>
        <time>2026-03-21T10:14:23Z</time>
      </trkpt>
      <trkpt lat="45.92873" lon="6.51364">
        <ele>1876.574</ele>
        <time>2026-03-21T10:14:28Z</time>
      </trkpt>
      <trkpt lat="45.92871" lon="6.51365">
        <ele>1876.468</ele>
        <time>2026-03-21T10:14:33Z</time>
      </trkpt>
      <trkpt lat="45.92869" lon="6.51366">
        <ele>1876.877</ele>
        <time>2026-03-21T10:14:38Z</time>
      </trkpt>
      <trkpt lat="45.92867" lon="6.51368">
        <ele>1877.707</ele>
        <time>2026-03-21T10:14:43Z</time>
      </trkpt>
      <trkpt lat="45.92868" lon="6.51371">
        <ele>1878.237</ele>
        <time>2026-03-21T10:14:48Z</time>
      </trkpt>
      <trkpt lat="45.92869" lon="6.51374">
        <ele>1878.097</ele>
        <time>2026-03-21T10:14:53Z</time>
      </trkpt>
      <trkpt lat="45.9287" lon="6.51378">
        <ele>1877.963</ele>
        <time>2026-03-21T10:14:58Z</time>
      </trkpt>
      <trkpt lat="45.9287" lon="6.51382">
        <ele>1878.875</ele>
        <time>2026-03-21T10:15:03Z</time>
      </trkpt>
      <trkpt lat="45.92872" lon="6.51386">
        <ele>1879.832</ele>
        <time>2026-03-21T10:15:08Z</time>
      </trkpt>
      <trkpt lat="45.92872" lon="6.51389">
        <ele>1879.263</ele>
        <time>2026-03-21T10:15:13Z</time>
      </trkpt>
      <trkpt lat="45.92873" lon="6.51392">
        <ele>1880.193</ele>
        <time>2026-03-21T10:15:18Z</time>
      </trkpt>
      <trkpt lat="45.92874" lon="6.51396">
        <ele>1880.932</ele>
        <time>2026-03-21T10:15:23Z</time>
      </trkpt>
      <trkpt lat="45.92875" lon="6.514">
        <ele>1883.084</ele>
        <time>2026-03-21T10:15:28Z</time>
      </trkpt>
      <trkpt lat="45.92874" lon="6.51403">
        <ele>1883.1</ele>
        <time>2026-03-21T10:15:33Z</time>
      </trkpt>
      <trkpt lat="45.92872" lon="6.51404">
        <ele>1884.307</ele>
        <time>2026-03-21T10:15:38Z</time>
      </trkpt>
      <trkpt lat="45.92869" lon="6.51404">
        <ele>1886.678</ele>
        <time>2026-03-21T10:15:43Z</time>
      </trkpt>
      <trkpt lat="45.92867" lon="6.51404">
        <ele>1886.831</ele>
        <time>2026-03-21T10:15:48Z</time>
      </trkpt>
      <trkpt lat="45.92864" lon="6.51405">
        <ele>1887.431</ele>
        <time>2026-03-21T10:15:53Z</time>
      </trkpt>
      <trkpt lat="45.92862" lon="6.51406">
        <ele>1887.591</ele>
        <time>2026-03-21T10:15:58Z</time>
      </trkpt>
      <trkpt lat="45.92861" lon="6.51407">
        <ele>1887.839</ele>
        <time>2026-03-21T10:16:03Z</time>
      </trkpt>
      <trkpt lat="45.9286" lon="6.5141">
        <ele>1888.324</ele>
        <time>2026-03-21T10:16:08Z</time>
      </trkpt>
      <trkpt lat="45.92861" lon="6.51414">
        <ele>1888.288</ele>
        <time>2026-03-21T10:16:13Z</time>
      </trkpt>
      <trkpt lat="45.92863" lon="6.51418">
        <ele>1888.806</ele>
        <time>2026-03-21T10:16:18Z</time>
      </trkpt>
      <trkpt lat="45.92864" lon="6.51422">
        <ele>1890.281</ele>
        <time>2026-03-21T10:16:23Z</time>
      </trkpt>
      <trkpt lat="45.92866" lon="6.51425">
        <ele>1890.517</ele>
        <time>2026-03-21T10:16:28Z</time>
      </trkpt>
      <trkpt lat="45.92867" lon="6.51428">
        <ele>1890.081</ele>
        <time>2026-03-21T10:16:33Z</time>
      </trkpt>
      <trkpt lat="45.92868" lon="6.51431">
        <ele>1890.507</ele>
        <time>2026-03-21T10:16:38Z</time>
      </trkpt>
      <trkpt lat="45.92869" lon="6.51434">
        <ele>1890.325</ele>
        <time>2026-03-21T10:16:43Z</time>
      </trkpt>
      <trkpt lat="45.9287" lon="6.51437">
        <ele>1890.248</ele>
        <time>2026-03-21T10:16:48Z</time>
      </trkpt>
      <trkpt lat="45.92871" lon="6.5144">
        <ele>1889.903</ele>
        <time>2026-03-21T10:16:53Z</time>
      </trkpt>
      <trkpt lat="45.92871" lon="6.5144">
        <ele>1889.901</ele>
        <time>2026-03-21T10:16:58Z</time>
      </trkpt>
      <trkpt lat="45.92871" lon="6.51441">
        <ele>1889.608</ele>
        <time>2026-03-21T10:17:03Z</time>
      </trkpt>
      <trkpt lat="45.92869" lon="6.51442">
        <ele>1892.197</ele>
        <time>2026-03-21T10:17:08Z</time>
      </trkpt>
      <trkpt lat="45.92866" lon="6.51443">
        <ele>1894.853</ele>
        <time>2026-03-21T10:17:13Z</time>
      </trkpt>
      <trkpt lat="45.92864" lon="6.51443">
        <ele>1896.158</ele>
        <time>2026-03-21T10:17:18Z</time>
      </trkpt>
      <trkpt lat="45.92862" lon="6.51444">
        <ele>1897.967</ele>
        <time>2026-03-21T10:17:23Z</time>
      </trkpt>
      <trkpt lat="45.92859" lon="6.51445">
        <ele>1898.113</ele>
        <time>2026-03-21T10:17:28Z</time>
      </trkpt>
      <trkpt lat="45.92857" lon="6.51447">
        <ele>1899.073</ele>
        <time>2026-03-21T10:17:33Z</time>
      </trkpt>
      <trkpt lat="45.92855" lon="6.51448">
        <ele>1900.079</ele>
        <time>2026-03-21T10:17:38Z</time>
      </trkpt>
      <trkpt lat="45.92854" lon="6.51449">
        <ele>1900.145</ele>
        <time>2026-03-21T10:17:43Z</time>
      </trkpt>
      <trkpt lat="45.92856" lon="6.51453">
        <ele>1899.763</ele>
        <time>2026-03-21T10:17:48Z</time>
      </trkpt>
      <trkpt lat="45.92859" lon="6.51454">
        <ele>1899.399</ele>
        <time>2026-03-21T10:17:53Z</time>
      </trkpt>
      <trkpt lat="45.9286" lon="6.51458">
        <ele>1900.336</ele>
        <time>2026-03-21T10:17:58Z</time>
      </trkpt>
      <trkpt lat="45.92862" lon="6.51461">
        <ele>1900.294</ele>
        <time>2026-03-21T10:18:03Z</time>
      </trkpt>
      <trkpt lat="45.92863" lon="6.51463">
        <ele>1900.591</ele>
        <time>2026-03-21T10:18:08Z</time>
      </trkpt>
      <trkpt lat="45.92863" lon="6.51466">
        <ele>1900.479</ele>
        <time>2026-03-21T10:18:13Z</time>
      </trkpt>
      <trkpt lat="45.92865" lon="6.51468">
        <ele>1900.585</ele>
        <time>2026-03-21T10:18:18Z</time>
      </trkpt>
      <trkpt lat="45.92866" lon="6.51468">
        <ele>1900.68</ele>
        <time>2026-03-21T10:18:23Z</time>
      </trkpt>
      <trkpt lat="45.92869" lon="6.51469">
        <ele>1902.703</ele>
        <time>2026-03-21T10:18:28Z</time>
      </trkpt>
      <trkpt lat="45.92869" lon="6.51471">
        <ele>1902.415</ele>
        <time>2026-03-21T10:18:33Z</time>
      </trkpt>
      <trkpt lat="45.92866" lon="6.51472">
        <ele>1904.508</ele>
        <time>2026-03-21T10:18:38Z</time>
      </trkpt>
      <trkpt lat="45.92864" lon="6.51473">
        <ele>1905.046</ele>
        <time>2026-03-21T10:18:43Z</time>
      </trkpt>
      <trkpt lat="45.92861" lon="6.51474">
        <ele>1905.408</ele>
        <time>2026-03-21T10:18:48Z</time>
      </trkpt>
      <trkpt lat="45.92859" lon="6.51474">
        <ele>1905.662</ele>
        <time>2026-03-21T10:18:53Z</time>
      </trkpt>
      <trkpt lat="45.92859" lon="6.51474">
        <ele>1905.84</ele>
        <time>2026-03-21T10:18:58Z</time>
      </trkpt>
      <trkpt lat="45.92858" lon="6.51474">
        <ele>1905.866</ele>
        <time>2026-03-21T10:19:03Z</time>
      </trkpt>
      <trkpt lat="45.92858" lon="6.51474">
        <ele>1905.876</ele>
        <time>2026-03-21T10:19:08Z</time>
      </trkpt>
      <trkpt lat="45.92858" lon="6.51474">
        <ele>1905.892</ele>
        <time>2026-03-21T10:19:13Z</time>
      </trkpt>
      <trkpt lat="45.92857" lon="6.51475">
        <ele>1906.292</ele>
        <time>2026-03-21T10:19:18Z</time>
      </trkpt>
      <trkpt lat="45.92855" lon="6.51476">
        <ele>1906.149</ele>
        <time>2026-03-21T10:19:23Z</time>
      </trkpt>
      <trkpt lat="45.92857" lon="6.5148">
        <ele>1905.317</ele>
        <time>2026-03-21T10:19:28Z</time>
      </trkpt>
      <trkpt lat="45.9286" lon="6.51483">
        <ele>1906.116</ele>
        <time>2026-03-21T10:19:33Z</time>
      </trkpt>
      <trkpt lat="45.92862" lon="6.51485">
        <ele>1906.584</ele>
        <time>2026-03-21T10:19:38Z</time>
      </trkpt>
      <trkpt lat="45.92864" lon="6.51487">
        <ele>1908.159</ele>
        <time>2026-03-21T10:19:43Z</time>
      </trkpt>
      <trkpt lat="45.92867" lon="6.51488">
        <ele>1910.776</ele>
        <time>2026-03-21T10:19:48Z</time>
      </trkpt>
      <trkpt lat="45.9287" lon="6.5149">
        <ele>1911.536</ele>
        <time>2026-03-21T10:19:53Z</time>
      </trkpt>
      <trkpt lat="45.92873" lon="6.5149">
        <ele>1913.042</ele>
        <time>2026-03-21T10:19:58Z</time>
      </trkpt>
      <trkpt lat="45.92874" lon="6.51492">
        <ele>1913.442</ele>
        <time>2026-03-21T10:20:03Z</time>
      </trkpt>
      <trkpt lat="45.92874" lon="6.51493">
        <ele>1913.441</ele>
        <time>2026-03-21T10:20:08Z</time>
      </trkpt>
      <trkpt lat="45.92874" lon="6.51493">
        <ele>1913.437</ele>
        <time>2026-03-21T10:20:13Z</time>
      </trkpt>
      <trkpt lat="45.92874" lon="6.51493">
        <ele>1913.441</ele>
        <time>2026-03-21T10:20:18Z</time>
      </trkpt>
      <trkpt lat="45.92874" lon="6.51493">
        <ele>1913.441</ele>
        <time>2026-03-21T10:20:23Z</time>
      </trkpt>
      <trkpt lat="45.92874" lon="6.51493">
        <ele>1913.442</ele>
        <time>2026-03-21T10:20:28Z</time>
      </trkpt>
      <trkpt lat="45.92875" lon="6.51493">
        <ele>1913.927</ele>
        <time>2026-03-21T10:20:33Z</time>
      </trkpt>
      <trkpt lat="45.92875" lon="6.51494">
        <ele>1914.019</ele>
        <time>2026-03-21T10:20:38Z</time>
      </trkpt>
      <trkpt lat="45.92875" lon="6.51494">
        <ele>1914.015</ele>
        <time>2026-03-21T10:20:43Z</time>
      </trkpt>
      <trkpt lat="45.92875" lon="6.51494">
        <ele>1914.011</ele>
        <time>2026-03-21T10:20:48Z</time>
      </trkpt>
      <trkpt lat="45.92875" lon="6.51494">
        <ele>1914.019</ele>
        <time>2026-03-21T10:20:53Z</time>
      </trkpt>
      <trkpt lat="45.92875" lon="6.51494">
        <ele>1914.015</ele>
        <time>2026-03-21T10:20:58Z</time>
      </trkpt>
      <trkpt lat="45.92875" lon="6.51494">
        <ele>1914.014</ele>
        <time>2026-03-21T10:21:03Z</time>
      </trkpt>
      <trkpt lat="45.92875" lon="6.51494">
        <ele>1914.02</ele>
        <time>2026-03-21T10:21:08Z</time>
      </trkpt>
      <trkpt lat="45.92875" lon="6.51494">
        <ele>1914.302</ele>
        <time>2026-03-21T10:21:13Z</time>
      </trkpt>
      <trkpt lat="45.92875" lon="6.51494">
        <ele>1915.419</ele>
        <time>2026-03-21T10:21:18Z</time>
      </trkpt>
      <trkpt lat="45.92875" lon="6.51494">
        <ele>1915.606</ele>
        <time>2026-03-21T10:21:23Z</time>
      </trkpt>
      <trkpt lat="45.92875" lon="6.51494">
        <ele>1915.719</ele>
        <time>2026-03-21T10:21:28Z</time>
      </trkpt>
      <trkpt lat="45.92875" lon="6.51494">
        <ele>1915.868</ele>
        <time>2026-03-21T10:21:33Z</time>
      </trkpt>
      <trkpt lat="45.92875" lon="6.51494">
        <ele>1915.653</ele>
        <time>2026-03-21T10:21:38Z</time>
      </trkpt>
      <trkpt lat="45.92875" lon="6.51494">
        <ele>1917.908</ele>
        <time>2026-03-21T10:21:43Z</time>
      </trkpt>
      <trkpt lat="45.92875" lon="6.51494">
        <ele>1917.815</ele>
        <time>2026-03-21T10:21:48Z</time>
      </trkpt>
      <trkpt lat="45.92875" lon="6.51494">
        <ele>1917.621</ele>
        <time>2026-03-21T10:21:53Z</time>
      </trkpt>
      <trkpt lat="45.92875" lon="6.51494">
        <ele>1917.808</ele>
        <time>2026-03-21T10:21:58Z</time>
      </trkpt>
      <trkpt lat="45.92875" lon="6.51494">
        <ele>1917.787</ele>
        <time>2026-03-21T10:22:03Z</time>
      </trkpt>
      <trkpt lat="45.92875" lon="6.51494">
        <ele>1917.775</ele>
        <time>2026-03-21T10:22:08Z</time>
      </trkpt>
      <trkpt lat="45.92875" lon="6.51494">
        <ele>1917.768</ele>
        <time>2026-03-21T10:22:13Z</time>
      </trkpt>
      <trkpt lat="45.92875" lon="6.51494">
        <ele>1917.752</ele>
        <time>2026-03-21T10:22:18Z</time>
      </trkpt>
      <trkpt lat="45.92875" lon="6.51494">
        <ele>1917.741</ele>
        <time>2026-03-21T10:22:23Z</time>
      </trkpt>
      <trkpt lat="45.92875" lon="6.51494">
        <ele>1917.725</ele>
        <time>2026-03-21T10:22:28Z</time>
      </trkpt>
      <trkpt lat="45.92875" lon="6.51494">
        <ele>1917.72</ele>
        <time>2026-03-21T10:22:33Z</time>
      </trkpt>
      <trkpt lat="45.92875" lon="6.51494">
        <ele>1917.708</ele>
        <time>2026-03-21T10:22:38Z</time>
      </trkpt>
      <trkpt lat="45.92875" lon="6.51494">
        <ele>1917.709</ele>
        <time>2026-03-21T10:22:43Z</time>
      </trkpt>
      <trkpt lat="45.92875" lon="6.51494">
        <ele>1918.339</ele>
        <time>2026-03-21T10:22:48Z</time>
      </trkpt>
      <trkpt lat="45.92875" lon="6.51494">
        <ele>1919.49</ele>
        <time>2026-03-21T10:22:53Z</time>
      </trkpt>
      <trkpt lat="45.92875" lon="6.51494">
        <ele>1919.39</ele>
        <time>2026-03-21T10:22:58Z</time>
      </trkpt>
      <trkpt lat="45.92875" lon="6.51494">
        <ele>1919.008</ele>
        <time>2026-03-21T10:23:03Z</time>
      </trkpt>
      <trkpt lat="45.92875" lon="6.51494">
        <ele>1919.148</ele>
        <time>2026-03-21T10:23:08Z</time>
      </trkpt>
      <trkpt lat="45.92875" lon="6.51494">
        <ele>1918.712</ele>
        <time>2026-03-21T10:23:13Z</time>
      </trkpt>
      <trkpt lat="45.92875" lon="6.51494">
        <ele>1918.574</ele>
        <time>2026-03-21T10:23:18Z</time>
      </trkpt>
      <trkpt lat="45.92875" lon="6.51494">
        <ele>1918.579</ele>
        <time>2026-03-21T10:23:23Z</time>
      </trkpt>
      <trkpt lat="45.92875" lon="6.51494">
        <ele>1918.45</ele>
        <time>2026-03-21T10:23:28Z</time>
      </trkpt>
      <trkpt lat="45.92875" lon="6.51494">
        <ele>1918.405</ele>
        <time>2026-03-21T10:23:33Z</time>
      </trkpt>
      <trkpt lat="45.92875" lon="6.51494">
        <ele>1918.407</ele>
        <time>2026-03-21T10:23:38Z</time>
      </trkpt>
      <trkpt lat="45.92875" lon="6.51494">
        <ele>1918.408</ele>
        <time>2026-03-21T10:23:43Z</time>
      </trkpt>
      <trkpt lat="45.92875" lon="6.51494">
        <ele>1918.409</ele>
        <time>2026-03-21T10:23:48Z</time>
      </trkpt>
      <trkpt lat="45.92875" lon="6.51494">
        <ele>1918.406</ele>
        <time>2026-03-21T10:23:53Z</time>
      </trkpt>
      <trkpt lat="45.92875" lon="6.51494">
        <ele>1918.404</ele>
        <time>2026-03-21T10:23:58Z</time>
      </trkpt>
      <trkpt lat="45.92875" lon="6.51494">
        <ele>1918.4</ele>
        <time>2026-03-21T10:24:03Z</time>
      </trkpt>
      <trkpt lat="45.92875" lon="6.51494">
        <ele>1918.413</ele>
        <time>2026-03-21T10:24:08Z</time>
      </trkpt>
      <trkpt lat="45.92875" lon="6.51494">
        <ele>1918.409</ele>
        <time>2026-03-21T10:24:13Z</time>
      </trkpt>
      <trkpt lat="45.92875" lon="6.51494">
        <ele>1918.413</ele>
        <time>2026-03-21T10:24:18Z</time>
      </trkpt>
      <trkpt lat="45.92875" lon="6.51494">
        <ele>1918.415</ele>
        <time>2026-03-21T10:24:23Z</time>
      </trkpt>
      <trkpt lat="45.92875" lon="6.51494">
        <ele>1918.412</ele>
        <time>2026-03-21T10:24:28Z</time>
      </trkpt>
      <trkpt lat="45.92875" lon="6.51494">
        <ele>1918.405</ele>
        <time>2026-03-21T10:24:33Z</time>
      </trkpt>
      <trkpt lat="45.92875" lon="6.51494">
        <ele>1918.395</ele>
        <time>2026-03-21T10:24:38Z</time>
      </trkpt>
      <trkpt lat="45.92875" lon="6.51494">
        <ele>1918.39</ele>
        <time>2026-03-21T10:24:43Z</time>
      </trkpt>
      <trkpt lat="45.92875" lon="6.51494">
        <ele>1918.391</ele>
        <time>2026-03-21T10:24:48Z</time>
      </trkpt>
      <trkpt lat="45.92875" lon="6.51494">
        <ele>1918.389</ele>
        <time>2026-03-21T10:24:53Z</time>
      </trkpt>
      <trkpt lat="45.92875" lon="6.51494">
        <ele>1918.384</ele>
        <time>2026-03-21T10:24:58Z</time>
      </trkpt>
      <trkpt lat="45.92875" lon="6.51494">
        <ele>1918.379</ele>
        <time>2026-03-21T10:25:03Z</time>
      </trkpt>
      <trkpt lat="45.92875" lon="6.51494">
        <ele>1918.38</ele>
        <time>2026-03-21T10:25:08Z</time>
      </trkpt>
      <trkpt lat="45.92875" lon="6.51494">
        <ele>1918.384</ele>
        <time>2026-03-21T10:25:13Z</time>
      </trkpt>
      <trkpt lat="45.92875" lon="6.51494">
        <ele>1917.641</ele>
        <time>2026-03-21T10:25:18Z</time>
      </trkpt>
      <trkpt lat="45.92875" lon="6.51494">
        <ele>1917.557</ele>
        <time>2026-03-21T10:25:23Z</time>
      </trkpt>
      <trkpt lat="45.92875" lon="6.51494">
        <ele>1917.558</ele>
        <time>2026-03-21T10:25:28Z</time>
      </trkpt>
      <trkpt lat="45.92875" lon="6.51494">
        <ele>1917.561</ele>
        <time>2026-03-21T10:25:33Z</time>
      </trkpt>
      <trkpt lat="45.92875" lon="6.51494">
        <ele>1917.565</ele>
        <time>2026-03-21T10:25:38Z</time>
      </trkpt>
      <trkpt lat="45.92875" lon="6.51494">
        <ele>1918.74</ele>
        <time>2026-03-21T10:25:43Z</time>
      </trkpt>
      <trkpt lat="45.92875" lon="6.51494">
        <ele>1918.489</ele>
        <time>2026-03-21T10:25:48Z</time>
      </trkpt>
      <trkpt lat="45.92875" lon="6.51494">
        <ele>1918.489</ele>
        <time>2026-03-21T10:25:53Z</time>
      </trkpt>
      <trkpt lat="45.92875" lon="6.51494">
        <ele>1918.601</ele>
        <time>2026-03-21T10:25:58Z</time>
      </trkpt>
      <trkpt lat="45.92875" lon="6.51494">
        <ele>1918.601</ele>
        <time>2026-03-21T10:26:03Z</time>
      </trkpt>
      <trkpt lat="45.92875" lon="6.51494">
        <ele>1918.612</ele>
        <time>2026-03-21T10:26:08Z</time>
      </trkpt>
      <trkpt lat="45.92875" lon="6.51494">
        <ele>1918.553</ele>
        <time>2026-03-21T10:26:13Z</time>
      </trkpt>
      <trkpt lat="45.92875" lon="6.51494">
        <ele>1918.968</ele>
        <time>2026-03-21T10:26:18Z</time>
      </trkpt>
      <trkpt lat="45.92875" lon="6.51494">
        <ele>1918.939</ele>
        <time>2026-03-21T10:26:23Z</time>
      </trkpt>
      <trkpt lat="45.92875" lon="6.51494">
        <ele>1918.933</ele>
        <time>2026-03-21T10:26:28Z</time>
      </trkpt>
      <trkpt lat="45.92875" lon="6.51494">
        <ele>1918.942</ele>
        <time>2026-03-21T10:26:33Z</time>
      </trkpt>
      <trkpt lat="45.92875" lon="6.51494">
        <ele>1918.935</ele>
        <time>2026-03-21T10:26:38Z</time>
      </trkpt>
      <trkpt lat="45.92875" lon="6.51494">
        <ele>1918.925</ele>
        <time>2026-03-21T10:26:43Z</time>
      </trkpt>
      <trkpt lat="45.92875" lon="6.51494">
        <ele>1918.91</ele>
        <time>2026-03-21T10:26:48Z</time>
      </trkpt>
      <trkpt lat="45.92875" lon="6.51494">
        <ele>1918.892</ele>
        <time>2026-03-21T10:26:53Z</time>
      </trkpt>
      <trkpt lat="45.92875" lon="6.51494">
        <ele>1918.878</ele>
        <time>2026-03-21T10:26:58Z</time>
      </trkpt>
      <trkpt lat="45.92875" lon="6.51494">
        <ele>1918.874</ele>
        <time>2026-03-21T10:27:03Z</time>
      </trkpt>
      <trkpt lat="45.92875" lon="6.51494">
        <ele>1918.882</ele>
        <time>2026-03-21T10:27:08Z</time>
      </trkpt>
      <trkpt lat="45.92875" lon="6.51494">
        <ele>1918.88</ele>
        <time>2026-03-21T10:27:13Z</time>
      </trkpt>
      <trkpt lat="45.92875" lon="6.51494">
        <ele>1918.882</ele>
        <time>2026-03-21T10:27:18Z</time>
      </trkpt>
      <trkpt lat="45.92875" lon="6.51494">
        <ele>1918.883</ele>
        <time>2026-03-21T10:27:23Z</time>
      </trkpt>
      <trkpt lat="45.92875" lon="6.51494">
        <ele>1918.891</ele>
        <time>2026-03-21T10:27:28Z</time>
      </trkpt>
      <trkpt lat="45.92875" lon="6.51494">
        <ele>1918.91</ele>
        <time>2026-03-21T10:27:33Z</time>
      </trkpt>
      <trkpt lat="45.92875" lon="6.51494">
        <ele>1918.907</ele>
        <time>2026-03-21T10:27:38Z</time>
      </trkpt>
      <trkpt lat="45.92875" lon="6.51494">
        <ele>1918.908</ele>
        <time>2026-03-21T10:27:43Z</time>
      </trkpt>
      <trkpt lat="45.92875" lon="6.51494">
        <ele>1918.912</ele>
        <time>2026-03-21T10:27:48Z</time>
      </trkpt>
      <trkpt lat="45.92875" lon="6.51494">
        <ele>1918.916</ele>
        <time>2026-03-21T10:27:53Z</time>
      </trkpt>
      <trkpt lat="45.92875" lon="6.51494">
        <ele>1918.909</ele>
        <time>2026-03-21T10:27:58Z</time>
      </trkpt>
      <trkpt lat="45.92875" lon="6.51494">
        <ele>1918.907</ele>
        <time>2026-03-21T10:28:03Z</time>
      </trkpt>
      <trkpt lat="45.92875" lon="6.51494">
        <ele>1918.911</ele>
        <time>2026-03-21T10:28:08Z</time>
      </trkpt>
      <trkpt lat="45.92875" lon="6.51494">
        <ele>1918.903</ele>
        <time>2026-03-21T10:28:13Z</time>
      </trkpt>
      <trkpt lat="45.92875" lon="6.51494">
        <ele>1918.907</ele>
        <time>2026-03-21T10:28:18Z</time>
      </trkpt>
      <trkpt lat="45.92875" lon="6.51494">
        <ele>1918.91</ele>
        <time>2026-03-21T10:28:23Z</time>
      </trkpt>
      <trkpt lat="45.92875" lon="6.51494">
        <ele>1918.921</ele>
        <time>2026-03-21T10:28:28Z</time>
      </trkpt>
      <trkpt lat="45.92875" lon="6.51494">
        <ele>1918.93</ele>
        <time>2026-03-21T10:28:33Z</time>
      </trkpt>
      <trkpt lat="45.92875" lon="6.51494">
        <ele>1918.928</ele>
        <time>2026-03-21T10:28:38Z</time>
      </trkpt>
      <trkpt lat="45.92875" lon="6.51494">
        <ele>1918.921</ele>
        <time>2026-03-21T10:28:43Z</time>
      </trkpt>
      <trkpt lat="45.92875" lon="6.51494">
        <ele>1918.904</ele>
        <time>2026-03-21T10:28:48Z</time>
      </trkpt>
      <trkpt lat="45.92875" lon="6.51494">
        <ele>1918.89</ele>
        <time>2026-03-21T10:28:53Z</time>
      </trkpt>
      <trkpt lat="45.92875" lon="6.51494">
        <ele>1918.88</ele>
        <time>2026-03-21T10:28:58Z</time>
      </trkpt>
      <trkpt lat="45.92875" lon="6.51494">
        <ele>1918.875</ele>
        <time>2026-03-21T10:29:03Z</time>
      </trkpt>
      <trkpt lat="45.92875" lon="6.51494">
        <ele>1918.876</ele>
        <time>2026-03-21T10:29:08Z</time>
      </trkpt>
      <trkpt lat="45.92875" lon="6.51494">
        <ele>1918.854</ele>
        <time>2026-03-21T10:29:13Z</time>
      </trkpt>
      <trkpt lat="45.92875" lon="6.51494">
        <ele>1918.846</ele>
        <time>2026-03-21T10:29:18Z</time>
      </trkpt>
      <trkpt lat="45.92875" lon="6.51494">
        <ele>1918.826</ele>
        <time>2026-03-21T10:29:23Z</time>
      </trkpt>
      <trkpt lat="45.92875" lon="6.51494">
        <ele>1918.815</ele>
        <time>2026-03-21T10:29:28Z</time>
      </trkpt>
      <trkpt lat="45.92875" lon="6.51494">
        <ele>1918.812</ele>
        <time>2026-03-21T10:29:33Z</time>
      </trkpt>
      <trkpt lat="45.92875" lon="6.51494">
        <ele>1918.791</ele>
        <time>2026-03-21T10:29:38Z</time>
      </trkpt>
      <trkpt lat="45.92875" lon="6.51494">
        <ele>1918.649</ele>
        <time>2026-03-21T10:29:43Z</time>
      </trkpt>
      <trkpt lat="45.92875" lon="6.51494">
        <ele>1918.591</ele>
        <time>2026-03-21T10:29:48Z</time>
      </trkpt>
      <trkpt lat="45.92875" lon="6.51494">
        <ele>1918.595</ele>
        <time>2026-03-21T10:29:53Z</time>
      </trkpt>
      <trkpt lat="45.92875" lon="6.51494">
        <ele>1918.595</ele>
        <time>2026-03-21T10:29:58Z</time>
      </trkpt>
      <trkpt lat="45.92875" lon="6.51494">
        <ele>1918.595</ele>
        <time>2026-03-21T10:30:03Z</time>
      </trkpt>
      <trkpt lat="45.92875" lon="6.51494">
        <ele>1918.594</ele>
        <time>2026-03-21T10:30:08Z</time>
      </trkpt>
      <trkpt lat="45.92875" lon="6.51494">
        <ele>1918.587</ele>
        <time>2026-03-21T10:30:13Z</time>
      </trkpt>
      <trkpt lat="45.92875" lon="6.51494">
        <ele>1918.583</ele>
        <time>2026-03-21T10:30:18Z</time>
      </trkpt>
      <trkpt lat="45.92875" lon="6.51494">
        <ele>1918.578</ele>
        <time>2026-03-21T10:30:23Z</time>
      </trkpt>
      <trkpt lat="45.92875" lon="6.51494">
        <ele>1918.578</ele>
        <time>2026-03-21T10:30:28Z</time>
      </trkpt>
      <trkpt lat="45.92875" lon="6.51494">
        <ele>1918.58</ele>
        <time>2026-03-21T10:30:33Z</time>
      </trkpt>
      <trkpt lat="45.92875" lon="6.51494">
        <ele>1918.586</ele>
        <time>2026-03-21T10:30:38Z</time>
      </trkpt>
      <trkpt lat="45.92875" lon="6.51494">
        <ele>1918.589</ele>
        <time>2026-03-21T10:30:43Z</time>
      </trkpt>
      <trkpt lat="45.92875" lon="6.51494">
        <ele>1918.596</ele>
        <time>2026-03-21T10:30:48Z</time>
      </trkpt>
      <trkpt lat="45.92875" lon="6.51494">
        <ele>1912.392</ele>
        <time>2026-03-21T10:30:53Z</time>
      </trkpt>
      <trkpt lat="45.92875" lon="6.51494">
        <ele>1916.034</ele>
        <time>2026-03-21T10:30:58Z</time>
      </trkpt>
      <trkpt lat="45.92875" lon="6.51494">
        <ele>1916.431</ele>
        <time>2026-03-21T10:31:03Z</time>
      </trkpt>
      <trkpt lat="45.92875" lon="6.51494">
        <ele>1916.393</ele>
        <time>2026-03-21T10:31:08Z</time>
      </trkpt>
      <trkpt lat="45.92875" lon="6.51494">
        <ele>1916.344</ele>
        <time>2026-03-21T10:31:13Z</time>
      </trkpt>
      <trkpt lat="45.92875" lon="6.51494">
        <ele>1916.367</ele>
        <time>2026-03-21T10:31:18Z</time>
      </trkpt>
      <trkpt lat="45.92875" lon="6.51494">
        <ele>1916.366</ele>
        <time>2026-03-21T10:31:23Z</time>
      </trkpt>
      <trkpt lat="45.92875" lon="6.51494">
        <ele>1916.36</ele>
        <time>2026-03-21T10:31:28Z</time>
      </trkpt>
      <trkpt lat="45.92875" lon="6.51494">
        <ele>1916.365</ele>
        <time>2026-03-21T10:31:33Z</time>
      </trkpt>
      <trkpt lat="45.92875" lon="6.51494">
        <ele>1916.363</ele>
        <time>2026-03-21T10:31:38Z</time>
      </trkpt>
      <trkpt lat="45.92875" lon="6.51494">
        <ele>1916.366</ele>
        <time>2026-03-21T10:31:43Z</time>
      </trkpt>
      <trkpt lat="45.92875" lon="6.51494">
        <ele>1916.366</ele>
        <time>2026-03-21T10:31:48Z</time>
      </trkpt>
      <trkpt lat="45.92875" lon="6.51494">
        <ele>1916.35</ele>
        <time>2026-03-21T10:31:53Z</time>
      </trkpt>
      <trkpt lat="45.92875" lon="6.51494">
        <ele>1916.348</ele>
        <time>2026-03-21T10:31:58Z</time>
      </trkpt>
      <trkpt lat="45.92875" lon="6.51494">
        <ele>1916.342</ele>
        <time>2026-03-21T10:32:03Z</time>
      </trkpt>
      <trkpt lat="45.92875" lon="6.51494">
        <ele>1916.32</ele>
        <time>2026-03-21T10:32:08Z</time>
      </trkpt>
      <trkpt lat="45.92875" lon="6.51494">
        <ele>1916.304</ele>
        <time>2026-03-21T10:32:13Z</time>
      </trkpt>
      <trkpt lat="45.92875" lon="6.51494">
        <ele>1914.529</ele>
        <time>2026-03-21T10:32:18Z</time>
      </trkpt>
      <trkpt lat="45.92875" lon="6.51494">
        <ele>1915.661</ele>
        <time>2026-03-21T10:32:23Z</time>
      </trkpt>
      <trkpt lat="45.92875" lon="6.51494">
        <ele>1917.017</ele>
        <time>2026-03-21T10:32:28Z</time>
      </trkpt>
      <trkpt lat="45.92875" lon="6.51494">
        <ele>1917.182</ele>
        <time>2026-03-21T10:32:33Z</time>
      </trkpt>
      <trkpt lat="45.92875" lon="6.51494">
        <ele>1917.182</ele>
        <time>2026-03-21T10:32:38Z</time>
      </trkpt>
      <trkpt lat="45.92875" lon="6.51494">
        <ele>1917.159</ele>
        <time>2026-03-21T10:32:43Z</time>
      </trkpt>
      <trkpt lat="45.92875" lon="6.51494">
        <ele>1917.165</ele>
        <time>2026-03-21T10:32:48Z</time>
      </trkpt>
      <trkpt lat="45.92875" lon="6.51494">
        <ele>1917.171</ele>
        <time>2026-03-21T10:32:53Z</time>
      </trkpt>
      <trkpt lat="45.92875" lon="6.51494">
        <ele>1917.176</ele>
        <time>2026-03-21T10:32:58Z</time>
      </trkpt>
      <trkpt lat="45.92875" lon="6.51494">
        <ele>1917.176</ele>
        <time>2026-03-21T10:33:03Z</time>
      </trkpt>
      <trkpt lat="45.92875" lon="6.51494">
        <ele>1917.18</ele>
        <time>2026-03-21T10:33:08Z</time>
      </trkpt>
      <trkpt lat="45.92875" lon="6.51494">
        <ele>1917.185</ele>
        <time>2026-03-21T10:33:13Z</time>
      </trkpt>
      <trkpt lat="45.92875" lon="6.51494">
        <ele>1917.192</ele>
        <time>2026-03-21T10:33:18Z</time>
      </trkpt>
      <trkpt lat="45.92875" lon="6.51494">
        <ele>1917.191</ele>
        <time>2026-03-21T10:33:23Z</time>
      </trkpt>
      <trkpt lat="45.92875" lon="6.51494">
        <ele>1917.196</ele>
        <time>2026-03-21T10:33:28Z</time>
      </trkpt>
      <trkpt lat="45.92875" lon="6.51494">
        <ele>1917.2</ele>
        <time>2026-03-21T10:33:33Z</time>
      </trkpt>
      <trkpt lat="45.92875" lon="6.51494">
        <ele>1917.204</ele>
        <time>2026-03-21T10:33:38Z</time>
      </trkpt>
      <trkpt lat="45.92875" lon="6.51494">
        <ele>1917.199</ele>
        <time>2026-03-21T10:33:43Z</time>
      </trkpt>
      <trkpt lat="45.92875" lon="6.51494">
        <ele>1917.2</ele>
        <time>2026-03-21T10:33:48Z</time>
      </trkpt>
      <trkpt lat="45.92875" lon="6.51494">
        <ele>1917.203</ele>
        <time>2026-03-21T10:33:53Z</time>
      </trkpt>
      <trkpt lat="45.92875" lon="6.51494">
        <ele>1917.199</ele>
        <time>2026-03-21T10:33:58Z</time>
      </trkpt>
      <trkpt lat="45.92875" lon="6.51494">
        <ele>1917.2</ele>
        <time>2026-03-21T10:34:03Z</time>
      </trkpt>
      <trkpt lat="45.92875" lon="6.51494">
        <ele>1917.213</ele>
        <time>2026-03-21T10:34:08Z</time>
      </trkpt>
      <trkpt lat="45.92875" lon="6.51494">
        <ele>1917.214</ele>
        <time>2026-03-21T10:34:13Z</time>
      </trkpt>
      <trkpt lat="45.92875" lon="6.51494">
        <ele>1917.213</ele>
        <time>2026-03-21T10:34:18Z</time>
      </trkpt>
      <trkpt lat="45.92875" lon="6.51494">
        <ele>1917.217</ele>
        <time>2026-03-21T10:34:23Z</time>
      </trkpt>
      <trkpt lat="45.92878" lon="6.51504">
        <ele>1917.219</ele>
        <time>2026-03-21T10:34:28Z</time>
      </trkpt>
      <trkpt lat="45.92878" lon="6.51504">
        <ele>1917.22</ele>
        <time>2026-03-21T10:34:33Z</time>
      </trkpt>
      <trkpt lat="45.92878" lon="6.51504">
        <ele>1917.217</ele>
        <time>2026-03-21T10:34:38Z</time>
      </trkpt>
      <trkpt lat="45.92878" lon="6.51504">
        <ele>1917.209</ele>
        <time>2026-03-21T10:34:43Z</time>
      </trkpt>
      <trkpt lat="45.92878" lon="6.51504">
        <ele>1917.2</ele>
        <time>2026-03-21T10:34:48Z</time>
      </trkpt>
      <trkpt lat="45.92878" lon="6.51504">
        <ele>1917.196</ele>
        <time>2026-03-21T10:34:53Z</time>
      </trkpt>
      <trkpt lat="45.92878" lon="6.51504">
        <ele>1917.191</ele>
        <time>2026-03-21T10:34:58Z</time>
      </trkpt>
      <trkpt lat="45.92878" lon="6.51504">
        <ele>1917.181</ele>
        <time>2026-03-21T10:35:03Z</time>
      </trkpt>
      <trkpt lat="45.92878" lon="6.51504">
        <ele>1917.173</ele>
        <time>2026-03-21T10:35:08Z</time>
      </trkpt>
      <trkpt lat="45.92878" lon="6.51504">
        <ele>1917.165</ele>
        <time>2026-03-21T10:35:13Z</time>
      </trkpt>
      <trkpt lat="45.92878" lon="6.51504">
        <ele>1917.172</ele>
        <time>2026-03-21T10:35:18Z</time>
      </trkpt>
      <trkpt lat="45.92878" lon="6.51504">
        <ele>1917.162</ele>
        <time>2026-03-21T10:35:23Z</time>
      </trkpt>
      <trkpt lat="45.92878" lon="6.51504">
        <ele>1917.153</ele>
        <time>2026-03-21T10:35:28Z</time>
      </trkpt>
      <trkpt lat="45.92881" lon="6.5151">
        <ele>1916.658</ele>
        <time>2026-03-21T10:35:33Z</time>
      </trkpt>
      <trkpt lat="45.92881" lon="6.51515">
        <ele>1916.813</ele>
        <time>2026-03-21T10:35:38Z</time>
      </trkpt>
      <trkpt lat="45.92882" lon="6.5152">
        <ele>1916.751</ele>
        <time>2026-03-21T10:35:43Z</time>
      </trkpt>
      <trkpt lat="45.92884" lon="6.51524">
        <ele>1915.75</ele>
        <time>2026-03-21T10:35:48Z</time>
      </trkpt>
      <trkpt lat="45.92886" lon="6.51526">
        <ele>1917.869</ele>
        <time>2026-03-21T10:35:53Z</time>
      </trkpt>
      <trkpt lat="45.92888" lon="6.51528">
        <ele>1918.076</ele>
        <time>2026-03-21T10:35:58Z</time>
      </trkpt>
      <trkpt lat="45.9289" lon="6.51529">
        <ele>1918.619</ele>
        <time>2026-03-21T10:36:03Z</time>
      </trkpt>
      <trkpt lat="45.92892" lon="6.51532">
        <ele>1920.162</ele>
        <time>2026-03-21T10:36:08Z</time>
      </trkpt>
      <trkpt lat="45.92894" lon="6.51535">
        <ele>1920.831</ele>
        <time>2026-03-21T10:36:13Z</time>
      </trkpt>
      <trkpt lat="45.92896" lon="6.51537">
        <ele>1921.249</ele>
        <time>2026-03-21T10:36:18Z</time>
      </trkpt>
      <trkpt lat="45.92897" lon="6.5154">
        <ele>1922.443</ele>
        <time>2026-03-21T10:36:23Z</time>
      </trkpt>
      <trkpt lat="45.92898" lon="6.51545">
        <ele>1922.103</ele>
        <time>2026-03-21T10:36:28Z</time>
      </trkpt>
      <trkpt lat="45.92899" lon="6.51547">
        <ele>1923.262</ele>
        <time>2026-03-21T10:36:33Z</time>
      </trkpt>
      <trkpt lat="45.929" lon="6.51552">
        <ele>1923.321</ele>
        <time>2026-03-21T10:36:38Z</time>
      </trkpt>
      <trkpt lat="45.92901" lon="6.51555">
        <ele>1923.791</ele>
        <time>2026-03-21T10:36:43Z</time>
      </trkpt>
      <trkpt lat="45.92902" lon="6.51559">
        <ele>1924.882</ele>
        <time>2026-03-21T10:36:48Z</time>
      </trkpt>
      <trkpt lat="45.92903" lon="6.51562">
        <ele>1925.498</ele>
        <time>2026-03-21T10:36:53Z</time>
      </trkpt>
      <trkpt lat="45.92904" lon="6.51565">
        <ele>1925.083</ele>
        <time>2026-03-21T10:36:58Z</time>
      </trkpt>
      <trkpt lat="45.92905" lon="6.51569">
        <ele>1926.739</ele>
        <time>2026-03-21T10:37:03Z</time>
      </trkpt>
      <trkpt lat="45.92906" lon="6.51572">
        <ele>1927.446</ele>
        <time>2026-03-21T10:37:08Z</time>
      </trkpt>
      <trkpt lat="45.92906" lon="6.51576">
        <ele>1927.613</ele>
        <time>2026-03-21T10:37:13Z</time>
      </trkpt>
      <trkpt lat="45.92907" lon="6.5158">
        <ele>1928.912</ele>
        <time>2026-03-21T10:37:18Z</time>
      </trkpt>
      <trkpt lat="45.92908" lon="6.51583">
        <ele>1930.321</ele>
        <time>2026-03-21T10:37:23Z</time>
      </trkpt>
      <trkpt lat="45.92909" lon="6.51585">
        <ele>1930.392</ele>
        <time>2026-03-21T10:37:28Z</time>
      </trkpt>
      <trkpt lat="45.9291" lon="6.51587">
        <ele>1931.212</ele>
        <time>2026-03-21T10:37:33Z</time>
      </trkpt>
      <trkpt lat="45.92911" lon="6.5159">
        <ele>1931.574</ele>
        <time>2026-03-21T10:37:38Z</time>
      </trkpt>
      <trkpt lat="45.92911" lon="6.51592">
        <ele>1932.574</ele>
        <time>2026-03-21T10:37:43Z</time>
      </trkpt>
      <trkpt lat="45.92911" lon="6.51596">
        <ele>1933.152</ele>
        <time>2026-03-21T10:37:48Z</time>
      </trkpt>
      <trkpt lat="45.92912" lon="6.51599">
        <ele>1933.311</ele>
        <time>2026-03-21T10:37:53Z</time>
      </trkpt>
      <trkpt lat="45.92912" lon="6.51602">
        <ele>1935.117</ele>
        <time>2026-03-21T10:37:58Z</time>
      </trkpt>
      <trkpt lat="45.92911" lon="6.516">
        <ele>1936.118</ele>
        <time>2026-03-21T10:38:03Z</time>
      </trkpt>
      <trkpt lat="45.92909" lon="6.51598">
        <ele>1937.914</ele>
        <time>2026-03-21T10:38:08Z</time>
      </trkpt>
      <trkpt lat="45.92907" lon="6.51597">
        <ele>1938.656</ele>
        <time>2026-03-21T10:38:13Z</time>
      </trkpt>
      <trkpt lat="45.92905" lon="6.51596">
        <ele>1939.723</ele>
        <time>2026-03-21T10:38:18Z</time>
      </trkpt>
      <trkpt lat="45.92902" lon="6.51595">
        <ele>1941.269</ele>
        <time>2026-03-21T10:38:23Z</time>
      </trkpt>
      <trkpt lat="45.929" lon="6.51594">
        <ele>1943.14</ele>
        <time>2026-03-21T10:38:28Z</time>
      </trkpt>
      <trkpt lat="45.92898" lon="6.51593">
        <ele>1944.441</ele>
        <time>2026-03-21T10:38:33Z</time>
      </trkpt>
      <trkpt lat="45.92896" lon="6.51593">
        <ele>1945.389</ele>
        <time>2026-03-21T10:38:38Z</time>
      </trkpt>
      <trkpt lat="45.92892" lon="6.51593">
        <ele>1946.687</ele>
        <time>2026-03-21T10:38:43Z</time>
      </trkpt>
      <trkpt lat="45.92891" lon="6.51593">
        <ele>1946.946</ele>
        <time>2026-03-21T10:38:48Z</time>
      </trkpt>
      <trkpt lat="45.92889" lon="6.51594">
        <ele>1947.372</ele>
        <time>2026-03-21T10:38:53Z</time>
      </trkpt>
      <trkpt lat="45.92887" lon="6.51596">
        <ele>1947.282</ele>
        <time>2026-03-21T10:38:58Z</time>
      </trkpt>
      <trkpt lat="45.92888" lon="6.51599">
        <ele>1948.592</ele>
        <time>2026-03-21T10:39:03Z</time>
      </trkpt>
      <trkpt lat="45.9289" lon="6.51602">
        <ele>1948.566</ele>
        <time>2026-03-21T10:39:08Z</time>
      </trkpt>
      <trkpt lat="45.92891" lon="6.51605">
        <ele>1947.648</ele>
        <time>2026-03-21T10:39:13Z</time>
      </trkpt>
      <trkpt lat="45.92892" lon="6.51609">
        <ele>1947.877</ele>
        <time>2026-03-21T10:39:18Z</time>
      </trkpt>
      <trkpt lat="45.92893" lon="6.51612">
        <ele>1948.452</ele>
        <time>2026-03-21T10:39:23Z</time>
      </trkpt>
      <trkpt lat="45.92894" lon="6.51616">
        <ele>1948.638</ele>
        <time>2026-03-21T10:39:28Z</time>
      </trkpt>
      <trkpt lat="45.92895" lon="6.51619">
        <ele>1949.688</ele>
        <time>2026-03-21T10:39:33Z</time>
      </trkpt>
      <trkpt lat="45.92896" lon="6.51621">
        <ele>1949.995</ele>
        <time>2026-03-21T10:39:38Z</time>
      </trkpt>
      <trkpt lat="45.92897" lon="6.51624">
        <ele>1950.566</ele>
        <time>2026-03-21T10:39:43Z</time>
      </trkpt>
      <trkpt lat="45.92897" lon="6.51627">
        <ele>1952.558</ele>
        <time>2026-03-21T10:39:48Z</time>
      </trkpt>
      <trkpt lat="45.92897" lon="6.51629">
        <ele>1952.812</ele>
        <time>2026-03-21T10:39:53Z</time>
      </trkpt>
      <trkpt lat="45.92895" lon="6.51626">
        <ele>1953.719</ele>
        <time>2026-03-21T10:39:58Z</time>
      </trkpt>
      <trkpt lat="45.92893" lon="6.51626">
        <ele>1954.745</ele>
        <time>2026-03-21T10:40:03Z</time>
      </trkpt>
      <trkpt lat="45.9289" lon="6.51627">
        <ele>1955.768</ele>
        <time>2026-03-21T10:40:08Z</time>
      </trkpt>
      <trkpt lat="45.92887" lon="6.51627">
        <ele>1956.978</ele>
        <time>2026-03-21T10:40:13Z</time>
      </trkpt>
      <trkpt lat="45.92886" lon="6.51627">
        <ele>1957.239</ele>
        <time>2026-03-21T10:40:18Z</time>
      </trkpt>
      <trkpt lat="45.92884" lon="6.51626">
        <ele>1958.791</ele>
        <time>2026-03-21T10:40:23Z</time>
      </trkpt>
      <trkpt lat="45.92882" lon="6.51626">
        <ele>1959.779</ele>
        <time>2026-03-21T10:40:28Z</time>
      </trkpt>
      <trkpt lat="45.9288" lon="6.51626">
        <ele>1960.969</ele>
        <time>2026-03-21T10:40:33Z</time>
      </trkpt>
      <trkpt lat="45.92879" lon="6.51627">
        <ele>1961.257</ele>
        <time>2026-03-21T10:40:38Z</time>
      </trkpt>
      <trkpt lat="45.9288" lon="6.5163">
        <ele>1960.498</ele>
        <time>2026-03-21T10:40:43Z</time>
      </trkpt>
      <trkpt lat="45.92881" lon="6.51634">
        <ele>1960.384</ele>
        <time>2026-03-21T10:40:48Z</time>
      </trkpt>
      <trkpt lat="45.92882" lon="6.51637">
        <ele>1961.068</ele>
        <time>2026-03-21T10:40:53Z</time>
      </trkpt>
      <trkpt lat="45.92883" lon="6.5164">
        <ele>1961.312</ele>
        <time>2026-03-21T10:40:58Z</time>
      </trkpt>
      <trkpt lat="45.92884" lon="6.51643">
        <ele>1962.038</ele>
        <time>2026-03-21T10:41:03Z</time>
      </trkpt>
      <trkpt lat="45.92885" lon="6.51647">
        <ele>1962.614</ele>
        <time>2026-03-21T10:41:08Z</time>
      </trkpt>
      <trkpt lat="45.92887" lon="6.5165">
        <ele>1962.406</ele>
        <time>2026-03-21T10:41:13Z</time>
      </trkpt>
      <trkpt lat="45.92888" lon="6.51652">
        <ele>1962.739</ele>
        <time>2026-03-21T10:41:18Z</time>
      </trkpt>
      <trkpt lat="45.92889" lon="6.51656">
        <ele>1963.437</ele>
        <time>2026-03-21T10:41:23Z</time>
      </trkpt>
      <trkpt lat="45.9289" lon="6.51658">
        <ele>1965.197</ele>
        <time>2026-03-21T10:41:28Z</time>
      </trkpt>
      <trkpt lat="45.92891" lon="6.51661">
        <ele>1965.961</ele>
        <time>2026-03-21T10:41:33Z</time>
      </trkpt>
      <trkpt lat="45.92892" lon="6.51664">
        <ele>1967.789</ele>
        <time>2026-03-21T10:41:38Z</time>
      </trkpt>
      <trkpt lat="45.92893" lon="6.51667">
        <ele>1969.216</ele>
        <time>2026-03-21T10:41:43Z</time>
      </trkpt>
      <trkpt lat="45.92894" lon="6.5167">
        <ele>1968.308</ele>
        <time>2026-03-21T10:41:48Z</time>
      </trkpt>
      <trkpt lat="45.92895" lon="6.51674">
        <ele>1968.812</ele>
        <time>2026-03-21T10:41:53Z</time>
      </trkpt>
      <trkpt lat="45.92895" lon="6.51677">
        <ele>1969.57</ele>
        <time>2026-03-21T10:41:58Z</time>
      </trkpt>
      <trkpt lat="45.92896" lon="6.51679">
        <ele>1969.496</ele>
        <time>2026-03-21T10:42:03Z</time>
      </trkpt>
      <trkpt lat="45.92896" lon="6.51682">
        <ele>1970.019</ele>
        <time>2026-03-21T10:42:08Z</time>
      </trkpt>
      <trkpt lat="45.92894" lon="6.51682">
        <ele>1970.682</ele>
        <time>2026-03-21T10:42:13Z</time>
      </trkpt>
      <trkpt lat="45.92892" lon="6.5168">
        <ele>1971.997</ele>
        <time>2026-03-21T10:42:18Z</time>
      </trkpt>
      <trkpt lat="45.9289" lon="6.51679">
        <ele>1972.699</ele>
        <time>2026-03-21T10:42:23Z</time>
      </trkpt>
      <trkpt lat="45.92888" lon="6.51678">
        <ele>1974.235</ele>
        <time>2026-03-21T10:42:28Z</time>
      </trkpt>
      <trkpt lat="45.92886" lon="6.51677">
        <ele>1974.891</ele>
        <time>2026-03-21T10:42:33Z</time>
      </trkpt>
      <trkpt lat="45.92883" lon="6.51675">
        <ele>1975.903</ele>
        <time>2026-03-21T10:42:38Z</time>
      </trkpt>
      <trkpt lat="45.92882" lon="6.51676">
        <ele>1976.541</ele>
        <time>2026-03-21T10:42:43Z</time>
      </trkpt>
      <trkpt lat="45.92879" lon="6.51676">
        <ele>1977.414</ele>
        <time>2026-03-21T10:42:48Z</time>
      </trkpt>
      <trkpt lat="45.92877" lon="6.51675">
        <ele>1978.51</ele>
        <time>2026-03-21T10:42:53Z</time>
      </trkpt>
      <trkpt lat="45.92875" lon="6.51676">
        <ele>1979.559</ele>
        <time>2026-03-21T10:42:58Z</time>
      </trkpt>
      <trkpt lat="45.92872" lon="6.51675">
        <ele>1980.522</ele>
        <time>2026-03-21T10:43:03Z</time>
      </trkpt>
      <trkpt lat="45.92869" lon="6.51675">
        <ele>1980.833</ele>
        <time>2026-03-21T10:43:08Z</time>
      </trkpt>
      <trkpt lat="45.92867" lon="6.51675">
        <ele>1981.57</ele>
        <time>2026-03-21T10:43:13Z</time>
      </trkpt>
      <trkpt lat="45.92865" lon="6.51674">
        <ele>1981.862</ele>
        <time>2026-03-21T10:43:18Z</time>
      </trkpt>
      <trkpt lat="45.92862" lon="6.51673">
        <ele>1982.316</ele>
        <time>2026-03-21T10:43:23Z</time>
      </trkpt>
      <trkpt lat="45.92863" lon="6.51677">
        <ele>1982.344</ele>
        <time>2026-03-21T10:43:28Z</time>
      </trkpt>
      <trkpt lat="45.92864" lon="6.51681">
        <ele>1983.646</ele>
        <time>2026-03-21T10:43:33Z</time>
      </trkpt>
      <trkpt lat="45.92865" lon="6.51684">
        <ele>1984.455</ele>
        <time>2026-03-21T10:43:38Z</time>
      </trkpt>
      <trkpt lat="45.92866" lon="6.51687">
        <ele>1984.096</ele>
        <time>2026-03-21T10:43:43Z</time>
      </trkpt>
      <trkpt lat="45.92868" lon="6.51689">
        <ele>1985.14</ele>
        <time>2026-03-21T10:43:48Z</time>
      </trkpt>
      <trkpt lat="45.92869" lon="6.51691">
        <ele>1984.71</ele>
        <time>2026-03-21T10:43:53Z</time>
      </trkpt>
      <trkpt lat="45.9287" lon="6.51693">
        <ele>1985.565</ele>
        <time>2026-03-21T10:43:58Z</time>
      </trkpt>
      <trkpt lat="45.92871" lon="6.51695">
        <ele>1985.336</ele>
        <time>2026-03-21T10:44:03Z</time>
      </trkpt>
      <trkpt lat="45.92872" lon="6.51698">
        <ele>1985.435</ele>
        <time>2026-03-21T10:44:08Z</time>
      </trkpt>
      <trkpt lat="45.92872" lon="6.517">
        <ele>1986.191</ele>
        <time>2026-03-21T10:44:13Z</time>
      </trkpt>
      <trkpt lat="45.9287" lon="6.51701">
        <ele>1987.252</ele>
        <time>2026-03-21T10:44:18Z</time>
      </trkpt>
      <trkpt lat="45.9287" lon="6.51701">
        <ele>1987.252</ele>
        <time>2026-03-21T10:44:23Z</time>
      </trkpt>
      <trkpt lat="45.9287" lon="6.51701">
        <ele>1987.262</ele>
        <time>2026-03-21T10:44:28Z</time>
      </trkpt>
      <trkpt lat="45.9287" lon="6.51701">
        <ele>1987.268</ele>
        <time>2026-03-21T10:44:33Z</time>
      </trkpt>
      <trkpt lat="45.9287" lon="6.51701">
        <ele>1987.284</ele>
        <time>2026-03-21T10:44:38Z</time>
      </trkpt>
      <trkpt lat="45.9287" lon="6.51701">
        <ele>1987.296</ele>
        <time>2026-03-21T10:44:43Z</time>
      </trkpt>
      <trkpt lat="45.9287" lon="6.51701">
        <ele>1987.312</ele>
        <time>2026-03-21T10:44:48Z</time>
      </trkpt>
      <trkpt lat="45.9287" lon="6.51701">
        <ele>1987.315</ele>
        <time>2026-03-21T10:44:53Z</time>
      </trkpt>
      <trkpt lat="45.92869" lon="6.51701">
        <ele>1987.453</ele>
        <time>2026-03-21T10:44:58Z</time>
      </trkpt>
      <trkpt lat="45.92869" lon="6.51701">
        <ele>1987.29</ele>
        <time>2026-03-21T10:45:03Z</time>
      </trkpt>
      <trkpt lat="45.92869" lon="6.51701">
        <ele>1987.286</ele>
        <time>2026-03-21T10:45:08Z</time>
      </trkpt>
      <trkpt lat="45.92869" lon="6.51701">
        <ele>1987.292</ele>
        <time>2026-03-21T10:45:13Z</time>
      </trkpt>
      <trkpt lat="45.92869" lon="6.51701">
        <ele>1987.303</ele>
        <time>2026-03-21T10:45:18Z</time>
      </trkpt>
      <trkpt lat="45.92869" lon="6.51701">
        <ele>1987.508</ele>
        <time>2026-03-21T10:45:23Z</time>
      </trkpt>
      <trkpt lat="45.9287" lon="6.51702">
        <ele>1987.774</ele>
        <time>2026-03-21T10:45:28Z</time>
      </trkpt>
      <trkpt lat="45.92869" lon="6.51702">
        <ele>1987.744</ele>
        <time>2026-03-21T10:45:33Z</time>
      </trkpt>
      <trkpt lat="45.92869" lon="6.51702">
        <ele>1987.728</ele>
        <time>2026-03-21T10:45:38Z</time>
      </trkpt>
      <trkpt lat="45.92869" lon="6.51702">
        <ele>1987.742</ele>
        <time>2026-03-21T10:45:43Z</time>
      </trkpt>
      <trkpt lat="45.92869" lon="6.51702">
        <ele>1987.75</ele>
        <time>2026-03-21T10:45:48Z</time>
      </trkpt>
      <trkpt lat="45.92869" lon="6.51702">
        <ele>1987.748</ele>
        <time>2026-03-21T10:45:53Z</time>
      </trkpt>
      <trkpt lat="45.92869" lon="6.51702">
        <ele>1987.752</ele>
        <time>2026-03-21T10:45:58Z</time>
      </trkpt>
      <trkpt lat="45.92869" lon="6.51702">
        <ele>1987.746</ele>
        <time>2026-03-21T10:46:03Z</time>
      </trkpt>
      <trkpt lat="45.92869" lon="6.51702">
        <ele>1987.745</ele>
        <time>2026-03-21T10:46:08Z</time>
      </trkpt>
      <trkpt lat="45.92869" lon="6.51702">
        <ele>1987.74</ele>
        <time>2026-03-21T10:46:13Z</time>
      </trkpt>
      <trkpt lat="45.92869" lon="6.51702">
        <ele>1987.738</ele>
        <time>2026-03-21T10:46:18Z</time>
      </trkpt>
      <trkpt lat="45.92869" lon="6.51702">
        <ele>1987.73</ele>
        <time>2026-03-21T10:46:23Z</time>
      </trkpt>
      <trkpt lat="45.92869" lon="6.51702">
        <ele>1987.719</ele>
        <time>2026-03-21T10:46:28Z</time>
      </trkpt>
      <trkpt lat="45.92869" lon="6.51702">
        <ele>1987.707</ele>
        <time>2026-03-21T10:46:33Z</time>
      </trkpt>
      <trkpt lat="45.92869" lon="6.51702">
        <ele>1987.7</ele>
        <time>2026-03-21T10:46:38Z</time>
      </trkpt>
      <trkpt lat="45.92869" lon="6.51702">
        <ele>1987.696</ele>
        <time>2026-03-21T10:46:43Z</time>
      </trkpt>
      <trkpt lat="45.92869" lon="6.51702">
        <ele>1987.699</ele>
        <time>2026-03-21T10:46:48Z</time>
      </trkpt>
      <trkpt lat="45.92869" lon="6.51702">
        <ele>1987.701</ele>
        <time>2026-03-21T10:46:53Z</time>
      </trkpt>
      <trkpt lat="45.92869" lon="6.51702">
        <ele>1987.7</ele>
        <time>2026-03-21T10:46:58Z</time>
      </trkpt>
      <trkpt lat="45.92869" lon="6.51702">
        <ele>1987.698</ele>
        <time>2026-03-21T10:47:03Z</time>
      </trkpt>
      <trkpt lat="45.92869" lon="6.51702">
        <ele>1987.691</ele>
        <time>2026-03-21T10:47:08Z</time>
      </trkpt>
      <trkpt lat="45.92869" lon="6.51702">
        <ele>1987.676</ele>
        <time>2026-03-21T10:47:13Z</time>
      </trkpt>
      <trkpt lat="45.92869" lon="6.51702">
        <ele>1987.67</ele>
        <time>2026-03-21T10:47:18Z</time>
      </trkpt>
      <trkpt lat="45.92869" lon="6.51702">
        <ele>1987.663</ele>
        <time>2026-03-21T10:47:23Z</time>
      </trkpt>
      <trkpt lat="45.92869" lon="6.51702">
        <ele>1987.656</ele>
        <time>2026-03-21T10:47:28Z</time>
      </trkpt>
      <trkpt lat="45.92869" lon="6.51702">
        <ele>1987.643</ele>
        <time>2026-03-21T10:47:33Z</time>
      </trkpt>
      <trkpt lat="45.92868" lon="6.51702">
        <ele>1987.601</ele>
        <time>2026-03-21T10:47:38Z</time>
      </trkpt>
      <trkpt lat="45.92865" lon="6.51701">
        <ele>1988.543</ele>
        <time>2026-03-21T10:47:43Z</time>
      </trkpt>
      <trkpt lat="45.92863" lon="6.51701">
        <ele>1988.643</ele>
        <time>2026-03-21T10:47:48Z</time>
      </trkpt>
      <trkpt lat="45.9286" lon="6.517">
        <ele>1989.511</ele>
        <time>2026-03-21T10:47:53Z</time>
      </trkpt>
      <trkpt lat="45.92857" lon="6.517">
        <ele>1991.11</ele>
        <time>2026-03-21T10:47:58Z</time>
      </trkpt>
      <trkpt lat="45.92855" lon="6.517">
        <ele>1991.669</ele>
        <time>2026-03-21T10:48:03Z</time>
      </trkpt>
      <trkpt lat="45.92853" lon="6.517">
        <ele>1992.728</ele>
        <time>2026-03-21T10:48:08Z</time>
      </trkpt>
      <trkpt lat="45.9285" lon="6.51699">
        <ele>1993.146</ele>
        <time>2026-03-21T10:48:13Z</time>
      </trkpt>
      <trkpt lat="45.92847" lon="6.51698">
        <ele>1993.808</ele>
        <time>2026-03-21T10:48:18Z</time>
      </trkpt>
      <trkpt lat="45.92846" lon="6.51698">
        <ele>1994.329</ele>
        <time>2026-03-21T10:48:23Z</time>
      </trkpt>
      <trkpt lat="45.92846" lon="6.51698">
        <ele>1994.325</ele>
        <time>2026-03-21T10:48:28Z</time>
      </trkpt>
      <trkpt lat="45.92844" lon="6.51697">
        <ele>1994.598</ele>
        <time>2026-03-21T10:48:33Z</time>
      </trkpt>
      <trkpt lat="45.92841" lon="6.517">
        <ele>1994.581</ele>
        <time>2026-03-21T10:48:38Z</time>
      </trkpt>
      <trkpt lat="45.92841" lon="6.51704">
        <ele>1994.817</ele>
        <time>2026-03-21T10:48:43Z</time>
      </trkpt>
      <trkpt lat="45.92842" lon="6.51705">
        <ele>1994.844</ele>
        <time>2026-03-21T10:48:48Z</time>
      </trkpt>
      <trkpt lat="45.92842" lon="6.51708">
        <ele>1994.703</ele>
        <time>2026-03-21T10:48:53Z</time>
      </trkpt>
      <trkpt lat="45.92843" lon="6.51709">
        <ele>1995.372</ele>
        <time>2026-03-21T10:48:58Z</time>
      </trkpt>
      <trkpt lat="45.92841" lon="6.5171">
        <ele>1996.124</ele>
        <time>2026-03-21T10:49:03Z</time>
      </trkpt>
      <trkpt lat="45.92838" lon="6.51709">
        <ele>1997.396</ele>
        <time>2026-03-21T10:49:08Z</time>
      </trkpt>
      <trkpt lat="45.92836" lon="6.51706">
        <ele>1998.576</ele>
        <time>2026-03-21T10:49:13Z</time>
      </trkpt>
      <trkpt lat="45.92833" lon="6.51704">
        <ele>1999.399</ele>
        <time>2026-03-21T10:49:18Z</time>
      </trkpt>
      <trkpt lat="45.92831" lon="6.51705">
        <ele>1999.683</ele>
        <time>2026-03-21T10:49:23Z</time>
      </trkpt>
      <trkpt lat="45.9283" lon="6.51705">
        <ele>2000.811</ele>
        <time>2026-03-21T10:49:28Z</time>
      </trkpt>
      <trkpt lat="45.92828" lon="6.51705">
        <ele>2001.33</ele>
        <time>2026-03-21T10:49:33Z</time>
      </trkpt>
      <trkpt lat="45.92827" lon="6.51704">
        <ele>2001.458</ele>
        <time>2026-03-21T10:49:38Z</time>
      </trkpt>
      <trkpt lat="45.92824" lon="6.51704">
        <ele>2001.84</ele>
        <time>2026-03-21T10:49:43Z</time>
      </trkpt>
      <trkpt lat="45.92821" lon="6.51703">
        <ele>2004.023</ele>
        <time>2026-03-21T10:49:48Z</time>
      </trkpt>
      <trkpt lat="45.92819" lon="6.51703">
        <ele>2004.241</ele>
        <time>2026-03-21T10:49:53Z</time>
      </trkpt>
      <trkpt lat="45.92817" lon="6.51703">
        <ele>2005.089</ele>
        <time>2026-03-21T10:49:58Z</time>
      </trkpt>
      <trkpt lat="45.92814" lon="6.51703">
        <ele>2004.572</ele>
        <time>2026-03-21T10:50:03Z</time>
      </trkpt>
      <trkpt lat="45.92811" lon="6.51705">
        <ele>2005.947</ele>
        <time>2026-03-21T10:50:08Z</time>
      </trkpt>
      <trkpt lat="45.92809" lon="6.51708">
        <ele>2006.096</ele>
        <time>2026-03-21T10:50:13Z</time>
      </trkpt>
      <trkpt lat="45.92808" lon="6.5171">
        <ele>2007.402</ele>
        <time>2026-03-21T10:50:18Z</time>
      </trkpt>
      <trkpt lat="45.92808" lon="6.51714">
        <ele>2007.874</ele>
        <time>2026-03-21T10:50:23Z</time>
      </trkpt>
      <trkpt lat="45.92807" lon="6.51717">
        <ele>2007.765</ele>
        <time>2026-03-21T10:50:28Z</time>
      </trkpt>
      <trkpt lat="45.92807" lon="6.51718">
        <ele>2008.02</ele>
        <time>2026-03-21T10:50:33Z</time>
      </trkpt>
      <trkpt lat="45.92806" lon="6.51719">
        <ele>2008.078</ele>
        <time>2026-03-21T10:50:38Z</time>
      </trkpt>
      <trkpt lat="45.92806" lon="6.51719">
        <ele>2008.079</ele>
        <time>2026-03-21T10:50:43Z</time>
      </trkpt>
      <trkpt lat="45.92806" lon="6.51719">
        <ele>2008.084</ele>
        <time>2026-03-21T10:50:48Z</time>
      </trkpt>
      <trkpt lat="45.92806" lon="6.51719">
        <ele>2008.086</ele>
        <time>2026-03-21T10:50:53Z</time>
      </trkpt>
      <trkpt lat="45.92806" lon="6.51719">
        <ele>2008.085</ele>
        <time>2026-03-21T10:50:58Z</time>
      </trkpt>
      <trkpt lat="45.92806" lon="6.51719">
        <ele>2008.079</ele>
        <time>2026-03-21T10:51:03Z</time>
      </trkpt>
      <trkpt lat="45.92806" lon="6.51719">
        <ele>2008.075</ele>
        <time>2026-03-21T10:51:08Z</time>
      </trkpt>
      <trkpt lat="45.92806" lon="6.51719">
        <ele>2008.073</ele>
        <time>2026-03-21T10:51:13Z</time>
      </trkpt>
      <trkpt lat="45.92806" lon="6.51719">
        <ele>2008.073</ele>
        <time>2026-03-21T10:51:18Z</time>
      </trkpt>
      <trkpt lat="45.92806" lon="6.51719">
        <ele>2008.073</ele>
        <time>2026-03-21T10:51:23Z</time>
      </trkpt>
      <trkpt lat="45.92806" lon="6.51719">
        <ele>2008.072</ele>
        <time>2026-03-21T10:51:28Z</time>
      </trkpt>
      <trkpt lat="45.92806" lon="6.51719">
        <ele>2008.074</ele>
        <time>2026-03-21T10:51:33Z</time>
      </trkpt>
      <trkpt lat="45.92806" lon="6.51719">
        <ele>2008.077</ele>
        <time>2026-03-21T10:51:38Z</time>
      </trkpt>
      <trkpt lat="45.92806" lon="6.51721">
        <ele>2008.147</ele>
        <time>2026-03-21T10:51:43Z</time>
      </trkpt>
      <trkpt lat="45.92806" lon="6.51721">
        <ele>2008.086</ele>
        <time>2026-03-21T10:51:48Z</time>
      </trkpt>
      <trkpt lat="45.92806" lon="6.51721">
        <ele>2008.097</ele>
        <time>2026-03-21T10:51:53Z</time>
      </trkpt>
      <trkpt lat="45.92806" lon="6.51721">
        <ele>2008.093</ele>
        <time>2026-03-21T10:51:58Z</time>
      </trkpt>
      <trkpt lat="45.92806" lon="6.51721">
        <ele>2008.084</ele>
        <time>2026-03-21T10:52:03Z</time>
      </trkpt>
      <trkpt lat="45.92806" lon="6.51721">
        <ele>2008.084</ele>
        <time>2026-03-21T10:52:08Z</time>
      </trkpt>
      <trkpt lat="45.92806" lon="6.51721">
        <ele>2008.082</ele>
        <time>2026-03-21T10:52:13Z</time>
      </trkpt>
      <trkpt lat="45.92806" lon="6.51721">
        <ele>2008.06</ele>
        <time>2026-03-21T10:52:18Z</time>
      </trkpt>
      <trkpt lat="45.92806" lon="6.51721">
        <ele>2008.052</ele>
        <time>2026-03-21T10:52:23Z</time>
      </trkpt>
      <trkpt lat="45.92806" lon="6.51721">
        <ele>2008.05</ele>
        <time>2026-03-21T10:52:28Z</time>
      </trkpt>
      <trkpt lat="45.92806" lon="6.51721">
        <ele>2008.026</ele>
        <time>2026-03-21T10:52:33Z</time>
      </trkpt>
      <trkpt lat="45.92806" lon="6.51721">
        <ele>2008.008</ele>
        <time>2026-03-21T10:52:38Z</time>
      </trkpt>
      <trkpt lat="45.92806" lon="6.51721">
        <ele>2007.982</ele>
        <time>2026-03-21T10:52:43Z</time>
      </trkpt>
      <trkpt lat="45.92806" lon="6.51724">
        <ele>2008.277</ele>
        <time>2026-03-21T10:52:48Z</time>
      </trkpt>
      <trkpt lat="45.92806" lon="6.51727">
        <ele>2008.537</ele>
        <time>2026-03-21T10:52:53Z</time>
      </trkpt>
      <trkpt lat="45.92806" lon="6.51729">
        <ele>2009.961</ele>
        <time>2026-03-21T10:52:58Z</time>
      </trkpt>
      <trkpt lat="45.92806" lon="6.51729">
        <ele>2009.812</ele>
        <time>2026-03-21T10:53:03Z</time>
      </trkpt>
      <trkpt lat="45.92806" lon="6.51733">
        <ele>2010.464</ele>
        <time>2026-03-21T10:53:08Z</time>
      </trkpt>
      <trkpt lat="45.92806" lon="6.51737">
        <ele>2011.641</ele>
        <time>2026-03-21T10:53:13Z</time>
      </trkpt>
      <trkpt lat="45.92805" lon="6.5174">
        <ele>2013.216</ele>
        <time>2026-03-21T10:53:18Z</time>
      </trkpt>
      <trkpt lat="45.92805" lon="6.51744">
        <ele>2013.47</ele>
        <time>2026-03-21T10:53:23Z</time>
      </trkpt>
      <trkpt lat="45.92805" lon="6.51747">
        <ele>2013.735</ele>
        <time>2026-03-21T10:53:28Z</time>
      </trkpt>
      <trkpt lat="45.92806" lon="6.51749">
        <ele>2013.768</ele>
        <time>2026-03-21T10:53:33Z</time>
      </trkpt>
      <trkpt lat="45.92807" lon="6.51751">
        <ele>2013.998</ele>
        <time>2026-03-21T10:53:38Z</time>
      </trkpt>
      <trkpt lat="45.92807" lon="6.51754">
        <ele>2014.94</ele>
        <time>2026-03-21T10:53:43Z</time>
      </trkpt>
      <trkpt lat="45.92807" lon="6.51756">
        <ele>2016.523</ele>
        <time>2026-03-21T10:53:48Z</time>
      </trkpt>
      <trkpt lat="45.92807" lon="6.51757">
        <ele>2016.727</ele>
        <time>2026-03-21T10:53:53Z</time>
      </trkpt>
      <trkpt lat="45.92807" lon="6.51757">
        <ele>2016.707</ele>
        <time>2026-03-21T10:53:58Z</time>
      </trkpt>
      <trkpt lat="45.92807" lon="6.51757">
        <ele>2016.701</ele>
        <time>2026-03-21T10:54:03Z</time>
      </trkpt>
      <trkpt lat="45.92807" lon="6.51757">
        <ele>2016.692</ele>
        <time>2026-03-21T10:54:08Z</time>
      </trkpt>
      <trkpt lat="45.92807" lon="6.51757">
        <ele>2016.684</ele>
        <time>2026-03-21T10:54:13Z</time>
      </trkpt>
      <trkpt lat="45.92808" lon="6.51759">
        <ele>2016.27</ele>
        <time>2026-03-21T10:54:18Z</time>
      </trkpt>
      <trkpt lat="45.92808" lon="6.51763">
        <ele>2016.423</ele>
        <time>2026-03-21T10:54:23Z</time>
      </trkpt>
      <trkpt lat="45.92808" lon="6.51765">
        <ele>2015.983</ele>
        <time>2026-03-21T10:54:28Z</time>
      </trkpt>
      <trkpt lat="45.92809" lon="6.51767">
        <ele>2017.426</ele>
        <time>2026-03-21T10:54:33Z</time>
      </trkpt>
      <trkpt lat="45.92809" lon="6.5177">
        <ele>2019.713</ele>
        <time>2026-03-21T10:54:38Z</time>
      </trkpt>
      <trkpt lat="45.9281" lon="6.51773">
        <ele>2020.766</ele>
        <time>2026-03-21T10:54:43Z</time>
      </trkpt>
      <trkpt lat="45.92811" lon="6.51775">
        <ele>2023.034</ele>
        <time>2026-03-21T10:54:48Z</time>
      </trkpt>
      <trkpt lat="45.92813" lon="6.51777">
        <ele>2024.249</ele>
        <time>2026-03-21T10:54:53Z</time>
      </trkpt>
      <trkpt lat="45.92814" lon="6.51779">
        <ele>2024.171</ele>
        <time>2026-03-21T10:54:58Z</time>
      </trkpt>
      <trkpt lat="45.92816" lon="6.51781">
        <ele>2024.745</ele>
        <time>2026-03-21T10:55:03Z</time>
      </trkpt>
      <trkpt lat="45.92818" lon="6.51784">
        <ele>2024.182</ele>
        <time>2026-03-21T10:55:08Z</time>
      </trkpt>
      <trkpt lat="45.92819" lon="6.51785">
        <ele>2026.073</ele>
        <time>2026-03-21T10:55:13Z</time>
      </trkpt>
      <trkpt lat="45.9282" lon="6.51786">
        <ele>2027.25</ele>
        <time>2026-03-21T10:55:18Z</time>
      </trkpt>
      <trkpt lat="45.92821" lon="6.51788">
        <ele>2027.52</ele>
        <time>2026-03-21T10:55:23Z</time>
      </trkpt>
      <trkpt lat="45.92821" lon="6.51789">
        <ele>2027.957</ele>
        <time>2026-03-21T10:55:28Z</time>
      </trkpt>
      <trkpt lat="45.92818" lon="6.51789">
        <ele>2028.186</ele>
        <time>2026-03-21T10:55:33Z</time>
      </trkpt>
      <trkpt lat="45.92816" lon="6.51791">
        <ele>2029.742</ele>
        <time>2026-03-21T10:55:38Z</time>
      </trkpt>
      <trkpt lat="45.92814" lon="6.51792">
        <ele>2030.281</ele>
        <time>2026-03-21T10:55:43Z</time>
      </trkpt>
      <trkpt lat="45.9281" lon="6.51794">
        <ele>2030.101</ele>
        <time>2026-03-21T10:55:48Z</time>
      </trkpt>
      <trkpt lat="45.92809" lon="6.51795">
        <ele>2031.249</ele>
        <time>2026-03-21T10:55:53Z</time>
      </trkpt>
      <trkpt lat="45.92805" lon="6.51796">
        <ele>2032.531</ele>
        <time>2026-03-21T10:55:58Z</time>
      </trkpt>
      <trkpt lat="45.92803" lon="6.51797">
        <ele>2032.942</ele>
        <time>2026-03-21T10:56:03Z</time>
      </trkpt>
      <trkpt lat="45.92801" lon="6.51798">
        <ele>2033.85</ele>
        <time>2026-03-21T10:56:08Z</time>
      </trkpt>
      <trkpt lat="45.92798" lon="6.51798">
        <ele>2035.239</ele>
        <time>2026-03-21T10:56:13Z</time>
      </trkpt>
      <trkpt lat="45.92795" lon="6.518">
        <ele>2036.053</ele>
        <time>2026-03-21T10:56:18Z</time>
      </trkpt>
      <trkpt lat="45.92792" lon="6.518">
        <ele>2036.347</ele>
        <time>2026-03-21T10:56:23Z</time>
      </trkpt>
      <trkpt lat="45.9279" lon="6.51801">
        <ele>2036.839</ele>
        <time>2026-03-21T10:56:28Z</time>
      </trkpt>
      <trkpt lat="45.92787" lon="6.51801">
        <ele>2038.764</ele>
        <time>2026-03-21T10:56:33Z</time>
      </trkpt>
      <trkpt lat="45.92785" lon="6.51802">
        <ele>2039.102</ele>
        <time>2026-03-21T10:56:38Z</time>
      </trkpt>
      <trkpt lat="45.92782" lon="6.51802">
        <ele>2040.024</ele>
        <time>2026-03-21T10:56:43Z</time>
      </trkpt>
      <trkpt lat="45.92779" lon="6.51802">
        <ele>2039.892</ele>
        <time>2026-03-21T10:56:48Z</time>
      </trkpt>
      <trkpt lat="45.92777" lon="6.51803">
        <ele>2039.763</ele>
        <time>2026-03-21T10:56:53Z</time>
      </trkpt>
      <trkpt lat="45.92775" lon="6.51804">
        <ele>2040.331</ele>
        <time>2026-03-21T10:56:58Z</time>
      </trkpt>
      <trkpt lat="45.92772" lon="6.51804">
        <ele>2041.258</ele>
        <time>2026-03-21T10:57:03Z</time>
      </trkpt>
      <trkpt lat="45.9277" lon="6.51804">
        <ele>2042.347</ele>
        <time>2026-03-21T10:57:08Z</time>
      </trkpt>
      <trkpt lat="45.92768" lon="6.51804">
        <ele>2043.698</ele>
        <time>2026-03-21T10:57:13Z</time>
      </trkpt>
      <trkpt lat="45.92766" lon="6.51805">
        <ele>2044.745</ele>
        <time>2026-03-21T10:57:18Z</time>
      </trkpt>
      <trkpt lat="45.92764" lon="6.51807">
        <ele>2044.716</ele>
        <time>2026-03-21T10:57:23Z</time>
      </trkpt>
      <trkpt lat="45.92763" lon="6.51808">
        <ele>2044.539</ele>
        <time>2026-03-21T10:57:28Z</time>
      </trkpt>
      <trkpt lat="45.92765" lon="6.5181">
        <ele>2044.872</ele>
        <time>2026-03-21T10:57:33Z</time>
      </trkpt>
      <trkpt lat="45.92766" lon="6.51812">
        <ele>2046.944</ele>
        <time>2026-03-21T10:57:38Z</time>
      </trkpt>
      <trkpt lat="45.92768" lon="6.51814">
        <ele>2047.474</ele>
        <time>2026-03-21T10:57:43Z</time>
      </trkpt>
      <trkpt lat="45.92769" lon="6.51817">
        <ele>2047.226</ele>
        <time>2026-03-21T10:57:48Z</time>
      </trkpt>
      <trkpt lat="45.92771" lon="6.51819">
        <ele>2047.599</ele>
        <time>2026-03-21T10:57:53Z</time>
      </trkpt>
      <trkpt lat="45.92772" lon="6.51822">
        <ele>2049.376</ele>
        <time>2026-03-21T10:57:58Z</time>
      </trkpt>
      <trkpt lat="45.92774" lon="6.51825">
        <ele>2049.826</ele>
        <time>2026-03-21T10:58:03Z</time>
      </trkpt>
      <trkpt lat="45.92777" lon="6.51827">
        <ele>2049.876</ele>
        <time>2026-03-21T10:58:08Z</time>
      </trkpt>
      <trkpt lat="45.92779" lon="6.51828">
        <ele>2050.064</ele>
        <time>2026-03-21T10:58:13Z</time>
      </trkpt>
      <trkpt lat="45.92782" lon="6.5183">
        <ele>2050.815</ele>
        <time>2026-03-21T10:58:18Z</time>
      </trkpt>
      <trkpt lat="45.92784" lon="6.51832">
        <ele>2051.482</ele>
        <time>2026-03-21T10:58:23Z</time>
      </trkpt>
      <trkpt lat="45.92785" lon="6.51833">
        <ele>2052.001</ele>
        <time>2026-03-21T10:58:28Z</time>
      </trkpt>
      <trkpt lat="45.92785" lon="6.51834">
        <ele>2051.582</ele>
        <time>2026-03-21T10:58:33Z</time>
      </trkpt>
      <trkpt lat="45.92787" lon="6.51836">
        <ele>2052.267</ele>
        <time>2026-03-21T10:58:38Z</time>
      </trkpt>
      <trkpt lat="45.92785" lon="6.51837">
        <ele>2053.199</ele>
        <time>2026-03-21T10:58:43Z</time>
      </trkpt>
      <trkpt lat="45.92783" lon="6.51838">
        <ele>2053.834</ele>
        <time>2026-03-21T10:58:48Z</time>
      </trkpt>
      <trkpt lat="45.9278" lon="6.51839">
        <ele>2055.093</ele>
        <time>2026-03-21T10:58:53Z</time>
      </trkpt>
      <trkpt lat="45.92776" lon="6.51839">
        <ele>2055.851</ele>
        <time>2026-03-21T10:58:58Z</time>
      </trkpt>
      <trkpt lat="45.92773" lon="6.51839">
        <ele>2056.945</ele>
        <time>2026-03-21T10:59:03Z</time>
      </trkpt>
      <trkpt lat="45.92771" lon="6.51839">
        <ele>2057.565</ele>
        <time>2026-03-21T10:59:08Z</time>
      </trkpt>
      <trkpt lat="45.9277" lon="6.5184">
        <ele>2057.801</ele>
        <time>2026-03-21T10:59:13Z</time>
      </trkpt>
      <trkpt lat="45.92767" lon="6.51841">
        <ele>2058.874</ele>
        <time>2026-03-21T10:59:18Z</time>
      </trkpt>
      <trkpt lat="45.92765" lon="6.51842">
        <ele>2058.785</ele>
        <time>2026-03-21T10:59:23Z</time>
      </trkpt>
      <trkpt lat="45.92764" lon="6.51843">
        <ele>2059.196</ele>
        <time>2026-03-21T10:59:28Z</time>
      </trkpt>
      <trkpt lat="45.92761" lon="6.51845">
        <ele>2060.22</ele>
        <time>2026-03-21T10:59:33Z</time>
      </trkpt>
      <trkpt lat="45.92758" lon="6.51846">
        <ele>2061.016</ele>
        <time>2026-03-21T10:59:38Z</time>
      </trkpt>
      <trkpt lat="45.92756" lon="6.51847">
        <ele>2061.644</ele>
        <time>2026-03-21T10:59:43Z</time>
      </trkpt>
      <trkpt lat="45.92753" lon="6.51848">
        <ele>2063.054</ele>
        <time>2026-03-21T10:59:48Z</time>
      </trkpt>
      <trkpt lat="45.9275" lon="6.51848">
        <ele>2063.622</ele>
        <time>2026-03-21T10:59:53Z</time>
      </trkpt>
      <trkpt lat="45.92747" lon="6.51848">
        <ele>2064.22</ele>
        <time>2026-03-21T10:59:58Z</time>
      </trkpt>
      <trkpt lat="45.92744" lon="6.51847">
        <ele>2065.105</ele>
        <time>2026-03-21T11:00:03Z</time>
      </trkpt>
      <trkpt lat="45.92741" lon="6.51846">
        <ele>2066.005</ele>
        <time>2026-03-21T11:00:08Z</time>
      </trkpt>
      <trkpt lat="45.92738" lon="6.51845">
        <ele>2066.557</ele>
        <time>2026-03-21T11:00:13Z</time>
      </trkpt>
      <trkpt lat="45.92736" lon="6.51845">
        <ele>2067.568</ele>
        <time>2026-03-21T11:00:18Z</time>
      </trkpt>
      <trkpt lat="45.92734" lon="6.51844">
        <ele>2068.268</ele>
        <time>2026-03-21T11:00:23Z</time>
      </trkpt>
      <trkpt lat="45.92732" lon="6.51842">
        <ele>2069.219</ele>
        <time>2026-03-21T11:00:28Z</time>
      </trkpt>
      <trkpt lat="45.9273" lon="6.5184">
        <ele>2069.584</ele>
        <time>2026-03-21T11:00:33Z</time>
      </trkpt>
      <trkpt lat="45.92727" lon="6.51839">
        <ele>2069.373</ele>
        <time>2026-03-21T11:00:38Z</time>
      </trkpt>
      <trkpt lat="45.92725" lon="6.51836">
        <ele>2070.482</ele>
        <time>2026-03-21T11:00:43Z</time>
      </trkpt>
      <trkpt lat="45.92723" lon="6.51833">
        <ele>2071.09</ele>
        <time>2026-03-21T11:00:48Z</time>
      </trkpt>
      <trkpt lat="45.9272" lon="6.51832">
        <ele>2071.318</ele>
        <time>2026-03-21T11:00:53Z</time>
      </trkpt>
      <trkpt lat="45.92718" lon="6.5183">
        <ele>2073.217</ele>
        <time>2026-03-21T11:00:58Z</time>
      </trkpt>
      <trkpt lat="45.92716" lon="6.51828">
        <ele>2072.843</ele>
        <time>2026-03-21T11:01:03Z</time>
      </trkpt>
      <trkpt lat="45.92714" lon="6.51826">
        <ele>2073.692</ele>
        <time>2026-03-21T11:01:08Z</time>
      </trkpt>
      <trkpt lat="45.92712" lon="6.51824">
        <ele>2074.778</ele>
        <time>2026-03-21T11:01:13Z</time>
      </trkpt>
      <trkpt lat="45.9271" lon="6.51821">
        <ele>2076.492</ele>
        <time>2026-03-21T11:01:18Z</time>
      </trkpt>
      <trkpt lat="45.92707" lon="6.5182">
        <ele>2077.114</ele>
        <time>2026-03-21T11:01:23Z</time>
      </trkpt>
      <trkpt lat="45.92707" lon="6.51819">
        <ele>2077.609</ele>
        <time>2026-03-21T11:01:28Z</time>
      </trkpt>
      <trkpt lat="45.92704" lon="6.51817">
        <ele>2078.732</ele>
        <time>2026-03-21T11:01:33Z</time>
      </trkpt>
      <trkpt lat="45.92702" lon="6.51816">
        <ele>2079.414</ele>
        <time>2026-03-21T11:01:38Z</time>
      </trkpt>
      <trkpt lat="45.92699" lon="6.51815">
        <ele>2079.923</ele>
        <time>2026-03-21T11:01:43Z</time>
      </trkpt>
      <trkpt lat="45.92696" lon="6.51814">
        <ele>2079.401</ele>
        <time>2026-03-21T11:01:48Z</time>
      </trkpt>
      <trkpt lat="45.92693" lon="6.51814">
        <ele>2079.389</ele>
        <time>2026-03-21T11:01:53Z</time>
      </trkpt>
      <trkpt lat="45.9269" lon="6.51814">
        <ele>2080.324</ele>
        <time>2026-03-21T11:01:58Z</time>
      </trkpt>
      <trkpt lat="45.92687" lon="6.51814">
        <ele>2080.081</ele>
        <time>2026-03-21T11:02:03Z</time>
      </trkpt>
      <trkpt lat="45.92686" lon="6.51813">
        <ele>2080.771</ele>
        <time>2026-03-21T11:02:08Z</time>
      </trkpt>
      <trkpt lat="45.92683" lon="6.51813">
        <ele>2080.974</ele>
        <time>2026-03-21T11:02:13Z</time>
      </trkpt>
      <trkpt lat="45.9268" lon="6.51812">
        <ele>2081.512</ele>
        <time>2026-03-21T11:02:18Z</time>
      </trkpt>
      <trkpt lat="45.92677" lon="6.51812">
        <ele>2082.465</ele>
        <time>2026-03-21T11:02:23Z</time>
      </trkpt>
      <trkpt lat="45.92673" lon="6.51812">
        <ele>2082.268</ele>
        <time>2026-03-21T11:02:28Z</time>
      </trkpt>
      <trkpt lat="45.92669" lon="6.51811">
        <ele>2082.144</ele>
        <time>2026-03-21T11:02:33Z</time>
      </trkpt>
      <trkpt lat="45.92666" lon="6.5181">
        <ele>2081.975</ele>
        <time>2026-03-21T11:02:38Z</time>
      </trkpt>
      <trkpt lat="45.92663" lon="6.51809">
        <ele>2082.464</ele>
        <time>2026-03-21T11:02:43Z</time>
      </trkpt>
      <trkpt lat="45.9266" lon="6.51808">
        <ele>2084.001</ele>
        <time>2026-03-21T11:02:48Z</time>
      </trkpt>
      <trkpt lat="45.92657" lon="6.51807">
        <ele>2084.551</ele>
        <time>2026-03-21T11:02:53Z</time>
      </trkpt>
      <trkpt lat="45.92654" lon="6.51805">
        <ele>2085.028</ele>
        <time>2026-03-21T11:02:58Z</time>
      </trkpt>
      <trkpt lat="45.92651" lon="6.51805">
        <ele>2085.861</ele>
        <time>2026-03-21T11:03:03Z</time>
      </trkpt>
      <trkpt lat="45.92648" lon="6.51804">
        <ele>2086.116</ele>
        <time>2026-03-21T11:03:08Z</time>
      </trkpt>
      <trkpt lat="45.92645" lon="6.51803">
        <ele>2086.004</ele>
        <time>2026-03-21T11:03:13Z</time>
      </trkpt>
      <trkpt lat="45.92642" lon="6.51802">
        <ele>2086.65</ele>
        <time>2026-03-21T11:03:18Z</time>
      </trkpt>
      <trkpt lat="45.92639" lon="6.518">
        <ele>2087.694</ele>
        <time>2026-03-21T11:03:23Z</time>
      </trkpt>
      <trkpt lat="45.92636" lon="6.51799">
        <ele>2088.768</ele>
        <time>2026-03-21T11:03:28Z</time>
      </trkpt>
      <trkpt lat="45.92633" lon="6.51799">
        <ele>2089.781</ele>
        <time>2026-03-21T11:03:33Z</time>
      </trkpt>
      <trkpt lat="45.92631" lon="6.518">
        <ele>2090.571</ele>
        <time>2026-03-21T11:03:38Z</time>
      </trkpt>
      <trkpt lat="45.92629" lon="6.51804">
        <ele>2090.507</ele>
        <time>2026-03-21T11:03:43Z</time>
      </trkpt>
      <trkpt lat="45.92628" lon="6.51809">
        <ele>2090.124</ele>
        <time>2026-03-21T11:03:48Z</time>
      </trkpt>
      <trkpt lat="45.92628" lon="6.51813">
        <ele>2090.79</ele>
        <time>2026-03-21T11:03:53Z</time>
      </trkpt>
      <trkpt lat="45.92628" lon="6.51816">
        <ele>2091.156</ele>
        <time>2026-03-21T11:03:58Z</time>
      </trkpt>
      <trkpt lat="45.92628" lon="6.5182">
        <ele>2092.208</ele>
        <time>2026-03-21T11:04:03Z</time>
      </trkpt>
      <trkpt lat="45.92628" lon="6.51824">
        <ele>2093.325</ele>
        <time>2026-03-21T11:04:08Z</time>
      </trkpt>
      <trkpt lat="45.92627" lon="6.51828">
        <ele>2093.4</ele>
        <time>2026-03-21T11:04:13Z</time>
      </trkpt>
      <trkpt lat="45.92627" lon="6.51833">
        <ele>2093.503</ele>
        <time>2026-03-21T11:04:18Z</time>
      </trkpt>
      <trkpt lat="45.92627" lon="6.51837">
        <ele>2093.959</ele>
        <time>2026-03-21T11:04:23Z</time>
      </trkpt>
      <trkpt lat="45.92627" lon="6.5184">
        <ele>2094.351</ele>
        <time>2026-03-21T11:04:28Z</time>
      </trkpt>
      <trkpt lat="45.92626" lon="6.51844">
        <ele>2095.304</ele>
        <time>2026-03-21T11:04:33Z</time>
      </trkpt>
      <trkpt lat="45.92626" lon="6.51847">
        <ele>2096.487</ele>
        <time>2026-03-21T11:04:38Z</time>
      </trkpt>
      <trkpt lat="45.92626" lon="6.5185">
        <ele>2097.407</ele>
        <time>2026-03-21T11:04:43Z</time>
      </trkpt>
      <trkpt lat="45.92626" lon="6.51853">
        <ele>2098.755</ele>
        <time>2026-03-21T11:04:48Z</time>
      </trkpt>
      <trkpt lat="45.92625" lon="6.51855">
        <ele>2099.538</ele>
        <time>2026-03-21T11:04:53Z</time>
      </trkpt>
      <trkpt lat="45.92622" lon="6.51855">
        <ele>2101.106</ele>
        <time>2026-03-21T11:04:58Z</time>
      </trkpt>
      <trkpt lat="45.9262" lon="6.51853">
        <ele>2101.966</ele>
        <time>2026-03-21T11:05:03Z</time>
      </trkpt>
      <trkpt lat="45.92617" lon="6.51853">
        <ele>2102.621</ele>
        <time>2026-03-21T11:05:08Z</time>
      </trkpt>
      <trkpt lat="45.92615" lon="6.51852">
        <ele>2102.859</ele>
        <time>2026-03-21T11:05:13Z</time>
      </trkpt>
      <trkpt lat="45.92611" lon="6.5185">
        <ele>2102.834</ele>
        <time>2026-03-21T11:05:18Z</time>
      </trkpt>
      <trkpt lat="45.92608" lon="6.51848">
        <ele>2103.272</ele>
        <time>2026-03-21T11:05:23Z</time>
      </trkpt>
      <trkpt lat="45.92606" lon="6.51844">
        <ele>2103.739</ele>
        <time>2026-03-21T11:05:28Z</time>
      </trkpt>
      <trkpt lat="45.92604" lon="6.5184">
        <ele>2105.645</ele>
        <time>2026-03-21T11:05:33Z</time>
      </trkpt>
      <trkpt lat="45.92602" lon="6.51835">
        <ele>2107.393</ele>
        <time>2026-03-21T11:05:38Z</time>
      </trkpt>
      <trkpt lat="45.926" lon="6.51831">
        <ele>2107.203</ele>
        <time>2026-03-21T11:05:43Z</time>
      </trkpt>
      <trkpt lat="45.92598" lon="6.51826">
        <ele>2108.057</ele>
        <time>2026-03-21T11:05:48Z</time>
      </trkpt>
      <trkpt lat="45.92597" lon="6.51822">
        <ele>2108.505</ele>
        <time>2026-03-21T11:05:53Z</time>
      </trkpt>
      <trkpt lat="45.92595" lon="6.51818">
        <ele>2109.485</ele>
        <time>2026-03-21T11:05:58Z</time>
      </trkpt>
      <trkpt lat="45.92594" lon="6.51814">
        <ele>2110.616</ele>
        <time>2026-03-21T11:06:03Z</time>
      </trkpt>
      <trkpt lat="45.92594" lon="6.51811">
        <ele>2110.643</ele>
        <time>2026-03-21T11:06:08Z</time>
      </trkpt>
      <trkpt lat="45.92593" lon="6.51808">
        <ele>2111.18</ele>
        <time>2026-03-21T11:06:13Z</time>
      </trkpt>
      <trkpt lat="45.92593" lon="6.51803">
        <ele>2112.839</ele>
        <time>2026-03-21T11:06:18Z</time>
      </trkpt>
      <trkpt lat="45.92593" lon="6.518">
        <ele>2112.881</ele>
        <time>2026-03-21T11:06:23Z</time>
      </trkpt>
      <trkpt lat="45.92592" lon="6.51796">
        <ele>2113.937</ele>
        <time>2026-03-21T11:06:28Z</time>
      </trkpt>
      <trkpt lat="45.9259" lon="6.51791">
        <ele>2114.699</ele>
        <time>2026-03-21T11:06:33Z</time>
      </trkpt>
      <trkpt lat="45.92589" lon="6.51787">
        <ele>2114.548</ele>
        <time>2026-03-21T11:06:38Z</time>
      </trkpt>
      <trkpt lat="45.92586" lon="6.51784">
        <ele>2115.335</ele>
        <time>2026-03-21T11:06:43Z</time>
      </trkpt>
      <trkpt lat="45.92585" lon="6.51782">
        <ele>2115.932</ele>
        <time>2026-03-21T11:06:48Z</time>
      </trkpt>
      <trkpt lat="45.92583" lon="6.51779">
        <ele>2117.272</ele>
        <time>2026-03-21T11:06:53Z</time>
      </trkpt>
      <trkpt lat="45.92581" lon="6.51778">
        <ele>2117.837</ele>
        <time>2026-03-21T11:06:58Z</time>
      </trkpt>
      <trkpt lat="45.92579" lon="6.51777">
        <ele>2117.963</ele>
        <time>2026-03-21T11:07:03Z</time>
      </trkpt>
      <trkpt lat="45.92577" lon="6.51776">
        <ele>2117.709</ele>
        <time>2026-03-21T11:07:08Z</time>
      </trkpt>
      <trkpt lat="45.92574" lon="6.51776">
        <ele>2116.186</ele>
        <time>2026-03-21T11:07:13Z</time>
      </trkpt>
      <trkpt lat="45.92571" lon="6.51777">
        <ele>2115.399</ele>
        <time>2026-03-21T11:07:18Z</time>
      </trkpt>
      <trkpt lat="45.92569" lon="6.51777">
        <ele>2115.887</ele>
        <time>2026-03-21T11:07:23Z</time>
      </trkpt>
      <trkpt lat="45.92567" lon="6.51776">
        <ele>2116.309</ele>
        <time>2026-03-21T11:07:28Z</time>
      </trkpt>
      <trkpt lat="45.92567" lon="6.51776">
        <ele>2116.645</ele>
        <time>2026-03-21T11:07:33Z</time>
      </trkpt>
      <trkpt lat="45.92567" lon="6.51776">
        <ele>2116.744</ele>
        <time>2026-03-21T11:07:38Z</time>
      </trkpt>
      <trkpt lat="45.92567" lon="6.51776">
        <ele>2116.751</ele>
        <time>2026-03-21T11:07:43Z</time>
      </trkpt>
      <trkpt lat="45.92566" lon="6.51777">
        <ele>2117.001</ele>
        <time>2026-03-21T11:07:48Z</time>
      </trkpt>
      <trkpt lat="45.92566" lon="6.51777">
        <ele>2116.993</ele>
        <time>2026-03-21T11:07:53Z</time>
      </trkpt>
      <trkpt lat="45.92566" lon="6.51777">
        <ele>2116.992</ele>
        <time>2026-03-21T11:07:58Z</time>
      </trkpt>
      <trkpt lat="45.92566" lon="6.51777">
        <ele>2116.994</ele>
        <time>2026-03-21T11:08:03Z</time>
      </trkpt>
      <trkpt lat="45.92566" lon="6.51777">
        <ele>2117.008</ele>
        <time>2026-03-21T11:08:08Z</time>
      </trkpt>
      <trkpt lat="45.92566" lon="6.51777">
        <ele>2117.023</ele>
        <time>2026-03-21T11:08:13Z</time>
      </trkpt>
      <trkpt lat="45.92566" lon="6.51777">
        <ele>2117.038</ele>
        <time>2026-03-21T11:08:18Z</time>
      </trkpt>
      <trkpt lat="45.92566" lon="6.51777">
        <ele>2117.042</ele>
        <time>2026-03-21T11:08:23Z</time>
      </trkpt>
      <trkpt lat="45.92566" lon="6.51777">
        <ele>2117.042</ele>
        <time>2026-03-21T11:08:28Z</time>
      </trkpt>
      <trkpt lat="45.92566" lon="6.51777">
        <ele>2116.883</ele>
        <time>2026-03-21T11:08:33Z</time>
      </trkpt>
      <trkpt lat="45.92566" lon="6.51777">
        <ele>2116.87</ele>
        <time>2026-03-21T11:08:38Z</time>
      </trkpt>
      <trkpt lat="45.92566" lon="6.51777">
        <ele>2116.858</ele>
        <time>2026-03-21T11:08:43Z</time>
      </trkpt>
      <trkpt lat="45.92566" lon="6.51777">
        <ele>2116.847</ele>
        <time>2026-03-21T11:08:48Z</time>
      </trkpt>
      <trkpt lat="45.92566" lon="6.51777">
        <ele>2116.652</ele>
        <time>2026-03-21T11:08:53Z</time>
      </trkpt>
      <trkpt lat="45.92566" lon="6.51777">
        <ele>2116.56</ele>
        <time>2026-03-21T11:08:58Z</time>
      </trkpt>
      <trkpt lat="45.92566" lon="6.51777">
        <ele>2116.653</ele>
        <time>2026-03-21T11:09:03Z</time>
      </trkpt>
      <trkpt lat="45.92566" lon="6.51777">
        <ele>2116.707</ele>
        <time>2026-03-21T11:09:08Z</time>
      </trkpt>
      <trkpt lat="45.92566" lon="6.51777">
        <ele>2116.857</ele>
        <time>2026-03-21T11:09:13Z</time>
      </trkpt>
      <trkpt lat="45.92566" lon="6.51777">
        <ele>2117.004</ele>
        <time>2026-03-21T11:09:18Z</time>
      </trkpt>
      <trkpt lat="45.92566" lon="6.51777">
        <ele>2117.004</ele>
        <time>2026-03-21T11:09:23Z</time>
      </trkpt>
      <trkpt lat="45.92566" lon="6.51777">
        <ele>2116.984</ele>
        <time>2026-03-21T11:09:28Z</time>
      </trkpt>
      <trkpt lat="45.92566" lon="6.51777">
        <ele>2116.996</ele>
        <time>2026-03-21T11:09:33Z</time>
      </trkpt>
      <trkpt lat="45.92566" lon="6.51777">
        <ele>2116.943</ele>
        <time>2026-03-21T11:09:38Z</time>
      </trkpt>
      <trkpt lat="45.92566" lon="6.51777">
        <ele>2116.657</ele>
        <time>2026-03-21T11:09:43Z</time>
      </trkpt>
      <trkpt lat="45.92566" lon="6.51777">
        <ele>2116.651</ele>
        <time>2026-03-21T11:09:48Z</time>
      </trkpt>
      <trkpt lat="45.92566" lon="6.51777">
        <ele>2116.494</ele>
        <time>2026-03-21T11:09:53Z</time>
      </trkpt>
      <trkpt lat="45.92566" lon="6.51777">
        <ele>2116.478</ele>
        <time>2026-03-21T11:09:58Z</time>
      </trkpt>
      <trkpt lat="45.92566" lon="6.51777">
        <ele>2116.483</ele>
        <time>2026-03-21T11:10:03Z</time>
      </trkpt>
      <trkpt lat="45.92566" lon="6.51777">
        <ele>2116.487</ele>
        <time>2026-03-21T11:10:08Z</time>
      </trkpt>
      <trkpt lat="45.92566" lon="6.51777">
        <ele>2116.492</ele>
        <time>2026-03-21T11:10:13Z</time>
      </trkpt>
      <trkpt lat="45.92566" lon="6.51777">
        <ele>2116.493</ele>
        <time>2026-03-21T11:10:18Z</time>
      </trkpt>
      <trkpt lat="45.92566" lon="6.51777">
        <ele>2116.487</ele>
        <time>2026-03-21T11:10:23Z</time>
      </trkpt>
      <trkpt lat="45.92566" lon="6.51777">
        <ele>2116.487</ele>
        <time>2026-03-21T11:10:28Z</time>
      </trkpt>
      <trkpt lat="45.92566" lon="6.51777">
        <ele>2116.305</ele>
        <time>2026-03-21T11:10:33Z</time>
      </trkpt>
      <trkpt lat="45.92566" lon="6.51777">
        <ele>2116.335</ele>
        <time>2026-03-21T11:10:38Z</time>
      </trkpt>
      <trkpt lat="45.92566" lon="6.51777">
        <ele>2116.348</ele>
        <time>2026-03-21T11:10:43Z</time>
      </trkpt>
      <trkpt lat="45.92566" lon="6.51777">
        <ele>2116.355</ele>
        <time>2026-03-21T11:10:48Z</time>
      </trkpt>
      <trkpt lat="45.92566" lon="6.51777">
        <ele>2116.486</ele>
        <time>2026-03-21T11:10:53Z</time>
      </trkpt>
      <trkpt lat="45.92566" lon="6.51777">
        <ele>2116.438</ele>
        <time>2026-03-21T11:10:58Z</time>
      </trkpt>
      <trkpt lat="45.92566" lon="6.51777">
        <ele>2116.441</ele>
        <time>2026-03-21T11:11:03Z</time>
      </trkpt>
      <trkpt lat="45.92566" lon="6.51777">
        <ele>2116.438</ele>
        <time>2026-03-21T11:11:08Z</time>
      </trkpt>
      <trkpt lat="45.92566" lon="6.51777">
        <ele>2116.438</ele>
        <time>2026-03-21T11:11:13Z</time>
      </trkpt>
      <trkpt lat="45.92566" lon="6.51777">
        <ele>2116.638</ele>
        <time>2026-03-21T11:11:18Z</time>
      </trkpt>
      <trkpt lat="45.92566" lon="6.51777">
        <ele>2116.643</ele>
        <time>2026-03-21T11:11:23Z</time>
      </trkpt>
      <trkpt lat="45.92563" lon="6.51774">
        <ele>2117.335</ele>
        <time>2026-03-21T11:11:28Z</time>
      </trkpt>
      <trkpt lat="45.92563" lon="6.51775">
        <ele>2117.951</ele>
        <time>2026-03-21T11:11:33Z</time>
      </trkpt>
      <trkpt lat="45.9256" lon="6.51778">
        <ele>2117.125</ele>
        <time>2026-03-21T11:11:38Z</time>
      </trkpt>
      <trkpt lat="45.92558" lon="6.51781">
        <ele>2118.419</ele>
        <time>2026-03-21T11:11:43Z</time>
      </trkpt>
      <trkpt lat="45.92555" lon="6.51781">
        <ele>2119.934</ele>
        <time>2026-03-21T11:11:48Z</time>
      </trkpt>
      <trkpt lat="45.92552" lon="6.51783">
        <ele>2119.238</ele>
        <time>2026-03-21T11:11:53Z</time>
      </trkpt>
      <trkpt lat="45.9255" lon="6.51784">
        <ele>2119.396</ele>
        <time>2026-03-21T11:11:58Z</time>
      </trkpt>
      <trkpt lat="45.92548" lon="6.51787">
        <ele>2118.233</ele>
        <time>2026-03-21T11:12:03Z</time>
      </trkpt>
      <trkpt lat="45.92545" lon="6.51791">
        <ele>2118.455</ele>
        <time>2026-03-21T11:12:08Z</time>
      </trkpt>
      <trkpt lat="45.92542" lon="6.51794">
        <ele>2119.187</ele>
        <time>2026-03-21T11:12:13Z</time>
      </trkpt>
      <trkpt lat="45.92542" lon="6.51797">
        <ele>2119.409</ele>
        <time>2026-03-21T11:12:18Z</time>
      </trkpt>
      <trkpt lat="45.92541" lon="6.518">
        <ele>2119.829</ele>
        <time>2026-03-21T11:12:23Z</time>
      </trkpt>
      <trkpt lat="45.92541" lon="6.51805">
        <ele>2119.977</ele>
        <time>2026-03-21T11:12:28Z</time>
      </trkpt>
      <trkpt lat="45.92541" lon="6.5181">
        <ele>2120.087</ele>
        <time>2026-03-21T11:12:33Z</time>
      </trkpt>
      <trkpt lat="45.92541" lon="6.51815">
        <ele>2122.064</ele>
        <time>2026-03-21T11:12:38Z</time>
      </trkpt>
      <trkpt lat="45.92542" lon="6.51819">
        <ele>2123.019</ele>
        <time>2026-03-21T11:12:43Z</time>
      </trkpt>
      <trkpt lat="45.92542" lon="6.51824">
        <ele>2124.92</ele>
        <time>2026-03-21T11:12:48Z</time>
      </trkpt>
      <trkpt lat="45.92543" lon="6.51828">
        <ele>2126.329</ele>
        <time>2026-03-21T11:12:53Z</time>
      </trkpt>
      <trkpt lat="45.92543" lon="6.51831">
        <ele>2125.974</ele>
        <time>2026-03-21T11:12:58Z</time>
      </trkpt>
      <trkpt lat="45.92543" lon="6.51835">
        <ele>2127.19</ele>
        <time>2026-03-21T11:13:03Z</time>
      </trkpt>
      <trkpt lat="45.92544" lon="6.5184">
        <ele>2127.447</ele>
        <time>2026-03-21T11:13:08Z</time>
      </trkpt>
      <trkpt lat="45.92544" lon="6.51844">
        <ele>2126.962</ele>
        <time>2026-03-21T11:13:13Z</time>
      </trkpt>
      <trkpt lat="45.92544" lon="6.51849">
        <ele>2128.526</ele>
        <time>2026-03-21T11:13:18Z</time>
      </trkpt>
      <trkpt lat="45.92545" lon="6.51853">
        <ele>2129.408</ele>
        <time>2026-03-21T11:13:23Z</time>
      </trkpt>
      <trkpt lat="45.92545" lon="6.51856">
        <ele>2129.253</ele>
        <time>2026-03-21T11:13:28Z</time>
      </trkpt>
      <trkpt lat="45.92545" lon="6.5186">
        <ele>2131.043</ele>
        <time>2026-03-21T11:13:33Z</time>
      </trkpt>
      <trkpt lat="45.92546" lon="6.51863">
        <ele>2131.622</ele>
        <time>2026-03-21T11:13:38Z</time>
      </trkpt>
      <trkpt lat="45.92545" lon="6.51864">
        <ele>2132.499</ele>
        <time>2026-03-21T11:13:43Z</time>
      </trkpt>
      <trkpt lat="45.92544" lon="6.51863">
        <ele>2133.339</ele>
        <time>2026-03-21T11:13:48Z</time>
      </trkpt>
      <trkpt lat="45.92542" lon="6.51862">
        <ele>2134.966</ele>
        <time>2026-03-21T11:13:53Z</time>
      </trkpt>
      <trkpt lat="45.9254" lon="6.5186">
        <ele>2135.155</ele>
        <time>2026-03-21T11:13:58Z</time>
      </trkpt>
      <trkpt lat="45.92537" lon="6.51857">
        <ele>2135.764</ele>
        <time>2026-03-21T11:14:03Z</time>
      </trkpt>
      <trkpt lat="45.92535" lon="6.51854">
        <ele>2136.827</ele>
        <time>2026-03-21T11:14:08Z</time>
      </trkpt>
      <trkpt lat="45.92533" lon="6.51851">
        <ele>2138.294</ele>
        <time>2026-03-21T11:14:13Z</time>
      </trkpt>
      <trkpt lat="45.92531" lon="6.51849">
        <ele>2139.213</ele>
        <time>2026-03-21T11:14:18Z</time>
      </trkpt>
      <trkpt lat="45.92529" lon="6.51847">
        <ele>2140.787</ele>
        <time>2026-03-21T11:14:23Z</time>
      </trkpt>
      <trkpt lat="45.92527" lon="6.51843">
        <ele>2142.415</ele>
        <time>2026-03-21T11:14:28Z</time>
      </trkpt>
      <trkpt lat="45.92525" lon="6.51841">
        <ele>2143.403</ele>
        <time>2026-03-21T11:14:33Z</time>
      </trkpt>
      <trkpt lat="45.92522" lon="6.51839">
        <ele>2143.345</ele>
        <time>2026-03-21T11:14:38Z</time>
      </trkpt>
      <trkpt lat="45.9252" lon="6.51839">
        <ele>2142.519</ele>
        <time>2026-03-21T11:14:43Z</time>
      </trkpt>
      <trkpt lat="45.92517" lon="6.51837">
        <ele>2143.837</ele>
        <time>2026-03-21T11:14:48Z</time>
      </trkpt>
      <trkpt lat="45.92514" lon="6.51837">
        <ele>2144.031</ele>
        <time>2026-03-21T11:14:53Z</time>
      </trkpt>
      <trkpt lat="45.92511" lon="6.51838">
        <ele>2144.556</ele>
        <time>2026-03-21T11:14:58Z</time>
      </trkpt>
      <trkpt lat="45.92509" lon="6.51839">
        <ele>2144.822</ele>
        <time>2026-03-21T11:15:03Z</time>
      </trkpt>
      <trkpt lat="45.92507" lon="6.51842">
        <ele>2145.457</ele>
        <time>2026-03-21T11:15:08Z</time>
      </trkpt>
      <trkpt lat="45.92506" lon="6.51845">
        <ele>2145.968</ele>
        <time>2026-03-21T11:15:13Z</time>
      </trkpt>
      <trkpt lat="45.92507" lon="6.51849">
        <ele>2145.456</ele>
        <time>2026-03-21T11:15:18Z</time>
      </trkpt>
      <trkpt lat="45.92508" lon="6.51852">
        <ele>2145.562</ele>
        <time>2026-03-21T11:15:23Z</time>
      </trkpt>
      <trkpt lat="45.9251" lon="6.51856">
        <ele>2146.457</ele>
        <time>2026-03-21T11:15:28Z</time>
      </trkpt>
      <trkpt lat="45.92511" lon="6.51859">
        <ele>2146.687</ele>
        <time>2026-03-21T11:15:33Z</time>
      </trkpt>
      <trkpt lat="45.92512" lon="6.51862">
        <ele>2147.27</ele>
        <time>2026-03-21T11:15:38Z</time>
      </trkpt>
      <trkpt lat="45.92513" lon="6.51866">
        <ele>2147.752</ele>
        <time>2026-03-21T11:15:43Z</time>
      </trkpt>
      <trkpt lat="45.92513" lon="6.5187">
        <ele>2148.434</ele>
        <time>2026-03-21T11:15:48Z</time>
      </trkpt>
      <trkpt lat="45.92511" lon="6.51873">
        <ele>2148.41</ele>
        <time>2026-03-21T11:15:53Z</time>
      </trkpt>
      <trkpt lat="45.92509" lon="6.51874">
        <ele>2150.544</ele>
        <time>2026-03-21T11:15:58Z</time>
      </trkpt>
      <trkpt lat="45.92506" lon="6.51875">
        <ele>2149.547</ele>
        <time>2026-03-21T11:16:03Z</time>
      </trkpt>
      <trkpt lat="45.92503" lon="6.51877">
        <ele>2149.816</ele>
        <time>2026-03-21T11:16:08Z</time>
      </trkpt>
      <trkpt lat="45.92501" lon="6.51879">
        <ele>2149.193</ele>
        <time>2026-03-21T11:16:13Z</time>
      </trkpt>
      <trkpt lat="45.925" lon="6.51882">
        <ele>2151.175</ele>
        <time>2026-03-21T11:16:18Z</time>
      </trkpt>
      <trkpt lat="45.92499" lon="6.51885">
        <ele>2153.335</ele>
        <time>2026-03-21T11:16:23Z</time>
      </trkpt>
      <trkpt lat="45.92497" lon="6.51888">
        <ele>2153.526</ele>
        <time>2026-03-21T11:16:28Z</time>
      </trkpt>
      <trkpt lat="45.92496" lon="6.51891">
        <ele>2154.327</ele>
        <time>2026-03-21T11:16:33Z</time>
      </trkpt>
      <trkpt lat="45.92495" lon="6.51893">
        <ele>2154.797</ele>
        <time>2026-03-21T11:16:38Z</time>
      </trkpt>
      <trkpt lat="45.92495" lon="6.51896">
        <ele>2156.22</ele>
        <time>2026-03-21T11:16:43Z</time>
      </trkpt>
      <trkpt lat="45.92495" lon="6.51899">
        <ele>2157.268</ele>
        <time>2026-03-21T11:16:48Z</time>
      </trkpt>
      <trkpt lat="45.92494" lon="6.51903">
        <ele>2157.699</ele>
        <time>2026-03-21T11:16:53Z</time>
      </trkpt>
      <trkpt lat="45.92493" lon="6.51907">
        <ele>2158.249</ele>
        <time>2026-03-21T11:16:58Z</time>
      </trkpt>
      <trkpt lat="45.92492" lon="6.5191">
        <ele>2158.583</ele>
        <time>2026-03-21T11:17:03Z</time>
      </trkpt>
      <trkpt lat="45.92492" lon="6.51914">
        <ele>2159.282</ele>
        <time>2026-03-21T11:17:08Z</time>
      </trkpt>
      <trkpt lat="45.92491" lon="6.51918">
        <ele>2158.537</ele>
        <time>2026-03-21T11:17:13Z</time>
      </trkpt>
      <trkpt lat="45.92491" lon="6.51921">
        <ele>2159.222</ele>
        <time>2026-03-21T11:17:18Z</time>
      </trkpt>
      <trkpt lat="45.9249" lon="6.51924">
        <ele>2159.749</ele>
        <time>2026-03-21T11:17:23Z</time>
      </trkpt>
      <trkpt lat="45.9249" lon="6.51927">
        <ele>2160.014</ele>
        <time>2026-03-21T11:17:28Z</time>
      </trkpt>
      <trkpt lat="45.92489" lon="6.5193">
        <ele>2160.541</ele>
        <time>2026-03-21T11:17:33Z</time>
      </trkpt>
      <trkpt lat="45.92489" lon="6.51934">
        <ele>2161.195</ele>
        <time>2026-03-21T11:17:38Z</time>
      </trkpt>
      <trkpt lat="45.92488" lon="6.51937">
        <ele>2161.459</ele>
        <time>2026-03-21T11:17:43Z</time>
      </trkpt>
      <trkpt lat="45.92488" lon="6.51941">
        <ele>2162.888</ele>
        <time>2026-03-21T11:17:48Z</time>
      </trkpt>
      <trkpt lat="45.92487" lon="6.51943">
        <ele>2163.287</ele>
        <time>2026-03-21T11:17:53Z</time>
      </trkpt>
      <trkpt lat="45.92486" lon="6.51947">
        <ele>2164.416</ele>
        <time>2026-03-21T11:17:58Z</time>
      </trkpt>
      <trkpt lat="45.92484" lon="6.51951">
        <ele>2163.89</ele>
        <time>2026-03-21T11:18:03Z</time>
      </trkpt>
      <trkpt lat="45.92483" lon="6.51954">
        <ele>2164.515</ele>
        <time>2026-03-21T11:18:08Z</time>
      </trkpt>
      <trkpt lat="45.92482" lon="6.51957">
        <ele>2165.528</ele>
        <time>2026-03-21T11:18:13Z</time>
      </trkpt>
      <trkpt lat="45.92481" lon="6.5196">
        <ele>2165.842</ele>
        <time>2026-03-21T11:18:18Z</time>
      </trkpt>
      <trkpt lat="45.9248" lon="6.51962">
        <ele>2166.582</ele>
        <time>2026-03-21T11:18:23Z</time>
      </trkpt>
      <trkpt lat="45.92477" lon="6.51963">
        <ele>2167.145</ele>
        <time>2026-03-21T11:18:28Z</time>
      </trkpt>
      <trkpt lat="45.92475" lon="6.51963">
        <ele>2168.045</ele>
        <time>2026-03-21T11:18:33Z</time>
      </trkpt>
      <trkpt lat="45.92471" lon="6.51964">
        <ele>2168.936</ele>
        <time>2026-03-21T11:18:38Z</time>
      </trkpt>
      <trkpt lat="45.92468" lon="6.51965">
        <ele>2168.443</ele>
        <time>2026-03-21T11:18:43Z</time>
      </trkpt>
      <trkpt lat="45.92466" lon="6.51965">
        <ele>2169.373</ele>
        <time>2026-03-21T11:18:48Z</time>
      </trkpt>
      <trkpt lat="45.92464" lon="6.51965">
        <ele>2170.934</ele>
        <time>2026-03-21T11:18:53Z</time>
      </trkpt>
      <trkpt lat="45.92462" lon="6.51964">
        <ele>2172.775</ele>
        <time>2026-03-21T11:18:58Z</time>
      </trkpt>
      <trkpt lat="45.92461" lon="6.51963">
        <ele>2172.619</ele>
        <time>2026-03-21T11:19:03Z</time>
      </trkpt>
      <trkpt lat="45.92459" lon="6.51963">
        <ele>2174.269</ele>
        <time>2026-03-21T11:19:08Z</time>
      </trkpt>
      <trkpt lat="45.92456" lon="6.51962">
        <ele>2175.095</ele>
        <time>2026-03-21T11:19:13Z</time>
      </trkpt>
      <trkpt lat="45.92455" lon="6.51961">
        <ele>2175.644</ele>
        <time>2026-03-21T11:19:18Z</time>
      </trkpt>
      <trkpt lat="45.92454" lon="6.51961">
        <ele>2177.26</ele>
        <time>2026-03-21T11:19:23Z</time>
      </trkpt>
      <trkpt lat="45.92452" lon="6.51961">
        <ele>2178.213</ele>
        <time>2026-03-21T11:19:28Z</time>
      </trkpt>
      <trkpt lat="45.92451" lon="6.51961">
        <ele>2178.756</ele>
        <time>2026-03-21T11:19:33Z</time>
      </trkpt>
      <trkpt lat="45.92449" lon="6.5196">
        <ele>2179.04</ele>
        <time>2026-03-21T11:19:38Z</time>
      </trkpt>
      <trkpt lat="45.92447" lon="6.51961">
        <ele>2179.35</ele>
        <time>2026-03-21T11:19:43Z</time>
      </trkpt>
      <trkpt lat="45.92446" lon="6.51961">
        <ele>2179.151</ele>
        <time>2026-03-21T11:19:48Z</time>
      </trkpt>
      <trkpt lat="45.92444" lon="6.51961">
        <ele>2179.684</ele>
        <time>2026-03-21T11:19:53Z</time>
      </trkpt>
      <trkpt lat="45.92441" lon="6.51962">
        <ele>2180.102</ele>
        <time>2026-03-21T11:19:58Z</time>
      </trkpt>
      <trkpt lat="45.92439" lon="6.51963">
        <ele>2179.505</ele>
        <time>2026-03-21T11:20:03Z</time>
      </trkpt>
      <trkpt lat="45.92436" lon="6.51964">
        <ele>2179.655</ele>
        <time>2026-03-21T11:20:08Z</time>
      </trkpt>
      <trkpt lat="45.92434" lon="6.51966">
        <ele>2179.094</ele>
        <time>2026-03-21T11:20:13Z</time>
      </trkpt>
      <trkpt lat="45.92432" lon="6.5197">
        <ele>2179.071</ele>
        <time>2026-03-21T11:20:18Z</time>
      </trkpt>
      <trkpt lat="45.9243" lon="6.51974">
        <ele>2180.858</ele>
        <time>2026-03-21T11:20:23Z</time>
      </trkpt>
      <trkpt lat="45.92428" lon="6.51977">
        <ele>2180.709</ele>
        <time>2026-03-21T11:20:28Z</time>
      </trkpt>
      <trkpt lat="45.92428" lon="6.51981">
        <ele>2181.384</ele>
        <time>2026-03-21T11:20:33Z</time>
      </trkpt>
      <trkpt lat="45.92428" lon="6.51984">
        <ele>2182.724</ele>
        <time>2026-03-21T11:20:38Z</time>
      </trkpt>
      <trkpt lat="45.92428" lon="6.51988">
        <ele>2183.032</ele>
        <time>2026-03-21T11:20:43Z</time>
      </trkpt>
      <trkpt lat="45.92427" lon="6.51991">
        <ele>2184.119</ele>
        <time>2026-03-21T11:20:48Z</time>
      </trkpt>
      <trkpt lat="45.92426" lon="6.51995">
        <ele>2184.631</ele>
        <time>2026-03-21T11:20:53Z</time>
      </trkpt>
      <trkpt lat="45.92426" lon="6.51998">
        <ele>2185.56</ele>
        <time>2026-03-21T11:20:58Z</time>
      </trkpt>
      <trkpt lat="45.92426" lon="6.51998">
        <ele>2185.567</ele>
        <time>2026-03-21T11:21:03Z</time>
      </trkpt>
      <trkpt lat="45.92426" lon="6.51998">
        <ele>2185.976</ele>
        <time>2026-03-21T11:21:08Z</time>
      </trkpt>
      <trkpt lat="45.92426" lon="6.51998">
        <ele>2185.977</ele>
        <time>2026-03-21T11:21:13Z</time>
      </trkpt>
      <trkpt lat="45.92426" lon="6.51998">
        <ele>2186.138</ele>
        <time>2026-03-21T11:21:18Z</time>
      </trkpt>
      <trkpt lat="45.92426" lon="6.51998">
        <ele>2185.98</ele>
        <time>2026-03-21T11:21:23Z</time>
      </trkpt>
      <trkpt lat="45.92426" lon="6.51998">
        <ele>2185.797</ele>
        <time>2026-03-21T11:21:28Z</time>
      </trkpt>
      <trkpt lat="45.92426" lon="6.51998">
        <ele>2185.79</ele>
        <time>2026-03-21T11:21:33Z</time>
      </trkpt>
      <trkpt lat="45.92426" lon="6.51998">
        <ele>2185.789</ele>
        <time>2026-03-21T11:21:38Z</time>
      </trkpt>
      <trkpt lat="45.92426" lon="6.51998">
        <ele>2185.804</ele>
        <time>2026-03-21T11:21:43Z</time>
      </trkpt>
      <trkpt lat="45.92426" lon="6.51998">
        <ele>2185.81</ele>
        <time>2026-03-21T11:21:48Z</time>
      </trkpt>
      <trkpt lat="45.92426" lon="6.51998">
        <ele>2185.809</ele>
        <time>2026-03-21T11:21:53Z</time>
      </trkpt>
      <trkpt lat="45.92426" lon="6.51998">
        <ele>2185.805</ele>
        <time>2026-03-21T11:21:58Z</time>
      </trkpt>
      <trkpt lat="45.92426" lon="6.51998">
        <ele>2185.81</ele>
        <time>2026-03-21T11:22:03Z</time>
      </trkpt>
      <trkpt lat="45.92426" lon="6.51998">
        <ele>2185.804</ele>
        <time>2026-03-21T11:22:08Z</time>
      </trkpt>
      <trkpt lat="45.92426" lon="6.51998">
        <ele>2179.229</ele>
        <time>2026-03-21T11:22:13Z</time>
      </trkpt>
      <trkpt lat="45.92426" lon="6.51998">
        <ele>2182.581</ele>
        <time>2026-03-21T11:22:19Z</time>
      </trkpt>
      <trkpt lat="45.92426" lon="6.51998">
        <ele>2183.747</ele>
        <time>2026-03-21T11:22:24Z</time>
      </trkpt>
      <trkpt lat="45.92426" lon="6.51998">
        <ele>2184.089</ele>
        <time>2026-03-21T11:22:29Z</time>
      </trkpt>
      <trkpt lat="45.92426" lon="6.51998">
        <ele>2184.159</ele>
        <time>2026-03-21T11:22:34Z</time>
      </trkpt>
      <trkpt lat="45.92426" lon="6.51998">
        <ele>2184.21</ele>
        <time>2026-03-21T11:22:39Z</time>
      </trkpt>
      <trkpt lat="45.92426" lon="6.51998">
        <ele>2184.266</ele>
        <time>2026-03-21T11:22:44Z</time>
      </trkpt>
      <trkpt lat="45.92426" lon="6.51998">
        <ele>2184.145</ele>
        <time>2026-03-21T11:22:49Z</time>
      </trkpt>
      <trkpt lat="45.92426" lon="6.51998">
        <ele>2184.2</ele>
        <time>2026-03-21T11:22:54Z</time>
      </trkpt>
      <trkpt lat="45.92426" lon="6.51998">
        <ele>2184.22</ele>
        <time>2026-03-21T11:22:59Z</time>
      </trkpt>
      <trkpt lat="45.92426" lon="6.51998">
        <ele>2184.238</ele>
        <time>2026-03-21T11:23:04Z</time>
      </trkpt>
      <trkpt lat="45.92426" lon="6.51998">
        <ele>2184.273</ele>
        <time>2026-03-21T11:23:09Z</time>
      </trkpt>
      <trkpt lat="45.92426" lon="6.51998">
        <ele>2184.307</ele>
        <time>2026-03-21T11:23:14Z</time>
      </trkpt>
      <trkpt lat="45.92426" lon="6.51998">
        <ele>2184.314</ele>
        <time>2026-03-21T11:23:19Z</time>
      </trkpt>
      <trkpt lat="45.92426" lon="6.51998">
        <ele>2184.306</ele>
        <time>2026-03-21T11:23:24Z</time>
      </trkpt>
      <trkpt lat="45.92426" lon="6.51998">
        <ele>2184.305</ele>
        <time>2026-03-21T11:23:29Z</time>
      </trkpt>
      <trkpt lat="45.92426" lon="6.51998">
        <ele>2184.317</ele>
        <time>2026-03-21T11:23:34Z</time>
      </trkpt>
      <trkpt lat="45.92426" lon="6.51998">
        <ele>2184.348</ele>
        <time>2026-03-21T11:23:39Z</time>
      </trkpt>
      <trkpt lat="45.92426" lon="6.51998">
        <ele>2184.351</ele>
        <time>2026-03-21T11:23:44Z</time>
      </trkpt>
      <trkpt lat="45.92426" lon="6.51998">
        <ele>2184.361</ele>
        <time>2026-03-21T11:23:49Z</time>
      </trkpt>
      <trkpt lat="45.92426" lon="6.51998">
        <ele>2184.375</ele>
        <time>2026-03-21T11:23:54Z</time>
      </trkpt>
      <trkpt lat="45.92426" lon="6.51998">
        <ele>2184.387</ele>
        <time>2026-03-21T11:23:59Z</time>
      </trkpt>
      <trkpt lat="45.92426" lon="6.51998">
        <ele>2184.403</ele>
        <time>2026-03-21T11:24:04Z</time>
      </trkpt>
      <trkpt lat="45.92426" lon="6.51998">
        <ele>2184.416</ele>
        <time>2026-03-21T11:24:09Z</time>
      </trkpt>
      <trkpt lat="45.92426" lon="6.51998">
        <ele>2184.44</ele>
        <time>2026-03-21T11:24:14Z</time>
      </trkpt>
      <trkpt lat="45.92426" lon="6.51998">
        <ele>2184.452</ele>
        <time>2026-03-21T11:24:19Z</time>
      </trkpt>
      <trkpt lat="45.92426" lon="6.51998">
        <ele>2184.47</ele>
        <time>2026-03-21T11:24:24Z</time>
      </trkpt>
      <trkpt lat="45.92426" lon="6.51998">
        <ele>2184.487</ele>
        <time>2026-03-21T11:24:29Z</time>
      </trkpt>
      <trkpt lat="45.92425" lon="6.52001">
        <ele>2184.503</ele>
        <time>2026-03-21T11:24:34Z</time>
      </trkpt>
      <trkpt lat="45.92425" lon="6.52003">
        <ele>2183.912</ele>
        <time>2026-03-21T11:24:39Z</time>
      </trkpt>
      <trkpt lat="45.92426" lon="6.52009">
        <ele>2184.096</ele>
        <time>2026-03-21T11:24:44Z</time>
      </trkpt>
      <trkpt lat="45.92427" lon="6.52015">
        <ele>2186.184</ele>
        <time>2026-03-21T11:24:49Z</time>
      </trkpt>
      <trkpt lat="45.92429" lon="6.52018">
        <ele>2187.248</ele>
        <time>2026-03-21T11:24:54Z</time>
      </trkpt>
      <trkpt lat="45.92431" lon="6.52022">
        <ele>2187.94</ele>
        <time>2026-03-21T11:24:59Z</time>
      </trkpt>
      <trkpt lat="45.92432" lon="6.52026">
        <ele>2187.72</ele>
        <time>2026-03-21T11:25:04Z</time>
      </trkpt>
      <trkpt lat="45.92434" lon="6.52028">
        <ele>2187.365</ele>
        <time>2026-03-21T11:25:09Z</time>
      </trkpt>
      <trkpt lat="45.92433" lon="6.52032">
        <ele>2187.831</ele>
        <time>2026-03-21T11:25:14Z</time>
      </trkpt>
      <trkpt lat="45.92434" lon="6.52035">
        <ele>2188.017</ele>
        <time>2026-03-21T11:25:19Z</time>
      </trkpt>
      <trkpt lat="45.92435" lon="6.52039">
        <ele>2189.308</ele>
        <time>2026-03-21T11:25:24Z</time>
      </trkpt>
      <trkpt lat="45.92434" lon="6.52041">
        <ele>2188.738</ele>
        <time>2026-03-21T11:25:29Z</time>
      </trkpt>
      <trkpt lat="45.92435" lon="6.52043">
        <ele>2189.452</ele>
        <time>2026-03-21T11:25:34Z</time>
      </trkpt>
      <trkpt lat="45.92436" lon="6.52047">
        <ele>2189.558</ele>
        <time>2026-03-21T11:25:39Z</time>
      </trkpt>
      <trkpt lat="45.92436" lon="6.52049">
        <ele>2190.074</ele>
        <time>2026-03-21T11:25:44Z</time>
      </trkpt>
      <trkpt lat="45.92437" lon="6.52053">
        <ele>2190.726</ele>
        <time>2026-03-21T11:25:49Z</time>
      </trkpt>
      <trkpt lat="45.92439" lon="6.52059">
        <ele>2189.654</ele>
        <time>2026-03-21T11:25:54Z</time>
      </trkpt>
      <trkpt lat="45.92441" lon="6.52064">
        <ele>2189.046</ele>
        <time>2026-03-21T11:25:59Z</time>
      </trkpt>
      <trkpt lat="45.92442" lon="6.52069">
        <ele>2190.142</ele>
        <time>2026-03-21T11:26:04Z</time>
      </trkpt>
      <trkpt lat="45.92442" lon="6.52073">
        <ele>2188.964</ele>
        <time>2026-03-21T11:26:09Z</time>
      </trkpt>
      <trkpt lat="45.92441" lon="6.52073">
        <ele>2188.119</ele>
        <time>2026-03-21T11:26:14Z</time>
      </trkpt>
      <trkpt lat="45.9244" lon="6.52074">
        <ele>2187.91</ele>
        <time>2026-03-21T11:26:19Z</time>
      </trkpt>
      <trkpt lat="45.92438" lon="6.52076">
        <ele>2191.45</ele>
        <time>2026-03-21T11:26:24Z</time>
      </trkpt>
      <trkpt lat="45.92437" lon="6.52078">
        <ele>2190.786</ele>
        <time>2026-03-21T11:26:29Z</time>
      </trkpt>
      <trkpt lat="45.92433" lon="6.52084">
        <ele>2187.803</ele>
        <time>2026-03-21T11:26:34Z</time>
      </trkpt>
      <trkpt lat="45.92431" lon="6.52085">
        <ele>2185.463</ele>
        <time>2026-03-21T11:26:39Z</time>
      </trkpt>
      <trkpt lat="45.92429" lon="6.52085">
        <ele>2187.691</ele>
        <time>2026-03-21T11:26:44Z</time>
      </trkpt>
      <trkpt lat="45.92429" lon="6.52085">
        <ele>2188.237</ele>
        <time>2026-03-21T11:26:49Z</time>
      </trkpt>
      <trkpt lat="45.92429" lon="6.52085">
        <ele>2188.83</ele>
        <time>2026-03-21T11:26:54Z</time>
      </trkpt>
      <trkpt lat="45.92427" lon="6.52086">
        <ele>2188.59</ele>
        <time>2026-03-21T11:26:59Z</time>
      </trkpt>
      <trkpt lat="45.92426" lon="6.52089">
        <ele>2189.735</ele>
        <time>2026-03-21T11:27:04Z</time>
      </trkpt>
      <trkpt lat="45.92424" lon="6.52092">
        <ele>2192.832</ele>
        <time>2026-03-21T11:27:09Z</time>
      </trkpt>
      <trkpt lat="45.92421" lon="6.52092">
        <ele>2194.03</ele>
        <time>2026-03-21T11:27:14Z</time>
      </trkpt>
      <trkpt lat="45.92418" lon="6.52093">
        <ele>2194.669</ele>
        <time>2026-03-21T11:27:19Z</time>
      </trkpt>
      <trkpt lat="45.92418" lon="6.52095">
        <ele>2195.656</ele>
        <time>2026-03-21T11:27:24Z</time>
      </trkpt>
      <trkpt lat="45.92416" lon="6.52099">
        <ele>2196.374</ele>
        <time>2026-03-21T11:27:29Z</time>
      </trkpt>
      <trkpt lat="45.92415" lon="6.52102">
        <ele>2196.956</ele>
        <time>2026-03-21T11:27:34Z</time>
      </trkpt>
      <trkpt lat="45.92413" lon="6.52106">
        <ele>2197.775</ele>
        <time>2026-03-21T11:27:39Z</time>
      </trkpt>
      <trkpt lat="45.92412" lon="6.5211">
        <ele>2197.439</ele>
        <time>2026-03-21T11:27:44Z</time>
      </trkpt>
      <trkpt lat="45.92411" lon="6.52114">
        <ele>2197.806</ele>
        <time>2026-03-21T11:27:49Z</time>
      </trkpt>
      <trkpt lat="45.9241" lon="6.52119">
        <ele>2196.388</ele>
        <time>2026-03-21T11:27:54Z</time>
      </trkpt>
      <trkpt lat="45.92409" lon="6.52124">
        <ele>2195.553</ele>
        <time>2026-03-21T11:27:59Z</time>
      </trkpt>
      <trkpt lat="45.92407" lon="6.52129">
        <ele>2196.155</ele>
        <time>2026-03-21T11:28:04Z</time>
      </trkpt>
      <trkpt lat="45.92405" lon="6.52133">
        <ele>2195.893</ele>
        <time>2026-03-21T11:28:09Z</time>
      </trkpt>
      <trkpt lat="45.92404" lon="6.52137">
        <ele>2196.192</ele>
        <time>2026-03-21T11:28:14Z</time>
      </trkpt>
      <trkpt lat="45.92401" lon="6.52141">
        <ele>2196.584</ele>
        <time>2026-03-21T11:28:19Z</time>
      </trkpt>
      <trkpt lat="45.92399" lon="6.52146">
        <ele>2199.314</ele>
        <time>2026-03-21T11:28:24Z</time>
      </trkpt>
      <trkpt lat="45.92399" lon="6.52151">
        <ele>2201.05</ele>
        <time>2026-03-21T11:28:29Z</time>
      </trkpt>
      <trkpt lat="45.92398" lon="6.52156">
        <ele>2199.274</ele>
        <time>2026-03-21T11:28:34Z</time>
      </trkpt>
      <trkpt lat="45.92398" lon="6.52161">
        <ele>2200.158</ele>
        <time>2026-03-21T11:28:39Z</time>
      </trkpt>
      <trkpt lat="45.92398" lon="6.52167">
        <ele>2200.534</ele>
        <time>2026-03-21T11:28:44Z</time>
      </trkpt>
      <trkpt lat="45.92399" lon="6.52173">
        <ele>2200.731</ele>
        <time>2026-03-21T11:28:49Z</time>
      </trkpt>
      <trkpt lat="45.92401" lon="6.52177">
        <ele>2201.641</ele>
        <time>2026-03-21T11:28:54Z</time>
      </trkpt>
      <trkpt lat="45.92403" lon="6.52182">
        <ele>2201.31</ele>
        <time>2026-03-21T11:28:59Z</time>
      </trkpt>
      <trkpt lat="45.92404" lon="6.52186">
        <ele>2201.445</ele>
        <time>2026-03-21T11:29:04Z</time>
      </trkpt>
      <trkpt lat="45.92406" lon="6.5219">
        <ele>2202.163</ele>
        <time>2026-03-21T11:29:09Z</time>
      </trkpt>
      <trkpt lat="45.92407" lon="6.52196">
        <ele>2201.992</ele>
        <time>2026-03-21T11:29:14Z</time>
      </trkpt>
      <trkpt lat="45.92408" lon="6.522">
        <ele>2202.267</ele>
        <time>2026-03-21T11:29:19Z</time>
      </trkpt>
      <trkpt lat="45.92409" lon="6.52204">
        <ele>2202.002</ele>
        <time>2026-03-21T11:29:24Z</time>
      </trkpt>
      <trkpt lat="45.92411" lon="6.52207">
        <ele>2201.96</ele>
        <time>2026-03-21T11:29:29Z</time>
      </trkpt>
      <trkpt lat="45.92412" lon="6.52212">
        <ele>2202.135</ele>
        <time>2026-03-21T11:29:34Z</time>
      </trkpt>
      <trkpt lat="45.92413" lon="6.52216">
        <ele>2203.289</ele>
        <time>2026-03-21T11:29:39Z</time>
      </trkpt>
      <trkpt lat="45.92414" lon="6.52221">
        <ele>2204.262</ele>
        <time>2026-03-21T11:29:44Z</time>
      </trkpt>
      <trkpt lat="45.92413" lon="6.52225">
        <ele>2204.276</ele>
        <time>2026-03-21T11:29:49Z</time>
      </trkpt>
      <trkpt lat="45.92413" lon="6.52225">
        <ele>2204.267</ele>
        <time>2026-03-21T11:29:54Z</time>
      </trkpt>
      <trkpt lat="45.92413" lon="6.52227">
        <ele>2203.878</ele>
        <time>2026-03-21T11:29:59Z</time>
      </trkpt>
      <trkpt lat="45.92413" lon="6.52231">
        <ele>2203.734</ele>
        <time>2026-03-21T11:30:04Z</time>
      </trkpt>
      <trkpt lat="45.92412" lon="6.52234">
        <ele>2203.89</ele>
        <time>2026-03-21T11:30:09Z</time>
      </trkpt>
      <trkpt lat="45.92411" lon="6.52237">
        <ele>2203.389</ele>
        <time>2026-03-21T11:30:14Z</time>
      </trkpt>
      <trkpt lat="45.9241" lon="6.5224">
        <ele>2203.864</ele>
        <time>2026-03-21T11:30:19Z</time>
      </trkpt>
      <trkpt lat="45.92409" lon="6.52243">
        <ele>2204.904</ele>
        <time>2026-03-21T11:30:24Z</time>
      </trkpt>
      <trkpt lat="45.92407" lon="6.52247">
        <ele>2205.527</ele>
        <time>2026-03-21T11:30:29Z</time>
      </trkpt>
      <trkpt lat="45.92405" lon="6.5225">
        <ele>2206.815</ele>
        <time>2026-03-21T11:30:34Z</time>
      </trkpt>
      <trkpt lat="45.92404" lon="6.52253">
        <ele>2207.437</ele>
        <time>2026-03-21T11:30:39Z</time>
      </trkpt>
      <trkpt lat="45.92403" lon="6.52256">
        <ele>2209.21</ele>
        <time>2026-03-21T11:30:44Z</time>
      </trkpt>
      <trkpt lat="45.92403" lon="6.52259">
        <ele>2210.838</ele>
        <time>2026-03-21T11:30:49Z</time>
      </trkpt>
      <trkpt lat="45.92403" lon="6.52263">
        <ele>2212.668</ele>
        <time>2026-03-21T11:30:54Z</time>
      </trkpt>
      <trkpt lat="45.92403" lon="6.52266">
        <ele>2213.693</ele>
        <time>2026-03-21T11:30:59Z</time>
      </trkpt>
      <trkpt lat="45.92404" lon="6.52269">
        <ele>2214.258</ele>
        <time>2026-03-21T11:31:04Z</time>
      </trkpt>
      <trkpt lat="45.92403" lon="6.52272">
        <ele>2215.191</ele>
        <time>2026-03-21T11:31:09Z</time>
      </trkpt>
      <trkpt lat="45.92404" lon="6.52275">
        <ele>2216.714</ele>
        <time>2026-03-21T11:31:14Z</time>
      </trkpt>
      <trkpt lat="45.92405" lon="6.52279">
        <ele>2216.676</ele>
        <time>2026-03-21T11:31:19Z</time>
      </trkpt>
      <trkpt lat="45.92406" lon="6.52282">
        <ele>2217.409</ele>
        <time>2026-03-21T11:31:24Z</time>
      </trkpt>
      <trkpt lat="45.92406" lon="6.52285">
        <ele>2216.92</ele>
        <time>2026-03-21T11:31:29Z</time>
      </trkpt>
      <trkpt lat="45.92408" lon="6.52288">
        <ele>2217.129</ele>
        <time>2026-03-21T11:31:34Z</time>
      </trkpt>
      <trkpt lat="45.92409" lon="6.52292">
        <ele>2217.495</ele>
        <time>2026-03-21T11:31:39Z</time>
      </trkpt>
      <trkpt lat="45.9241" lon="6.52297">
        <ele>2217.025</ele>
        <time>2026-03-21T11:31:44Z</time>
      </trkpt>
      <trkpt lat="45.9241" lon="6.52302">
        <ele>2215.667</ele>
        <time>2026-03-21T11:31:49Z</time>
      </trkpt>
      <trkpt lat="45.9241" lon="6.52306">
        <ele>2214.831</ele>
        <time>2026-03-21T11:31:54Z</time>
      </trkpt>
      <trkpt lat="45.9241" lon="6.5231">
        <ele>2214.475</ele>
        <time>2026-03-21T11:31:59Z</time>
      </trkpt>
      <trkpt lat="45.9241" lon="6.52315">
        <ele>2213.36</ele>
        <time>2026-03-21T11:32:04Z</time>
      </trkpt>
      <trkpt lat="45.9241" lon="6.5232">
        <ele>2212.913</ele>
        <time>2026-03-21T11:32:09Z</time>
      </trkpt>
      <trkpt lat="45.9241" lon="6.52325">
        <ele>2213.259</ele>
        <time>2026-03-21T11:32:14Z</time>
      </trkpt>
      <trkpt lat="45.9241" lon="6.52329">
        <ele>2213.8</ele>
        <time>2026-03-21T11:32:19Z</time>
      </trkpt>
      <trkpt lat="45.9241" lon="6.52333">
        <ele>2213.641</ele>
        <time>2026-03-21T11:32:24Z</time>
      </trkpt>
      <trkpt lat="45.92411" lon="6.52336">
        <ele>2212.994</ele>
        <time>2026-03-21T11:32:29Z</time>
      </trkpt>
      <trkpt lat="45.92411" lon="6.52339">
        <ele>2212.758</ele>
        <time>2026-03-21T11:32:34Z</time>
      </trkpt>
      <trkpt lat="45.92409" lon="6.52344">
        <ele>2212.134</ele>
        <time>2026-03-21T11:32:39Z</time>
      </trkpt>
      <trkpt lat="45.92409" lon="6.52348">
        <ele>2212.615</ele>
        <time>2026-03-21T11:32:44Z</time>
      </trkpt>
      <trkpt lat="45.92409" lon="6.52351">
        <ele>2212.743</ele>
        <time>2026-03-21T11:32:49Z</time>
      </trkpt>
      <trkpt lat="45.92409" lon="6.52355">
        <ele>2215.724</ele>
        <time>2026-03-21T11:32:54Z</time>
      </trkpt>
      <trkpt lat="45.9241" lon="6.52358">
        <ele>2215.905</ele>
        <time>2026-03-21T11:32:59Z</time>
      </trkpt>
      <trkpt lat="45.9241" lon="6.52362">
        <ele>2216.997</ele>
        <time>2026-03-21T11:33:04Z</time>
      </trkpt>
      <trkpt lat="45.9241" lon="6.52365">
        <ele>2218.349</ele>
        <time>2026-03-21T11:33:09Z</time>
      </trkpt>
      <trkpt lat="45.9241" lon="6.52368">
        <ele>2218.757</ele>
        <time>2026-03-21T11:33:14Z</time>
      </trkpt>
      <trkpt lat="45.9241" lon="6.52371">
        <ele>2218.052</ele>
        <time>2026-03-21T11:33:19Z</time>
      </trkpt>
      <trkpt lat="45.92409" lon="6.52374">
        <ele>2217.968</ele>
        <time>2026-03-21T11:33:24Z</time>
      </trkpt>
      <trkpt lat="45.92409" lon="6.52376">
        <ele>2219.017</ele>
        <time>2026-03-21T11:33:29Z</time>
      </trkpt>
      <trkpt lat="45.9241" lon="6.52379">
        <ele>2222.207</ele>
        <time>2026-03-21T11:33:34Z</time>
      </trkpt>
      <trkpt lat="45.92411" lon="6.52383">
        <ele>2224.533</ele>
        <time>2026-03-21T11:33:39Z</time>
      </trkpt>
      <trkpt lat="45.92411" lon="6.52385">
        <ele>2225.977</ele>
        <time>2026-03-21T11:33:44Z</time>
      </trkpt>
      <trkpt lat="45.92411" lon="6.52389">
        <ele>2226.435</ele>
        <time>2026-03-21T11:33:49Z</time>
      </trkpt>
      <trkpt lat="45.92412" lon="6.52392">
        <ele>2228.622</ele>
        <time>2026-03-21T11:33:54Z</time>
      </trkpt>
      <trkpt lat="45.92412" lon="6.52396">
        <ele>2229.574</ele>
        <time>2026-03-21T11:33:59Z</time>
      </trkpt>
      <trkpt lat="45.92413" lon="6.52399">
        <ele>2231.262</ele>
        <time>2026-03-21T11:34:04Z</time>
      </trkpt>
      <trkpt lat="45.92414" lon="6.52404">
        <ele>2229.986</ele>
        <time>2026-03-21T11:34:09Z</time>
      </trkpt>
      <trkpt lat="45.92413" lon="6.52407">
        <ele>2231.779</ele>
        <time>2026-03-21T11:34:14Z</time>
      </trkpt>
      <trkpt lat="45.92413" lon="6.5241">
        <ele>2232.637</ele>
        <time>2026-03-21T11:34:19Z</time>
      </trkpt>
      <trkpt lat="45.92413" lon="6.52414">
        <ele>2233.664</ele>
        <time>2026-03-21T11:34:24Z</time>
      </trkpt>
      <trkpt lat="45.92413" lon="6.52417">
        <ele>2234.588</ele>
        <time>2026-03-21T11:34:29Z</time>
      </trkpt>
      <trkpt lat="45.92413" lon="6.52418">
        <ele>2234.635</ele>
        <time>2026-03-21T11:34:34Z</time>
      </trkpt>
      <trkpt lat="45.92413" lon="6.52418">
        <ele>2234.659</ele>
        <time>2026-03-21T11:34:39Z</time>
      </trkpt>
      <trkpt lat="45.92413" lon="6.52418">
        <ele>2234.673</ele>
        <time>2026-03-21T11:34:44Z</time>
      </trkpt>
      <trkpt lat="45.92413" lon="6.52418">
        <ele>2234.692</ele>
        <time>2026-03-21T11:34:49Z</time>
      </trkpt>
      <trkpt lat="45.92413" lon="6.52419">
        <ele>2235.665</ele>
        <time>2026-03-21T11:34:54Z</time>
      </trkpt>
      <trkpt lat="45.92413" lon="6.52424">
        <ele>2235.499</ele>
        <time>2026-03-21T11:34:59Z</time>
      </trkpt>
      <trkpt lat="45.92413" lon="6.52428">
        <ele>2237.228</ele>
        <time>2026-03-21T11:35:04Z</time>
      </trkpt>
      <trkpt lat="45.92412" lon="6.52433">
        <ele>2236.696</ele>
        <time>2026-03-21T11:35:09Z</time>
      </trkpt>
      <trkpt lat="45.92412" lon="6.52434">
        <ele>2236.554</ele>
        <time>2026-03-21T11:35:14Z</time>
      </trkpt>
      <trkpt lat="45.92412" lon="6.52434">
        <ele>2236.555</ele>
        <time>2026-03-21T11:35:19Z</time>
      </trkpt>
      <trkpt lat="45.92412" lon="6.52434">
        <ele>2236.566</ele>
        <time>2026-03-21T11:35:24Z</time>
      </trkpt>
      <trkpt lat="45.92412" lon="6.52434">
        <ele>2236.573</ele>
        <time>2026-03-21T11:35:29Z</time>
      </trkpt>
      <trkpt lat="45.92412" lon="6.52434">
        <ele>2236.578</ele>
        <time>2026-03-21T11:35:34Z</time>
      </trkpt>
      <trkpt lat="45.92412" lon="6.52434">
        <ele>2236.599</ele>
        <time>2026-03-21T11:35:39Z</time>
      </trkpt>
      <trkpt lat="45.92412" lon="6.52434">
        <ele>2236.604</ele>
        <time>2026-03-21T11:35:44Z</time>
      </trkpt>
      <trkpt lat="45.92412" lon="6.52434">
        <ele>2236.592</ele>
        <time>2026-03-21T11:35:49Z</time>
      </trkpt>
      <trkpt lat="45.92412" lon="6.52434">
        <ele>2236.597</ele>
        <time>2026-03-21T11:35:54Z</time>
      </trkpt>
      <trkpt lat="45.92412" lon="6.52435">
        <ele>2236.523</ele>
        <time>2026-03-21T11:35:59Z</time>
      </trkpt>
      <trkpt lat="45.92413" lon="6.52439">
        <ele>2238.648</ele>
        <time>2026-03-21T11:36:04Z</time>
      </trkpt>
      <trkpt lat="45.92412" lon="6.52443">
        <ele>2238.966</ele>
        <time>2026-03-21T11:36:09Z</time>
      </trkpt>
      <trkpt lat="45.92412" lon="6.52449">
        <ele>2237.623</ele>
        <time>2026-03-21T11:36:14Z</time>
      </trkpt>
      <trkpt lat="45.92411" lon="6.52453">
        <ele>2237.948</ele>
        <time>2026-03-21T11:36:19Z</time>
      </trkpt>
      <trkpt lat="45.92411" lon="6.52454">
        <ele>2238.023</ele>
        <time>2026-03-21T11:36:24Z</time>
      </trkpt>
      <trkpt lat="45.92411" lon="6.52458">
        <ele>2239.361</ele>
        <time>2026-03-21T11:36:29Z</time>
      </trkpt>
      <trkpt lat="45.9241" lon="6.52463">
        <ele>2238.6</ele>
        <time>2026-03-21T11:36:34Z</time>
      </trkpt>
      <trkpt lat="45.9241" lon="6.52466">
        <ele>2239.907</ele>
        <time>2026-03-21T11:36:39Z</time>
      </trkpt>
      <trkpt lat="45.92409" lon="6.52469">
        <ele>2241.435</ele>
        <time>2026-03-21T11:36:44Z</time>
      </trkpt>
      <trkpt lat="45.92408" lon="6.52473">
        <ele>2242.364</ele>
        <time>2026-03-21T11:36:49Z</time>
      </trkpt>
      <trkpt lat="45.92408" lon="6.52477">
        <ele>2243.388</ele>
        <time>2026-03-21T11:36:54Z</time>
      </trkpt>
      <trkpt lat="45.92408" lon="6.5248">
        <ele>2244.883</ele>
        <time>2026-03-21T11:36:59Z</time>
      </trkpt>
      <trkpt lat="45.92408" lon="6.52483">
        <ele>2245.251</ele>
        <time>2026-03-21T11:37:04Z</time>
      </trkpt>
      <trkpt lat="45.92408" lon="6.52487">
        <ele>2245.886</ele>
        <time>2026-03-21T11:37:09Z</time>
      </trkpt>
      <trkpt lat="45.92407" lon="6.52491">
        <ele>2245.851</ele>
        <time>2026-03-21T11:37:14Z</time>
      </trkpt>
      <trkpt lat="45.92406" lon="6.52495">
        <ele>2246.524</ele>
        <time>2026-03-21T11:37:19Z</time>
      </trkpt>
      <trkpt lat="45.92405" lon="6.52499">
        <ele>2247.304</ele>
        <time>2026-03-21T11:37:24Z</time>
      </trkpt>
      <trkpt lat="45.92405" lon="6.52503">
        <ele>2248.346</ele>
        <time>2026-03-21T11:37:29Z</time>
      </trkpt>
      <trkpt lat="45.92405" lon="6.52506">
        <ele>2249.248</ele>
        <time>2026-03-21T11:37:34Z</time>
      </trkpt>
      <trkpt lat="45.92405" lon="6.5251">
        <ele>2249.401</ele>
        <time>2026-03-21T11:37:39Z</time>
      </trkpt>
      <trkpt lat="45.92405" lon="6.52513">
        <ele>2251.805</ele>
        <time>2026-03-21T11:37:44Z</time>
      </trkpt>
      <trkpt lat="45.92405" lon="6.52517">
        <ele>2252.008</ele>
        <time>2026-03-21T11:37:49Z</time>
      </trkpt>
      <trkpt lat="45.92403" lon="6.5252">
        <ele>2252.562</ele>
        <time>2026-03-21T11:37:54Z</time>
      </trkpt>
      <trkpt lat="45.92403" lon="6.52523">
        <ele>2253.747</ele>
        <time>2026-03-21T11:37:59Z</time>
      </trkpt>
      <trkpt lat="45.92403" lon="6.52525">
        <ele>2253.894</ele>
        <time>2026-03-21T11:38:04Z</time>
      </trkpt>
      <trkpt lat="45.92402" lon="6.52528">
        <ele>2255.066</ele>
        <time>2026-03-21T11:38:09Z</time>
      </trkpt>
      <trkpt lat="45.92402" lon="6.52531">
        <ele>2254.825</ele>
        <time>2026-03-21T11:38:14Z</time>
      </trkpt>
      <trkpt lat="45.92402" lon="6.52533">
        <ele>2257.314</ele>
        <time>2026-03-21T11:38:19Z</time>
      </trkpt>
      <trkpt lat="45.92402" lon="6.52536">
        <ele>2258.526</ele>
        <time>2026-03-21T11:38:24Z</time>
      </trkpt>
      <trkpt lat="45.92402" lon="6.52538">
        <ele>2259.546</ele>
        <time>2026-03-21T11:38:29Z</time>
      </trkpt>
      <trkpt lat="45.92402" lon="6.52541">
        <ele>2260.164</ele>
        <time>2026-03-21T11:38:34Z</time>
      </trkpt>
      <trkpt lat="45.92401" lon="6.52545">
        <ele>2261.221</ele>
        <time>2026-03-21T11:38:39Z</time>
      </trkpt>
      <trkpt lat="45.924" lon="6.52549">
        <ele>2261.201</ele>
        <time>2026-03-21T11:38:44Z</time>
      </trkpt>
      <trkpt lat="45.924" lon="6.52552">
        <ele>2261.324</ele>
        <time>2026-03-21T11:38:49Z</time>
      </trkpt>
      <trkpt lat="45.924" lon="6.52555">
        <ele>2261.541</ele>
        <time>2026-03-21T11:38:54Z</time>
      </trkpt>
      <trkpt lat="45.92399" lon="6.52559">
        <ele>2263.701</ele>
        <time>2026-03-21T11:38:59Z</time>
      </trkpt>
      <trkpt lat="45.92399" lon="6.5256">
        <ele>2264.321</ele>
        <time>2026-03-21T11:39:04Z</time>
      </trkpt>
      <trkpt lat="45.924" lon="6.52563">
        <ele>2265.394</ele>
        <time>2026-03-21T11:39:09Z</time>
      </trkpt>
      <trkpt lat="45.924" lon="6.52567">
        <ele>2266.23</ele>
        <time>2026-03-21T11:39:14Z</time>
      </trkpt>
      <trkpt lat="45.924" lon="6.5257">
        <ele>2267.161</ele>
        <time>2026-03-21T11:39:19Z</time>
      </trkpt>
      <trkpt lat="45.924" lon="6.52573">
        <ele>2267.373</ele>
        <time>2026-03-21T11:39:24Z</time>
      </trkpt>
      <trkpt lat="45.924" lon="6.52577">
        <ele>2268.294</ele>
        <time>2026-03-21T11:39:29Z</time>
      </trkpt>
      <trkpt lat="45.924" lon="6.5258">
        <ele>2268.645</ele>
        <time>2026-03-21T11:39:34Z</time>
      </trkpt>
      <trkpt lat="45.924" lon="6.52583">
        <ele>2269.436</ele>
        <time>2026-03-21T11:39:39Z</time>
      </trkpt>
      <trkpt lat="45.92401" lon="6.52587">
        <ele>2268.847</ele>
        <time>2026-03-21T11:39:44Z</time>
      </trkpt>
      <trkpt lat="45.92401" lon="6.52589">
        <ele>2270.389</ele>
        <time>2026-03-21T11:39:49Z</time>
      </trkpt>
      <trkpt lat="45.92401" lon="6.52591">
        <ele>2270.623</ele>
        <time>2026-03-21T11:39:54Z</time>
      </trkpt>
      <trkpt lat="45.92401" lon="6.52593">
        <ele>2271.269</ele>
        <time>2026-03-21T11:39:59Z</time>
      </trkpt>
      <trkpt lat="45.92401" lon="6.52596">
        <ele>2271.478</ele>
        <time>2026-03-21T11:40:04Z</time>
      </trkpt>
      <trkpt lat="45.924" lon="6.52599">
        <ele>2272.806</ele>
        <time>2026-03-21T11:40:09Z</time>
      </trkpt>
      <trkpt lat="45.924" lon="6.526">
        <ele>2272.976</ele>
        <time>2026-03-21T11:40:14Z</time>
      </trkpt>
      <trkpt lat="45.924" lon="6.52602">
        <ele>2272.736</ele>
        <time>2026-03-21T11:40:19Z</time>
      </trkpt>
      <trkpt lat="45.924" lon="6.52602">
        <ele>2272.751</ele>
        <time>2026-03-21T11:40:24Z</time>
      </trkpt>
      <trkpt lat="45.924" lon="6.52602">
        <ele>2272.762</ele>
        <time>2026-03-21T11:40:29Z</time>
      </trkpt>
      <trkpt lat="45.924" lon="6.52602">
        <ele>2272.776</ele>
        <time>2026-03-21T11:40:34Z</time>
      </trkpt>
      <trkpt lat="45.924" lon="6.52602">
        <ele>2273.997</ele>
        <time>2026-03-21T11:40:39Z</time>
      </trkpt>
      <trkpt lat="45.924" lon="6.52602">
        <ele>2274.467</ele>
        <time>2026-03-21T11:40:44Z</time>
      </trkpt>
      <trkpt lat="45.924" lon="6.52602">
        <ele>2274.363</ele>
        <time>2026-03-21T11:40:49Z</time>
      </trkpt>
      <trkpt lat="45.924" lon="6.52602">
        <ele>2274.374</ele>
        <time>2026-03-21T11:40:54Z</time>
      </trkpt>
      <trkpt lat="45.924" lon="6.52602">
        <ele>2275.378</ele>
        <time>2026-03-21T11:40:59Z</time>
      </trkpt>
      <trkpt lat="45.924" lon="6.52602">
        <ele>2275.995</ele>
        <time>2026-03-21T11:41:04Z</time>
      </trkpt>
      <trkpt lat="45.924" lon="6.52602">
        <ele>2276.469</ele>
        <time>2026-03-21T11:41:09Z</time>
      </trkpt>
      <trkpt lat="45.924" lon="6.52602">
        <ele>2276.526</ele>
        <time>2026-03-21T11:41:14Z</time>
      </trkpt>
      <trkpt lat="45.924" lon="6.52602">
        <ele>2276.48</ele>
        <time>2026-03-21T11:41:19Z</time>
      </trkpt>
      <trkpt lat="45.924" lon="6.52602">
        <ele>2276.49</ele>
        <time>2026-03-21T11:41:24Z</time>
      </trkpt>
      <trkpt lat="45.92401" lon="6.52616">
        <ele>2276.497</ele>
        <time>2026-03-21T11:41:29Z</time>
      </trkpt>
      <trkpt lat="45.92401" lon="6.52616">
        <ele>2276.501</ele>
        <time>2026-03-21T11:41:34Z</time>
      </trkpt>
      <trkpt lat="45.92401" lon="6.52616">
        <ele>2276.506</ele>
        <time>2026-03-21T11:41:39Z</time>
      </trkpt>
      <trkpt lat="45.92401" lon="6.52616">
        <ele>2276.521</ele>
        <time>2026-03-21T11:41:44Z</time>
      </trkpt>
      <trkpt lat="45.92401" lon="6.52616">
        <ele>2276.53</ele>
        <time>2026-03-21T11:41:49Z</time>
      </trkpt>
      <trkpt lat="45.92401" lon="6.52616">
        <ele>2276.549</ele>
        <time>2026-03-21T11:41:54Z</time>
      </trkpt>
      <trkpt lat="45.92401" lon="6.52616">
        <ele>2276.575</ele>
        <time>2026-03-21T11:41:59Z</time>
      </trkpt>
      <trkpt lat="45.92401" lon="6.52616">
        <ele>2276.591</ele>
        <time>2026-03-21T11:42:04Z</time>
      </trkpt>
      <trkpt lat="45.92402" lon="6.52618">
        <ele>2276.944</ele>
        <time>2026-03-21T11:42:09Z</time>
      </trkpt>
      <trkpt lat="45.92406" lon="6.52619">
        <ele>2277.201</ele>
        <time>2026-03-21T11:42:14Z</time>
      </trkpt>
      <trkpt lat="45.9241" lon="6.5262">
        <ele>2278.008</ele>
        <time>2026-03-21T11:42:19Z</time>
      </trkpt>
      <trkpt lat="45.92412" lon="6.52621">
        <ele>2277.068</ele>
        <time>2026-03-21T11:42:24Z</time>
      </trkpt>
      <trkpt lat="45.92413" lon="6.52621">
        <ele>2277.287</ele>
        <time>2026-03-21T11:42:29Z</time>
      </trkpt>
      <trkpt lat="45.92414" lon="6.52622">
        <ele>2277.344</ele>
        <time>2026-03-21T11:42:34Z</time>
      </trkpt>
      <trkpt lat="45.92412" lon="6.52625">
        <ele>2277.049</ele>
        <time>2026-03-21T11:42:39Z</time>
      </trkpt>
      <trkpt lat="45.92409" lon="6.52628">
        <ele>2276.03</ele>
        <time>2026-03-21T11:42:44Z</time>
      </trkpt>
      <trkpt lat="45.92407" lon="6.52631">
        <ele>2275.006</ele>
        <time>2026-03-21T11:42:49Z</time>
      </trkpt>
      <trkpt lat="45.92405" lon="6.52634">
        <ele>2274.29</ele>
        <time>2026-03-21T11:42:54Z</time>
      </trkpt>
      <trkpt lat="45.92404" lon="6.52635">
        <ele>2275.036</ele>
        <time>2026-03-21T11:42:59Z</time>
      </trkpt>
      <trkpt lat="45.92404" lon="6.52635">
        <ele>2275.033</ele>
        <time>2026-03-21T11:43:04Z</time>
      </trkpt>
      <trkpt lat="45.92404" lon="6.52635">
        <ele>2275.988</ele>
        <time>2026-03-21T11:43:09Z</time>
      </trkpt>
      <trkpt lat="45.92404" lon="6.52635">
        <ele>2278.554</ele>
        <time>2026-03-21T11:43:14Z</time>
      </trkpt>
      <trkpt lat="45.92404" lon="6.52635">
        <ele>2278.681</ele>
        <time>2026-03-21T11:43:19Z</time>
      </trkpt>
      <trkpt lat="45.92403" lon="6.52639">
        <ele>2279.172</ele>
        <time>2026-03-21T11:43:24Z</time>
      </trkpt>
      <trkpt lat="45.92405" lon="6.5264">
        <ele>2277.694</ele>
        <time>2026-03-21T11:43:29Z</time>
      </trkpt>
      <trkpt lat="45.92407" lon="6.5264">
        <ele>2278.151</ele>
        <time>2026-03-21T11:43:34Z</time>
      </trkpt>
      <trkpt lat="45.92409" lon="6.5264">
        <ele>2277.209</ele>
        <time>2026-03-21T11:43:39Z</time>
      </trkpt>
      <trkpt lat="45.92411" lon="6.5264">
        <ele>2277.199</ele>
        <time>2026-03-21T11:43:44Z</time>
      </trkpt>
      <trkpt lat="45.92414" lon="6.5264">
        <ele>2277.846</ele>
        <time>2026-03-21T11:43:49Z</time>
      </trkpt>
      <trkpt lat="45.92416" lon="6.52639">
        <ele>2278.906</ele>
        <time>2026-03-21T11:43:54Z</time>
      </trkpt>
      <trkpt lat="45.92419" lon="6.52638">
        <ele>2279.605</ele>
        <time>2026-03-21T11:43:59Z</time>
      </trkpt>
      <trkpt lat="45.92421" lon="6.52637">
        <ele>2281.419</ele>
        <time>2026-03-21T11:44:04Z</time>
      </trkpt>
      <trkpt lat="45.92423" lon="6.52634">
        <ele>2283.243</ele>
        <time>2026-03-21T11:44:09Z</time>
      </trkpt>
      <trkpt lat="45.92424" lon="6.52634">
        <ele>2283.228</ele>
        <time>2026-03-21T11:44:14Z</time>
      </trkpt>
      <trkpt lat="45.92424" lon="6.52634">
        <ele>2283.235</ele>
        <time>2026-03-21T11:44:19Z</time>
      </trkpt>
      <trkpt lat="45.92424" lon="6.52634">
        <ele>2283.258</ele>
        <time>2026-03-21T11:44:24Z</time>
      </trkpt>
      <trkpt lat="45.92424" lon="6.52634">
        <ele>2283.276</ele>
        <time>2026-03-21T11:44:29Z</time>
      </trkpt>
      <trkpt lat="45.92426" lon="6.52632">
        <ele>2284.935</ele>
        <time>2026-03-21T11:44:34Z</time>
      </trkpt>
      <trkpt lat="45.92427" lon="6.52632">
        <ele>2284.847</ele>
        <time>2026-03-21T11:44:39Z</time>
      </trkpt>
      <trkpt lat="45.92428" lon="6.52634">
        <ele>2285.308</ele>
        <time>2026-03-21T11:44:44Z</time>
      </trkpt>
      <trkpt lat="45.92427" lon="6.52637">
        <ele>2287.121</ele>
        <time>2026-03-21T11:44:49Z</time>
      </trkpt>
      <trkpt lat="45.92425" lon="6.52641">
        <ele>2287.704</ele>
        <time>2026-03-21T11:44:54Z</time>
      </trkpt>
      <trkpt lat="45.92423" lon="6.52644">
        <ele>2288.453</ele>
        <time>2026-03-21T11:44:59Z</time>
      </trkpt>
      <trkpt lat="45.92422" lon="6.52647">
        <ele>2288.669</ele>
        <time>2026-03-21T11:45:04Z</time>
      </trkpt>
      <trkpt lat="45.9242" lon="6.52649">
        <ele>2289.586</ele>
        <time>2026-03-21T11:45:09Z</time>
      </trkpt>
      <trkpt lat="45.92419" lon="6.52651">
        <ele>2289.189</ele>
        <time>2026-03-21T11:45:14Z</time>
      </trkpt>
      <trkpt lat="45.92419" lon="6.52651">
        <ele>2289.17</ele>
        <time>2026-03-21T11:45:19Z</time>
      </trkpt>
      <trkpt lat="45.92418" lon="6.52653">
        <ele>2290.668</ele>
        <time>2026-03-21T11:45:24Z</time>
      </trkpt>
      <trkpt lat="45.92417" lon="6.52655">
        <ele>2290.559</ele>
        <time>2026-03-21T11:45:29Z</time>
      </trkpt>
      <trkpt lat="45.92417" lon="6.52656">
        <ele>2289.761</ele>
        <time>2026-03-21T11:45:34Z</time>
      </trkpt>
      <trkpt lat="45.92419" lon="6.52656">
        <ele>2291.538</ele>
        <time>2026-03-21T11:45:39Z</time>
      </trkpt>
      <trkpt lat="45.92421" lon="6.52657">
        <ele>2291.655</ele>
        <time>2026-03-21T11:45:44Z</time>
      </trkpt>
      <trkpt lat="45.92423" lon="6.52657">
        <ele>2291.358</ele>
        <time>2026-03-21T11:45:49Z</time>
      </trkpt>
      <trkpt lat="45.92425" lon="6.52656">
        <ele>2292.364</ele>
        <time>2026-03-21T11:45:54Z</time>
      </trkpt>
      <trkpt lat="45.92428" lon="6.52655">
        <ele>2292.864</ele>
        <time>2026-03-21T11:45:59Z</time>
      </trkpt>
      <trkpt lat="45.9243" lon="6.52654">
        <ele>2294.012</ele>
        <time>2026-03-21T11:46:04Z</time>
      </trkpt>
      <trkpt lat="45.92432" lon="6.52653">
        <ele>2294.431</ele>
        <time>2026-03-21T11:46:09Z</time>
      </trkpt>
      <trkpt lat="45.92432" lon="6.52653">
        <ele>2294.45</ele>
        <time>2026-03-21T11:46:14Z</time>
      </trkpt>
      <trkpt lat="45.92432" lon="6.52653">
        <ele>2294.483</ele>
        <time>2026-03-21T11:46:19Z</time>
      </trkpt>
      <trkpt lat="45.92432" lon="6.52653">
        <ele>2294.512</ele>
        <time>2026-03-21T11:46:24Z</time>
      </trkpt>
      <trkpt lat="45.92433" lon="6.52652">
        <ele>2295.683</ele>
        <time>2026-03-21T11:46:29Z</time>
      </trkpt>
      <trkpt lat="45.92433" lon="6.52652">
        <ele>2296.479</ele>
        <time>2026-03-21T11:46:34Z</time>
      </trkpt>
      <trkpt lat="45.92433" lon="6.52652">
        <ele>2297.922</ele>
        <time>2026-03-21T11:46:39Z</time>
      </trkpt>
      <trkpt lat="45.92433" lon="6.52652">
        <ele>2298.734</ele>
        <time>2026-03-21T11:46:44Z</time>
      </trkpt>
      <trkpt lat="45.92433" lon="6.52652">
        <ele>2298.586</ele>
        <time>2026-03-21T11:46:49Z</time>
      </trkpt>
      <trkpt lat="45.92433" lon="6.52652">
        <ele>2298.903</ele>
        <time>2026-03-21T11:46:54Z</time>
      </trkpt>
      <trkpt lat="45.92433" lon="6.52652">
        <ele>2299.19</ele>
        <time>2026-03-21T11:46:59Z</time>
      </trkpt>
      <trkpt lat="45.92433" lon="6.52652">
        <ele>2299.32</ele>
        <time>2026-03-21T11:47:04Z</time>
      </trkpt>
      <trkpt lat="45.92426" lon="6.52665">
        <ele>2299.347</ele>
        <time>2026-03-21T11:47:09Z</time>
      </trkpt>
      <trkpt lat="45.92426" lon="6.52666">
        <ele>2299.289</ele>
        <time>2026-03-21T11:47:14Z</time>
      </trkpt>
      <trkpt lat="45.92425" lon="6.52668">
        <ele>2301.005</ele>
        <time>2026-03-21T11:47:19Z</time>
      </trkpt>
      <trkpt lat="45.92424" lon="6.52669">
        <ele>2302.388</ele>
        <time>2026-03-21T11:47:24Z</time>
      </trkpt>
      <trkpt lat="45.92423" lon="6.5267">
        <ele>2303</ele>
        <time>2026-03-21T11:47:29Z</time>
      </trkpt>
      <trkpt lat="45.92422" lon="6.52672">
        <ele>2302.479</ele>
        <time>2026-03-21T11:47:34Z</time>
      </trkpt>
      <trkpt lat="45.92422" lon="6.52672">
        <ele>2302.498</ele>
        <time>2026-03-21T11:47:39Z</time>
      </trkpt>
      <trkpt lat="45.92422" lon="6.52672">
        <ele>2301.749</ele>
        <time>2026-03-21T11:47:44Z</time>
      </trkpt>
      <trkpt lat="45.92422" lon="6.52672">
        <ele>2301.226</ele>
        <time>2026-03-21T11:47:49Z</time>
      </trkpt>
      <trkpt lat="45.92422" lon="6.52672">
        <ele>2302.032</ele>
        <time>2026-03-21T11:47:54Z</time>
      </trkpt>
      <trkpt lat="45.92422" lon="6.52672">
        <ele>2303.553</ele>
        <time>2026-03-21T11:47:59Z</time>
      </trkpt>
      <trkpt lat="45.92422" lon="6.52672">
        <ele>2303.593</ele>
        <time>2026-03-21T11:48:04Z</time>
      </trkpt>
      <trkpt lat="45.92422" lon="6.52672">
        <ele>2303.631</ele>
        <time>2026-03-21T11:48:09Z</time>
      </trkpt>
      <trkpt lat="45.92422" lon="6.52672">
        <ele>2304.53</ele>
        <time>2026-03-21T11:48:14Z</time>
      </trkpt>
      <trkpt lat="45.92422" lon="6.52672">
        <ele>2304.659</ele>
        <time>2026-03-21T11:48:19Z</time>
      </trkpt>
      <trkpt lat="45.92422" lon="6.52672">
        <ele>2305.602</ele>
        <time>2026-03-21T11:48:24Z</time>
      </trkpt>
      <trkpt lat="45.92422" lon="6.52672">
        <ele>2306.652</ele>
        <time>2026-03-21T11:48:29Z</time>
      </trkpt>
      <trkpt lat="45.92422" lon="6.52672">
        <ele>2307.444</ele>
        <time>2026-03-21T11:48:34Z</time>
      </trkpt>
      <trkpt lat="45.92422" lon="6.52672">
        <ele>2308.463</ele>
        <time>2026-03-21T11:48:39Z</time>
      </trkpt>
      <trkpt lat="45.92422" lon="6.52672">
        <ele>2308.781</ele>
        <time>2026-03-21T11:48:44Z</time>
      </trkpt>
      <trkpt lat="45.92422" lon="6.52672">
        <ele>2310.422</ele>
        <time>2026-03-21T11:48:49Z</time>
      </trkpt>
      <trkpt lat="45.92422" lon="6.52672">
        <ele>2311.823</ele>
        <time>2026-03-21T11:48:54Z</time>
      </trkpt>
      <trkpt lat="45.92422" lon="6.52672">
        <ele>2312.679</ele>
        <time>2026-03-21T11:48:59Z</time>
      </trkpt>
      <trkpt lat="45.92422" lon="6.52672">
        <ele>2314.172</ele>
        <time>2026-03-21T11:49:04Z</time>
      </trkpt>
      <trkpt lat="45.92422" lon="6.52672">
        <ele>2314.559</ele>
        <time>2026-03-21T11:49:09Z</time>
      </trkpt>
      <trkpt lat="45.92422" lon="6.52672">
        <ele>2315.596</ele>
        <time>2026-03-21T11:49:14Z</time>
      </trkpt>
      <trkpt lat="45.92422" lon="6.52672">
        <ele>2316.391</ele>
        <time>2026-03-21T11:49:19Z</time>
      </trkpt>
      <trkpt lat="45.92422" lon="6.52672">
        <ele>2316.465</ele>
        <time>2026-03-21T11:49:24Z</time>
      </trkpt>
      <trkpt lat="45.92422" lon="6.52672">
        <ele>2316.336</ele>
        <time>2026-03-21T11:49:29Z</time>
      </trkpt>
      <trkpt lat="45.92422" lon="6.52672">
        <ele>2316.998</ele>
        <time>2026-03-21T11:49:34Z</time>
      </trkpt>
      <trkpt lat="45.92422" lon="6.52672">
        <ele>2316.595</ele>
        <time>2026-03-21T11:49:39Z</time>
      </trkpt>
      <trkpt lat="45.92422" lon="6.52672">
        <ele>2316.976</ele>
        <time>2026-03-21T11:49:44Z</time>
      </trkpt>
      <trkpt lat="45.92422" lon="6.52672">
        <ele>2317.044</ele>
        <time>2026-03-21T11:49:49Z</time>
      </trkpt>
      <trkpt lat="45.92422" lon="6.52672">
        <ele>2317.132</ele>
        <time>2026-03-21T11:49:54Z</time>
      </trkpt>
      <trkpt lat="45.92422" lon="6.52672">
        <ele>2317.031</ele>
        <time>2026-03-21T11:49:59Z</time>
      </trkpt>
      <trkpt lat="45.92422" lon="6.52672">
        <ele>2316.554</ele>
        <time>2026-03-21T11:50:04Z</time>
      </trkpt>
      <trkpt lat="45.92422" lon="6.52672">
        <ele>2317.452</ele>
        <time>2026-03-21T11:50:09Z</time>
      </trkpt>
      <trkpt lat="45.92422" lon="6.52672">
        <ele>2318.62</ele>
        <time>2026-03-21T11:50:14Z</time>
      </trkpt>
      <trkpt lat="45.92422" lon="6.52672">
        <ele>2319.164</ele>
        <time>2026-03-21T11:50:19Z</time>
      </trkpt>
      <trkpt lat="45.92422" lon="6.52672">
        <ele>2319.62</ele>
        <time>2026-03-21T11:50:24Z</time>
      </trkpt>
      <trkpt lat="45.9243" lon="6.52686">
        <ele>2319.63</ele>
        <time>2026-03-21T11:50:29Z</time>
      </trkpt>
      <trkpt lat="45.92429" lon="6.52688">
        <ele>2321.731</ele>
        <time>2026-03-21T11:50:34Z</time>
      </trkpt>
      <trkpt lat="45.92429" lon="6.52689">
        <ele>2322.751</ele>
        <time>2026-03-21T11:50:39Z</time>
      </trkpt>
      <trkpt lat="45.92428" lon="6.52691">
        <ele>2324.246</ele>
        <time>2026-03-21T11:50:44Z</time>
      </trkpt>
      <trkpt lat="45.92426" lon="6.52692">
        <ele>2325.12</ele>
        <time>2026-03-21T11:50:49Z</time>
      </trkpt>
      <trkpt lat="45.92425" lon="6.52695">
        <ele>2326.673</ele>
        <time>2026-03-21T11:50:54Z</time>
      </trkpt>
      <trkpt lat="45.92422" lon="6.52697">
        <ele>2327.791</ele>
        <time>2026-03-21T11:50:59Z</time>
      </trkpt>
      <trkpt lat="45.92421" lon="6.52698">
        <ele>2328.284</ele>
        <time>2026-03-21T11:51:04Z</time>
      </trkpt>
      <trkpt lat="45.92421" lon="6.52698">
        <ele>2328.27</ele>
        <time>2026-03-21T11:51:09Z</time>
      </trkpt>
      <trkpt lat="45.92421" lon="6.52698">
        <ele>2328.147</ele>
        <time>2026-03-21T11:51:14Z</time>
      </trkpt>
      <trkpt lat="45.92419" lon="6.527">
        <ele>2328.413</ele>
        <time>2026-03-21T11:51:19Z</time>
      </trkpt>
      <trkpt lat="45.92418" lon="6.52702">
        <ele>2328.055</ele>
        <time>2026-03-21T11:51:24Z</time>
      </trkpt>
      <trkpt lat="45.92415" lon="6.52704">
        <ele>2328.948</ele>
        <time>2026-03-21T11:51:29Z</time>
      </trkpt>
      <trkpt lat="45.92414" lon="6.52705">
        <ele>2330.197</ele>
        <time>2026-03-21T11:51:34Z</time>
      </trkpt>
      <trkpt lat="45.92412" lon="6.52705">
        <ele>2330.661</ele>
        <time>2026-03-21T11:51:39Z</time>
      </trkpt>
      <trkpt lat="45.92411" lon="6.52706">
        <ele>2331.359</ele>
        <time>2026-03-21T11:51:44Z</time>
      </trkpt>
      <trkpt lat="45.9241" lon="6.52706">
        <ele>2331.708</ele>
        <time>2026-03-21T11:51:49Z</time>
      </trkpt>
      <trkpt lat="45.92409" lon="6.52707">
        <ele>2331.722</ele>
        <time>2026-03-21T11:51:54Z</time>
      </trkpt>
      <trkpt lat="45.9241" lon="6.52707">
        <ele>2331.719</ele>
        <time>2026-03-21T11:51:59Z</time>
      </trkpt>
      <trkpt lat="45.9241" lon="6.52707">
        <ele>2331.714</ele>
        <time>2026-03-21T11:52:04Z</time>
      </trkpt>
      <trkpt lat="45.9241" lon="6.52708">
        <ele>2331.83</ele>
        <time>2026-03-21T11:52:09Z</time>
      </trkpt>
      <trkpt lat="45.9241" lon="6.52708">
        <ele>2332.216</ele>
        <time>2026-03-21T11:52:14Z</time>
      </trkpt>
      <trkpt lat="45.9241" lon="6.52708">
        <ele>2332.221</ele>
        <time>2026-03-21T11:52:19Z</time>
      </trkpt>
      <trkpt lat="45.9241" lon="6.52708">
        <ele>2332.213</ele>
        <time>2026-03-21T11:52:24Z</time>
      </trkpt>
      <trkpt lat="45.92411" lon="6.5271">
        <ele>2332.342</ele>
        <time>2026-03-21T11:52:29Z</time>
      </trkpt>
      <trkpt lat="45.92413" lon="6.52713">
        <ele>2332.808</ele>
        <time>2026-03-21T11:52:34Z</time>
      </trkpt>
      <trkpt lat="45.92415" lon="6.52715">
        <ele>2332.015</ele>
        <time>2026-03-21T11:52:39Z</time>
      </trkpt>
      <trkpt lat="45.92416" lon="6.52718">
        <ele>2331.505</ele>
        <time>2026-03-21T11:52:44Z</time>
      </trkpt>
      <trkpt lat="45.92417" lon="6.52719">
        <ele>2331.067</ele>
        <time>2026-03-21T11:52:49Z</time>
      </trkpt>
      <trkpt lat="45.92418" lon="6.52721">
        <ele>2331.253</ele>
        <time>2026-03-21T11:52:54Z</time>
      </trkpt>
      <trkpt lat="45.9242" lon="6.52723">
        <ele>2332.25</ele>
        <time>2026-03-21T11:52:59Z</time>
      </trkpt>
      <trkpt lat="45.92421" lon="6.52724">
        <ele>2332.214</ele>
        <time>2026-03-21T11:53:04Z</time>
      </trkpt>
      <trkpt lat="45.92422" lon="6.52725">
        <ele>2332.471</ele>
        <time>2026-03-21T11:53:09Z</time>
      </trkpt>
      <trkpt lat="45.92423" lon="6.52726">
        <ele>2333.161</ele>
        <time>2026-03-21T11:53:14Z</time>
      </trkpt>
      <trkpt lat="45.92425" lon="6.52727">
        <ele>2335.01</ele>
        <time>2026-03-21T11:53:19Z</time>
      </trkpt>
      <trkpt lat="45.92427" lon="6.52728">
        <ele>2336.012</ele>
        <time>2026-03-21T11:53:24Z</time>
      </trkpt>
      <trkpt lat="45.92428" lon="6.52729">
        <ele>2336.877</ele>
        <time>2026-03-21T11:53:29Z</time>
      </trkpt>
      <trkpt lat="45.92429" lon="6.5273">
        <ele>2338.389</ele>
        <time>2026-03-21T11:53:34Z</time>
      </trkpt>
      <trkpt lat="45.92429" lon="6.5273">
        <ele>2338.664</ele>
        <time>2026-03-21T11:53:39Z</time>
      </trkpt>
      <trkpt lat="45.92429" lon="6.5273">
        <ele>2338.666</ele>
        <time>2026-03-21T11:53:44Z</time>
      </trkpt>
      <trkpt lat="45.92429" lon="6.5273">
        <ele>2338.681</ele>
        <time>2026-03-21T11:53:49Z</time>
      </trkpt>
      <trkpt lat="45.92429" lon="6.5273">
        <ele>2338.682</ele>
        <time>2026-03-21T11:53:54Z</time>
      </trkpt>
      <trkpt lat="45.92429" lon="6.5273">
        <ele>2339.126</ele>
        <time>2026-03-21T11:53:59Z</time>
      </trkpt>
      <trkpt lat="45.92429" lon="6.5273">
        <ele>2339.153</ele>
        <time>2026-03-21T11:54:04Z</time>
      </trkpt>
      <trkpt lat="45.92428" lon="6.52731">
        <ele>2340.062</ele>
        <time>2026-03-21T11:54:09Z</time>
      </trkpt>
      <trkpt lat="45.92428" lon="6.52732">
        <ele>2340.163</ele>
        <time>2026-03-21T11:54:14Z</time>
      </trkpt>
      <trkpt lat="45.92426" lon="6.52735">
        <ele>2340.744</ele>
        <time>2026-03-21T11:54:19Z</time>
      </trkpt>
      <trkpt lat="45.92424" lon="6.52739">
        <ele>2341.365</ele>
        <time>2026-03-21T11:54:24Z</time>
      </trkpt>
      <trkpt lat="45.92422" lon="6.52741">
        <ele>2342.194</ele>
        <time>2026-03-21T11:54:29Z</time>
      </trkpt>
      <trkpt lat="45.92421" lon="6.52745">
        <ele>2341.957</ele>
        <time>2026-03-21T11:54:34Z</time>
      </trkpt>
      <trkpt lat="45.9242" lon="6.52747">
        <ele>2342.809</ele>
        <time>2026-03-21T11:54:39Z</time>
      </trkpt>
      <trkpt lat="45.92419" lon="6.52749">
        <ele>2343.615</ele>
        <time>2026-03-21T11:54:44Z</time>
      </trkpt>
      <trkpt lat="45.92419" lon="6.52753">
        <ele>2343.77</ele>
        <time>2026-03-21T11:54:49Z</time>
      </trkpt>
      <trkpt lat="45.92418" lon="6.52757">
        <ele>2344.52</ele>
        <time>2026-03-21T11:54:54Z</time>
      </trkpt>
      <trkpt lat="45.92417" lon="6.52759">
        <ele>2344.501</ele>
        <time>2026-03-21T11:54:59Z</time>
      </trkpt>
      <trkpt lat="45.92416" lon="6.5276">
        <ele>2345.138</ele>
        <time>2026-03-21T11:55:04Z</time>
      </trkpt>
      <trkpt lat="45.92416" lon="6.52762">
        <ele>2345.256</ele>
        <time>2026-03-21T11:55:09Z</time>
      </trkpt>
      <trkpt lat="45.92415" lon="6.52762">
        <ele>2345.25</ele>
        <time>2026-03-21T11:55:14Z</time>
      </trkpt>
      <trkpt lat="45.92415" lon="6.52762">
        <ele>2345.442</ele>
        <time>2026-03-21T11:55:19Z</time>
      </trkpt>
      <trkpt lat="45.92415" lon="6.52762">
        <ele>2345.321</ele>
        <time>2026-03-21T11:55:24Z</time>
      </trkpt>
      <trkpt lat="45.92415" lon="6.52762">
        <ele>2345.223</ele>
        <time>2026-03-21T11:55:29Z</time>
      </trkpt>
      <trkpt lat="45.92415" lon="6.52762">
        <ele>2345.208</ele>
        <time>2026-03-21T11:55:34Z</time>
      </trkpt>
      <trkpt lat="45.92415" lon="6.52762">
        <ele>2345.194</ele>
        <time>2026-03-21T11:55:39Z</time>
      </trkpt>
      <trkpt lat="45.92415" lon="6.52762">
        <ele>2345.177</ele>
        <time>2026-03-21T11:55:44Z</time>
      </trkpt>
      <trkpt lat="45.92415" lon="6.52762">
        <ele>2345.163</ele>
        <time>2026-03-21T11:55:49Z</time>
      </trkpt>
      <trkpt lat="45.92415" lon="6.52762">
        <ele>2345.163</ele>
        <time>2026-03-21T11:55:54Z</time>
      </trkpt>
      <trkpt lat="45.92415" lon="6.52762">
        <ele>2345.179</ele>
        <time>2026-03-21T11:55:59Z</time>
      </trkpt>
      <trkpt lat="45.92415" lon="6.52762">
        <ele>2345.174</ele>
        <time>2026-03-21T11:56:04Z</time>
      </trkpt>
      <trkpt lat="45.92415" lon="6.52762">
        <ele>2345.158</ele>
        <time>2026-03-21T11:56:09Z</time>
      </trkpt>
      <trkpt lat="45.92415" lon="6.52762">
        <ele>2345.146</ele>
        <time>2026-03-21T11:56:14Z</time>
      </trkpt>
      <trkpt lat="45.92415" lon="6.52762">
        <ele>2345.141</ele>
        <time>2026-03-21T11:56:19Z</time>
      </trkpt>
      <trkpt lat="45.92415" lon="6.52762">
        <ele>2345.152</ele>
        <time>2026-03-21T11:56:24Z</time>
      </trkpt>
      <trkpt lat="45.92415" lon="6.52762">
        <ele>2345.165</ele>
        <time>2026-03-21T11:56:29Z</time>
      </trkpt>
      <trkpt lat="45.92415" lon="6.52762">
        <ele>2345.079</ele>
        <time>2026-03-21T11:56:34Z</time>
      </trkpt>
      <trkpt lat="45.92415" lon="6.52762">
        <ele>2344.975</ele>
        <time>2026-03-21T11:56:39Z</time>
      </trkpt>
      <trkpt lat="45.92415" lon="6.52762">
        <ele>2344.976</ele>
        <time>2026-03-21T11:56:44Z</time>
      </trkpt>
      <trkpt lat="45.92415" lon="6.52762">
        <ele>2344.977</ele>
        <time>2026-03-21T11:56:49Z</time>
      </trkpt>
      <trkpt lat="45.92415" lon="6.52762">
        <ele>2344.984</ele>
        <time>2026-03-21T11:56:54Z</time>
      </trkpt>
      <trkpt lat="45.92415" lon="6.52762">
        <ele>2344.976</ele>
        <time>2026-03-21T11:56:59Z</time>
      </trkpt>
      <trkpt lat="45.92415" lon="6.52762">
        <ele>2344.985</ele>
        <time>2026-03-21T11:57:04Z</time>
      </trkpt>
      <trkpt lat="45.92415" lon="6.52762">
        <ele>2345.84</ele>
        <time>2026-03-21T11:57:09Z</time>
      </trkpt>
      <trkpt lat="45.92415" lon="6.52762">
        <ele>2345.839</ele>
        <time>2026-03-21T11:57:14Z</time>
      </trkpt>
      <trkpt lat="45.92415" lon="6.52762">
        <ele>2345.843</ele>
        <time>2026-03-21T11:57:19Z</time>
      </trkpt>
      <trkpt lat="45.92415" lon="6.52762">
        <ele>2345.894</ele>
        <time>2026-03-21T11:57:24Z</time>
      </trkpt>
      <trkpt lat="45.92415" lon="6.52762">
        <ele>2345.9</ele>
        <time>2026-03-21T11:57:29Z</time>
      </trkpt>
      <trkpt lat="45.92415" lon="6.52762">
        <ele>2345.894</ele>
        <time>2026-03-21T11:57:34Z</time>
      </trkpt>
      <trkpt lat="45.92415" lon="6.52762">
        <ele>2345.749</ele>
        <time>2026-03-21T11:57:39Z</time>
      </trkpt>
      <trkpt lat="45.92415" lon="6.52762">
        <ele>2346.267</ele>
        <time>2026-03-21T11:57:44Z</time>
      </trkpt>
      <trkpt lat="45.92415" lon="6.52762">
        <ele>2346.551</ele>
        <time>2026-03-21T11:57:49Z</time>
      </trkpt>
      <trkpt lat="45.92415" lon="6.52762">
        <ele>2346.55</ele>
        <time>2026-03-21T11:57:54Z</time>
      </trkpt>
      <trkpt lat="45.92415" lon="6.52762">
        <ele>2346.55</ele>
        <time>2026-03-21T11:57:59Z</time>
      </trkpt>
      <trkpt lat="45.92415" lon="6.52762">
        <ele>2346.537</ele>
        <time>2026-03-21T11:58:04Z</time>
      </trkpt>
      <trkpt lat="45.92415" lon="6.52762">
        <ele>2346.523</ele>
        <time>2026-03-21T11:58:09Z</time>
      </trkpt>
      <trkpt lat="45.92415" lon="6.52762">
        <ele>2346.521</ele>
        <time>2026-03-21T11:58:14Z</time>
      </trkpt>
      <trkpt lat="45.92415" lon="6.52762">
        <ele>2346.534</ele>
        <time>2026-03-21T11:58:19Z</time>
      </trkpt>
      <trkpt lat="45.92415" lon="6.52762">
        <ele>2346.54</ele>
        <time>2026-03-21T11:58:24Z</time>
      </trkpt>
      <trkpt lat="45.92417" lon="6.52764">
        <ele>2346.548</ele>
        <time>2026-03-21T11:58:29Z</time>
      </trkpt>
      <trkpt lat="45.92417" lon="6.52764">
        <ele>2346.545</ele>
        <time>2026-03-21T11:58:34Z</time>
      </trkpt>
      <trkpt lat="45.92417" lon="6.52764">
        <ele>2346.609</ele>
        <time>2026-03-21T11:58:39Z</time>
      </trkpt>
      <trkpt lat="45.92417" lon="6.52766">
        <ele>2346.971</ele>
        <time>2026-03-21T11:58:44Z</time>
      </trkpt>
      <trkpt lat="45.92417" lon="6.52766">
        <ele>2346.983</ele>
        <time>2026-03-21T11:58:49Z</time>
      </trkpt>
      <trkpt lat="45.92417" lon="6.52766">
        <ele>2346.986</ele>
        <time>2026-03-21T11:58:54Z</time>
      </trkpt>
      <trkpt lat="45.92417" lon="6.52766">
        <ele>2346.988</ele>
        <time>2026-03-21T11:58:59Z</time>
      </trkpt>
      <trkpt lat="45.92417" lon="6.52766">
        <ele>2346.989</ele>
        <time>2026-03-21T11:59:04Z</time>
      </trkpt>
      <trkpt lat="45.92417" lon="6.52766">
        <ele>2346.987</ele>
        <time>2026-03-21T11:59:09Z</time>
      </trkpt>
      <trkpt lat="45.92417" lon="6.52766">
        <ele>2347</ele>
        <time>2026-03-21T11:59:14Z</time>
      </trkpt>
      <trkpt lat="45.92417" lon="6.52766">
        <ele>2347.01</ele>
        <time>2026-03-21T11:59:19Z</time>
      </trkpt>
      <trkpt lat="45.92417" lon="6.52766">
        <ele>2347.182</ele>
        <time>2026-03-21T11:59:24Z</time>
      </trkpt>
      <trkpt lat="45.92417" lon="6.52769">
        <ele>2349.283</ele>
        <time>2026-03-21T11:59:29Z</time>
      </trkpt>
      <trkpt lat="45.92417" lon="6.52772">
        <ele>2348.867</ele>
        <time>2026-03-21T11:59:34Z</time>
      </trkpt>
      <trkpt lat="45.92415" lon="6.52774">
        <ele>2350.065</ele>
        <time>2026-03-21T11:59:39Z</time>
      </trkpt>
      <trkpt lat="45.92414" lon="6.52774">
        <ele>2350.898</ele>
        <time>2026-03-21T11:59:44Z</time>
      </trkpt>
      <trkpt lat="45.92413" lon="6.52776">
        <ele>2351.487</ele>
        <time>2026-03-21T11:59:49Z</time>
      </trkpt>
      <trkpt lat="45.92411" lon="6.52778">
        <ele>2352.269</ele>
        <time>2026-03-21T11:59:54Z</time>
      </trkpt>
      <trkpt lat="45.92409" lon="6.52779">
        <ele>2352.812</ele>
        <time>2026-03-21T11:59:59Z</time>
      </trkpt>
      <trkpt lat="45.92406" lon="6.5278">
        <ele>2353.971</ele>
        <time>2026-03-21T12:00:04Z</time>
      </trkpt>
      <trkpt lat="45.92404" lon="6.52782">
        <ele>2354.826</ele>
        <time>2026-03-21T12:00:09Z</time>
      </trkpt>
      <trkpt lat="45.92403" lon="6.52784">
        <ele>2355.662</ele>
        <time>2026-03-21T12:00:14Z</time>
      </trkpt>
      <trkpt lat="45.92402" lon="6.52786">
        <ele>2356.082</ele>
        <time>2026-03-21T12:00:19Z</time>
      </trkpt>
      <trkpt lat="45.92402" lon="6.52789">
        <ele>2356.229</ele>
        <time>2026-03-21T12:00:24Z</time>
      </trkpt>
      <trkpt lat="45.92402" lon="6.52791">
        <ele>2356.456</ele>
        <time>2026-03-21T12:00:29Z</time>
      </trkpt>
      <trkpt lat="45.92402" lon="6.52795">
        <ele>2357.663</ele>
        <time>2026-03-21T12:00:34Z</time>
      </trkpt>
      <trkpt lat="45.92402" lon="6.52797">
        <ele>2358.631</ele>
        <time>2026-03-21T12:00:39Z</time>
      </trkpt>
      <trkpt lat="45.92402" lon="6.52798">
        <ele>2358.658</ele>
        <time>2026-03-21T12:00:44Z</time>
      </trkpt>
      <trkpt lat="45.92402" lon="6.52799">
        <ele>2359.661</ele>
        <time>2026-03-21T12:00:49Z</time>
      </trkpt>
      <trkpt lat="45.92404" lon="6.52802">
        <ele>2359.133</ele>
        <time>2026-03-21T12:00:54Z</time>
      </trkpt>
      <trkpt lat="45.92406" lon="6.52806">
        <ele>2359.754</ele>
        <time>2026-03-21T12:00:59Z</time>
      </trkpt>
      <trkpt lat="45.92407" lon="6.5281">
        <ele>2360.231</ele>
        <time>2026-03-21T12:01:04Z</time>
      </trkpt>
      <trkpt lat="45.92409" lon="6.52814">
        <ele>2361.025</ele>
        <time>2026-03-21T12:01:09Z</time>
      </trkpt>
      <trkpt lat="45.9241" lon="6.52817">
        <ele>2362.021</ele>
        <time>2026-03-21T12:01:14Z</time>
      </trkpt>
      <trkpt lat="45.92412" lon="6.52819">
        <ele>2361.441</ele>
        <time>2026-03-21T12:01:19Z</time>
      </trkpt>
      <trkpt lat="45.92413" lon="6.52822">
        <ele>2362.27</ele>
        <time>2026-03-21T12:01:24Z</time>
      </trkpt>
      <trkpt lat="45.92414" lon="6.52825">
        <ele>2363.389</ele>
        <time>2026-03-21T12:01:29Z</time>
      </trkpt>
      <trkpt lat="45.92416" lon="6.52828">
        <ele>2363.507</ele>
        <time>2026-03-21T12:01:34Z</time>
      </trkpt>
      <trkpt lat="45.92417" lon="6.52831">
        <ele>2364.588</ele>
        <time>2026-03-21T12:01:39Z</time>
      </trkpt>
      <trkpt lat="45.92419" lon="6.52833">
        <ele>2366.193</ele>
        <time>2026-03-21T12:01:44Z</time>
      </trkpt>
      <trkpt lat="45.92421" lon="6.52834">
        <ele>2365.809</ele>
        <time>2026-03-21T12:01:49Z</time>
      </trkpt>
      <trkpt lat="45.92423" lon="6.52836">
        <ele>2366.065</ele>
        <time>2026-03-21T12:01:54Z</time>
      </trkpt>
      <trkpt lat="45.92425" lon="6.52837">
        <ele>2366.587</ele>
        <time>2026-03-21T12:01:59Z</time>
      </trkpt>
      <trkpt lat="45.92426" lon="6.52837">
        <ele>2367.017</ele>
        <time>2026-03-21T12:02:04Z</time>
      </trkpt>
      <trkpt lat="45.92426" lon="6.52837">
        <ele>2367.016</ele>
        <time>2026-03-21T12:02:09Z</time>
      </trkpt>
      <trkpt lat="45.92427" lon="6.52838">
        <ele>2366.746</ele>
        <time>2026-03-21T12:02:14Z</time>
      </trkpt>
      <trkpt lat="45.92429" lon="6.52839">
        <ele>2366.755</ele>
        <time>2026-03-21T12:02:19Z</time>
      </trkpt>
      <trkpt lat="45.9243" lon="6.5284">
        <ele>2367.788</ele>
        <time>2026-03-21T12:02:24Z</time>
      </trkpt>
      <trkpt lat="45.92432" lon="6.5284">
        <ele>2368.46</ele>
        <time>2026-03-21T12:02:29Z</time>
      </trkpt>
      <trkpt lat="45.92434" lon="6.52841">
        <ele>2367.92</ele>
        <time>2026-03-21T12:02:34Z</time>
      </trkpt>
      <trkpt lat="45.92434" lon="6.52841">
        <ele>2367.792</ele>
        <time>2026-03-21T12:02:39Z</time>
      </trkpt>
      <trkpt lat="45.92436" lon="6.52842">
        <ele>2368.093</ele>
        <time>2026-03-21T12:02:44Z</time>
      </trkpt>
      <trkpt lat="45.92438" lon="6.52842">
        <ele>2367.973</ele>
        <time>2026-03-21T12:02:49Z</time>
      </trkpt>
      <trkpt lat="45.92438" lon="6.52842">
        <ele>2368.084</ele>
        <time>2026-03-21T12:02:54Z</time>
      </trkpt>
      <trkpt lat="45.92437" lon="6.52844">
        <ele>2369.063</ele>
        <time>2026-03-21T12:02:59Z</time>
      </trkpt>
      <trkpt lat="45.92436" lon="6.52845">
        <ele>2370.301</ele>
        <time>2026-03-21T12:03:04Z</time>
      </trkpt>
      <trkpt lat="45.92434" lon="6.52848">
        <ele>2370.482</ele>
        <time>2026-03-21T12:03:09Z</time>
      </trkpt>
      <trkpt lat="45.92433" lon="6.5285">
        <ele>2371.632</ele>
        <time>2026-03-21T12:03:14Z</time>
      </trkpt>
      <trkpt lat="45.92432" lon="6.52852">
        <ele>2372.334</ele>
        <time>2026-03-21T12:03:19Z</time>
      </trkpt>
      <trkpt lat="45.92431" lon="6.52854">
        <ele>2373.521</ele>
        <time>2026-03-21T12:03:24Z</time>
      </trkpt>
      <trkpt lat="45.9243" lon="6.52855">
        <ele>2373.984</ele>
        <time>2026-03-21T12:03:29Z</time>
      </trkpt>
      <trkpt lat="45.92429" lon="6.52856">
        <ele>2375.366</ele>
        <time>2026-03-21T12:03:34Z</time>
      </trkpt>
      <trkpt lat="45.92428" lon="6.52857">
        <ele>2375.631</ele>
        <time>2026-03-21T12:03:39Z</time>
      </trkpt>
      <trkpt lat="45.92428" lon="6.52859">
        <ele>2377.069</ele>
        <time>2026-03-21T12:03:44Z</time>
      </trkpt>
      <trkpt lat="45.92427" lon="6.52861">
        <ele>2378.481</ele>
        <time>2026-03-21T12:03:49Z</time>
      </trkpt>
      <trkpt lat="45.92426" lon="6.52862">
        <ele>2379.311</ele>
        <time>2026-03-21T12:03:54Z</time>
      </trkpt>
      <trkpt lat="45.92424" lon="6.52864">
        <ele>2380.502</ele>
        <time>2026-03-21T12:03:59Z</time>
      </trkpt>
      <trkpt lat="45.92423" lon="6.52866">
        <ele>2381.381</ele>
        <time>2026-03-21T12:04:04Z</time>
      </trkpt>
      <trkpt lat="45.92422" lon="6.52868">
        <ele>2382.26</ele>
        <time>2026-03-21T12:04:09Z</time>
      </trkpt>
      <trkpt lat="45.92421" lon="6.5287">
        <ele>2382.905</ele>
        <time>2026-03-21T12:04:14Z</time>
      </trkpt>
      <trkpt lat="45.9242" lon="6.52872">
        <ele>2383.585</ele>
        <time>2026-03-21T12:04:19Z</time>
      </trkpt>
      <trkpt lat="45.9242" lon="6.52873">
        <ele>2383.199</ele>
        <time>2026-03-21T12:04:24Z</time>
      </trkpt>
      <trkpt lat="45.9242" lon="6.52874">
        <ele>2383.51</ele>
        <time>2026-03-21T12:04:29Z</time>
      </trkpt>
      <trkpt lat="45.9242" lon="6.52874">
        <ele>2383.516</ele>
        <time>2026-03-21T12:04:34Z</time>
      </trkpt>
      <trkpt lat="45.9242" lon="6.52874">
        <ele>2383.529</ele>
        <time>2026-03-21T12:04:39Z</time>
      </trkpt>
      <trkpt lat="45.9242" lon="6.52874">
        <ele>2383.526</ele>
        <time>2026-03-21T12:04:44Z</time>
      </trkpt>
      <trkpt lat="45.9242" lon="6.52874">
        <ele>2383.522</ele>
        <time>2026-03-21T12:04:49Z</time>
      </trkpt>
      <trkpt lat="45.92421" lon="6.52874">
        <ele>2383.131</ele>
        <time>2026-03-21T12:04:54Z</time>
      </trkpt>
      <trkpt lat="45.92422" lon="6.52875">
        <ele>2383.131</ele>
        <time>2026-03-21T12:04:59Z</time>
      </trkpt>
      <trkpt lat="45.92424" lon="6.52875">
        <ele>2383.034</ele>
        <time>2026-03-21T12:05:04Z</time>
      </trkpt>
      <trkpt lat="45.92426" lon="6.52875">
        <ele>2383.642</ele>
        <time>2026-03-21T12:05:09Z</time>
      </trkpt>
      <trkpt lat="45.92428" lon="6.52877">
        <ele>2384.509</ele>
        <time>2026-03-21T12:05:14Z</time>
      </trkpt>
      <trkpt lat="45.9243" lon="6.52878">
        <ele>2384.196</ele>
        <time>2026-03-21T12:05:19Z</time>
      </trkpt>
      <trkpt lat="45.92431" lon="6.52878">
        <ele>2384.366</ele>
        <time>2026-03-21T12:05:24Z</time>
      </trkpt>
      <trkpt lat="45.92432" lon="6.52879">
        <ele>2385.028</ele>
        <time>2026-03-21T12:05:29Z</time>
      </trkpt>
      <trkpt lat="45.92434" lon="6.5288">
        <ele>2384.768</ele>
        <time>2026-03-21T12:05:34Z</time>
      </trkpt>
      <trkpt lat="45.92436" lon="6.52882">
        <ele>2384.936</ele>
        <time>2026-03-21T12:05:39Z</time>
      </trkpt>
      <trkpt lat="45.92437" lon="6.52883">
        <ele>2384.798</ele>
        <time>2026-03-21T12:05:44Z</time>
      </trkpt>
      <trkpt lat="45.92438" lon="6.52883">
        <ele>2385.014</ele>
        <time>2026-03-21T12:05:49Z</time>
      </trkpt>
      <trkpt lat="45.92438" lon="6.52883">
        <ele>2385.113</ele>
        <time>2026-03-21T12:05:54Z</time>
      </trkpt>
      <trkpt lat="45.92438" lon="6.52883">
        <ele>2385.139</ele>
        <time>2026-03-21T12:05:59Z</time>
      </trkpt>
      <trkpt lat="45.92438" lon="6.52883">
        <ele>2385.152</ele>
        <time>2026-03-21T12:06:04Z</time>
      </trkpt>
      <trkpt lat="45.92438" lon="6.52883">
        <ele>2385.151</ele>
        <time>2026-03-21T12:06:09Z</time>
      </trkpt>
      <trkpt lat="45.92438" lon="6.52883">
        <ele>2385.152</ele>
        <time>2026-03-21T12:06:14Z</time>
      </trkpt>
      <trkpt lat="45.92438" lon="6.52883">
        <ele>2385.16</ele>
        <time>2026-03-21T12:06:19Z</time>
      </trkpt>
      <trkpt lat="45.92438" lon="6.52883">
        <ele>2385.164</ele>
        <time>2026-03-21T12:06:24Z</time>
      </trkpt>
      <trkpt lat="45.92438" lon="6.52883">
        <ele>2385.166</ele>
        <time>2026-03-21T12:06:29Z</time>
      </trkpt>
      <trkpt lat="45.92438" lon="6.52883">
        <ele>2385.174</ele>
        <time>2026-03-21T12:06:34Z</time>
      </trkpt>
      <trkpt lat="45.92437" lon="6.52884">
        <ele>2385.18</ele>
        <time>2026-03-21T12:06:39Z</time>
      </trkpt>
      <trkpt lat="45.92437" lon="6.52884">
        <ele>2385.202</ele>
        <time>2026-03-21T12:06:44Z</time>
      </trkpt>
      <trkpt lat="45.92437" lon="6.52884">
        <ele>2385.222</ele>
        <time>2026-03-21T12:06:49Z</time>
      </trkpt>
      <trkpt lat="45.92437" lon="6.52884">
        <ele>2385.244</ele>
        <time>2026-03-21T12:06:54Z</time>
      </trkpt>
      <trkpt lat="45.92437" lon="6.52884">
        <ele>2385.386</ele>
        <time>2026-03-21T12:06:59Z</time>
      </trkpt>
      <trkpt lat="45.92435" lon="6.52885">
        <ele>2386.402</ele>
        <time>2026-03-21T12:07:04Z</time>
      </trkpt>
      <trkpt lat="45.92433" lon="6.52887">
        <ele>2387.426</ele>
        <time>2026-03-21T12:07:09Z</time>
      </trkpt>
      <trkpt lat="45.92432" lon="6.52889">
        <ele>2388.609</ele>
        <time>2026-03-21T12:07:14Z</time>
      </trkpt>
      <trkpt lat="45.9243" lon="6.52891">
        <ele>2389.512</ele>
        <time>2026-03-21T12:07:19Z</time>
      </trkpt>
      <trkpt lat="45.92429" lon="6.52892">
        <ele>2391.221</ele>
        <time>2026-03-21T12:07:24Z</time>
      </trkpt>
      <trkpt lat="45.92428" lon="6.52893">
        <ele>2392.083</ele>
        <time>2026-03-21T12:07:29Z</time>
      </trkpt>
      <trkpt lat="45.92427" lon="6.52894">
        <ele>2392.372</ele>
        <time>2026-03-21T12:07:34Z</time>
      </trkpt>
      <trkpt lat="45.92426" lon="6.52896">
        <ele>2392.162</ele>
        <time>2026-03-21T12:07:39Z</time>
      </trkpt>
      <trkpt lat="45.92425" lon="6.52898">
        <ele>2393.337</ele>
        <time>2026-03-21T12:07:44Z</time>
      </trkpt>
      <trkpt lat="45.92425" lon="6.529">
        <ele>2393.79</ele>
        <time>2026-03-21T12:07:49Z</time>
      </trkpt>
      <trkpt lat="45.92427" lon="6.52901">
        <ele>2394.384</ele>
        <time>2026-03-21T12:07:54Z</time>
      </trkpt>
      <trkpt lat="45.92429" lon="6.52903">
        <ele>2393.884</ele>
        <time>2026-03-21T12:07:59Z</time>
      </trkpt>
      <trkpt lat="45.92431" lon="6.52904">
        <ele>2394.071</ele>
        <time>2026-03-21T12:08:04Z</time>
      </trkpt>
      <trkpt lat="45.92433" lon="6.52906">
        <ele>2394.272</ele>
        <time>2026-03-21T12:08:09Z</time>
      </trkpt>
      <trkpt lat="45.92435" lon="6.52907">
        <ele>2394.773</ele>
        <time>2026-03-21T12:08:14Z</time>
      </trkpt>
      <trkpt lat="45.92436" lon="6.52907">
        <ele>2395.556</ele>
        <time>2026-03-21T12:08:19Z</time>
      </trkpt>
      <trkpt lat="45.92437" lon="6.52908">
        <ele>2397.128</ele>
        <time>2026-03-21T12:08:24Z</time>
      </trkpt>
      <trkpt lat="45.92438" lon="6.52909">
        <ele>2397.493</ele>
        <time>2026-03-21T12:08:29Z</time>
      </trkpt>
      <trkpt lat="45.9244" lon="6.52909">
        <ele>2397.649</ele>
        <time>2026-03-21T12:08:34Z</time>
      </trkpt>
      <trkpt lat="45.92441" lon="6.52911">
        <ele>2397.231</ele>
        <time>2026-03-21T12:08:39Z</time>
      </trkpt>
      <trkpt lat="45.92442" lon="6.52912">
        <ele>2398.006</ele>
        <time>2026-03-21T12:08:44Z</time>
      </trkpt>
      <trkpt lat="45.92442" lon="6.52913">
        <ele>2398.1</ele>
        <time>2026-03-21T12:08:49Z</time>
      </trkpt>
      <trkpt lat="45.92441" lon="6.52915">
        <ele>2398.699</ele>
        <time>2026-03-21T12:08:54Z</time>
      </trkpt>
      <trkpt lat="45.92441" lon="6.52917">
        <ele>2399.513</ele>
        <time>2026-03-21T12:08:59Z</time>
      </trkpt>
      <trkpt lat="45.9244" lon="6.5292">
        <ele>2400.232</ele>
        <time>2026-03-21T12:09:04Z</time>
      </trkpt>
      <trkpt lat="45.92439" lon="6.52922">
        <ele>2401.013</ele>
        <time>2026-03-21T12:09:09Z</time>
      </trkpt>
      <trkpt lat="45.92437" lon="6.52924">
        <ele>2401.607</ele>
        <time>2026-03-21T12:09:14Z</time>
      </trkpt>
      <trkpt lat="45.92437" lon="6.52927">
        <ele>2401.339</ele>
        <time>2026-03-21T12:09:19Z</time>
      </trkpt>
      <trkpt lat="45.92436" lon="6.52929">
        <ele>2401.983</ele>
        <time>2026-03-21T12:09:24Z</time>
      </trkpt>
      <trkpt lat="45.92436" lon="6.5293">
        <ele>2403.135</ele>
        <time>2026-03-21T12:09:29Z</time>
      </trkpt>
      <trkpt lat="45.92436" lon="6.52931">
        <ele>2403.085</ele>
        <time>2026-03-21T12:09:34Z</time>
      </trkpt>
      <trkpt lat="45.92436" lon="6.52931">
        <ele>2403.088</ele>
        <time>2026-03-21T12:09:39Z</time>
      </trkpt>
      <trkpt lat="45.92436" lon="6.52932">
        <ele>2403.264</ele>
        <time>2026-03-21T12:09:44Z</time>
      </trkpt>
      <trkpt lat="45.92437" lon="6.52935">
        <ele>2403.78</ele>
        <time>2026-03-21T12:09:49Z</time>
      </trkpt>
      <trkpt lat="45.92437" lon="6.52939">
        <ele>2403.905</ele>
        <time>2026-03-21T12:09:54Z</time>
      </trkpt>
      <trkpt lat="45.92438" lon="6.52942">
        <ele>2404.702</ele>
        <time>2026-03-21T12:09:59Z</time>
      </trkpt>
      <trkpt lat="45.92439" lon="6.52944">
        <ele>2405.886</ele>
        <time>2026-03-21T12:10:04Z</time>
      </trkpt>
      <trkpt lat="45.92441" lon="6.52946">
        <ele>2406.481</ele>
        <time>2026-03-21T12:10:09Z</time>
      </trkpt>
      <trkpt lat="45.92443" lon="6.52947">
        <ele>2407.055</ele>
        <time>2026-03-21T12:10:14Z</time>
      </trkpt>
      <trkpt lat="45.92445" lon="6.52947">
        <ele>2406.857</ele>
        <time>2026-03-21T12:10:19Z</time>
      </trkpt>
      <trkpt lat="45.92445" lon="6.52949">
        <ele>2408.467</ele>
        <time>2026-03-21T12:10:24Z</time>
      </trkpt>
      <trkpt lat="45.92445" lon="6.52951">
        <ele>2408.628</ele>
        <time>2026-03-21T12:10:29Z</time>
      </trkpt>
      <trkpt lat="45.92444" lon="6.52954">
        <ele>2408.854</ele>
        <time>2026-03-21T12:10:34Z</time>
      </trkpt>
      <trkpt lat="45.92443" lon="6.52957">
        <ele>2409.439</ele>
        <time>2026-03-21T12:10:39Z</time>
      </trkpt>
      <trkpt lat="45.92442" lon="6.52958">
        <ele>2410.294</ele>
        <time>2026-03-21T12:10:44Z</time>
      </trkpt>
      <trkpt lat="45.92441" lon="6.5296">
        <ele>2410.26</ele>
        <time>2026-03-21T12:10:49Z</time>
      </trkpt>
      <trkpt lat="45.92441" lon="6.52963">
        <ele>2411.198</ele>
        <time>2026-03-21T12:10:54Z</time>
      </trkpt>
      <trkpt lat="45.92443" lon="6.52964">
        <ele>2410.371</ele>
        <time>2026-03-21T12:10:59Z</time>
      </trkpt>
      <trkpt lat="45.92445" lon="6.52964">
        <ele>2411.316</ele>
        <time>2026-03-21T12:11:04Z</time>
      </trkpt>
      <trkpt lat="45.92447" lon="6.52964">
        <ele>2411.599</ele>
        <time>2026-03-21T12:11:09Z</time>
      </trkpt>
      <trkpt lat="45.92449" lon="6.52964">
        <ele>2412.162</ele>
        <time>2026-03-21T12:11:14Z</time>
      </trkpt>
      <trkpt lat="45.92451" lon="6.52964">
        <ele>2412.745</ele>
        <time>2026-03-21T12:11:19Z</time>
      </trkpt>
      <trkpt lat="45.92452" lon="6.52964">
        <ele>2413.142</ele>
        <time>2026-03-21T12:11:24Z</time>
      </trkpt>
      <trkpt lat="45.92453" lon="6.52965">
        <ele>2413.676</ele>
        <time>2026-03-21T12:11:29Z</time>
      </trkpt>
      <trkpt lat="45.92454" lon="6.52967">
        <ele>2413.626</ele>
        <time>2026-03-21T12:11:34Z</time>
      </trkpt>
      <trkpt lat="45.92453" lon="6.52971">
        <ele>2414.656</ele>
        <time>2026-03-21T12:11:39Z</time>
      </trkpt>
      <trkpt lat="45.92452" lon="6.52973">
        <ele>2415.462</ele>
        <time>2026-03-21T12:11:44Z</time>
      </trkpt>
      <trkpt lat="45.92452" lon="6.52975">
        <ele>2416.089</ele>
        <time>2026-03-21T12:11:49Z</time>
      </trkpt>
      <trkpt lat="45.92451" lon="6.52977">
        <ele>2416.354</ele>
        <time>2026-03-21T12:11:54Z</time>
      </trkpt>
      <trkpt lat="45.92451" lon="6.52979">
        <ele>2416.552</ele>
        <time>2026-03-21T12:11:59Z</time>
      </trkpt>
      <trkpt lat="45.92451" lon="6.5298">
        <ele>2417.064</ele>
        <time>2026-03-21T12:12:04Z</time>
      </trkpt>
      <trkpt lat="45.9245" lon="6.52982">
        <ele>2417.96</ele>
        <time>2026-03-21T12:12:09Z</time>
      </trkpt>
      <trkpt lat="45.92449" lon="6.52984">
        <ele>2418.099</ele>
        <time>2026-03-21T12:12:14Z</time>
      </trkpt>
      <trkpt lat="45.92448" lon="6.52985">
        <ele>2418.83</ele>
        <time>2026-03-21T12:12:19Z</time>
      </trkpt>
      <trkpt lat="45.92447" lon="6.52986">
        <ele>2419.78</ele>
        <time>2026-03-21T12:12:24Z</time>
      </trkpt>
      <trkpt lat="45.92446" lon="6.52988">
        <ele>2421.133</ele>
        <time>2026-03-21T12:12:29Z</time>
      </trkpt>
      <trkpt lat="45.92445" lon="6.52989">
        <ele>2420.972</ele>
        <time>2026-03-21T12:12:34Z</time>
      </trkpt>
      <trkpt lat="45.92444" lon="6.5299">
        <ele>2421.489</ele>
        <time>2026-03-21T12:12:39Z</time>
      </trkpt>
      <trkpt lat="45.92443" lon="6.52992">
        <ele>2422.394</ele>
        <time>2026-03-21T12:12:44Z</time>
      </trkpt>
      <trkpt lat="45.92441" lon="6.52994">
        <ele>2423.489</ele>
        <time>2026-03-21T12:12:49Z</time>
      </trkpt>
      <trkpt lat="45.9244" lon="6.52995">
        <ele>2423.376</ele>
        <time>2026-03-21T12:12:54Z</time>
      </trkpt>
      <trkpt lat="45.92439" lon="6.52997">
        <ele>2424.351</ele>
        <time>2026-03-21T12:12:59Z</time>
      </trkpt>
      <trkpt lat="45.92438" lon="6.52997">
        <ele>2424.656</ele>
        <time>2026-03-21T12:13:04Z</time>
      </trkpt>
      <trkpt lat="45.92436" lon="6.52998">
        <ele>2425.876</ele>
        <time>2026-03-21T12:13:09Z</time>
      </trkpt>
      <trkpt lat="45.92434" lon="6.52998">
        <ele>2426.617</ele>
        <time>2026-03-21T12:13:14Z</time>
      </trkpt>
      <trkpt lat="45.92433" lon="6.52999">
        <ele>2426.118</ele>
        <time>2026-03-21T12:13:19Z</time>
      </trkpt>
      <trkpt lat="45.92432" lon="6.52999">
        <ele>2426.247</ele>
        <time>2026-03-21T12:13:24Z</time>
      </trkpt>
      <trkpt lat="45.92431" lon="6.53">
        <ele>2427.506</ele>
        <time>2026-03-21T12:13:29Z</time>
      </trkpt>
      <trkpt lat="45.9243" lon="6.53001">
        <ele>2427.422</ele>
        <time>2026-03-21T12:13:34Z</time>
      </trkpt>
      <trkpt lat="45.92431" lon="6.53001">
        <ele>2427.562</ele>
        <time>2026-03-21T12:13:39Z</time>
      </trkpt>
      <trkpt lat="45.92431" lon="6.53001">
        <ele>2427.558</ele>
        <time>2026-03-21T12:13:44Z</time>
      </trkpt>
      <trkpt lat="45.92431" lon="6.53001">
        <ele>2427.549</ele>
        <time>2026-03-21T12:13:49Z</time>
      </trkpt>
      <trkpt lat="45.92431" lon="6.53001">
        <ele>2427.545</ele>
        <time>2026-03-21T12:13:54Z</time>
      </trkpt>
      <trkpt lat="45.92431" lon="6.53001">
        <ele>2427.534</ele>
        <time>2026-03-21T12:13:59Z</time>
      </trkpt>
      <trkpt lat="45.92431" lon="6.53001">
        <ele>2427.452</ele>
        <time>2026-03-21T12:14:04Z</time>
      </trkpt>
      <trkpt lat="45.92431" lon="6.53001">
        <ele>2427.449</ele>
        <time>2026-03-21T12:14:09Z</time>
      </trkpt>
      <trkpt lat="45.92431" lon="6.53001">
        <ele>2427.444</ele>
        <time>2026-03-21T12:14:14Z</time>
      </trkpt>
      <trkpt lat="45.92431" lon="6.53001">
        <ele>2427.433</ele>
        <time>2026-03-21T12:14:19Z</time>
      </trkpt>
      <trkpt lat="45.92431" lon="6.53001">
        <ele>2427.421</ele>
        <time>2026-03-21T12:14:24Z</time>
      </trkpt>
      <trkpt lat="45.92431" lon="6.53001">
        <ele>2427.413</ele>
        <time>2026-03-21T12:14:29Z</time>
      </trkpt>
      <trkpt lat="45.92431" lon="6.53002">
        <ele>2427.406</ele>
        <time>2026-03-21T12:14:34Z</time>
      </trkpt>
      <trkpt lat="45.92431" lon="6.53002">
        <ele>2427.402</ele>
        <time>2026-03-21T12:14:39Z</time>
      </trkpt>
      <trkpt lat="45.92431" lon="6.53002">
        <ele>2427.398</ele>
        <time>2026-03-21T12:14:44Z</time>
      </trkpt>
      <trkpt lat="45.92431" lon="6.53002">
        <ele>2427.394</ele>
        <time>2026-03-21T12:14:49Z</time>
      </trkpt>
      <trkpt lat="45.92431" lon="6.53002">
        <ele>2427.383</ele>
        <time>2026-03-21T12:14:54Z</time>
      </trkpt>
      <trkpt lat="45.92431" lon="6.53002">
        <ele>2427.375</ele>
        <time>2026-03-21T12:14:59Z</time>
      </trkpt>
      <trkpt lat="45.92431" lon="6.53002">
        <ele>2427.378</ele>
        <time>2026-03-21T12:15:04Z</time>
      </trkpt>
      <trkpt lat="45.92431" lon="6.53002">
        <ele>2427.375</ele>
        <time>2026-03-21T12:15:09Z</time>
      </trkpt>
      <trkpt lat="45.92432" lon="6.53003">
        <ele>2427.327</ele>
        <time>2026-03-21T12:15:14Z</time>
      </trkpt>
      <trkpt lat="45.92432" lon="6.53003">
        <ele>2427.372</ele>
        <time>2026-03-21T12:15:19Z</time>
      </trkpt>
      <trkpt lat="45.92432" lon="6.53003">
        <ele>2427.392</ele>
        <time>2026-03-21T12:15:24Z</time>
      </trkpt>
      <trkpt lat="45.92432" lon="6.53003">
        <ele>2427.4</ele>
        <time>2026-03-21T12:15:29Z</time>
      </trkpt>
      <trkpt lat="45.92432" lon="6.53004">
        <ele>2427.285</ele>
        <time>2026-03-21T12:15:34Z</time>
      </trkpt>
      <trkpt lat="45.92433" lon="6.53006">
        <ele>2427.5</ele>
        <time>2026-03-21T12:15:39Z</time>
      </trkpt>
      <trkpt lat="45.92434" lon="6.53008">
        <ele>2428.345</ele>
        <time>2026-03-21T12:15:44Z</time>
      </trkpt>
      <trkpt lat="45.92435" lon="6.53011">
        <ele>2428.629</ele>
        <time>2026-03-21T12:15:49Z</time>
      </trkpt>
      <trkpt lat="45.92435" lon="6.53012">
        <ele>2429.515</ele>
        <time>2026-03-21T12:15:54Z</time>
      </trkpt>
      <trkpt lat="45.92436" lon="6.53014">
        <ele>2430.271</ele>
        <time>2026-03-21T12:15:59Z</time>
      </trkpt>
      <trkpt lat="45.92437" lon="6.53016">
        <ele>2430.386</ele>
        <time>2026-03-21T12:16:04Z</time>
      </trkpt>
      <trkpt lat="45.92438" lon="6.53016">
        <ele>2430.261</ele>
        <time>2026-03-21T12:16:09Z</time>
      </trkpt>
      <trkpt lat="45.92438" lon="6.53017">
        <ele>2430.73</ele>
        <time>2026-03-21T12:16:14Z</time>
      </trkpt>
      <trkpt lat="45.92439" lon="6.53019">
        <ele>2431.491</ele>
        <time>2026-03-21T12:16:19Z</time>
      </trkpt>
      <trkpt lat="45.92441" lon="6.5302">
        <ele>2433.078</ele>
        <time>2026-03-21T12:16:24Z</time>
      </trkpt>
      <trkpt lat="45.92442" lon="6.53022">
        <ele>2434.334</ele>
        <time>2026-03-21T12:16:29Z</time>
      </trkpt>
      <trkpt lat="45.92444" lon="6.53022">
        <ele>2434.545</ele>
        <time>2026-03-21T12:16:34Z</time>
      </trkpt>
      <trkpt lat="45.92444" lon="6.53022">
        <ele>2434.542</ele>
        <time>2026-03-21T12:16:39Z</time>
      </trkpt>
      <trkpt lat="45.92444" lon="6.53022">
        <ele>2434.531</ele>
        <time>2026-03-21T12:16:44Z</time>
      </trkpt>
      <trkpt lat="45.92444" lon="6.53022">
        <ele>2434.517</ele>
        <time>2026-03-21T12:16:49Z</time>
      </trkpt>
      <trkpt lat="45.92445" lon="6.53022">
        <ele>2434.339</ele>
        <time>2026-03-21T12:16:54Z</time>
      </trkpt>
      <trkpt lat="45.92446" lon="6.53023">
        <ele>2434.685</ele>
        <time>2026-03-21T12:16:59Z</time>
      </trkpt>
      <trkpt lat="45.92448" lon="6.53024">
        <ele>2434.424</ele>
        <time>2026-03-21T12:17:04Z</time>
      </trkpt>
      <trkpt lat="45.9245" lon="6.53025">
        <ele>2434.815</ele>
        <time>2026-03-21T12:17:09Z</time>
      </trkpt>
      <trkpt lat="45.92452" lon="6.53026">
        <ele>2434.084</ele>
        <time>2026-03-21T12:17:14Z</time>
      </trkpt>
      <trkpt lat="45.92453" lon="6.53028">
        <ele>2434.33</ele>
        <time>2026-03-21T12:17:19Z</time>
      </trkpt>
      <trkpt lat="45.92455" lon="6.53029">
        <ele>2434.047</ele>
        <time>2026-03-21T12:17:24Z</time>
      </trkpt>
      <trkpt lat="45.92455" lon="6.5303">
        <ele>2434.418</ele>
        <time>2026-03-21T12:17:29Z</time>
      </trkpt>
      <trkpt lat="45.92457" lon="6.53031">
        <ele>2434.809</ele>
        <time>2026-03-21T12:17:34Z</time>
      </trkpt>
      <trkpt lat="45.92458" lon="6.53032">
        <ele>2435.077</ele>
        <time>2026-03-21T12:17:39Z</time>
      </trkpt>
      <trkpt lat="45.92459" lon="6.53033">
        <ele>2435.676</ele>
        <time>2026-03-21T12:17:44Z</time>
      </trkpt>
      <trkpt lat="45.92461" lon="6.53033">
        <ele>2436.155</ele>
        <time>2026-03-21T12:17:49Z</time>
      </trkpt>
      <trkpt lat="45.92461" lon="6.53033">
        <ele>2436.459</ele>
        <time>2026-03-21T12:17:54Z</time>
      </trkpt>
      <trkpt lat="45.92461" lon="6.53033">
        <ele>2436.462</ele>
        <time>2026-03-21T12:17:59Z</time>
      </trkpt>
      <trkpt lat="45.92461" lon="6.53033">
        <ele>2436.462</ele>
        <time>2026-03-21T12:18:04Z</time>
      </trkpt>
      <trkpt lat="45.92462" lon="6.53034">
        <ele>2436.099</ele>
        <time>2026-03-21T12:18:09Z</time>
      </trkpt>
      <trkpt lat="45.92464" lon="6.53035">
        <ele>2436.792</ele>
        <time>2026-03-21T12:18:14Z</time>
      </trkpt>
      <trkpt lat="45.92466" lon="6.53035">
        <ele>2437.285</ele>
        <time>2026-03-21T12:18:19Z</time>
      </trkpt>
      <trkpt lat="45.92467" lon="6.53035">
        <ele>2436.965</ele>
        <time>2026-03-21T12:18:24Z</time>
      </trkpt>
      <trkpt lat="45.92469" lon="6.53035">
        <ele>2437.852</ele>
        <time>2026-03-21T12:18:29Z</time>
      </trkpt>
      <trkpt lat="45.92471" lon="6.53034">
        <ele>2438.045</ele>
        <time>2026-03-21T12:18:34Z</time>
      </trkpt>
      <trkpt lat="45.92473" lon="6.53034">
        <ele>2438.358</ele>
        <time>2026-03-21T12:18:39Z</time>
      </trkpt>
      <trkpt lat="45.92474" lon="6.53034">
        <ele>2439.288</ele>
        <time>2026-03-21T12:18:44Z</time>
      </trkpt>
      <trkpt lat="45.92476" lon="6.53033">
        <ele>2439.605</ele>
        <time>2026-03-21T12:18:49Z</time>
      </trkpt>
      <trkpt lat="45.92477" lon="6.53032">
        <ele>2439.901</ele>
        <time>2026-03-21T12:18:54Z</time>
      </trkpt>
      <trkpt lat="45.92479" lon="6.53031">
        <ele>2440.515</ele>
        <time>2026-03-21T12:18:59Z</time>
      </trkpt>
      <trkpt lat="45.92481" lon="6.53031">
        <ele>2440.935</ele>
        <time>2026-03-21T12:19:04Z</time>
      </trkpt>
      <trkpt lat="45.92482" lon="6.53031">
        <ele>2441.231</ele>
        <time>2026-03-21T12:19:09Z</time>
      </trkpt>
      <trkpt lat="45.92483" lon="6.5303">
        <ele>2441.614</ele>
        <time>2026-03-21T12:19:14Z</time>
      </trkpt>
      <trkpt lat="45.92483" lon="6.53031">
        <ele>2442.791</ele>
        <time>2026-03-21T12:19:19Z</time>
      </trkpt>
      <trkpt lat="45.92483" lon="6.53031">
        <ele>2442.793</ele>
        <time>2026-03-21T12:19:24Z</time>
      </trkpt>
      <trkpt lat="45.92483" lon="6.53031">
        <ele>2442.799</ele>
        <time>2026-03-21T12:19:29Z</time>
      </trkpt>
      <trkpt lat="45.92483" lon="6.53032">
        <ele>2443.558</ele>
        <time>2026-03-21T12:19:34Z</time>
      </trkpt>
      <trkpt lat="45.92483" lon="6.53034">
        <ele>2443.904</ele>
        <time>2026-03-21T12:19:39Z</time>
      </trkpt>
      <trkpt lat="45.92482" lon="6.53035">
        <ele>2444.928</ele>
        <time>2026-03-21T12:19:44Z</time>
      </trkpt>
      <trkpt lat="45.92482" lon="6.53037">
        <ele>2445.886</ele>
        <time>2026-03-21T12:19:49Z</time>
      </trkpt>
      <trkpt lat="45.92481" lon="6.53039">
        <ele>2445.762</ele>
        <time>2026-03-21T12:19:54Z</time>
      </trkpt>
      <trkpt lat="45.9248" lon="6.53041">
        <ele>2446.208</ele>
        <time>2026-03-21T12:19:59Z</time>
      </trkpt>
      <trkpt lat="45.92479" lon="6.53044">
        <ele>2447.165</ele>
        <time>2026-03-21T12:20:04Z</time>
      </trkpt>
      <trkpt lat="45.92478" lon="6.53046">
        <ele>2448.074</ele>
        <time>2026-03-21T12:20:09Z</time>
      </trkpt>
      <trkpt lat="45.92477" lon="6.53048">
        <ele>2448.339</ele>
        <time>2026-03-21T12:20:14Z</time>
      </trkpt>
      <trkpt lat="45.92476" lon="6.5305">
        <ele>2448.532</ele>
        <time>2026-03-21T12:20:19Z</time>
      </trkpt>
      <trkpt lat="45.92476" lon="6.53051">
        <ele>2448.566</ele>
        <time>2026-03-21T12:20:24Z</time>
      </trkpt>
      <trkpt lat="45.92476" lon="6.53051">
        <ele>2449.9</ele>
        <time>2026-03-21T12:20:29Z</time>
      </trkpt>
      <trkpt lat="45.92476" lon="6.53051">
        <ele>2449.779</ele>
        <time>2026-03-21T12:20:34Z</time>
      </trkpt>
      <trkpt lat="45.92476" lon="6.53051">
        <ele>2449.674</ele>
        <time>2026-03-21T12:20:39Z</time>
      </trkpt>
      <trkpt lat="45.92476" lon="6.53051">
        <ele>2449.666</ele>
        <time>2026-03-21T12:20:44Z</time>
      </trkpt>
      <trkpt lat="45.92476" lon="6.53051">
        <ele>2449.649</ele>
        <time>2026-03-21T12:20:49Z</time>
      </trkpt>
      <trkpt lat="45.92476" lon="6.53051">
        <ele>2449.626</ele>
        <time>2026-03-21T12:20:54Z</time>
      </trkpt>
      <trkpt lat="45.92476" lon="6.53051">
        <ele>2449.612</ele>
        <time>2026-03-21T12:20:59Z</time>
      </trkpt>
      <trkpt lat="45.92476" lon="6.53051">
        <ele>2449.602</ele>
        <time>2026-03-21T12:21:04Z</time>
      </trkpt>
      <trkpt lat="45.92476" lon="6.53051">
        <ele>2449.598</ele>
        <time>2026-03-21T12:21:09Z</time>
      </trkpt>
      <trkpt lat="45.92476" lon="6.53051">
        <ele>2449.582</ele>
        <time>2026-03-21T12:21:14Z</time>
      </trkpt>
      <trkpt lat="45.92476" lon="6.53051">
        <ele>2449.571</ele>
        <time>2026-03-21T12:21:19Z</time>
      </trkpt>
      <trkpt lat="45.92476" lon="6.53051">
        <ele>2449.549</ele>
        <time>2026-03-21T12:21:24Z</time>
      </trkpt>
      <trkpt lat="45.92476" lon="6.53051">
        <ele>2449.536</ele>
        <time>2026-03-21T12:21:29Z</time>
      </trkpt>
      <trkpt lat="45.92476" lon="6.53051">
        <ele>2449.519</ele>
        <time>2026-03-21T12:21:34Z</time>
      </trkpt>
      <trkpt lat="45.92476" lon="6.53051">
        <ele>2449.508</ele>
        <time>2026-03-21T12:21:39Z</time>
      </trkpt>
      <trkpt lat="45.92476" lon="6.53051">
        <ele>2449.5</ele>
        <time>2026-03-21T12:21:44Z</time>
      </trkpt>
      <trkpt lat="45.92476" lon="6.53051">
        <ele>2449.481</ele>
        <time>2026-03-21T12:21:49Z</time>
      </trkpt>
      <trkpt lat="45.92476" lon="6.53051">
        <ele>2449.469</ele>
        <time>2026-03-21T12:21:54Z</time>
      </trkpt>
      <trkpt lat="45.92476" lon="6.53051">
        <ele>2449.466</ele>
        <time>2026-03-21T12:21:59Z</time>
      </trkpt>
      <trkpt lat="45.92476" lon="6.53051">
        <ele>2449.461</ele>
        <time>2026-03-21T12:22:04Z</time>
      </trkpt>
      <trkpt lat="45.92476" lon="6.53051">
        <ele>2449.445</ele>
        <time>2026-03-21T12:22:09Z</time>
      </trkpt>
      <trkpt lat="45.92476" lon="6.53051">
        <ele>2449.427</ele>
        <time>2026-03-21T12:22:14Z</time>
      </trkpt>
      <trkpt lat="45.92476" lon="6.53051">
        <ele>2449.415</ele>
        <time>2026-03-21T12:22:19Z</time>
      </trkpt>
      <trkpt lat="45.92476" lon="6.53051">
        <ele>2449.397</ele>
        <time>2026-03-21T12:22:24Z</time>
      </trkpt>
      <trkpt lat="45.92476" lon="6.53051">
        <ele>2449.379</ele>
        <time>2026-03-21T12:22:29Z</time>
      </trkpt>
      <trkpt lat="45.92476" lon="6.53051">
        <ele>2449.371</ele>
        <time>2026-03-21T12:22:34Z</time>
      </trkpt>
      <trkpt lat="45.92476" lon="6.53051">
        <ele>2449.37</ele>
        <time>2026-03-21T12:22:39Z</time>
      </trkpt>
      <trkpt lat="45.92476" lon="6.53051">
        <ele>2449.366</ele>
        <time>2026-03-21T12:22:44Z</time>
      </trkpt>
      <trkpt lat="45.92476" lon="6.53051">
        <ele>2449.359</ele>
        <time>2026-03-21T12:22:49Z</time>
      </trkpt>
      <trkpt lat="45.92476" lon="6.53051">
        <ele>2449.348</ele>
        <time>2026-03-21T12:22:54Z</time>
      </trkpt>
      <trkpt lat="45.92476" lon="6.53051">
        <ele>2449.332</ele>
        <time>2026-03-21T12:22:59Z</time>
      </trkpt>
      <trkpt lat="45.92476" lon="6.53051">
        <ele>2449.318</ele>
        <time>2026-03-21T12:23:04Z</time>
      </trkpt>
      <trkpt lat="45.92476" lon="6.53051">
        <ele>2449.303</ele>
        <time>2026-03-21T12:23:09Z</time>
      </trkpt>
      <trkpt lat="45.92476" lon="6.53051">
        <ele>2449.288</ele>
        <time>2026-03-21T12:23:14Z</time>
      </trkpt>
      <trkpt lat="45.92476" lon="6.53051">
        <ele>2449.267</ele>
        <time>2026-03-21T12:23:19Z</time>
      </trkpt>
      <trkpt lat="45.92476" lon="6.53051">
        <ele>2448.872</ele>
        <time>2026-03-21T12:23:24Z</time>
      </trkpt>
      <trkpt lat="45.92476" lon="6.53051">
        <ele>2448.623</ele>
        <time>2026-03-21T12:23:29Z</time>
      </trkpt>
      <trkpt lat="45.92476" lon="6.53051">
        <ele>2448.308</ele>
        <time>2026-03-21T12:23:34Z</time>
      </trkpt>
      <trkpt lat="45.92479" lon="6.5305">
        <ele>2448.317</ele>
        <time>2026-03-21T12:23:39Z</time>
      </trkpt>
      <trkpt lat="45.9248" lon="6.5305">
        <ele>2448.399</ele>
        <time>2026-03-21T12:23:44Z</time>
      </trkpt>
      <trkpt lat="45.92482" lon="6.53049">
        <ele>2449.415</ele>
        <time>2026-03-21T12:23:49Z</time>
      </trkpt>
      <trkpt lat="45.92484" lon="6.53048">
        <ele>2450.174</ele>
        <time>2026-03-21T12:23:54Z</time>
      </trkpt>
      <trkpt lat="45.92486" lon="6.53048">
        <ele>2451.2</ele>
        <time>2026-03-21T12:23:59Z</time>
      </trkpt>
      <trkpt lat="45.92488" lon="6.53046">
        <ele>2451.941</ele>
        <time>2026-03-21T12:24:04Z</time>
      </trkpt>
      <trkpt lat="45.9249" lon="6.53045">
        <ele>2452.143</ele>
        <time>2026-03-21T12:24:09Z</time>
      </trkpt>
      <trkpt lat="45.92492" lon="6.53045">
        <ele>2451.234</ele>
        <time>2026-03-21T12:24:14Z</time>
      </trkpt>
      <trkpt lat="45.92494" lon="6.53044">
        <ele>2453.107</ele>
        <time>2026-03-21T12:24:19Z</time>
      </trkpt>
      <trkpt lat="45.92495" lon="6.53043">
        <ele>2453.839</ele>
        <time>2026-03-21T12:24:24Z</time>
      </trkpt>
      <trkpt lat="45.92497" lon="6.53042">
        <ele>2454.308</ele>
        <time>2026-03-21T12:24:29Z</time>
      </trkpt>
      <trkpt lat="45.92499" lon="6.53041">
        <ele>2455.309</ele>
        <time>2026-03-21T12:24:34Z</time>
      </trkpt>
      <trkpt lat="45.92501" lon="6.5304">
        <ele>2456.12</ele>
        <time>2026-03-21T12:24:39Z</time>
      </trkpt>
      <trkpt lat="45.92502" lon="6.53038">
        <ele>2456.566</ele>
        <time>2026-03-21T12:24:44Z</time>
      </trkpt>
      <trkpt lat="45.92502" lon="6.53038">
        <ele>2456.618</ele>
        <time>2026-03-21T12:24:49Z</time>
      </trkpt>
      <trkpt lat="45.92502" lon="6.53038">
        <ele>2456.629</ele>
        <time>2026-03-21T12:24:54Z</time>
      </trkpt>
      <trkpt lat="45.92502" lon="6.53038">
        <ele>2456.639</ele>
        <time>2026-03-21T12:24:59Z</time>
      </trkpt>
      <trkpt lat="45.92502" lon="6.53037">
        <ele>2456.95</ele>
        <time>2026-03-21T12:25:04Z</time>
      </trkpt>
      <trkpt lat="45.92502" lon="6.53035">
        <ele>2457.209</ele>
        <time>2026-03-21T12:25:09Z</time>
      </trkpt>
      <trkpt lat="45.92503" lon="6.53034">
        <ele>2457</ele>
        <time>2026-03-21T12:25:14Z</time>
      </trkpt>
      <trkpt lat="45.92503" lon="6.53034">
        <ele>2456.99</ele>
        <time>2026-03-21T12:25:19Z</time>
      </trkpt>
      <trkpt lat="45.92503" lon="6.53034">
        <ele>2457.012</ele>
        <time>2026-03-21T12:25:24Z</time>
      </trkpt>
      <trkpt lat="45.92503" lon="6.53034">
        <ele>2457.009</ele>
        <time>2026-03-21T12:25:29Z</time>
      </trkpt>
      <trkpt lat="45.92503" lon="6.53034">
        <ele>2457.006</ele>
        <time>2026-03-21T12:25:34Z</time>
      </trkpt>
      <trkpt lat="45.92503" lon="6.53034">
        <ele>2457.006</ele>
        <time>2026-03-21T12:25:39Z</time>
      </trkpt>
      <trkpt lat="45.92503" lon="6.53034">
        <ele>2456.999</ele>
        <time>2026-03-21T12:25:44Z</time>
      </trkpt>
      <trkpt lat="45.92503" lon="6.53034">
        <ele>2456.996</ele>
        <time>2026-03-21T12:25:49Z</time>
      </trkpt>
      <trkpt lat="45.92503" lon="6.53034">
        <ele>2456.991</ele>
        <time>2026-03-21T12:25:54Z</time>
      </trkpt>
      <trkpt lat="45.92503" lon="6.53034">
        <ele>2456.988</ele>
        <time>2026-03-21T12:25:59Z</time>
      </trkpt>
      <trkpt lat="45.92503" lon="6.53034">
        <ele>2456.782</ele>
        <time>2026-03-21T12:26:04Z</time>
      </trkpt>
      <trkpt lat="45.92503" lon="6.53034">
        <ele>2456.778</ele>
        <time>2026-03-21T12:26:09Z</time>
      </trkpt>
      <trkpt lat="45.92503" lon="6.53034">
        <ele>2456.772</ele>
        <time>2026-03-21T12:26:14Z</time>
      </trkpt>
      <trkpt lat="45.92503" lon="6.53034">
        <ele>2456.771</ele>
        <time>2026-03-21T12:26:19Z</time>
      </trkpt>
      <trkpt lat="45.92503" lon="6.53034">
        <ele>2456.461</ele>
        <time>2026-03-21T12:26:24Z</time>
      </trkpt>
      <trkpt lat="45.92503" lon="6.53034">
        <ele>2456.821</ele>
        <time>2026-03-21T12:26:29Z</time>
      </trkpt>
      <trkpt lat="45.92503" lon="6.53034">
        <ele>2457.628</ele>
        <time>2026-03-21T12:26:34Z</time>
      </trkpt>
      <trkpt lat="45.92503" lon="6.53034">
        <ele>2458.562</ele>
        <time>2026-03-21T12:26:39Z</time>
      </trkpt>
      <trkpt lat="45.92503" lon="6.53034">
        <ele>2458.57</ele>
        <time>2026-03-21T12:26:44Z</time>
      </trkpt>
      <trkpt lat="45.92503" lon="6.53034">
        <ele>2458.79</ele>
        <time>2026-03-21T12:26:49Z</time>
      </trkpt>
      <trkpt lat="45.92503" lon="6.53034">
        <ele>2459.012</ele>
        <time>2026-03-21T12:26:54Z</time>
      </trkpt>
      <trkpt lat="45.92503" lon="6.53034">
        <ele>2459.417</ele>
        <time>2026-03-21T12:26:59Z</time>
      </trkpt>
      <trkpt lat="45.92503" lon="6.53034">
        <ele>2459.469</ele>
        <time>2026-03-21T12:27:04Z</time>
      </trkpt>
      <trkpt lat="45.92503" lon="6.53034">
        <ele>2459.462</ele>
        <time>2026-03-21T12:27:09Z</time>
      </trkpt>
      <trkpt lat="45.92503" lon="6.53034">
        <ele>2459.466</ele>
        <time>2026-03-21T12:27:14Z</time>
      </trkpt>
      <trkpt lat="45.92503" lon="6.53034">
        <ele>2459.476</ele>
        <time>2026-03-21T12:27:19Z</time>
      </trkpt>
      <trkpt lat="45.92503" lon="6.53034">
        <ele>2459.481</ele>
        <time>2026-03-21T12:27:24Z</time>
      </trkpt>
      <trkpt lat="45.92503" lon="6.53034">
        <ele>2459.49</ele>
        <time>2026-03-21T12:27:29Z</time>
      </trkpt>
      <trkpt lat="45.92503" lon="6.53034">
        <ele>2459.494</ele>
        <time>2026-03-21T12:27:34Z</time>
      </trkpt>
      <trkpt lat="45.92503" lon="6.53034">
        <ele>2459.37</ele>
        <time>2026-03-21T12:27:39Z</time>
      </trkpt>
      <trkpt lat="45.92503" lon="6.53034">
        <ele>2458.862</ele>
        <time>2026-03-21T12:27:44Z</time>
      </trkpt>
      <trkpt lat="45.92503" lon="6.53034">
        <ele>2458.864</ele>
        <time>2026-03-21T12:27:49Z</time>
      </trkpt>
      <trkpt lat="45.92503" lon="6.53034">
        <ele>2458.862</ele>
        <time>2026-03-21T12:27:54Z</time>
      </trkpt>
      <trkpt lat="45.92503" lon="6.53034">
        <ele>2458.865</ele>
        <time>2026-03-21T12:27:59Z</time>
      </trkpt>
      <trkpt lat="45.92503" lon="6.53034">
        <ele>2458.867</ele>
        <time>2026-03-21T12:28:04Z</time>
      </trkpt>
      <trkpt lat="45.92503" lon="6.53034">
        <ele>2459.312</ele>
        <time>2026-03-21T12:28:09Z</time>
      </trkpt>
      <trkpt lat="45.92503" lon="6.53034">
        <ele>2459.319</ele>
        <time>2026-03-21T12:28:14Z</time>
      </trkpt>
      <trkpt lat="45.92503" lon="6.53034">
        <ele>2459.328</ele>
        <time>2026-03-21T12:28:19Z</time>
      </trkpt>
      <trkpt lat="45.92503" lon="6.53034">
        <ele>2459.34</ele>
        <time>2026-03-21T12:28:24Z</time>
      </trkpt>
      <trkpt lat="45.92503" lon="6.53034">
        <ele>2459.351</ele>
        <time>2026-03-21T12:28:29Z</time>
      </trkpt>
      <trkpt lat="45.92503" lon="6.53034">
        <ele>2458.675</ele>
        <time>2026-03-21T12:28:34Z</time>
      </trkpt>
      <trkpt lat="45.92503" lon="6.53034">
        <ele>2458.65</ele>
        <time>2026-03-21T12:28:39Z</time>
      </trkpt>
      <trkpt lat="45.92503" lon="6.53034">
        <ele>2458.647</ele>
        <time>2026-03-21T12:28:44Z</time>
      </trkpt>
      <trkpt lat="45.92503" lon="6.53034">
        <ele>2458.652</ele>
        <time>2026-03-21T12:28:49Z</time>
      </trkpt>
      <trkpt lat="45.92503" lon="6.53034">
        <ele>2458.656</ele>
        <time>2026-03-21T12:28:54Z</time>
      </trkpt>
      <trkpt lat="45.92503" lon="6.53034">
        <ele>2458.658</ele>
        <time>2026-03-21T12:28:59Z</time>
      </trkpt>
      <trkpt lat="45.92503" lon="6.53034">
        <ele>2458.663</ele>
        <time>2026-03-21T12:29:04Z</time>
      </trkpt>
      <trkpt lat="45.92503" lon="6.53034">
        <ele>2458.673</ele>
        <time>2026-03-21T12:29:09Z</time>
      </trkpt>
      <trkpt lat="45.92503" lon="6.53034">
        <ele>2458.821</ele>
        <time>2026-03-21T12:29:14Z</time>
      </trkpt>
      <trkpt lat="45.92503" lon="6.53034">
        <ele>2459.284</ele>
        <time>2026-03-21T12:29:19Z</time>
      </trkpt>
      <trkpt lat="45.92503" lon="6.53034">
        <ele>2459.301</ele>
        <time>2026-03-21T12:29:24Z</time>
      </trkpt>
      <trkpt lat="45.92503" lon="6.53034">
        <ele>2459.306</ele>
        <time>2026-03-21T12:29:29Z</time>
      </trkpt>
      <trkpt lat="45.92503" lon="6.53034">
        <ele>2459.31</ele>
        <time>2026-03-21T12:29:34Z</time>
      </trkpt>
      <trkpt lat="45.92503" lon="6.53034">
        <ele>2459.681</ele>
        <time>2026-03-21T12:29:39Z</time>
      </trkpt>
      <trkpt lat="45.92503" lon="6.53034">
        <ele>2459.686</ele>
        <time>2026-03-21T12:29:44Z</time>
      </trkpt>
      <trkpt lat="45.92503" lon="6.53034">
        <ele>2459.684</ele>
        <time>2026-03-21T12:29:49Z</time>
      </trkpt>
      <trkpt lat="45.92503" lon="6.53034">
        <ele>2459.686</ele>
        <time>2026-03-21T12:29:54Z</time>
      </trkpt>
      <trkpt lat="45.92503" lon="6.53034">
        <ele>2459.684</ele>
        <time>2026-03-21T12:29:59Z</time>
      </trkpt>
      <trkpt lat="45.92503" lon="6.53034">
        <ele>2459.685</ele>
        <time>2026-03-21T12:30:04Z</time>
      </trkpt>
      <trkpt lat="45.92503" lon="6.53034">
        <ele>2459.686</ele>
        <time>2026-03-21T12:30:09Z</time>
      </trkpt>
      <trkpt lat="45.92503" lon="6.53034">
        <ele>2459.692</ele>
        <time>2026-03-21T12:30:14Z</time>
      </trkpt>
      <trkpt lat="45.92503" lon="6.53034">
        <ele>2459.694</ele>
        <time>2026-03-21T12:30:19Z</time>
      </trkpt>
      <trkpt lat="45.92503" lon="6.53034">
        <ele>2459.698</ele>
        <time>2026-03-21T12:30:24Z</time>
      </trkpt>
      <trkpt lat="45.92503" lon="6.53034">
        <ele>2459.7</ele>
        <time>2026-03-21T12:30:29Z</time>
      </trkpt>
      <trkpt lat="45.92503" lon="6.53034">
        <ele>2459.699</ele>
        <time>2026-03-21T12:30:34Z</time>
      </trkpt>
      <trkpt lat="45.92503" lon="6.53034">
        <ele>2459.703</ele>
        <time>2026-03-21T12:30:39Z</time>
      </trkpt>
      <trkpt lat="45.92503" lon="6.53034">
        <ele>2459.71</ele>
        <time>2026-03-21T12:30:44Z</time>
      </trkpt>
      <trkpt lat="45.92503" lon="6.53034">
        <ele>2459.718</ele>
        <time>2026-03-21T12:30:49Z</time>
      </trkpt>
      <trkpt lat="45.92503" lon="6.53034">
        <ele>2459.721</ele>
        <time>2026-03-21T12:30:54Z</time>
      </trkpt>
      <trkpt lat="45.92503" lon="6.53034">
        <ele>2459.727</ele>
        <time>2026-03-21T12:30:59Z</time>
      </trkpt>
      <trkpt lat="45.92503" lon="6.53034">
        <ele>2459.732</ele>
        <time>2026-03-21T12:31:04Z</time>
      </trkpt>
      <trkpt lat="45.92503" lon="6.53034">
        <ele>2459.736</ele>
        <time>2026-03-21T12:31:09Z</time>
      </trkpt>
      <trkpt lat="45.92503" lon="6.53034">
        <ele>2459.744</ele>
        <time>2026-03-21T12:31:14Z</time>
      </trkpt>
      <trkpt lat="45.92503" lon="6.53034">
        <ele>2459.75</ele>
        <time>2026-03-21T12:31:19Z</time>
      </trkpt>
      <trkpt lat="45.92503" lon="6.53034">
        <ele>2459.753</ele>
        <time>2026-03-21T12:31:24Z</time>
      </trkpt>
      <trkpt lat="45.92503" lon="6.53034">
        <ele>2459.755</ele>
        <time>2026-03-21T12:31:29Z</time>
      </trkpt>
      <trkpt lat="45.92503" lon="6.53034">
        <ele>2459.759</ele>
        <time>2026-03-21T12:31:34Z</time>
      </trkpt>
      <trkpt lat="45.92503" lon="6.53034">
        <ele>2459.763</ele>
        <time>2026-03-21T12:31:39Z</time>
      </trkpt>
      <trkpt lat="45.92503" lon="6.53034">
        <ele>2459.77</ele>
        <time>2026-03-21T12:31:44Z</time>
      </trkpt>
      <trkpt lat="45.92503" lon="6.53034">
        <ele>2459.781</ele>
        <time>2026-03-21T12:31:49Z</time>
      </trkpt>
      <trkpt lat="45.92503" lon="6.53034">
        <ele>2459.783</ele>
        <time>2026-03-21T12:31:54Z</time>
      </trkpt>
      <trkpt lat="45.92503" lon="6.53034">
        <ele>2459.782</ele>
        <time>2026-03-21T12:31:59Z</time>
      </trkpt>
      <trkpt lat="45.92503" lon="6.53034">
        <ele>2459.786</ele>
        <time>2026-03-21T12:32:04Z</time>
      </trkpt>
      <trkpt lat="45.92503" lon="6.53034">
        <ele>2459.786</ele>
        <time>2026-03-21T12:32:09Z</time>
      </trkpt>
      <trkpt lat="45.92503" lon="6.53034">
        <ele>2459.783</ele>
        <time>2026-03-21T12:32:14Z</time>
      </trkpt>
      <trkpt lat="45.92503" lon="6.53034">
        <ele>2459.784</ele>
        <time>2026-03-21T12:32:19Z</time>
      </trkpt>
      <trkpt lat="45.92503" lon="6.53034">
        <ele>2459.784</ele>
        <time>2026-03-21T12:32:24Z</time>
      </trkpt>
      <trkpt lat="45.92503" lon="6.53034">
        <ele>2459.791</ele>
        <time>2026-03-21T12:32:29Z</time>
      </trkpt>
      <trkpt lat="45.92503" lon="6.53034">
        <ele>2459.795</ele>
        <time>2026-03-21T12:32:34Z</time>
      </trkpt>
      <trkpt lat="45.92503" lon="6.53034">
        <ele>2459.798</ele>
        <time>2026-03-21T12:32:39Z</time>
      </trkpt>
      <trkpt lat="45.92503" lon="6.53034">
        <ele>2459.802</ele>
        <time>2026-03-21T12:32:44Z</time>
      </trkpt>
      <trkpt lat="45.92503" lon="6.53034">
        <ele>2459.804</ele>
        <time>2026-03-21T12:32:49Z</time>
      </trkpt>
      <trkpt lat="45.92503" lon="6.53034">
        <ele>2459.809</ele>
        <time>2026-03-21T12:32:54Z</time>
      </trkpt>
      <trkpt lat="45.92503" lon="6.53034">
        <ele>2459.811</ele>
        <time>2026-03-21T12:32:59Z</time>
      </trkpt>
      <trkpt lat="45.92503" lon="6.53034">
        <ele>2459.814</ele>
        <time>2026-03-21T12:33:04Z</time>
      </trkpt>
      <trkpt lat="45.92503" lon="6.53034">
        <ele>2459.819</ele>
        <time>2026-03-21T12:33:09Z</time>
      </trkpt>
      <trkpt lat="45.92503" lon="6.53034">
        <ele>2459.821</ele>
        <time>2026-03-21T12:33:14Z</time>
      </trkpt>
      <trkpt lat="45.92503" lon="6.53034">
        <ele>2459.822</ele>
        <time>2026-03-21T12:33:19Z</time>
      </trkpt>
      <trkpt lat="45.92503" lon="6.53034">
        <ele>2459.822</ele>
        <time>2026-03-21T12:33:24Z</time>
      </trkpt>
      <trkpt lat="45.92503" lon="6.53034">
        <ele>2459.824</ele>
        <time>2026-03-21T12:33:29Z</time>
      </trkpt>
      <trkpt lat="45.92503" lon="6.53034">
        <ele>2459.827</ele>
        <time>2026-03-21T12:33:34Z</time>
      </trkpt>
      <trkpt lat="45.92503" lon="6.53034">
        <ele>2459.827</ele>
        <time>2026-03-21T12:33:39Z</time>
      </trkpt>
      <trkpt lat="45.92503" lon="6.53034">
        <ele>2459.826</ele>
        <time>2026-03-21T12:33:44Z</time>
      </trkpt>
      <trkpt lat="45.92503" lon="6.53034">
        <ele>2459.791</ele>
        <time>2026-03-21T12:33:49Z</time>
      </trkpt>
      <trkpt lat="45.92503" lon="6.53034">
        <ele>2460.116</ele>
        <time>2026-03-21T12:33:54Z</time>
      </trkpt>
      <trkpt lat="45.92503" lon="6.53034">
        <ele>2460.589</ele>
        <time>2026-03-21T12:33:59Z</time>
      </trkpt>
      <trkpt lat="45.92503" lon="6.53034">
        <ele>2460.705</ele>
        <time>2026-03-21T12:34:04Z</time>
      </trkpt>
      <trkpt lat="45.92503" lon="6.53034">
        <ele>2460.711</ele>
        <time>2026-03-21T12:34:09Z</time>
      </trkpt>
      <trkpt lat="45.92503" lon="6.53034">
        <ele>2460.718</ele>
        <time>2026-03-21T12:34:14Z</time>
      </trkpt>
      <trkpt lat="45.92503" lon="6.53034">
        <ele>2460.726</ele>
        <time>2026-03-21T12:34:19Z</time>
      </trkpt>
      <trkpt lat="45.92503" lon="6.53034">
        <ele>2460.739</ele>
        <time>2026-03-21T12:34:24Z</time>
      </trkpt>
      <trkpt lat="45.92503" lon="6.53034">
        <ele>2460.741</ele>
        <time>2026-03-21T12:34:29Z</time>
      </trkpt>
      <trkpt lat="45.92503" lon="6.53034">
        <ele>2460.747</ele>
        <time>2026-03-21T12:34:34Z</time>
      </trkpt>
      <trkpt lat="45.92503" lon="6.53034">
        <ele>2460.751</ele>
        <time>2026-03-21T12:34:39Z</time>
      </trkpt>
      <trkpt lat="45.92503" lon="6.53034">
        <ele>2460.839</ele>
        <time>2026-03-21T12:34:44Z</time>
      </trkpt>
      <trkpt lat="45.92503" lon="6.53034">
        <ele>2460.841</ele>
        <time>2026-03-21T12:34:49Z</time>
      </trkpt>
      <trkpt lat="45.92503" lon="6.53034">
        <ele>2460.848</ele>
        <time>2026-03-21T12:34:54Z</time>
      </trkpt>
      <trkpt lat="45.92503" lon="6.53034">
        <ele>2460.865</ele>
        <time>2026-03-21T12:34:59Z</time>
      </trkpt>
      <trkpt lat="45.92503" lon="6.53034">
        <ele>2460.873</ele>
        <time>2026-03-21T12:35:04Z</time>
      </trkpt>
      <trkpt lat="45.92503" lon="6.53034">
        <ele>2461.276</ele>
        <time>2026-03-21T12:35:09Z</time>
      </trkpt>
      <trkpt lat="45.92503" lon="6.53034">
        <ele>2461.301</ele>
        <time>2026-03-21T12:35:14Z</time>
      </trkpt>
      <trkpt lat="45.92503" lon="6.53034">
        <ele>2460.635</ele>
        <time>2026-03-21T12:35:19Z</time>
      </trkpt>
      <trkpt lat="45.92503" lon="6.53034">
        <ele>2460.073</ele>
        <time>2026-03-21T12:35:24Z</time>
      </trkpt>
      <trkpt lat="45.92503" lon="6.53034">
        <ele>2460.082</ele>
        <time>2026-03-21T12:35:29Z</time>
      </trkpt>
      <trkpt lat="45.92503" lon="6.53034">
        <ele>2461.036</ele>
        <time>2026-03-21T12:35:34Z</time>
      </trkpt>
      <trkpt lat="45.92503" lon="6.53034">
        <ele>2461.314</ele>
        <time>2026-03-21T12:35:39Z</time>
      </trkpt>
      <trkpt lat="45.92503" lon="6.53034">
        <ele>2461.757</ele>
        <time>2026-03-21T12:35:44Z</time>
      </trkpt>
      <trkpt lat="45.92503" lon="6.53034">
        <ele>2461.15</ele>
        <time>2026-03-21T12:35:49Z</time>
      </trkpt>
      <trkpt lat="45.92503" lon="6.53034">
        <ele>2460.479</ele>
        <time>2026-03-21T12:35:54Z</time>
      </trkpt>
      <trkpt lat="45.92503" lon="6.53034">
        <ele>2460.481</ele>
        <time>2026-03-21T12:35:59Z</time>
      </trkpt>
      <trkpt lat="45.92503" lon="6.53034">
        <ele>2460.484</ele>
        <time>2026-03-21T12:36:04Z</time>
      </trkpt>
      <trkpt lat="45.92503" lon="6.53034">
        <ele>2460.488</ele>
        <time>2026-03-21T12:36:09Z</time>
      </trkpt>
      <trkpt lat="45.92503" lon="6.53034">
        <ele>2460.49</ele>
        <time>2026-03-21T12:36:14Z</time>
      </trkpt>
      <trkpt lat="45.92503" lon="6.53034">
        <ele>2460.494</ele>
        <time>2026-03-21T12:36:19Z</time>
      </trkpt>
      <trkpt lat="45.92503" lon="6.53034">
        <ele>2460.464</ele>
        <time>2026-03-21T12:36:24Z</time>
      </trkpt>
      <trkpt lat="45.92503" lon="6.53034">
        <ele>2460.045</ele>
        <time>2026-03-21T12:36:29Z</time>
      </trkpt>
      <trkpt lat="45.92503" lon="6.53034">
        <ele>2460.044</ele>
        <time>2026-03-21T12:36:34Z</time>
      </trkpt>
      <trkpt lat="45.92503" lon="6.53034">
        <ele>2460.045</ele>
        <time>2026-03-21T12:36:39Z</time>
      </trkpt>
      <trkpt lat="45.92503" lon="6.53034">
        <ele>2460.044</ele>
        <time>2026-03-21T12:36:44Z</time>
      </trkpt>
      <trkpt lat="45.92503" lon="6.53034">
        <ele>2460.041</ele>
        <time>2026-03-21T12:36:49Z</time>
      </trkpt>
      <trkpt lat="45.92503" lon="6.53034">
        <ele>2460.035</ele>
        <time>2026-03-21T12:36:54Z</time>
      </trkpt>
      <trkpt lat="45.92503" lon="6.53034">
        <ele>2460.036</ele>
        <time>2026-03-21T12:36:59Z</time>
      </trkpt>
      <trkpt lat="45.92503" lon="6.53034">
        <ele>2460.031</ele>
        <time>2026-03-21T12:37:04Z</time>
      </trkpt>
      <trkpt lat="45.92503" lon="6.53034">
        <ele>2460.03</ele>
        <time>2026-03-21T12:37:09Z</time>
      </trkpt>
      <trkpt lat="45.92503" lon="6.53034">
        <ele>2460.03</ele>
        <time>2026-03-21T12:37:14Z</time>
      </trkpt>
      <trkpt lat="45.92503" lon="6.53034">
        <ele>2460.034</ele>
        <time>2026-03-21T12:37:19Z</time>
      </trkpt>
      <trkpt lat="45.92503" lon="6.53034">
        <ele>2460.038</ele>
        <time>2026-03-21T12:37:24Z</time>
      </trkpt>
      <trkpt lat="45.92503" lon="6.53034">
        <ele>2460.037</ele>
        <time>2026-03-21T12:37:29Z</time>
      </trkpt>
      <trkpt lat="45.92503" lon="6.53034">
        <ele>2460.041</ele>
        <time>2026-03-21T12:37:34Z</time>
      </trkpt>
      <trkpt lat="45.92503" lon="6.53034">
        <ele>2460.044</ele>
        <time>2026-03-21T12:37:39Z</time>
      </trkpt>
      <trkpt lat="45.92503" lon="6.53034">
        <ele>2460.049</ele>
        <time>2026-03-21T12:37:44Z</time>
      </trkpt>
      <trkpt lat="45.92503" lon="6.53034">
        <ele>2460.05</ele>
        <time>2026-03-21T12:37:49Z</time>
      </trkpt>
      <trkpt lat="45.92503" lon="6.53034">
        <ele>2460.048</ele>
        <time>2026-03-21T12:37:54Z</time>
      </trkpt>
      <trkpt lat="45.92503" lon="6.53034">
        <ele>2460.048</ele>
        <time>2026-03-21T12:37:59Z</time>
      </trkpt>
      <trkpt lat="45.92503" lon="6.53034">
        <ele>2460.051</ele>
        <time>2026-03-21T12:38:04Z</time>
      </trkpt>
      <trkpt lat="45.92503" lon="6.53034">
        <ele>2460.052</ele>
        <time>2026-03-21T12:38:09Z</time>
      </trkpt>
      <trkpt lat="45.92503" lon="6.53034">
        <ele>2460.055</ele>
        <time>2026-03-21T12:38:14Z</time>
      </trkpt>
      <trkpt lat="45.92503" lon="6.53034">
        <ele>2460.056</ele>
        <time>2026-03-21T12:38:19Z</time>
      </trkpt>
      <trkpt lat="45.92503" lon="6.53034">
        <ele>2460.061</ele>
        <time>2026-03-21T12:38:24Z</time>
      </trkpt>
      <trkpt lat="45.92503" lon="6.53034">
        <ele>2460.062</ele>
        <time>2026-03-21T12:38:29Z</time>
      </trkpt>
      <trkpt lat="45.92503" lon="6.53034">
        <ele>2460.06</ele>
        <time>2026-03-21T12:38:34Z</time>
      </trkpt>
      <trkpt lat="45.92503" lon="6.53034">
        <ele>2460.06</ele>
        <time>2026-03-21T12:38:39Z</time>
      </trkpt>
      <trkpt lat="45.92503" lon="6.53034">
        <ele>2460.06</ele>
        <time>2026-03-21T12:38:44Z</time>
      </trkpt>
      <trkpt lat="45.92503" lon="6.53034">
        <ele>2460.06</ele>
        <time>2026-03-21T12:38:49Z</time>
      </trkpt>
      <trkpt lat="45.92503" lon="6.53034">
        <ele>2460.06</ele>
        <time>2026-03-21T12:38:54Z</time>
      </trkpt>
      <trkpt lat="45.92503" lon="6.53034">
        <ele>2460.056</ele>
        <time>2026-03-21T12:38:59Z</time>
      </trkpt>
      <trkpt lat="45.92503" lon="6.53034">
        <ele>2460.054</ele>
        <time>2026-03-21T12:39:04Z</time>
      </trkpt>
      <trkpt lat="45.92503" lon="6.53034">
        <ele>2460.053</ele>
        <time>2026-03-21T12:39:09Z</time>
      </trkpt>
      <trkpt lat="45.92503" lon="6.53034">
        <ele>2460.05</ele>
        <time>2026-03-21T12:39:14Z</time>
      </trkpt>
      <trkpt lat="45.92503" lon="6.53034">
        <ele>2460.043</ele>
        <time>2026-03-21T12:39:19Z</time>
      </trkpt>
      <trkpt lat="45.92503" lon="6.53034">
        <ele>2460.037</ele>
        <time>2026-03-21T12:39:24Z</time>
      </trkpt>
      <trkpt lat="45.92503" lon="6.53034">
        <ele>2460.035</ele>
        <time>2026-03-21T12:39:29Z</time>
      </trkpt>
      <trkpt lat="45.92503" lon="6.53034">
        <ele>2460.038</ele>
        <time>2026-03-21T12:39:34Z</time>
      </trkpt>
      <trkpt lat="45.92503" lon="6.53034">
        <ele>2460.039</ele>
        <time>2026-03-21T12:39:39Z</time>
      </trkpt>
      <trkpt lat="45.92503" lon="6.53034">
        <ele>2460.043</ele>
        <time>2026-03-21T12:39:44Z</time>
      </trkpt>
      <trkpt lat="45.92503" lon="6.53034">
        <ele>2460.043</ele>
        <time>2026-03-21T12:39:49Z</time>
      </trkpt>
      <trkpt lat="45.92503" lon="6.53034">
        <ele>2460.045</ele>
        <time>2026-03-21T12:39:54Z</time>
      </trkpt>
      <trkpt lat="45.92503" lon="6.53034">
        <ele>2460.047</ele>
        <time>2026-03-21T12:39:59Z</time>
      </trkpt>
      <trkpt lat="45.92503" lon="6.53034">
        <ele>2460.047</ele>
        <time>2026-03-21T12:40:04Z</time>
      </trkpt>
      <trkpt lat="45.92503" lon="6.53034">
        <ele>2460.049</ele>
        <time>2026-03-21T12:40:09Z</time>
      </trkpt>
      <trkpt lat="45.92503" lon="6.53034">
        <ele>2460.054</ele>
        <time>2026-03-21T12:40:14Z</time>
      </trkpt>
      <trkpt lat="45.92503" lon="6.53034">
        <ele>2460.057</ele>
        <time>2026-03-21T12:40:19Z</time>
      </trkpt>
      <trkpt lat="45.92503" lon="6.53034">
        <ele>2460.053</ele>
        <time>2026-03-21T12:40:24Z</time>
      </trkpt>
      <trkpt lat="45.92503" lon="6.53034">
        <ele>2460.051</ele>
        <time>2026-03-21T12:40:29Z</time>
      </trkpt>
      <trkpt lat="45.92503" lon="6.53034">
        <ele>2460.048</ele>
        <time>2026-03-21T12:40:34Z</time>
      </trkpt>
      <trkpt lat="45.92503" lon="6.53034">
        <ele>2460.048</ele>
        <time>2026-03-21T12:40:39Z</time>
      </trkpt>
      <trkpt lat="45.92503" lon="6.53034">
        <ele>2460.051</ele>
        <time>2026-03-21T12:40:44Z</time>
      </trkpt>
      <trkpt lat="45.92503" lon="6.53034">
        <ele>2459.669</ele>
        <time>2026-03-21T12:40:49Z</time>
      </trkpt>
      <trkpt lat="45.92503" lon="6.53034">
        <ele>2459.674</ele>
        <time>2026-03-21T12:40:54Z</time>
      </trkpt>
      <trkpt lat="45.92503" lon="6.53034">
        <ele>2459.677</ele>
        <time>2026-03-21T12:40:59Z</time>
      </trkpt>
      <trkpt lat="45.92503" lon="6.53034">
        <ele>2459.681</ele>
        <time>2026-03-21T12:41:04Z</time>
      </trkpt>
      <trkpt lat="45.92503" lon="6.53034">
        <ele>2459.686</ele>
        <time>2026-03-21T12:41:09Z</time>
      </trkpt>
      <trkpt lat="45.92503" lon="6.53034">
        <ele>2459.692</ele>
        <time>2026-03-21T12:41:14Z</time>
      </trkpt>
      <trkpt lat="45.92503" lon="6.53034">
        <ele>2459.693</ele>
        <time>2026-03-21T12:41:19Z</time>
      </trkpt>
      <trkpt lat="45.92503" lon="6.53034">
        <ele>2459.695</ele>
        <time>2026-03-21T12:41:24Z</time>
      </trkpt>
      <trkpt lat="45.92503" lon="6.53034">
        <ele>2459.696</ele>
        <time>2026-03-21T12:41:29Z</time>
      </trkpt>
      <trkpt lat="45.92503" lon="6.53034">
        <ele>2459.696</ele>
        <time>2026-03-21T12:41:34Z</time>
      </trkpt>
      <trkpt lat="45.92503" lon="6.53034">
        <ele>2459.693</ele>
        <time>2026-03-21T12:41:39Z</time>
      </trkpt>
      <trkpt lat="45.92503" lon="6.53034">
        <ele>2459.69</ele>
        <time>2026-03-21T12:41:44Z</time>
      </trkpt>
      <trkpt lat="45.92503" lon="6.53034">
        <ele>2459.69</ele>
        <time>2026-03-21T12:41:49Z</time>
      </trkpt>
      <trkpt lat="45.92503" lon="6.53034">
        <ele>2459.689</ele>
        <time>2026-03-21T12:41:54Z</time>
      </trkpt>
      <trkpt lat="45.92503" lon="6.53034">
        <ele>2459.688</ele>
        <time>2026-03-21T12:41:59Z</time>
      </trkpt>
      <trkpt lat="45.92503" lon="6.53034">
        <ele>2459.687</ele>
        <time>2026-03-21T12:42:04Z</time>
      </trkpt>
      <trkpt lat="45.92503" lon="6.53034">
        <ele>2459.69</ele>
        <time>2026-03-21T12:42:09Z</time>
      </trkpt>
      <trkpt lat="45.92503" lon="6.53034">
        <ele>2459.689</ele>
        <time>2026-03-21T12:42:14Z</time>
      </trkpt>
      <trkpt lat="45.92503" lon="6.53034">
        <ele>2459.686</ele>
        <time>2026-03-21T12:42:19Z</time>
      </trkpt>
      <trkpt lat="45.92503" lon="6.53034">
        <ele>2459.684</ele>
        <time>2026-03-21T12:42:24Z</time>
      </trkpt>
      <trkpt lat="45.92503" lon="6.53034">
        <ele>2459.679</ele>
        <time>2026-03-21T12:42:29Z</time>
      </trkpt>
      <trkpt lat="45.92503" lon="6.53034">
        <ele>2459.679</ele>
        <time>2026-03-21T12:42:34Z</time>
      </trkpt>
      <trkpt lat="45.92503" lon="6.53034">
        <ele>2459.68</ele>
        <time>2026-03-21T12:42:39Z</time>
      </trkpt>
      <trkpt lat="45.92503" lon="6.53034">
        <ele>2459.681</ele>
        <time>2026-03-21T12:42:44Z</time>
      </trkpt>
      <trkpt lat="45.92503" lon="6.53034">
        <ele>2459.683</ele>
        <time>2026-03-21T12:42:49Z</time>
      </trkpt>
      <trkpt lat="45.92503" lon="6.53034">
        <ele>2459.686</ele>
        <time>2026-03-21T12:42:54Z</time>
      </trkpt>
      <trkpt lat="45.92503" lon="6.53034">
        <ele>2459.688</ele>
        <time>2026-03-21T12:42:59Z</time>
      </trkpt>
      <trkpt lat="45.92503" lon="6.53034">
        <ele>2459.691</ele>
        <time>2026-03-21T12:43:04Z</time>
      </trkpt>
      <trkpt lat="45.92503" lon="6.53034">
        <ele>2459.69</ele>
        <time>2026-03-21T12:43:09Z</time>
      </trkpt>
      <trkpt lat="45.92503" lon="6.53034">
        <ele>2459.691</ele>
        <time>2026-03-21T12:43:14Z</time>
      </trkpt>
      <trkpt lat="45.92503" lon="6.53034">
        <ele>2459.694</ele>
        <time>2026-03-21T12:43:19Z</time>
      </trkpt>
      <trkpt lat="45.92503" lon="6.53034">
        <ele>2459.69</ele>
        <time>2026-03-21T12:43:24Z</time>
      </trkpt>
      <trkpt lat="45.92503" lon="6.53034">
        <ele>2459.689</ele>
        <time>2026-03-21T12:43:29Z</time>
      </trkpt>
      <trkpt lat="45.92503" lon="6.53034">
        <ele>2459.69</ele>
        <time>2026-03-21T12:43:34Z</time>
      </trkpt>
      <trkpt lat="45.92503" lon="6.53034">
        <ele>2459.689</ele>
        <time>2026-03-21T12:43:39Z</time>
      </trkpt>
      <trkpt lat="45.92503" lon="6.53034">
        <ele>2459.689</ele>
        <time>2026-03-21T12:43:44Z</time>
      </trkpt>
      <trkpt lat="45.92503" lon="6.53034">
        <ele>2459.692</ele>
        <time>2026-03-21T12:43:49Z</time>
      </trkpt>
      <trkpt lat="45.92503" lon="6.53034">
        <ele>2459.69</ele>
        <time>2026-03-21T12:43:54Z</time>
      </trkpt>
      <trkpt lat="45.92503" lon="6.53034">
        <ele>2459.687</ele>
        <time>2026-03-21T12:43:59Z</time>
      </trkpt>
      <trkpt lat="45.92503" lon="6.53034">
        <ele>2459.692</ele>
        <time>2026-03-21T12:44:04Z</time>
      </trkpt>
      <trkpt lat="45.92503" lon="6.53034">
        <ele>2459.694</ele>
        <time>2026-03-21T12:44:09Z</time>
      </trkpt>
      <trkpt lat="45.92503" lon="6.53034">
        <ele>2459.692</ele>
        <time>2026-03-21T12:44:14Z</time>
      </trkpt>
      <trkpt lat="45.92503" lon="6.53034">
        <ele>2459.691</ele>
        <time>2026-03-21T12:44:19Z</time>
      </trkpt>
      <trkpt lat="45.92503" lon="6.53034">
        <ele>2459.69</ele>
        <time>2026-03-21T12:44:24Z</time>
      </trkpt>
      <trkpt lat="45.92503" lon="6.53034">
        <ele>2459.688</ele>
        <time>2026-03-21T12:44:29Z</time>
      </trkpt>
      <trkpt lat="45.92503" lon="6.53034">
        <ele>2459.688</ele>
        <time>2026-03-21T12:44:34Z</time>
      </trkpt>
      <trkpt lat="45.92503" lon="6.53034">
        <ele>2459.686</ele>
        <time>2026-03-21T12:44:39Z</time>
      </trkpt>
      <trkpt lat="45.92503" lon="6.53034">
        <ele>2459.685</ele>
        <time>2026-03-21T12:44:44Z</time>
      </trkpt>
      <trkpt lat="45.92503" lon="6.53034">
        <ele>2459.686</ele>
        <time>2026-03-21T12:44:49Z</time>
      </trkpt>
      <trkpt lat="45.92503" lon="6.53034">
        <ele>2459.686</ele>
        <time>2026-03-21T12:44:54Z</time>
      </trkpt>
      <trkpt lat="45.92503" lon="6.53034">
        <ele>2459.687</ele>
        <time>2026-03-21T12:44:59Z</time>
      </trkpt>
      <trkpt lat="45.92503" lon="6.53034">
        <ele>2459.686</ele>
        <time>2026-03-21T12:45:04Z</time>
      </trkpt>
      <trkpt lat="45.92503" lon="6.53034">
        <ele>2459.685</ele>
        <time>2026-03-21T12:45:09Z</time>
      </trkpt>
      <trkpt lat="45.92503" lon="6.53034">
        <ele>2459.685</ele>
        <time>2026-03-21T12:45:14Z</time>
      </trkpt>
      <trkpt lat="45.92503" lon="6.53034">
        <ele>2459.684</ele>
        <time>2026-03-21T12:45:19Z</time>
      </trkpt>
      <trkpt lat="45.92503" lon="6.53034">
        <ele>2459.684</ele>
        <time>2026-03-21T12:45:24Z</time>
      </trkpt>
      <trkpt lat="45.92503" lon="6.53034">
        <ele>2459.689</ele>
        <time>2026-03-21T12:45:29Z</time>
      </trkpt>
      <trkpt lat="45.92503" lon="6.53034">
        <ele>2459.688</ele>
        <time>2026-03-21T12:45:34Z</time>
      </trkpt>
      <trkpt lat="45.92503" lon="6.53034">
        <ele>2459.687</ele>
        <time>2026-03-21T12:45:39Z</time>
      </trkpt>
      <trkpt lat="45.92503" lon="6.53034">
        <ele>2459.684</ele>
        <time>2026-03-21T12:45:44Z</time>
      </trkpt>
      <trkpt lat="45.92503" lon="6.53034">
        <ele>2459.684</ele>
        <time>2026-03-21T12:45:49Z</time>
      </trkpt>
      <trkpt lat="45.92503" lon="6.53034">
        <ele>2459.684</ele>
        <time>2026-03-21T12:45:54Z</time>
      </trkpt>
      <trkpt lat="45.92503" lon="6.53034">
        <ele>2459.681</ele>
        <time>2026-03-21T12:45:59Z</time>
      </trkpt>
      <trkpt lat="45.92503" lon="6.53034">
        <ele>2459.679</ele>
        <time>2026-03-21T12:46:04Z</time>
      </trkpt>
      <trkpt lat="45.92503" lon="6.53034">
        <ele>2459.679</ele>
        <time>2026-03-21T12:46:09Z</time>
      </trkpt>
      <trkpt lat="45.92503" lon="6.53034">
        <ele>2459.677</ele>
        <time>2026-03-21T12:46:14Z</time>
      </trkpt>
      <trkpt lat="45.92503" lon="6.53034">
        <ele>2459.676</ele>
        <time>2026-03-21T12:46:19Z</time>
      </trkpt>
      <trkpt lat="45.92503" lon="6.53034">
        <ele>2459.672</ele>
        <time>2026-03-21T12:46:24Z</time>
      </trkpt>
      <trkpt lat="45.92503" lon="6.53034">
        <ele>2459.671</ele>
        <time>2026-03-21T12:46:29Z</time>
      </trkpt>
      <trkpt lat="45.92503" lon="6.53034">
        <ele>2459.67</ele>
        <time>2026-03-21T12:46:34Z</time>
      </trkpt>
      <trkpt lat="45.92503" lon="6.53034">
        <ele>2459.668</ele>
        <time>2026-03-21T12:46:39Z</time>
      </trkpt>
      <trkpt lat="45.92503" lon="6.53034">
        <ele>2459.668</ele>
        <time>2026-03-21T12:46:44Z</time>
      </trkpt>
      <trkpt lat="45.92503" lon="6.53034">
        <ele>2459.666</ele>
        <time>2026-03-21T12:46:49Z</time>
      </trkpt>
      <trkpt lat="45.92503" lon="6.53034">
        <ele>2459.671</ele>
        <time>2026-03-21T12:46:54Z</time>
      </trkpt>
      <trkpt lat="45.92503" lon="6.53034">
        <ele>2459.669</ele>
        <time>2026-03-21T12:46:59Z</time>
      </trkpt>
      <trkpt lat="45.92503" lon="6.53034">
        <ele>2459.666</ele>
        <time>2026-03-21T12:47:04Z</time>
      </trkpt>
      <trkpt lat="45.92503" lon="6.53034">
        <ele>2459.662</ele>
        <time>2026-03-21T12:47:09Z</time>
      </trkpt>
      <trkpt lat="45.92503" lon="6.53034">
        <ele>2459.665</ele>
        <time>2026-03-21T12:47:14Z</time>
      </trkpt>
      <trkpt lat="45.92503" lon="6.53034">
        <ele>2459.668</ele>
        <time>2026-03-21T12:47:19Z</time>
      </trkpt>
      <trkpt lat="45.92503" lon="6.53034">
        <ele>2459.67</ele>
        <time>2026-03-21T12:47:24Z</time>
      </trkpt>
      <trkpt lat="45.92503" lon="6.53034">
        <ele>2459.672</ele>
        <time>2026-03-21T12:47:29Z</time>
      </trkpt>
      <trkpt lat="45.92503" lon="6.53034">
        <ele>2459.674</ele>
        <time>2026-03-21T12:47:34Z</time>
      </trkpt>
      <trkpt lat="45.92503" lon="6.53034">
        <ele>2459.677</ele>
        <time>2026-03-21T12:47:39Z</time>
      </trkpt>
      <trkpt lat="45.92503" lon="6.53034">
        <ele>2459.679</ele>
        <time>2026-03-21T12:47:44Z</time>
      </trkpt>
      <trkpt lat="45.92503" lon="6.53034">
        <ele>2459.681</ele>
        <time>2026-03-21T12:47:49Z</time>
      </trkpt>
      <trkpt lat="45.92503" lon="6.53034">
        <ele>2459.681</ele>
        <time>2026-03-21T12:47:54Z</time>
      </trkpt>
      <trkpt lat="45.92503" lon="6.53034">
        <ele>2459.682</ele>
        <time>2026-03-21T12:47:59Z</time>
      </trkpt>
      <trkpt lat="45.92503" lon="6.53034">
        <ele>2463.534</ele>
        <time>2026-03-21T12:48:04Z</time>
      </trkpt>
      <trkpt lat="45.92503" lon="6.53034">
        <ele>2461.87</ele>
        <time>2026-03-21T12:48:09Z</time>
      </trkpt>
      <trkpt lat="45.92503" lon="6.53034">
        <ele>2461.872</ele>
        <time>2026-03-21T12:48:14Z</time>
      </trkpt>
      <trkpt lat="45.92503" lon="6.53034">
        <ele>2461.873</ele>
        <time>2026-03-21T12:48:19Z</time>
      </trkpt>
      <trkpt lat="45.92503" lon="6.53034">
        <ele>2461.856</ele>
        <time>2026-03-21T12:48:24Z</time>
      </trkpt>
      <trkpt lat="45.92503" lon="6.53034">
        <ele>2461.864</ele>
        <time>2026-03-21T12:48:29Z</time>
      </trkpt>
      <trkpt lat="45.92503" lon="6.53034">
        <ele>2461.859</ele>
        <time>2026-03-21T12:48:34Z</time>
      </trkpt>
      <trkpt lat="45.92503" lon="6.53034">
        <ele>2461.858</ele>
        <time>2026-03-21T12:48:39Z</time>
      </trkpt>
      <trkpt lat="45.92503" lon="6.53034">
        <ele>2461.862</ele>
        <time>2026-03-21T12:48:44Z</time>
      </trkpt>
      <trkpt lat="45.92503" lon="6.53034">
        <ele>2461.866</ele>
        <time>2026-03-21T12:48:49Z</time>
      </trkpt>
      <trkpt lat="45.92503" lon="6.53034">
        <ele>2461.868</ele>
        <time>2026-03-21T12:48:54Z</time>
      </trkpt>
      <trkpt lat="45.92503" lon="6.53034">
        <ele>2461.874</ele>
        <time>2026-03-21T12:48:59Z</time>
      </trkpt>
      <trkpt lat="45.92503" lon="6.53034">
        <ele>2461.887</ele>
        <time>2026-03-21T12:49:04Z</time>
      </trkpt>
      <trkpt lat="45.92503" lon="6.53034">
        <ele>2461.897</ele>
        <time>2026-03-21T12:49:09Z</time>
      </trkpt>
      <trkpt lat="45.92503" lon="6.53034">
        <ele>2461.906</ele>
        <time>2026-03-21T12:49:14Z</time>
      </trkpt>
      <trkpt lat="45.92503" lon="6.53034">
        <ele>2461.908</ele>
        <time>2026-03-21T12:49:19Z</time>
      </trkpt>
      <trkpt lat="45.92503" lon="6.53034">
        <ele>2461.994</ele>
        <time>2026-03-21T12:49:24Z</time>
      </trkpt>
      <trkpt lat="45.92503" lon="6.53034">
        <ele>2461.266</ele>
        <time>2026-03-21T12:49:29Z</time>
      </trkpt>
      <trkpt lat="45.92503" lon="6.53034">
        <ele>2462.561</ele>
        <time>2026-03-21T12:49:34Z</time>
      </trkpt>
      <trkpt lat="45.92503" lon="6.53034">
        <ele>2463.019</ele>
        <time>2026-03-21T12:49:39Z</time>
      </trkpt>
      <trkpt lat="45.92503" lon="6.53034">
        <ele>2462.736</ele>
        <time>2026-03-21T12:49:44Z</time>
      </trkpt>
      <trkpt lat="45.92503" lon="6.53034">
        <ele>2462.381</ele>
        <time>2026-03-21T12:49:49Z</time>
      </trkpt>
      <trkpt lat="45.92503" lon="6.53034">
        <ele>2462.385</ele>
        <time>2026-03-21T12:49:54Z</time>
      </trkpt>
      <trkpt lat="45.92503" lon="6.53034">
        <ele>2462.452</ele>
        <time>2026-03-21T12:49:59Z</time>
      </trkpt>
      <trkpt lat="45.92503" lon="6.53034">
        <ele>2462.462</ele>
        <time>2026-03-21T12:50:04Z</time>
      </trkpt>
      <trkpt lat="45.92503" lon="6.53034">
        <ele>2462.463</ele>
        <time>2026-03-21T12:50:09Z</time>
      </trkpt>
      <trkpt lat="45.92503" lon="6.53034">
        <ele>2461.759</ele>
        <time>2026-03-21T12:50:14Z</time>
      </trkpt>
      <trkpt lat="45.92503" lon="6.53034">
        <ele>2462.44</ele>
        <time>2026-03-21T12:50:19Z</time>
      </trkpt>
      <trkpt lat="45.92503" lon="6.53034">
        <ele>2460.644</ele>
        <time>2026-03-21T12:50:24Z</time>
      </trkpt>
      <trkpt lat="45.92503" lon="6.53034">
        <ele>2460.07</ele>
        <time>2026-03-21T12:50:29Z</time>
      </trkpt>
      <trkpt lat="45.92503" lon="6.53034">
        <ele>2459.531</ele>
        <time>2026-03-21T12:50:34Z</time>
      </trkpt>
      <trkpt lat="45.92503" lon="6.53034">
        <ele>2456.701</ele>
        <time>2026-03-21T12:50:39Z</time>
      </trkpt>
      <trkpt lat="45.92503" lon="6.53034">
        <ele>2455.553</ele>
        <time>2026-03-21T12:50:44Z</time>
      </trkpt>
      <trkpt lat="45.92503" lon="6.53034">
        <ele>2455.043</ele>
        <time>2026-03-21T12:50:49Z</time>
      </trkpt>
      <trkpt lat="45.92503" lon="6.53034">
        <ele>2456.267</ele>
        <time>2026-03-21T12:50:54Z</time>
      </trkpt>
      <trkpt lat="45.92503" lon="6.53034">
        <ele>2458.158</ele>
        <time>2026-03-21T12:50:59Z</time>
      </trkpt>
      <trkpt lat="45.92503" lon="6.53034">
        <ele>2456.781</ele>
        <time>2026-03-21T12:51:04Z</time>
      </trkpt>
      <trkpt lat="45.92503" lon="6.53034">
        <ele>2453.085</ele>
        <time>2026-03-21T12:51:09Z</time>
      </trkpt>
      <trkpt lat="45.92503" lon="6.53034">
        <ele>2452.374</ele>
        <time>2026-03-21T12:51:14Z</time>
      </trkpt>
      <trkpt lat="45.92503" lon="6.53034">
        <ele>2455.947</ele>
        <time>2026-03-21T12:51:19Z</time>
      </trkpt>
      <trkpt lat="45.92503" lon="6.53034">
        <ele>2456.141</ele>
        <time>2026-03-21T12:51:24Z</time>
      </trkpt>
      <trkpt lat="45.92503" lon="6.53034">
        <ele>2459.282</ele>
        <time>2026-03-21T12:51:29Z</time>
      </trkpt>
      <trkpt lat="45.92503" lon="6.53034">
        <ele>2459.496</ele>
        <time>2026-03-21T12:51:34Z</time>
      </trkpt>
      <trkpt lat="45.92503" lon="6.53034">
        <ele>2459.952</ele>
        <time>2026-03-21T12:51:39Z</time>
      </trkpt>
      <trkpt lat="45.92503" lon="6.53034">
        <ele>2461.562</ele>
        <time>2026-03-21T12:51:44Z</time>
      </trkpt>
      <trkpt lat="45.92503" lon="6.53034">
        <ele>2462.73</ele>
        <time>2026-03-21T12:51:49Z</time>
      </trkpt>
      <trkpt lat="45.92503" lon="6.53034">
        <ele>2461.082</ele>
        <time>2026-03-21T12:51:54Z</time>
      </trkpt>
      <trkpt lat="45.92503" lon="6.53034">
        <ele>2461.066</ele>
        <time>2026-03-21T12:51:59Z</time>
      </trkpt>
      <trkpt lat="45.92503" lon="6.53034">
        <ele>2461.077</ele>
        <time>2026-03-21T12:52:04Z</time>
      </trkpt>
      <trkpt lat="45.92503" lon="6.53034">
        <ele>2461.061</ele>
        <time>2026-03-21T12:52:09Z</time>
      </trkpt>
      <trkpt lat="45.92503" lon="6.53034">
        <ele>2461.564</ele>
        <time>2026-03-21T12:52:14Z</time>
      </trkpt>
      <trkpt lat="45.92503" lon="6.53034">
        <ele>2461.531</ele>
        <time>2026-03-21T12:52:19Z</time>
      </trkpt>
      <trkpt lat="45.92503" lon="6.53034">
        <ele>2461.529</ele>
        <time>2026-03-21T12:52:24Z</time>
      </trkpt>
      <trkpt lat="45.92503" lon="6.53034">
        <ele>2461.509</ele>
        <time>2026-03-21T12:52:29Z</time>
      </trkpt>
      <trkpt lat="45.92503" lon="6.53034">
        <ele>2461.512</ele>
        <time>2026-03-21T12:52:34Z</time>
      </trkpt>
      <trkpt lat="45.92503" lon="6.53034">
        <ele>2461.51</ele>
        <time>2026-03-21T12:52:39Z</time>
      </trkpt>
      <trkpt lat="45.92503" lon="6.53034">
        <ele>2461.517</ele>
        <time>2026-03-21T12:52:44Z</time>
      </trkpt>
      <trkpt lat="45.92503" lon="6.53034">
        <ele>2461.16</ele>
        <time>2026-03-21T12:52:49Z</time>
      </trkpt>
      <trkpt lat="45.92503" lon="6.53034">
        <ele>2460.899</ele>
        <time>2026-03-21T12:52:54Z</time>
      </trkpt>
      <trkpt lat="45.92503" lon="6.53034">
        <ele>2461.024</ele>
        <time>2026-03-21T12:52:59Z</time>
      </trkpt>
      <trkpt lat="45.92503" lon="6.53034">
        <ele>2461.071</ele>
        <time>2026-03-21T12:53:04Z</time>
      </trkpt>
      <trkpt lat="45.92503" lon="6.53034">
        <ele>2461.029</ele>
        <time>2026-03-21T12:53:09Z</time>
      </trkpt>
      <trkpt lat="45.92503" lon="6.53034">
        <ele>2461.177</ele>
        <time>2026-03-21T12:53:14Z</time>
      </trkpt>
      <trkpt lat="45.92503" lon="6.53034">
        <ele>2462.57</ele>
        <time>2026-03-21T12:53:19Z</time>
      </trkpt>
      <trkpt lat="45.92503" lon="6.53034">
        <ele>2462.04</ele>
        <time>2026-03-21T12:53:24Z</time>
      </trkpt>
      <trkpt lat="45.92503" lon="6.53034">
        <ele>2462.074</ele>
        <time>2026-03-21T12:53:29Z</time>
      </trkpt>
      <trkpt lat="45.92503" lon="6.53034">
        <ele>2462.027</ele>
        <time>2026-03-21T12:53:34Z</time>
      </trkpt>
      <trkpt lat="45.92503" lon="6.53034">
        <ele>2462.033</ele>
        <time>2026-03-21T12:53:39Z</time>
      </trkpt>
      <trkpt lat="45.92503" lon="6.53034">
        <ele>2462.051</ele>
        <time>2026-03-21T12:53:44Z</time>
      </trkpt>
      <trkpt lat="45.92503" lon="6.53034">
        <ele>2462.043</ele>
        <time>2026-03-21T12:53:49Z</time>
      </trkpt>
      <trkpt lat="45.92503" lon="6.53034">
        <ele>2461.995</ele>
        <time>2026-03-21T12:53:54Z</time>
      </trkpt>
      <trkpt lat="45.92503" lon="6.53034">
        <ele>2461.999</ele>
        <time>2026-03-21T12:53:59Z</time>
      </trkpt>
      <trkpt lat="45.92503" lon="6.53034">
        <ele>2462.684</ele>
        <time>2026-03-21T12:54:04Z</time>
      </trkpt>
      <trkpt lat="45.92503" lon="6.53034">
        <ele>2462.594</ele>
        <time>2026-03-21T12:54:09Z</time>
      </trkpt>
      <trkpt lat="45.92503" lon="6.53034">
        <ele>2462.187</ele>
        <time>2026-03-21T12:54:14Z</time>
      </trkpt>
      <trkpt lat="45.92503" lon="6.53034">
        <ele>2462.136</ele>
        <time>2026-03-21T12:54:19Z</time>
      </trkpt>
      <trkpt lat="45.92503" lon="6.53034">
        <ele>2461.114</ele>
        <time>2026-03-21T12:54:24Z</time>
      </trkpt>
      <trkpt lat="45.92503" lon="6.53034">
        <ele>2459.141</ele>
        <time>2026-03-21T12:54:29Z</time>
      </trkpt>
      <trkpt lat="45.92503" lon="6.53034">
        <ele>2458.447</ele>
        <time>2026-03-21T12:54:34Z</time>
      </trkpt>
      <trkpt lat="45.92503" lon="6.53034">
        <ele>2458.506</ele>
        <time>2026-03-21T12:54:39Z</time>
      </trkpt>
      <trkpt lat="45.92503" lon="6.53034">
        <ele>2458.672</ele>
        <time>2026-03-21T12:54:44Z</time>
      </trkpt>
      <trkpt lat="45.92503" lon="6.53034">
        <ele>2458.667</ele>
        <time>2026-03-21T12:54:49Z</time>
      </trkpt>
      <trkpt lat="45.92503" lon="6.53034">
        <ele>2460.2</ele>
        <time>2026-03-21T12:54:54Z</time>
      </trkpt>
      <trkpt lat="45.92503" lon="6.53034">
        <ele>2461.588</ele>
        <time>2026-03-21T12:54:59Z</time>
      </trkpt>
      <trkpt lat="45.92503" lon="6.53034">
        <ele>2461.143</ele>
        <time>2026-03-21T12:55:04Z</time>
      </trkpt>
      <trkpt lat="45.92503" lon="6.53034">
        <ele>2461.006</ele>
        <time>2026-03-21T12:55:09Z</time>
      </trkpt>
      <trkpt lat="45.92503" lon="6.53034">
        <ele>2461.121</ele>
        <time>2026-03-21T12:55:14Z</time>
      </trkpt>
      <trkpt lat="45.92503" lon="6.53034">
        <ele>2461.131</ele>
        <time>2026-03-21T12:55:19Z</time>
      </trkpt>
      <trkpt lat="45.92503" lon="6.53034">
        <ele>2461.139</ele>
        <time>2026-03-21T12:55:24Z</time>
      </trkpt>
      <trkpt lat="45.92503" lon="6.53034">
        <ele>2461.178</ele>
        <time>2026-03-21T12:55:29Z</time>
      </trkpt>
      <trkpt lat="45.92503" lon="6.53034">
        <ele>2461.175</ele>
        <time>2026-03-21T12:55:34Z</time>
      </trkpt>
      <trkpt lat="45.92503" lon="6.53034">
        <ele>2461.145</ele>
        <time>2026-03-21T12:55:39Z</time>
      </trkpt>
      <trkpt lat="45.92503" lon="6.53034">
        <ele>2461.14</ele>
        <time>2026-03-21T12:55:44Z</time>
      </trkpt>
      <trkpt lat="45.92503" lon="6.53034">
        <ele>2460.978</ele>
        <time>2026-03-21T12:55:49Z</time>
      </trkpt>
      <trkpt lat="45.92503" lon="6.53034">
        <ele>2460.98</ele>
        <time>2026-03-21T12:55:54Z</time>
      </trkpt>
      <trkpt lat="45.92503" lon="6.53034">
        <ele>2460.775</ele>
        <time>2026-03-21T12:55:59Z</time>
      </trkpt>
      <trkpt lat="45.92503" lon="6.53034">
        <ele>2460.622</ele>
        <time>2026-03-21T12:56:04Z</time>
      </trkpt>
      <trkpt lat="45.92503" lon="6.53034">
        <ele>2460.104</ele>
        <time>2026-03-21T12:56:09Z</time>
      </trkpt>
      <trkpt lat="45.92503" lon="6.53034">
        <ele>2459.121</ele>
        <time>2026-03-21T12:56:14Z</time>
      </trkpt>
      <trkpt lat="45.92503" lon="6.53034">
        <ele>2459.165</ele>
        <time>2026-03-21T12:56:19Z</time>
      </trkpt>
      <trkpt lat="45.92503" lon="6.53034">
        <ele>2459.248</ele>
        <time>2026-03-21T12:56:24Z</time>
      </trkpt>
      <trkpt lat="45.92503" lon="6.53034">
        <ele>2459.292</ele>
        <time>2026-03-21T12:56:29Z</time>
      </trkpt>
      <trkpt lat="45.92503" lon="6.53034">
        <ele>2459.264</ele>
        <time>2026-03-21T12:56:34Z</time>
      </trkpt>
      <trkpt lat="45.92503" lon="6.53034">
        <ele>2459.283</ele>
        <time>2026-03-21T12:56:39Z</time>
      </trkpt>
      <trkpt lat="45.92503" lon="6.53034">
        <ele>2459.284</ele>
        <time>2026-03-21T12:56:44Z</time>
      </trkpt>
      <trkpt lat="45.92503" lon="6.53034">
        <ele>2459.265</ele>
        <time>2026-03-21T12:56:49Z</time>
      </trkpt>
      <trkpt lat="45.92503" lon="6.53034">
        <ele>2459.285</ele>
        <time>2026-03-21T12:56:54Z</time>
      </trkpt>
      <trkpt lat="45.92503" lon="6.53034">
        <ele>2459.355</ele>
        <time>2026-03-21T12:56:59Z</time>
      </trkpt>
      <trkpt lat="45.92503" lon="6.53034">
        <ele>2459.367</ele>
        <time>2026-03-21T12:57:04Z</time>
      </trkpt>
      <trkpt lat="45.92503" lon="6.53034">
        <ele>2459.368</ele>
        <time>2026-03-21T12:57:09Z</time>
      </trkpt>
      <trkpt lat="45.92503" lon="6.53034">
        <ele>2459.373</ele>
        <time>2026-03-21T12:57:14Z</time>
      </trkpt>
      <trkpt lat="45.92503" lon="6.53034">
        <ele>2459.371</ele>
        <time>2026-03-21T12:57:19Z</time>
      </trkpt>
      <trkpt lat="45.92503" lon="6.53034">
        <ele>2459.375</ele>
        <time>2026-03-21T12:57:24Z</time>
      </trkpt>
      <trkpt lat="45.92503" lon="6.53034">
        <ele>2459.375</ele>
        <time>2026-03-21T12:57:29Z</time>
      </trkpt>
      <trkpt lat="45.92503" lon="6.53034">
        <ele>2459.376</ele>
        <time>2026-03-21T12:57:34Z</time>
      </trkpt>
      <trkpt lat="45.92503" lon="6.53034">
        <ele>2459.382</ele>
        <time>2026-03-21T12:57:39Z</time>
      </trkpt>
      <trkpt lat="45.92503" lon="6.53034">
        <ele>2459.391</ele>
        <time>2026-03-21T12:57:44Z</time>
      </trkpt>
      <trkpt lat="45.92503" lon="6.53034">
        <ele>2459.384</ele>
        <time>2026-03-21T12:57:49Z</time>
      </trkpt>
      <trkpt lat="45.92503" lon="6.53034">
        <ele>2459.379</ele>
        <time>2026-03-21T12:57:54Z</time>
      </trkpt>
      <trkpt lat="45.92503" lon="6.53034">
        <ele>2459.383</ele>
        <time>2026-03-21T12:57:59Z</time>
      </trkpt>
      <trkpt lat="45.92503" lon="6.53034">
        <ele>2459.383</ele>
        <time>2026-03-21T12:58:04Z</time>
      </trkpt>
      <trkpt lat="45.92503" lon="6.53034">
        <ele>2459.386</ele>
        <time>2026-03-21T12:58:09Z</time>
      </trkpt>
      <trkpt lat="45.92503" lon="6.53034">
        <ele>2459.388</ele>
        <time>2026-03-21T12:58:14Z</time>
      </trkpt>
      <trkpt lat="45.92503" lon="6.53034">
        <ele>2459.393</ele>
        <time>2026-03-21T12:58:19Z</time>
      </trkpt>
      <trkpt lat="45.92503" lon="6.53034">
        <ele>2459.407</ele>
        <time>2026-03-21T12:58:24Z</time>
      </trkpt>
      <trkpt lat="45.92503" lon="6.53034">
        <ele>2459.408</ele>
        <time>2026-03-21T12:58:29Z</time>
      </trkpt>
      <trkpt lat="45.92503" lon="6.53034">
        <ele>2459.423</ele>
        <time>2026-03-21T12:58:34Z</time>
      </trkpt>
      <trkpt lat="45.92503" lon="6.53034">
        <ele>2459.435</ele>
        <time>2026-03-21T12:58:39Z</time>
      </trkpt>
      <trkpt lat="45.92503" lon="6.53034">
        <ele>2459.435</ele>
        <time>2026-03-21T12:58:44Z</time>
      </trkpt>
      <trkpt lat="45.92503" lon="6.53034">
        <ele>2459.437</ele>
        <time>2026-03-21T12:58:49Z</time>
      </trkpt>
      <trkpt lat="45.92503" lon="6.53034">
        <ele>2459.447</ele>
        <time>2026-03-21T12:58:54Z</time>
      </trkpt>
      <trkpt lat="45.92503" lon="6.53034">
        <ele>2459.445</ele>
        <time>2026-03-21T12:58:59Z</time>
      </trkpt>
      <trkpt lat="45.92503" lon="6.53034">
        <ele>2459.452</ele>
        <time>2026-03-21T12:59:04Z</time>
      </trkpt>
      <trkpt lat="45.92503" lon="6.53034">
        <ele>2459.452</ele>
        <time>2026-03-21T12:59:09Z</time>
      </trkpt>
      <trkpt lat="45.92503" lon="6.53034">
        <ele>2460.284</ele>
        <time>2026-03-21T12:59:14Z</time>
      </trkpt>
      <trkpt lat="45.92503" lon="6.53034">
        <ele>2459.913</ele>
        <time>2026-03-21T12:59:19Z</time>
      </trkpt>
      <trkpt lat="45.92503" lon="6.53034">
        <ele>2459.983</ele>
        <time>2026-03-21T12:59:24Z</time>
      </trkpt>
      <trkpt lat="45.92503" lon="6.53034">
        <ele>2459.945</ele>
        <time>2026-03-21T12:59:29Z</time>
      </trkpt>
      <trkpt lat="45.92503" lon="6.53034">
        <ele>2459.81</ele>
        <time>2026-03-21T12:59:34Z</time>
      </trkpt>
      <trkpt lat="45.92503" lon="6.53034">
        <ele>2459.697</ele>
        <time>2026-03-21T12:59:39Z</time>
      </trkpt>
      <trkpt lat="45.92503" lon="6.53034">
        <ele>2459.745</ele>
        <time>2026-03-21T12:59:44Z</time>
      </trkpt>
      <trkpt lat="45.92503" lon="6.53034">
        <ele>2459.645</ele>
        <time>2026-03-21T12:59:49Z</time>
      </trkpt>
      <trkpt lat="45.92503" lon="6.53034">
        <ele>2459.964</ele>
        <time>2026-03-21T12:59:54Z</time>
      </trkpt>
      <trkpt lat="45.92503" lon="6.53034">
        <ele>2459.348</ele>
        <time>2026-03-21T12:59:59Z</time>
      </trkpt>
      <trkpt lat="45.92503" lon="6.53034">
        <ele>2459.734</ele>
        <time>2026-03-21T13:00:04Z</time>
      </trkpt>
      <trkpt lat="45.92503" lon="6.53034">
        <ele>2459.824</ele>
        <time>2026-03-21T13:00:09Z</time>
      </trkpt>
      <trkpt lat="45.92503" lon="6.53034">
        <ele>2459.713</ele>
        <time>2026-03-21T13:00:14Z</time>
      </trkpt>
      <trkpt lat="45.92503" lon="6.53034">
        <ele>2459.697</ele>
        <time>2026-03-21T13:00:19Z</time>
      </trkpt>
      <trkpt lat="45.92503" lon="6.53034">
        <ele>2459.685</ele>
        <time>2026-03-21T13:00:24Z</time>
      </trkpt>
      <trkpt lat="45.92503" lon="6.53034">
        <ele>2459.746</ele>
        <time>2026-03-21T13:00:29Z</time>
      </trkpt>
      <trkpt lat="45.92503" lon="6.53034">
        <ele>2459.938</ele>
        <time>2026-03-21T13:00:34Z</time>
      </trkpt>
      <trkpt lat="45.92503" lon="6.53034">
        <ele>2458.383</ele>
        <time>2026-03-21T13:00:39Z</time>
      </trkpt>
      <trkpt lat="45.92503" lon="6.53034">
        <ele>2458.152</ele>
        <time>2026-03-21T13:00:44Z</time>
      </trkpt>
      <trkpt lat="45.92503" lon="6.53034">
        <ele>2457.35</ele>
        <time>2026-03-21T13:00:49Z</time>
      </trkpt>
      <trkpt lat="45.92503" lon="6.53034">
        <ele>2457.346</ele>
        <time>2026-03-21T13:00:54Z</time>
      </trkpt>
      <trkpt lat="45.92503" lon="6.53034">
        <ele>2457.377</ele>
        <time>2026-03-21T13:00:59Z</time>
      </trkpt>
      <trkpt lat="45.92503" lon="6.53034">
        <ele>2457.513</ele>
        <time>2026-03-21T13:01:04Z</time>
      </trkpt>
      <trkpt lat="45.92503" lon="6.53034">
        <ele>2457.506</ele>
        <time>2026-03-21T13:01:09Z</time>
      </trkpt>
      <trkpt lat="45.92503" lon="6.53034">
        <ele>2457.511</ele>
        <time>2026-03-21T13:01:14Z</time>
      </trkpt>
      <trkpt lat="45.92503" lon="6.53034">
        <ele>2457.517</ele>
        <time>2026-03-21T13:01:19Z</time>
      </trkpt>
      <trkpt lat="45.92503" lon="6.53034">
        <ele>2457.522</ele>
        <time>2026-03-21T13:01:24Z</time>
      </trkpt>
      <trkpt lat="45.92503" lon="6.53034">
        <ele>2459.194</ele>
        <time>2026-03-21T13:01:29Z</time>
      </trkpt>
      <trkpt lat="45.92503" lon="6.53034">
        <ele>2459.771</ele>
        <time>2026-03-21T13:01:34Z</time>
      </trkpt>
      <trkpt lat="45.92503" lon="6.53034">
        <ele>2461.597</ele>
        <time>2026-03-21T13:01:39Z</time>
      </trkpt>
      <trkpt lat="45.92503" lon="6.53034">
        <ele>2462.533</ele>
        <time>2026-03-21T13:01:44Z</time>
      </trkpt>
      <trkpt lat="45.92503" lon="6.53034">
        <ele>2462.291</ele>
        <time>2026-03-21T13:01:49Z</time>
      </trkpt>
      <trkpt lat="45.92503" lon="6.53034">
        <ele>2462.001</ele>
        <time>2026-03-21T13:01:54Z</time>
      </trkpt>
      <trkpt lat="45.92503" lon="6.53034">
        <ele>2461.25</ele>
        <time>2026-03-21T13:01:59Z</time>
      </trkpt>
      <trkpt lat="45.92503" lon="6.53034">
        <ele>2460.659</ele>
        <time>2026-03-21T13:02:04Z</time>
      </trkpt>
      <trkpt lat="45.92503" lon="6.53034">
        <ele>2459.406</ele>
        <time>2026-03-21T13:02:09Z</time>
      </trkpt>
      <trkpt lat="45.92503" lon="6.53034">
        <ele>2459.151</ele>
        <time>2026-03-21T13:02:14Z</time>
      </trkpt>
      <trkpt lat="45.92503" lon="6.53034">
        <ele>2458.465</ele>
        <time>2026-03-21T13:02:19Z</time>
      </trkpt>
      <trkpt lat="45.92503" lon="6.53034">
        <ele>2458.586</ele>
        <time>2026-03-21T13:02:24Z</time>
      </trkpt>
      <trkpt lat="45.92503" lon="6.53034">
        <ele>2458.523</ele>
        <time>2026-03-21T13:02:29Z</time>
      </trkpt>
      <trkpt lat="45.92503" lon="6.53034">
        <ele>2458.845</ele>
        <time>2026-03-21T13:02:34Z</time>
      </trkpt>
      <trkpt lat="45.92503" lon="6.53034">
        <ele>2457.655</ele>
        <time>2026-03-21T13:02:39Z</time>
      </trkpt>
      <trkpt lat="45.92503" lon="6.53034">
        <ele>2459.495</ele>
        <time>2026-03-21T13:02:44Z</time>
      </trkpt>
      <trkpt lat="45.92503" lon="6.53034">
        <ele>2458.5</ele>
        <time>2026-03-21T13:02:49Z</time>
      </trkpt>
      <trkpt lat="45.92503" lon="6.53034">
        <ele>2458.023</ele>
        <time>2026-03-21T13:02:54Z</time>
      </trkpt>
      <trkpt lat="45.92503" lon="6.53034">
        <ele>2457.608</ele>
        <time>2026-03-21T13:02:59Z</time>
      </trkpt>
      <trkpt lat="45.92503" lon="6.53034">
        <ele>2458.347</ele>
        <time>2026-03-21T13:03:04Z</time>
      </trkpt>
      <trkpt lat="45.92503" lon="6.53034">
        <ele>2458.982</ele>
        <time>2026-03-21T13:03:09Z</time>
      </trkpt>
      <trkpt lat="45.92503" lon="6.53034">
        <ele>2458.895</ele>
        <time>2026-03-21T13:03:14Z</time>
      </trkpt>
      <trkpt lat="45.92503" lon="6.53034">
        <ele>2458.886</ele>
        <time>2026-03-21T13:03:19Z</time>
      </trkpt>
      <trkpt lat="45.92503" lon="6.53034">
        <ele>2459.584</ele>
        <time>2026-03-21T13:03:24Z</time>
      </trkpt>
      <trkpt lat="45.92503" lon="6.53034">
        <ele>2458.865</ele>
        <time>2026-03-21T13:03:29Z</time>
      </trkpt>
      <trkpt lat="45.92503" lon="6.53034">
        <ele>2459.656</ele>
        <time>2026-03-21T13:03:34Z</time>
      </trkpt>
      <trkpt lat="45.92503" lon="6.53034">
        <ele>2459.802</ele>
        <time>2026-03-21T13:03:39Z</time>
      </trkpt>
      <trkpt lat="45.92503" lon="6.53034">
        <ele>2461.53</ele>
        <time>2026-03-21T13:03:44Z</time>
      </trkpt>
      <trkpt lat="45.92503" lon="6.53034">
        <ele>2461.527</ele>
        <time>2026-03-21T13:03:49Z</time>
      </trkpt>
      <trkpt lat="45.92503" lon="6.53034">
        <ele>2461.536</ele>
        <time>2026-03-21T13:03:54Z</time>
      </trkpt>
      <trkpt lat="45.92503" lon="6.53034">
        <ele>2461.665</ele>
        <time>2026-03-21T13:03:59Z</time>
      </trkpt>
      <trkpt lat="45.92503" lon="6.53034">
        <ele>2462.017</ele>
        <time>2026-03-21T13:04:04Z</time>
      </trkpt>
      <trkpt lat="45.92503" lon="6.53034">
        <ele>2461.533</ele>
        <time>2026-03-21T13:04:09Z</time>
      </trkpt>
      <trkpt lat="45.92503" lon="6.53034">
        <ele>2461.788</ele>
        <time>2026-03-21T13:04:14Z</time>
      </trkpt>
      <trkpt lat="45.92503" lon="6.53034">
        <ele>2463.829</ele>
        <time>2026-03-21T13:04:19Z</time>
      </trkpt>
      <trkpt lat="45.92503" lon="6.53034">
        <ele>2463.732</ele>
        <time>2026-03-21T13:04:24Z</time>
      </trkpt>
      <trkpt lat="45.92503" lon="6.53034">
        <ele>2463.575</ele>
        <time>2026-03-21T13:04:29Z</time>
      </trkpt>
      <trkpt lat="45.92503" lon="6.53034">
        <ele>2464.508</ele>
        <time>2026-03-21T13:04:34Z</time>
      </trkpt>
      <trkpt lat="45.92503" lon="6.53034">
        <ele>2465.484</ele>
        <time>2026-03-21T13:04:39Z</time>
      </trkpt>
      <trkpt lat="45.92503" lon="6.53034">
        <ele>2465.614</ele>
        <time>2026-03-21T13:04:44Z</time>
      </trkpt>
      <trkpt lat="45.92503" lon="6.53034">
        <ele>2467.359</ele>
        <time>2026-03-21T13:04:49Z</time>
      </trkpt>
      <trkpt lat="45.92503" lon="6.53034">
        <ele>2465.841</ele>
        <time>2026-03-21T13:04:54Z</time>
      </trkpt>
      <trkpt lat="45.92503" lon="6.53034">
        <ele>2464.276</ele>
        <time>2026-03-21T13:04:59Z</time>
      </trkpt>
      <trkpt lat="45.92503" lon="6.53034">
        <ele>2462.177</ele>
        <time>2026-03-21T13:05:04Z</time>
      </trkpt>
      <trkpt lat="45.92503" lon="6.53034">
        <ele>2462.243</ele>
        <time>2026-03-21T13:05:09Z</time>
      </trkpt>
      <trkpt lat="45.92503" lon="6.53034">
        <ele>2460.978</ele>
        <time>2026-03-21T13:05:14Z</time>
      </trkpt>
      <trkpt lat="45.92503" lon="6.53034">
        <ele>2462.151</ele>
        <time>2026-03-21T13:05:19Z</time>
      </trkpt>
      <trkpt lat="45.92503" lon="6.53034">
        <ele>2462.694</ele>
        <time>2026-03-21T13:05:24Z</time>
      </trkpt>
      <trkpt lat="45.92503" lon="6.53034">
        <ele>2464.135</ele>
        <time>2026-03-21T13:05:29Z</time>
      </trkpt>
      <trkpt lat="45.92503" lon="6.53034">
        <ele>2464.715</ele>
        <time>2026-03-21T13:05:34Z</time>
      </trkpt>
      <trkpt lat="45.92503" lon="6.53034">
        <ele>2462.6</ele>
        <time>2026-03-21T13:05:39Z</time>
      </trkpt>
      <trkpt lat="45.92503" lon="6.53034">
        <ele>2462.551</ele>
        <time>2026-03-21T13:05:44Z</time>
      </trkpt>
      <trkpt lat="45.92503" lon="6.53034">
        <ele>2461.539</ele>
        <time>2026-03-21T13:05:49Z</time>
      </trkpt>
      <trkpt lat="45.92503" lon="6.53034">
        <ele>2460.934</ele>
        <time>2026-03-21T13:05:54Z</time>
      </trkpt>
      <trkpt lat="45.92503" lon="6.53034">
        <ele>2461.072</ele>
        <time>2026-03-21T13:05:59Z</time>
      </trkpt>
      <trkpt lat="45.92503" lon="6.53034">
        <ele>2461.019</ele>
        <time>2026-03-21T13:06:04Z</time>
      </trkpt>
      <trkpt lat="45.92503" lon="6.53034">
        <ele>2461.015</ele>
        <time>2026-03-21T13:06:09Z</time>
      </trkpt>
      <trkpt lat="45.92503" lon="6.53034">
        <ele>2460.833</ele>
        <time>2026-03-21T13:06:14Z</time>
      </trkpt>
      <trkpt lat="45.92503" lon="6.53034">
        <ele>2460.199</ele>
        <time>2026-03-21T13:06:19Z</time>
      </trkpt>
      <trkpt lat="45.92503" lon="6.53034">
        <ele>2460.689</ele>
        <time>2026-03-21T13:06:24Z</time>
      </trkpt>
      <trkpt lat="45.92503" lon="6.53034">
        <ele>2462.195</ele>
        <time>2026-03-21T13:06:29Z</time>
      </trkpt>
      <trkpt lat="45.92503" lon="6.53034">
        <ele>2462.723</ele>
        <time>2026-03-21T13:06:34Z</time>
      </trkpt>
      <trkpt lat="45.92503" lon="6.53034">
        <ele>2462.449</ele>
        <time>2026-03-21T13:06:39Z</time>
      </trkpt>
      <trkpt lat="45.92503" lon="6.53034">
        <ele>2462.415</ele>
        <time>2026-03-21T13:06:44Z</time>
      </trkpt>
      <trkpt lat="45.92503" lon="6.53034">
        <ele>2462.092</ele>
        <time>2026-03-21T13:06:49Z</time>
      </trkpt>
      <trkpt lat="45.92503" lon="6.53034">
        <ele>2459.184</ele>
        <time>2026-03-21T13:06:54Z</time>
      </trkpt>
      <trkpt lat="45.92495" lon="6.5304">
        <ele>2459.72</ele>
        <time>2026-03-21T13:06:59Z</time>
      </trkpt>
      <trkpt lat="45.92494" lon="6.53043">
        <ele>2457.864</ele>
        <time>2026-03-21T13:07:04Z</time>
      </trkpt>
      <trkpt lat="45.92494" lon="6.53044">
        <ele>2458.191</ele>
        <time>2026-03-21T13:07:09Z</time>
      </trkpt>
      <trkpt lat="45.92494" lon="6.53044">
        <ele>2457.705</ele>
        <time>2026-03-21T13:07:14Z</time>
      </trkpt>
      <trkpt lat="45.92481" lon="6.53051">
        <ele>2451.889</ele>
        <time>2026-03-21T13:07:19Z</time>
      </trkpt>
      <trkpt lat="45.92467" lon="6.53044">
        <ele>2450.06</ele>
        <time>2026-03-21T13:07:24Z</time>
      </trkpt>
      <trkpt lat="45.92458" lon="6.53021">
        <ele>2443.078</ele>
        <time>2026-03-21T13:07:29Z</time>
      </trkpt>
      <trkpt lat="45.92438" lon="6.53021">
        <ele>2443.001</ele>
        <time>2026-03-21T13:07:34Z</time>
      </trkpt>
      <trkpt lat="45.92428" lon="6.53008">
        <ele>2433.371</ele>
        <time>2026-03-21T13:07:39Z</time>
      </trkpt>
      <trkpt lat="45.92424" lon="6.52989">
        <ele>2425.398</ele>
        <time>2026-03-21T13:07:44Z</time>
      </trkpt>
      <trkpt lat="45.92425" lon="6.5297">
        <ele>2419.596</ele>
        <time>2026-03-21T13:07:49Z</time>
      </trkpt>
      <trkpt lat="45.92408" lon="6.52943">
        <ele>2412.14</ele>
        <time>2026-03-21T13:07:54Z</time>
      </trkpt>
      <trkpt lat="45.92393" lon="6.52926">
        <ele>2402.829</ele>
        <time>2026-03-21T13:07:59Z</time>
      </trkpt>
      <trkpt lat="45.92374" lon="6.529">
        <ele>2400.355</ele>
        <time>2026-03-21T13:08:04Z</time>
      </trkpt>
      <trkpt lat="45.92357" lon="6.52873">
        <ele>2395.837</ele>
        <time>2026-03-21T13:08:09Z</time>
      </trkpt>
      <trkpt lat="45.92344" lon="6.52847">
        <ele>2387.806</ele>
        <time>2026-03-21T13:08:14Z</time>
      </trkpt>
      <trkpt lat="45.92337" lon="6.52838">
        <ele>2386.598</ele>
        <time>2026-03-21T13:08:19Z</time>
      </trkpt>
      <trkpt lat="45.92326" lon="6.52816">
        <ele>2381.58</ele>
        <time>2026-03-21T13:08:24Z</time>
      </trkpt>
      <trkpt lat="45.92311" lon="6.52789">
        <ele>2378.504</ele>
        <time>2026-03-21T13:08:29Z</time>
      </trkpt>
      <trkpt lat="45.92301" lon="6.5278">
        <ele>2376.91</ele>
        <time>2026-03-21T13:08:34Z</time>
      </trkpt>
      <trkpt lat="45.92301" lon="6.52778">
        <ele>2377.783</ele>
        <time>2026-03-21T13:08:39Z</time>
      </trkpt>
      <trkpt lat="45.92301" lon="6.52778">
        <ele>2376.842</ele>
        <time>2026-03-21T13:08:44Z</time>
      </trkpt>
      <trkpt lat="45.92302" lon="6.52777">
        <ele>2380.229</ele>
        <time>2026-03-21T13:08:49Z</time>
      </trkpt>
      <trkpt lat="45.92302" lon="6.52776">
        <ele>2380.322</ele>
        <time>2026-03-21T13:08:54Z</time>
      </trkpt>
      <trkpt lat="45.92302" lon="6.52776">
        <ele>2380.934</ele>
        <time>2026-03-21T13:08:59Z</time>
      </trkpt>
      <trkpt lat="45.92303" lon="6.52776">
        <ele>2382.959</ele>
        <time>2026-03-21T13:09:04Z</time>
      </trkpt>
      <trkpt lat="45.92303" lon="6.52775">
        <ele>2385.429</ele>
        <time>2026-03-21T13:09:09Z</time>
      </trkpt>
      <trkpt lat="45.92301" lon="6.52758">
        <ele>2375.77</ele>
        <time>2026-03-21T13:09:14Z</time>
      </trkpt>
      <trkpt lat="45.92297" lon="6.52742">
        <ele>2363.535</ele>
        <time>2026-03-21T13:09:19Z</time>
      </trkpt>
      <trkpt lat="45.92295" lon="6.52722">
        <ele>2358.996</ele>
        <time>2026-03-21T13:09:24Z</time>
      </trkpt>
      <trkpt lat="45.92287" lon="6.5271">
        <ele>2354.878</ele>
        <time>2026-03-21T13:09:29Z</time>
      </trkpt>
      <trkpt lat="45.92276" lon="6.52691">
        <ele>2348.42</ele>
        <time>2026-03-21T13:09:34Z</time>
      </trkpt>
      <trkpt lat="45.92262" lon="6.52676">
        <ele>2344.488</ele>
        <time>2026-03-21T13:09:39Z</time>
      </trkpt>
      <trkpt lat="45.92265" lon="6.52647">
        <ele>2337.183</ele>
        <time>2026-03-21T13:09:44Z</time>
      </trkpt>
      <trkpt lat="45.9225" lon="6.52607">
        <ele>2332.641</ele>
        <time>2026-03-21T13:09:49Z</time>
      </trkpt>
      <trkpt lat="45.92242" lon="6.52581">
        <ele>2330.211</ele>
        <time>2026-03-21T13:09:54Z</time>
      </trkpt>
      <trkpt lat="45.92247" lon="6.52545">
        <ele>2325.788</ele>
        <time>2026-03-21T13:09:59Z</time>
      </trkpt>
      <trkpt lat="45.92263" lon="6.5251">
        <ele>2320.872</ele>
        <time>2026-03-21T13:10:04Z</time>
      </trkpt>
      <trkpt lat="45.92278" lon="6.52483">
        <ele>2319.907</ele>
        <time>2026-03-21T13:10:09Z</time>
      </trkpt>
      <trkpt lat="45.92293" lon="6.52462">
        <ele>2316.013</ele>
        <time>2026-03-21T13:10:14Z</time>
      </trkpt>
      <trkpt lat="45.92302" lon="6.52444">
        <ele>2316.913</ele>
        <time>2026-03-21T13:10:19Z</time>
      </trkpt>
      <trkpt lat="45.92305" lon="6.52434">
        <ele>2315.866</ele>
        <time>2026-03-21T13:10:24Z</time>
      </trkpt>
      <trkpt lat="45.92305" lon="6.52434">
        <ele>2312.649</ele>
        <time>2026-03-21T13:10:29Z</time>
      </trkpt>
      <trkpt lat="45.92305" lon="6.52434">
        <ele>2312.529</ele>
        <time>2026-03-21T13:10:34Z</time>
      </trkpt>
      <trkpt lat="45.92305" lon="6.52434">
        <ele>2312.566</ele>
        <time>2026-03-21T13:10:39Z</time>
      </trkpt>
      <trkpt lat="45.92305" lon="6.52434">
        <ele>2312.801</ele>
        <time>2026-03-21T13:10:44Z</time>
      </trkpt>
      <trkpt lat="45.92305" lon="6.52434">
        <ele>2311.964</ele>
        <time>2026-03-21T13:10:49Z</time>
      </trkpt>
      <trkpt lat="45.92305" lon="6.52434">
        <ele>2311.789</ele>
        <time>2026-03-21T13:10:54Z</time>
      </trkpt>
      <trkpt lat="45.92305" lon="6.52434">
        <ele>2312.096</ele>
        <time>2026-03-21T13:10:59Z</time>
      </trkpt>
      <trkpt lat="45.92305" lon="6.52434">
        <ele>2313.953</ele>
        <time>2026-03-21T13:11:04Z</time>
      </trkpt>
      <trkpt lat="45.92317" lon="6.52428">
        <ele>2310.919</ele>
        <time>2026-03-21T13:11:09Z</time>
      </trkpt>
      <trkpt lat="45.92319" lon="6.52411">
        <ele>2307.046</ele>
        <time>2026-03-21T13:11:14Z</time>
      </trkpt>
      <trkpt lat="45.92316" lon="6.52397">
        <ele>2305.745</ele>
        <time>2026-03-21T13:11:19Z</time>
      </trkpt>
      <trkpt lat="45.92316" lon="6.52395">
        <ele>2302.565</ele>
        <time>2026-03-21T13:11:24Z</time>
      </trkpt>
      <trkpt lat="45.92316" lon="6.52394">
        <ele>2301.181</ele>
        <time>2026-03-21T13:11:29Z</time>
      </trkpt>
      <trkpt lat="45.92316" lon="6.52394">
        <ele>2300.29</ele>
        <time>2026-03-21T13:11:34Z</time>
      </trkpt>
      <trkpt lat="45.92316" lon="6.52394">
        <ele>2300.283</ele>
        <time>2026-03-21T13:11:39Z</time>
      </trkpt>
      <trkpt lat="45.92316" lon="6.52394">
        <ele>2298.307</ele>
        <time>2026-03-21T13:11:44Z</time>
      </trkpt>
      <trkpt lat="45.92316" lon="6.52394">
        <ele>2296.192</ele>
        <time>2026-03-21T13:11:49Z</time>
      </trkpt>
      <trkpt lat="45.92316" lon="6.52394">
        <ele>2296.173</ele>
        <time>2026-03-21T13:11:54Z</time>
      </trkpt>
      <trkpt lat="45.92316" lon="6.52394">
        <ele>2296.159</ele>
        <time>2026-03-21T13:11:59Z</time>
      </trkpt>
      <trkpt lat="45.92316" lon="6.52394">
        <ele>2296.112</ele>
        <time>2026-03-21T13:12:04Z</time>
      </trkpt>
      <trkpt lat="45.92316" lon="6.52394">
        <ele>2295.339</ele>
        <time>2026-03-21T13:12:09Z</time>
      </trkpt>
      <trkpt lat="45.92316" lon="6.52394">
        <ele>2294.894</ele>
        <time>2026-03-21T13:12:14Z</time>
      </trkpt>
      <trkpt lat="45.92316" lon="6.52394">
        <ele>2294.871</ele>
        <time>2026-03-21T13:12:19Z</time>
      </trkpt>
      <trkpt lat="45.92316" lon="6.52394">
        <ele>2294.861</ele>
        <time>2026-03-21T13:12:24Z</time>
      </trkpt>
      <trkpt lat="45.92316" lon="6.52394">
        <ele>2295.882</ele>
        <time>2026-03-21T13:12:29Z</time>
      </trkpt>
      <trkpt lat="45.92316" lon="6.52394">
        <ele>2295.134</ele>
        <time>2026-03-21T13:12:34Z</time>
      </trkpt>
      <trkpt lat="45.92316" lon="6.52394">
        <ele>2295.156</ele>
        <time>2026-03-21T13:12:39Z</time>
      </trkpt>
      <trkpt lat="45.92316" lon="6.52394">
        <ele>2295.095</ele>
        <time>2026-03-21T13:12:44Z</time>
      </trkpt>
      <trkpt lat="45.92316" lon="6.52394">
        <ele>2295.094</ele>
        <time>2026-03-21T13:12:49Z</time>
      </trkpt>
      <trkpt lat="45.92316" lon="6.52394">
        <ele>2295.097</ele>
        <time>2026-03-21T13:12:54Z</time>
      </trkpt>
      <trkpt lat="45.92316" lon="6.52392">
        <ele>2294.023</ele>
        <time>2026-03-21T13:12:59Z</time>
      </trkpt>
      <trkpt lat="45.92321" lon="6.52371">
        <ele>2287.665</ele>
        <time>2026-03-21T13:13:04Z</time>
      </trkpt>
      <trkpt lat="45.92325" lon="6.52352">
        <ele>2278.639</ele>
        <time>2026-03-21T13:13:09Z</time>
      </trkpt>
      <trkpt lat="45.9233" lon="6.52332">
        <ele>2271.348</ele>
        <time>2026-03-21T13:13:14Z</time>
      </trkpt>
      <trkpt lat="45.92334" lon="6.52314">
        <ele>2267.827</ele>
        <time>2026-03-21T13:13:19Z</time>
      </trkpt>
      <trkpt lat="45.92335" lon="6.52291">
        <ele>2262.387</ele>
        <time>2026-03-21T13:13:24Z</time>
      </trkpt>
      <trkpt lat="45.92335" lon="6.52281">
        <ele>2258.454</ele>
        <time>2026-03-21T13:13:29Z</time>
      </trkpt>
      <trkpt lat="45.92334" lon="6.52267">
        <ele>2255.59</ele>
        <time>2026-03-21T13:13:34Z</time>
      </trkpt>
      <trkpt lat="45.92338" lon="6.5225">
        <ele>2246.314</ele>
        <time>2026-03-21T13:13:39Z</time>
      </trkpt>
      <trkpt lat="45.92333" lon="6.52221">
        <ele>2242.437</ele>
        <time>2026-03-21T13:13:44Z</time>
      </trkpt>
      <trkpt lat="45.92328" lon="6.522">
        <ele>2239.768</ele>
        <time>2026-03-21T13:13:49Z</time>
      </trkpt>
      <trkpt lat="45.92326" lon="6.52191">
        <ele>2239.061</ele>
        <time>2026-03-21T13:13:54Z</time>
      </trkpt>
      <trkpt lat="45.92326" lon="6.52189">
        <ele>2239.047</ele>
        <time>2026-03-21T13:13:59Z</time>
      </trkpt>
      <trkpt lat="45.92327" lon="6.52188">
        <ele>2239.404</ele>
        <time>2026-03-21T13:14:04Z</time>
      </trkpt>
      <trkpt lat="45.92328" lon="6.52186">
        <ele>2237.952</ele>
        <time>2026-03-21T13:14:09Z</time>
      </trkpt>
      <trkpt lat="45.92325" lon="6.52172">
        <ele>2236.052</ele>
        <time>2026-03-21T13:14:14Z</time>
      </trkpt>
      <trkpt lat="45.92319" lon="6.52157">
        <ele>2233.685</ele>
        <time>2026-03-21T13:14:19Z</time>
      </trkpt>
      <trkpt lat="45.92309" lon="6.52138">
        <ele>2230.765</ele>
        <time>2026-03-21T13:14:24Z</time>
      </trkpt>
      <trkpt lat="45.92296" lon="6.52112">
        <ele>2226.946</ele>
        <time>2026-03-21T13:14:29Z</time>
      </trkpt>
      <trkpt lat="45.92287" lon="6.52095">
        <ele>2224.999</ele>
        <time>2026-03-21T13:14:34Z</time>
      </trkpt>
      <trkpt lat="45.92279" lon="6.52077">
        <ele>2222.477</ele>
        <time>2026-03-21T13:14:39Z</time>
      </trkpt>
      <trkpt lat="45.9227" lon="6.52052">
        <ele>2219.437</ele>
        <time>2026-03-21T13:14:44Z</time>
      </trkpt>
      <trkpt lat="45.92271" lon="6.52035">
        <ele>2215.526</ele>
        <time>2026-03-21T13:14:49Z</time>
      </trkpt>
      <trkpt lat="45.92296" lon="6.52007">
        <ele>2209.275</ele>
        <time>2026-03-21T13:14:54Z</time>
      </trkpt>
      <trkpt lat="45.92318" lon="6.51971">
        <ele>2209.145</ele>
        <time>2026-03-21T13:14:59Z</time>
      </trkpt>
      <trkpt lat="45.92323" lon="6.51947">
        <ele>2206.098</ele>
        <time>2026-03-21T13:15:04Z</time>
      </trkpt>
      <trkpt lat="45.92309" lon="6.51923">
        <ele>2203.42</ele>
        <time>2026-03-21T13:15:09Z</time>
      </trkpt>
      <trkpt lat="45.9231" lon="6.51917">
        <ele>2201.797</ele>
        <time>2026-03-21T13:15:14Z</time>
      </trkpt>
      <trkpt lat="45.92309" lon="6.51917">
        <ele>2201.463</ele>
        <time>2026-03-21T13:15:19Z</time>
      </trkpt>
      <trkpt lat="45.92308" lon="6.51917">
        <ele>2198.276</ele>
        <time>2026-03-21T13:15:24Z</time>
      </trkpt>
      <trkpt lat="45.92308" lon="6.51918">
        <ele>2199.448</ele>
        <time>2026-03-21T13:15:29Z</time>
      </trkpt>
      <trkpt lat="45.92308" lon="6.51918">
        <ele>2197.997</ele>
        <time>2026-03-21T13:15:34Z</time>
      </trkpt>
      <trkpt lat="45.92308" lon="6.51918">
        <ele>2197.967</ele>
        <time>2026-03-21T13:15:39Z</time>
      </trkpt>
      <trkpt lat="45.92308" lon="6.51918">
        <ele>2196.573</ele>
        <time>2026-03-21T13:15:44Z</time>
      </trkpt>
      <trkpt lat="45.92317" lon="6.51908">
        <ele>2194.923</ele>
        <time>2026-03-21T13:15:49Z</time>
      </trkpt>
      <trkpt lat="45.92317" lon="6.51909">
        <ele>2195.097</ele>
        <time>2026-03-21T13:15:54Z</time>
      </trkpt>
      <trkpt lat="45.92317" lon="6.51909">
        <ele>2196.062</ele>
        <time>2026-03-21T13:15:59Z</time>
      </trkpt>
      <trkpt lat="45.9232" lon="6.51902">
        <ele>2194.177</ele>
        <time>2026-03-21T13:16:04Z</time>
      </trkpt>
      <trkpt lat="45.92324" lon="6.51869">
        <ele>2191.656</ele>
        <time>2026-03-21T13:16:09Z</time>
      </trkpt>
      <trkpt lat="45.92333" lon="6.51844">
        <ele>2190.773</ele>
        <time>2026-03-21T13:16:14Z</time>
      </trkpt>
      <trkpt lat="45.92339" lon="6.51828">
        <ele>2189.381</ele>
        <time>2026-03-21T13:16:19Z</time>
      </trkpt>
      <trkpt lat="45.92342" lon="6.51808">
        <ele>2188.048</ele>
        <time>2026-03-21T13:16:24Z</time>
      </trkpt>
      <trkpt lat="45.92342" lon="6.5179">
        <ele>2187.033</ele>
        <time>2026-03-21T13:16:29Z</time>
      </trkpt>
      <trkpt lat="45.92341" lon="6.51775">
        <ele>2184.819</ele>
        <time>2026-03-21T13:16:34Z</time>
      </trkpt>
      <trkpt lat="45.92342" lon="6.51773">
        <ele>2184.027</ele>
        <time>2026-03-21T13:16:39Z</time>
      </trkpt>
      <trkpt lat="45.92342" lon="6.51773">
        <ele>2183.893</ele>
        <time>2026-03-21T13:16:44Z</time>
      </trkpt>
      <trkpt lat="45.92342" lon="6.51773">
        <ele>2183.846</ele>
        <time>2026-03-21T13:16:49Z</time>
      </trkpt>
      <trkpt lat="45.92342" lon="6.51773">
        <ele>2183.744</ele>
        <time>2026-03-21T13:16:54Z</time>
      </trkpt>
      <trkpt lat="45.92342" lon="6.51773">
        <ele>2183.424</ele>
        <time>2026-03-21T13:16:59Z</time>
      </trkpt>
      <trkpt lat="45.92351" lon="6.51773">
        <ele>2179.574</ele>
        <time>2026-03-21T13:17:04Z</time>
      </trkpt>
      <trkpt lat="45.92363" lon="6.51761">
        <ele>2171.914</ele>
        <time>2026-03-21T13:17:09Z</time>
      </trkpt>
      <trkpt lat="45.92363" lon="6.51743">
        <ele>2162.158</ele>
        <time>2026-03-21T13:17:14Z</time>
      </trkpt>
      <trkpt lat="45.9236" lon="6.51727">
        <ele>2160.082</ele>
        <time>2026-03-21T13:17:19Z</time>
      </trkpt>
      <trkpt lat="45.92358" lon="6.5171">
        <ele>2159.172</ele>
        <time>2026-03-21T13:17:24Z</time>
      </trkpt>
      <trkpt lat="45.92358" lon="6.51708">
        <ele>2158.917</ele>
        <time>2026-03-21T13:17:29Z</time>
      </trkpt>
      <trkpt lat="45.92357" lon="6.51707">
        <ele>2159.687</ele>
        <time>2026-03-21T13:17:34Z</time>
      </trkpt>
      <trkpt lat="45.92358" lon="6.51707">
        <ele>2157.024</ele>
        <time>2026-03-21T13:17:39Z</time>
      </trkpt>
      <trkpt lat="45.92366" lon="6.51689">
        <ele>2155.803</ele>
        <time>2026-03-21T13:17:44Z</time>
      </trkpt>
      <trkpt lat="45.92368" lon="6.51673">
        <ele>2154.659</ele>
        <time>2026-03-21T13:17:49Z</time>
      </trkpt>
      <trkpt lat="45.92386" lon="6.51662">
        <ele>2149.139</ele>
        <time>2026-03-21T13:17:54Z</time>
      </trkpt>
      <trkpt lat="45.92411" lon="6.51645">
        <ele>2142.989</ele>
        <time>2026-03-21T13:17:59Z</time>
      </trkpt>
      <trkpt lat="45.9243" lon="6.51606">
        <ele>2139.855</ele>
        <time>2026-03-21T13:18:04Z</time>
      </trkpt>
      <trkpt lat="45.92438" lon="6.51595">
        <ele>2140.016</ele>
        <time>2026-03-21T13:18:09Z</time>
      </trkpt>
      <trkpt lat="45.92442" lon="6.51591">
        <ele>2135.167</ele>
        <time>2026-03-21T13:18:14Z</time>
      </trkpt>
      <trkpt lat="45.92442" lon="6.51591">
        <ele>2135.112</ele>
        <time>2026-03-21T13:18:19Z</time>
      </trkpt>
      <trkpt lat="45.92442" lon="6.51591">
        <ele>2134.341</ele>
        <time>2026-03-21T13:18:24Z</time>
      </trkpt>
      <trkpt lat="45.92442" lon="6.51591">
        <ele>2134.263</ele>
        <time>2026-03-21T13:18:29Z</time>
      </trkpt>
      <trkpt lat="45.92442" lon="6.51591">
        <ele>2134.231</ele>
        <time>2026-03-21T13:18:34Z</time>
      </trkpt>
      <trkpt lat="45.92442" lon="6.51591">
        <ele>2134.198</ele>
        <time>2026-03-21T13:18:39Z</time>
      </trkpt>
      <trkpt lat="45.92442" lon="6.51591">
        <ele>2134.136</ele>
        <time>2026-03-21T13:18:44Z</time>
      </trkpt>
      <trkpt lat="45.92442" lon="6.51591">
        <ele>2134.067</ele>
        <time>2026-03-21T13:18:49Z</time>
      </trkpt>
      <trkpt lat="45.92442" lon="6.51591">
        <ele>2134.047</ele>
        <time>2026-03-21T13:18:54Z</time>
      </trkpt>
      <trkpt lat="45.92442" lon="6.51591">
        <ele>2134.052</ele>
        <time>2026-03-21T13:18:59Z</time>
      </trkpt>
      <trkpt lat="45.92442" lon="6.51591">
        <ele>2134.07</ele>
        <time>2026-03-21T13:19:04Z</time>
      </trkpt>
      <trkpt lat="45.92442" lon="6.51591">
        <ele>2134.101</ele>
        <time>2026-03-21T13:19:09Z</time>
      </trkpt>
      <trkpt lat="45.92442" lon="6.51591">
        <ele>2134.126</ele>
        <time>2026-03-21T13:19:14Z</time>
      </trkpt>
      <trkpt lat="45.92442" lon="6.51591">
        <ele>2134.145</ele>
        <time>2026-03-21T13:19:19Z</time>
      </trkpt>
      <trkpt lat="45.92442" lon="6.51591">
        <ele>2134.155</ele>
        <time>2026-03-21T13:19:24Z</time>
      </trkpt>
      <trkpt lat="45.92442" lon="6.51591">
        <ele>2134.158</ele>
        <time>2026-03-21T13:19:29Z</time>
      </trkpt>
      <trkpt lat="45.92442" lon="6.51591">
        <ele>2134.162</ele>
        <time>2026-03-21T13:19:34Z</time>
      </trkpt>
      <trkpt lat="45.92442" lon="6.51591">
        <ele>2134.168</ele>
        <time>2026-03-21T13:19:39Z</time>
      </trkpt>
      <trkpt lat="45.92442" lon="6.51591">
        <ele>2134.174</ele>
        <time>2026-03-21T13:19:44Z</time>
      </trkpt>
      <trkpt lat="45.92442" lon="6.51591">
        <ele>2133.864</ele>
        <time>2026-03-21T13:19:49Z</time>
      </trkpt>
      <trkpt lat="45.92451" lon="6.51582">
        <ele>2128.644</ele>
        <time>2026-03-21T13:19:54Z</time>
      </trkpt>
      <trkpt lat="45.92466" lon="6.51579">
        <ele>2123.32</ele>
        <time>2026-03-21T13:19:59Z</time>
      </trkpt>
      <trkpt lat="45.92481" lon="6.51592">
        <ele>2114.96</ele>
        <time>2026-03-21T13:20:04Z</time>
      </trkpt>
      <trkpt lat="45.92481" lon="6.51592">
        <ele>2111.519</ele>
        <time>2026-03-21T13:20:09Z</time>
      </trkpt>
      <trkpt lat="45.92481" lon="6.51592">
        <ele>2111.81</ele>
        <time>2026-03-21T13:20:14Z</time>
      </trkpt>
      <trkpt lat="45.92481" lon="6.51592">
        <ele>2112.184</ele>
        <time>2026-03-21T13:20:19Z</time>
      </trkpt>
      <trkpt lat="45.92481" lon="6.51592">
        <ele>2111.487</ele>
        <time>2026-03-21T13:20:24Z</time>
      </trkpt>
      <trkpt lat="45.92484" lon="6.51585">
        <ele>2111.539</ele>
        <time>2026-03-21T13:20:29Z</time>
      </trkpt>
      <trkpt lat="45.92487" lon="6.51581">
        <ele>2108.95</ele>
        <time>2026-03-21T13:20:34Z</time>
      </trkpt>
      <trkpt lat="45.92498" lon="6.51579">
        <ele>2102.413</ele>
        <time>2026-03-21T13:20:39Z</time>
      </trkpt>
      <trkpt lat="45.92512" lon="6.5158">
        <ele>2094.441</ele>
        <time>2026-03-21T13:20:44Z</time>
      </trkpt>
      <trkpt lat="45.92518" lon="6.51579">
        <ele>2089.933</ele>
        <time>2026-03-21T13:20:49Z</time>
      </trkpt>
      <trkpt lat="45.92522" lon="6.51581">
        <ele>2086.231</ele>
        <time>2026-03-21T13:20:54Z</time>
      </trkpt>
      <trkpt lat="45.92522" lon="6.51581">
        <ele>2085.03</ele>
        <time>2026-03-21T13:20:59Z</time>
      </trkpt>
      <trkpt lat="45.92522" lon="6.51582">
        <ele>2084.468</ele>
        <time>2026-03-21T13:21:04Z</time>
      </trkpt>
      <trkpt lat="45.92522" lon="6.51582">
        <ele>2084.471</ele>
        <time>2026-03-21T13:21:09Z</time>
      </trkpt>
      <trkpt lat="45.92522" lon="6.51582">
        <ele>2084.47</ele>
        <time>2026-03-21T13:21:14Z</time>
      </trkpt>
      <trkpt lat="45.92522" lon="6.51582">
        <ele>2084.476</ele>
        <time>2026-03-21T13:21:19Z</time>
      </trkpt>
      <trkpt lat="45.92522" lon="6.51582">
        <ele>2084.481</ele>
        <time>2026-03-21T13:21:24Z</time>
      </trkpt>
      <trkpt lat="45.92527" lon="6.5157">
        <ele>2078.812</ele>
        <time>2026-03-21T13:21:29Z</time>
      </trkpt>
      <trkpt lat="45.92536" lon="6.51556">
        <ele>2074.106</ele>
        <time>2026-03-21T13:21:34Z</time>
      </trkpt>
      <trkpt lat="45.92536" lon="6.51556">
        <ele>2069.8</ele>
        <time>2026-03-21T13:21:39Z</time>
      </trkpt>
      <trkpt lat="45.92536" lon="6.51556">
        <ele>2067.498</ele>
        <time>2026-03-21T13:21:44Z</time>
      </trkpt>
      <trkpt lat="45.92536" lon="6.51556">
        <ele>2067.779</ele>
        <time>2026-03-21T13:21:49Z</time>
      </trkpt>
      <trkpt lat="45.92536" lon="6.51556">
        <ele>2067.772</ele>
        <time>2026-03-21T13:21:54Z</time>
      </trkpt>
      <trkpt lat="45.92536" lon="6.51556">
        <ele>2067.767</ele>
        <time>2026-03-21T13:21:59Z</time>
      </trkpt>
      <trkpt lat="45.92536" lon="6.51556">
        <ele>2067.758</ele>
        <time>2026-03-21T13:22:04Z</time>
      </trkpt>
      <trkpt lat="45.92536" lon="6.51556">
        <ele>2067.721</ele>
        <time>2026-03-21T13:22:09Z</time>
      </trkpt>
      <trkpt lat="45.92538" lon="6.51561">
        <ele>2067.685</ele>
        <time>2026-03-21T13:22:14Z</time>
      </trkpt>
      <trkpt lat="45.92538" lon="6.51561">
        <ele>2067.662</ele>
        <time>2026-03-21T13:22:19Z</time>
      </trkpt>
      <trkpt lat="45.92538" lon="6.51561">
        <ele>2067.664</ele>
        <time>2026-03-21T13:22:24Z</time>
      </trkpt>
      <trkpt lat="45.92539" lon="6.51564">
        <ele>2066.05</ele>
        <time>2026-03-21T13:22:29Z</time>
      </trkpt>
      <trkpt lat="45.92551" lon="6.51555">
        <ele>2059.08</ele>
        <time>2026-03-21T13:22:34Z</time>
      </trkpt>
      <trkpt lat="45.92564" lon="6.51549">
        <ele>2049.27</ele>
        <time>2026-03-21T13:22:39Z</time>
      </trkpt>
      <trkpt lat="45.92579" lon="6.51551">
        <ele>2041.172</ele>
        <time>2026-03-21T13:22:44Z</time>
      </trkpt>
      <trkpt lat="45.92586" lon="6.51531">
        <ele>2035.787</ele>
        <time>2026-03-21T13:22:49Z</time>
      </trkpt>
      <trkpt lat="45.92588" lon="6.51517">
        <ele>2032.97</ele>
        <time>2026-03-21T13:22:54Z</time>
      </trkpt>
      <trkpt lat="45.92589" lon="6.51515">
        <ele>2030.771</ele>
        <time>2026-03-21T13:22:59Z</time>
      </trkpt>
      <trkpt lat="45.92589" lon="6.51515">
        <ele>2030.19</ele>
        <time>2026-03-21T13:23:04Z</time>
      </trkpt>
      <trkpt lat="45.92589" lon="6.51515">
        <ele>2029.739</ele>
        <time>2026-03-21T13:23:09Z</time>
      </trkpt>
      <trkpt lat="45.92589" lon="6.51515">
        <ele>2028.693</ele>
        <time>2026-03-21T13:23:14Z</time>
      </trkpt>
      <trkpt lat="45.92593" lon="6.51506">
        <ele>2023.224</ele>
        <time>2026-03-21T13:23:19Z</time>
      </trkpt>
      <trkpt lat="45.92605" lon="6.51505">
        <ele>2016.167</ele>
        <time>2026-03-21T13:23:24Z</time>
      </trkpt>
      <trkpt lat="45.92618" lon="6.51507">
        <ele>2011.306</ele>
        <time>2026-03-21T13:23:29Z</time>
      </trkpt>
      <trkpt lat="45.92634" lon="6.51519">
        <ele>2003.974</ele>
        <time>2026-03-21T13:23:34Z</time>
      </trkpt>
      <trkpt lat="45.92634" lon="6.51521">
        <ele>2003.336</ele>
        <time>2026-03-21T13:23:39Z</time>
      </trkpt>
      <trkpt lat="45.92634" lon="6.51522">
        <ele>2001.012</ele>
        <time>2026-03-21T13:23:44Z</time>
      </trkpt>
      <trkpt lat="45.92635" lon="6.51523">
        <ele>2000.88</ele>
        <time>2026-03-21T13:23:49Z</time>
      </trkpt>
      <trkpt lat="45.92635" lon="6.51523">
        <ele>2000.866</ele>
        <time>2026-03-21T13:23:54Z</time>
      </trkpt>
      <trkpt lat="45.92635" lon="6.51523">
        <ele>2000.857</ele>
        <time>2026-03-21T13:23:59Z</time>
      </trkpt>
      <trkpt lat="45.92635" lon="6.51523">
        <ele>2000.858</ele>
        <time>2026-03-21T13:24:04Z</time>
      </trkpt>
      <trkpt lat="45.92635" lon="6.51523">
        <ele>2000.843</ele>
        <time>2026-03-21T13:24:09Z</time>
      </trkpt>
      <trkpt lat="45.92635" lon="6.51523">
        <ele>2000.828</ele>
        <time>2026-03-21T13:24:14Z</time>
      </trkpt>
      <trkpt lat="45.92635" lon="6.51523">
        <ele>2000.83</ele>
        <time>2026-03-21T13:24:19Z</time>
      </trkpt>
      <trkpt lat="45.92635" lon="6.51523">
        <ele>2000.844</ele>
        <time>2026-03-21T13:24:24Z</time>
      </trkpt>
      <trkpt lat="45.92635" lon="6.51523">
        <ele>2000.835</ele>
        <time>2026-03-21T13:24:29Z</time>
      </trkpt>
      <trkpt lat="45.92635" lon="6.51523">
        <ele>2000.833</ele>
        <time>2026-03-21T13:24:34Z</time>
      </trkpt>
      <trkpt lat="45.92635" lon="6.51523">
        <ele>2000.821</ele>
        <time>2026-03-21T13:24:39Z</time>
      </trkpt>
      <trkpt lat="45.92635" lon="6.51523">
        <ele>2000.817</ele>
        <time>2026-03-21T13:24:44Z</time>
      </trkpt>
      <trkpt lat="45.92635" lon="6.51523">
        <ele>2000.818</ele>
        <time>2026-03-21T13:24:49Z</time>
      </trkpt>
      <trkpt lat="45.92635" lon="6.51523">
        <ele>2000.813</ele>
        <time>2026-03-21T13:24:54Z</time>
      </trkpt>
      <trkpt lat="45.92635" lon="6.51523">
        <ele>2000.813</ele>
        <time>2026-03-21T13:24:59Z</time>
      </trkpt>
      <trkpt lat="45.92635" lon="6.51523">
        <ele>1998.068</ele>
        <time>2026-03-21T13:25:04Z</time>
      </trkpt>
      <trkpt lat="45.92635" lon="6.51523">
        <ele>1998.571</ele>
        <time>2026-03-21T13:25:09Z</time>
      </trkpt>
      <trkpt lat="45.92635" lon="6.51523">
        <ele>1999.017</ele>
        <time>2026-03-21T13:25:14Z</time>
      </trkpt>
      <trkpt lat="45.92635" lon="6.51523">
        <ele>1999.01</ele>
        <time>2026-03-21T13:25:19Z</time>
      </trkpt>
      <trkpt lat="45.92635" lon="6.51523">
        <ele>1999.009</ele>
        <time>2026-03-21T13:25:24Z</time>
      </trkpt>
      <trkpt lat="45.92635" lon="6.51523">
        <ele>1999.01</ele>
        <time>2026-03-21T13:25:29Z</time>
      </trkpt>
      <trkpt lat="45.92635" lon="6.51523">
        <ele>1999.014</ele>
        <time>2026-03-21T13:25:34Z</time>
      </trkpt>
      <trkpt lat="45.92635" lon="6.51523">
        <ele>1999.038</ele>
        <time>2026-03-21T13:25:39Z</time>
      </trkpt>
      <trkpt lat="45.92635" lon="6.51523">
        <ele>1999.038</ele>
        <time>2026-03-21T13:25:44Z</time>
      </trkpt>
      <trkpt lat="45.92635" lon="6.51523">
        <ele>1999.037</ele>
        <time>2026-03-21T13:25:49Z</time>
      </trkpt>
      <trkpt lat="45.92635" lon="6.51523">
        <ele>1999.024</ele>
        <time>2026-03-21T13:25:54Z</time>
      </trkpt>
      <trkpt lat="45.92635" lon="6.51523">
        <ele>1999.01</ele>
        <time>2026-03-21T13:25:59Z</time>
      </trkpt>
      <trkpt lat="45.92635" lon="6.51523">
        <ele>1998.999</ele>
        <time>2026-03-21T13:26:04Z</time>
      </trkpt>
      <trkpt lat="45.92635" lon="6.51523">
        <ele>1999</ele>
        <time>2026-03-21T13:26:09Z</time>
      </trkpt>
      <trkpt lat="45.92635" lon="6.51523">
        <ele>1999.014</ele>
        <time>2026-03-21T13:26:14Z</time>
      </trkpt>
      <trkpt lat="45.92635" lon="6.51523">
        <ele>1999.02</ele>
        <time>2026-03-21T13:26:19Z</time>
      </trkpt>
      <trkpt lat="45.92635" lon="6.51523">
        <ele>1999.038</ele>
        <time>2026-03-21T13:26:24Z</time>
      </trkpt>
      <trkpt lat="45.92635" lon="6.51523">
        <ele>1999.048</ele>
        <time>2026-03-21T13:26:29Z</time>
      </trkpt>
      <trkpt lat="45.92635" lon="6.51523">
        <ele>1999.056</ele>
        <time>2026-03-21T13:26:34Z</time>
      </trkpt>
      <trkpt lat="45.92637" lon="6.51514">
        <ele>1994.572</ele>
        <time>2026-03-21T13:26:39Z</time>
      </trkpt>
      <trkpt lat="45.92647" lon="6.51494">
        <ele>1986.78</ele>
        <time>2026-03-21T13:26:44Z</time>
      </trkpt>
      <trkpt lat="45.92664" lon="6.51486">
        <ele>1979.715</ele>
        <time>2026-03-21T13:26:49Z</time>
      </trkpt>
      <trkpt lat="45.92664" lon="6.51486">
        <ele>1977.277</ele>
        <time>2026-03-21T13:26:54Z</time>
      </trkpt>
      <trkpt lat="45.92664" lon="6.51486">
        <ele>1977.012</ele>
        <time>2026-03-21T13:26:59Z</time>
      </trkpt>
      <trkpt lat="45.92661" lon="6.51475">
        <ele>1977.582</ele>
        <time>2026-03-21T13:27:04Z</time>
      </trkpt>
      <trkpt lat="45.92661" lon="6.51475">
        <ele>1977.698</ele>
        <time>2026-03-21T13:27:09Z</time>
      </trkpt>
      <trkpt lat="45.92661" lon="6.5146">
        <ele>1973.229</ele>
        <time>2026-03-21T13:27:14Z</time>
      </trkpt>
      <trkpt lat="45.9267" lon="6.51449">
        <ele>1967.458</ele>
        <time>2026-03-21T13:27:19Z</time>
      </trkpt>
      <trkpt lat="45.92687" lon="6.51435">
        <ele>1958.262</ele>
        <time>2026-03-21T13:27:24Z</time>
      </trkpt>
      <trkpt lat="45.92701" lon="6.51432">
        <ele>1949.394</ele>
        <time>2026-03-21T13:27:29Z</time>
      </trkpt>
      <trkpt lat="45.92704" lon="6.51434">
        <ele>1949.389</ele>
        <time>2026-03-21T13:27:34Z</time>
      </trkpt>
      <trkpt lat="45.92704" lon="6.51434">
        <ele>1948.628</ele>
        <time>2026-03-21T13:27:39Z</time>
      </trkpt>
      <trkpt lat="45.92704" lon="6.51434">
        <ele>1948.308</ele>
        <time>2026-03-21T13:27:44Z</time>
      </trkpt>
      <trkpt lat="45.92702" lon="6.51412">
        <ele>1941.196</ele>
        <time>2026-03-21T13:27:49Z</time>
      </trkpt>
      <trkpt lat="45.92717" lon="6.51393">
        <ele>1934.68</ele>
        <time>2026-03-21T13:27:54Z</time>
      </trkpt>
      <trkpt lat="45.92728" lon="6.51366">
        <ele>1930.467</ele>
        <time>2026-03-21T13:27:59Z</time>
      </trkpt>
      <trkpt lat="45.9274" lon="6.51363">
        <ele>1921.985</ele>
        <time>2026-03-21T13:28:04Z</time>
      </trkpt>
      <trkpt lat="45.92741" lon="6.51368">
        <ele>1919.148</ele>
        <time>2026-03-21T13:28:09Z</time>
      </trkpt>
      <trkpt lat="45.92741" lon="6.51368">
        <ele>1918.565</ele>
        <time>2026-03-21T13:28:14Z</time>
      </trkpt>
      <trkpt lat="45.92741" lon="6.51369">
        <ele>1918.651</ele>
        <time>2026-03-21T13:28:19Z</time>
      </trkpt>
      <trkpt lat="45.92741" lon="6.51369">
        <ele>1918.645</ele>
        <time>2026-03-21T13:28:24Z</time>
      </trkpt>
      <trkpt lat="45.92741" lon="6.51369">
        <ele>1918.637</ele>
        <time>2026-03-21T13:28:29Z</time>
      </trkpt>
      <trkpt lat="45.92741" lon="6.51369">
        <ele>1918.632</ele>
        <time>2026-03-21T13:28:34Z</time>
      </trkpt>
      <trkpt lat="45.92741" lon="6.51369">
        <ele>1918.642</ele>
        <time>2026-03-21T13:28:39Z</time>
      </trkpt>
      <trkpt lat="45.92741" lon="6.51369">
        <ele>1918.656</ele>
        <time>2026-03-21T13:28:44Z</time>
      </trkpt>
      <trkpt lat="45.92741" lon="6.51369">
        <ele>1918.668</ele>
        <time>2026-03-21T13:28:49Z</time>
      </trkpt>
      <trkpt lat="45.92741" lon="6.51369">
        <ele>1918.695</ele>
        <time>2026-03-21T13:28:54Z</time>
      </trkpt>
      <trkpt lat="45.92741" lon="6.51369">
        <ele>1918.707</ele>
        <time>2026-03-21T13:28:59Z</time>
      </trkpt>
      <trkpt lat="45.92741" lon="6.51369">
        <ele>1918.718</ele>
        <time>2026-03-21T13:29:04Z</time>
      </trkpt>
      <trkpt lat="45.92741" lon="6.51369">
        <ele>1918.736</ele>
        <time>2026-03-21T13:29:09Z</time>
      </trkpt>
      <trkpt lat="45.92741" lon="6.51369">
        <ele>1918.737</ele>
        <time>2026-03-21T13:29:14Z</time>
      </trkpt>
      <trkpt lat="45.92741" lon="6.51369">
        <ele>1918.731</ele>
        <time>2026-03-21T13:29:19Z</time>
      </trkpt>
      <trkpt lat="45.92741" lon="6.51369">
        <ele>1918.742</ele>
        <time>2026-03-21T13:29:24Z</time>
      </trkpt>
      <trkpt lat="45.92741" lon="6.51369">
        <ele>1918.751</ele>
        <time>2026-03-21T13:29:29Z</time>
      </trkpt>
      <trkpt lat="45.92741" lon="6.51369">
        <ele>1918.741</ele>
        <time>2026-03-21T13:29:34Z</time>
      </trkpt>
      <trkpt lat="45.92741" lon="6.51369">
        <ele>1918.736</ele>
        <time>2026-03-21T13:29:39Z</time>
      </trkpt>
      <trkpt lat="45.92741" lon="6.51369">
        <ele>1918.729</ele>
        <time>2026-03-21T13:29:44Z</time>
      </trkpt>
      <trkpt lat="45.92741" lon="6.51369">
        <ele>1918.726</ele>
        <time>2026-03-21T13:29:49Z</time>
      </trkpt>
      <trkpt lat="45.92741" lon="6.51369">
        <ele>1918.726</ele>
        <time>2026-03-21T13:29:54Z</time>
      </trkpt>
      <trkpt lat="45.92741" lon="6.51369">
        <ele>1918.73</ele>
        <time>2026-03-21T13:29:59Z</time>
      </trkpt>
      <trkpt lat="45.92741" lon="6.51369">
        <ele>1918.749</ele>
        <time>2026-03-21T13:30:04Z</time>
      </trkpt>
      <trkpt lat="45.92741" lon="6.51369">
        <ele>1918.747</ele>
        <time>2026-03-21T13:30:09Z</time>
      </trkpt>
      <trkpt lat="45.92741" lon="6.51369">
        <ele>1918.753</ele>
        <time>2026-03-21T13:30:14Z</time>
      </trkpt>
      <trkpt lat="45.92741" lon="6.51369">
        <ele>1918.768</ele>
        <time>2026-03-21T13:30:19Z</time>
      </trkpt>
      <trkpt lat="45.92741" lon="6.51369">
        <ele>1918.768</ele>
        <time>2026-03-21T13:30:24Z</time>
      </trkpt>
      <trkpt lat="45.92741" lon="6.51369">
        <ele>1918.788</ele>
        <time>2026-03-21T13:30:29Z</time>
      </trkpt>
      <trkpt lat="45.92741" lon="6.51369">
        <ele>1918.802</ele>
        <time>2026-03-21T13:30:34Z</time>
      </trkpt>
      <trkpt lat="45.92741" lon="6.51369">
        <ele>1918.799</ele>
        <time>2026-03-21T13:30:39Z</time>
      </trkpt>
      <trkpt lat="45.92741" lon="6.51369">
        <ele>1918.789</ele>
        <time>2026-03-21T13:30:44Z</time>
      </trkpt>
      <trkpt lat="45.92741" lon="6.51369">
        <ele>1918.791</ele>
        <time>2026-03-21T13:30:49Z</time>
      </trkpt>
      <trkpt lat="45.92741" lon="6.51369">
        <ele>1918.795</ele>
        <time>2026-03-21T13:30:54Z</time>
      </trkpt>
      <trkpt lat="45.92741" lon="6.51369">
        <ele>1918.822</ele>
        <time>2026-03-21T13:30:59Z</time>
      </trkpt>
      <trkpt lat="45.92741" lon="6.51369">
        <ele>1916.119</ele>
        <time>2026-03-21T13:31:04Z</time>
      </trkpt>
      <trkpt lat="45.92741" lon="6.51369">
        <ele>1915.75</ele>
        <time>2026-03-21T13:31:09Z</time>
      </trkpt>
      <trkpt lat="45.92741" lon="6.51369">
        <ele>1916.084</ele>
        <time>2026-03-21T13:31:14Z</time>
      </trkpt>
      <trkpt lat="45.92741" lon="6.51369">
        <ele>1915.461</ele>
        <time>2026-03-21T13:31:19Z</time>
      </trkpt>
      <trkpt lat="45.92741" lon="6.51369">
        <ele>1915.336</ele>
        <time>2026-03-21T13:31:24Z</time>
      </trkpt>
      <trkpt lat="45.92741" lon="6.51369">
        <ele>1915.325</ele>
        <time>2026-03-21T13:31:29Z</time>
      </trkpt>
      <trkpt lat="45.92741" lon="6.51369">
        <ele>1915.324</ele>
        <time>2026-03-21T13:31:34Z</time>
      </trkpt>
      <trkpt lat="45.92741" lon="6.51369">
        <ele>1915.317</ele>
        <time>2026-03-21T13:31:39Z</time>
      </trkpt>
      <trkpt lat="45.92741" lon="6.51369">
        <ele>1915.315</ele>
        <time>2026-03-21T13:31:44Z</time>
      </trkpt>
      <trkpt lat="45.92741" lon="6.51369">
        <ele>1915.331</ele>
        <time>2026-03-21T13:31:49Z</time>
      </trkpt>
      <trkpt lat="45.92741" lon="6.51369">
        <ele>1915.345</ele>
        <time>2026-03-21T13:31:54Z</time>
      </trkpt>
      <trkpt lat="45.92741" lon="6.51369">
        <ele>1915.386</ele>
        <time>2026-03-21T13:31:59Z</time>
      </trkpt>
      <trkpt lat="45.92741" lon="6.51369">
        <ele>1915.417</ele>
        <time>2026-03-21T13:32:04Z</time>
      </trkpt>
      <trkpt lat="45.92741" lon="6.51369">
        <ele>1915.428</ele>
        <time>2026-03-21T13:32:09Z</time>
      </trkpt>
      <trkpt lat="45.92741" lon="6.51369">
        <ele>1915.44</ele>
        <time>2026-03-21T13:32:14Z</time>
      </trkpt>
      <trkpt lat="45.92741" lon="6.51369">
        <ele>1914.703</ele>
        <time>2026-03-21T13:32:19Z</time>
      </trkpt>
      <trkpt lat="45.92741" lon="6.51369">
        <ele>1915.215</ele>
        <time>2026-03-21T13:32:24Z</time>
      </trkpt>
      <trkpt lat="45.92741" lon="6.51369">
        <ele>1914.621</ele>
        <time>2026-03-21T13:32:29Z</time>
      </trkpt>
      <trkpt lat="45.92741" lon="6.51369">
        <ele>1914.27</ele>
        <time>2026-03-21T13:32:34Z</time>
      </trkpt>
      <trkpt lat="45.92744" lon="6.51354">
        <ele>1912.789</ele>
        <time>2026-03-21T13:32:39Z</time>
      </trkpt>
      <trkpt lat="45.92748" lon="6.51335">
        <ele>1909.469</ele>
        <time>2026-03-21T13:32:44Z</time>
      </trkpt>
      <trkpt lat="45.92764" lon="6.5132">
        <ele>1902.204</ele>
        <time>2026-03-21T13:32:49Z</time>
      </trkpt>
      <trkpt lat="45.92777" lon="6.51306">
        <ele>1891.012</ele>
        <time>2026-03-21T13:32:54Z</time>
      </trkpt>
      <trkpt lat="45.92782" lon="6.51284">
        <ele>1884.148</ele>
        <time>2026-03-21T13:32:59Z</time>
      </trkpt>
      <trkpt lat="45.92794" lon="6.51291">
        <ele>1879.479</ele>
        <time>2026-03-21T13:33:04Z</time>
      </trkpt>
      <trkpt lat="45.92793" lon="6.5127">
        <ele>1873.131</ele>
        <time>2026-03-21T13:33:09Z</time>
      </trkpt>
      <trkpt lat="45.92798" lon="6.51251">
        <ele>1867.614</ele>
        <time>2026-03-21T13:33:14Z</time>
      </trkpt>
      <trkpt lat="45.92806" lon="6.51242">
        <ele>1861.688</ele>
        <time>2026-03-21T13:33:19Z</time>
      </trkpt>
      <trkpt lat="45.92807" lon="6.51224">
        <ele>1857.214</ele>
        <time>2026-03-21T13:33:24Z</time>
      </trkpt>
      <trkpt lat="45.92807" lon="6.51222">
        <ele>1856.215</ele>
        <time>2026-03-21T13:33:29Z</time>
      </trkpt>
      <trkpt lat="45.92807" lon="6.51222">
        <ele>1856.984</ele>
        <time>2026-03-21T13:33:34Z</time>
      </trkpt>
      <trkpt lat="45.92808" lon="6.51222">
        <ele>1857.382</ele>
        <time>2026-03-21T13:33:39Z</time>
      </trkpt>
      <trkpt lat="45.92808" lon="6.51222">
        <ele>1857.371</ele>
        <time>2026-03-21T13:33:44Z</time>
      </trkpt>
      <trkpt lat="45.92808" lon="6.51222">
        <ele>1857.367</ele>
        <time>2026-03-21T13:33:49Z</time>
      </trkpt>
      <trkpt lat="45.92808" lon="6.51222">
        <ele>1857.369</ele>
        <time>2026-03-21T13:33:54Z</time>
      </trkpt>
      <trkpt lat="45.92808" lon="6.51212">
        <ele>1855.231</ele>
        <time>2026-03-21T13:33:59Z</time>
      </trkpt>
      <trkpt lat="45.92817" lon="6.51189">
        <ele>1845.353</ele>
        <time>2026-03-21T13:34:04Z</time>
      </trkpt>
      <trkpt lat="45.92829" lon="6.51164">
        <ele>1835.807</ele>
        <time>2026-03-21T13:34:09Z</time>
      </trkpt>
      <trkpt lat="45.92838" lon="6.51141">
        <ele>1827.452</ele>
        <time>2026-03-21T13:34:14Z</time>
      </trkpt>
      <trkpt lat="45.92843" lon="6.51103">
        <ele>1819.573</ele>
        <time>2026-03-21T13:34:19Z</time>
      </trkpt>
      <trkpt lat="45.92838" lon="6.51065">
        <ele>1815.552</ele>
        <time>2026-03-21T13:34:24Z</time>
      </trkpt>
      <trkpt lat="45.92848" lon="6.51021">
        <ele>1809.227</ele>
        <time>2026-03-21T13:34:29Z</time>
      </trkpt>
      <trkpt lat="45.92861" lon="6.50995">
        <ele>1808.346</ele>
        <time>2026-03-21T13:34:34Z</time>
      </trkpt>
      <trkpt lat="45.92863" lon="6.50988">
        <ele>1807.885</ele>
        <time>2026-03-21T13:34:39Z</time>
      </trkpt>
      <trkpt lat="45.92867" lon="6.50983">
        <ele>1807.272</ele>
        <time>2026-03-21T13:34:44Z</time>
      </trkpt>
      <trkpt lat="45.92875" lon="6.50963">
        <ele>1804.147</ele>
        <time>2026-03-21T13:34:49Z</time>
      </trkpt>
      <trkpt lat="45.92877" lon="6.50949">
        <ele>1802.196</ele>
        <time>2026-03-21T13:34:54Z</time>
      </trkpt>
      <trkpt lat="45.92883" lon="6.50905">
        <ele>1794.575</ele>
        <time>2026-03-21T13:34:59Z</time>
      </trkpt>
      <trkpt lat="45.92888" lon="6.50875">
        <ele>1795.271</ele>
        <time>2026-03-21T13:35:04Z</time>
      </trkpt>
      <trkpt lat="45.92888" lon="6.50874">
        <ele>1795.739</ele>
        <time>2026-03-21T13:35:09Z</time>
      </trkpt>
      <trkpt lat="45.92888" lon="6.50874">
        <ele>1796.022</ele>
        <time>2026-03-21T13:35:14Z</time>
      </trkpt>
      <trkpt lat="45.92891" lon="6.50871">
        <ele>1793.344</ele>
        <time>2026-03-21T13:35:19Z</time>
      </trkpt>
      <trkpt lat="45.92894" lon="6.50865">
        <ele>1795.763</ele>
        <time>2026-03-21T13:35:24Z</time>
      </trkpt>
      <trkpt lat="45.92894" lon="6.50866">
        <ele>1796.188</ele>
        <time>2026-03-21T13:35:29Z</time>
      </trkpt>
      <trkpt lat="45.92894" lon="6.50866">
        <ele>1796.045</ele>
        <time>2026-03-21T13:35:34Z</time>
      </trkpt>
      <trkpt lat="45.92894" lon="6.50866">
        <ele>1795.874</ele>
        <time>2026-03-21T13:35:39Z</time>
      </trkpt>
      <trkpt lat="45.92894" lon="6.50866">
        <ele>1795.886</ele>
        <time>2026-03-21T13:35:44Z</time>
      </trkpt>
      <trkpt lat="45.92894" lon="6.50866">
        <ele>1795.913</ele>
        <time>2026-03-21T13:35:49Z</time>
      </trkpt>
      <trkpt lat="45.92894" lon="6.50866">
        <ele>1795.837</ele>
        <time>2026-03-21T13:35:54Z</time>
      </trkpt>
      <trkpt lat="45.92894" lon="6.50866">
        <ele>1795.824</ele>
        <time>2026-03-21T13:35:59Z</time>
      </trkpt>
      <trkpt lat="45.92894" lon="6.50866">
        <ele>1795.824</ele>
        <time>2026-03-21T13:36:04Z</time>
      </trkpt>
      <trkpt lat="45.92894" lon="6.50866">
        <ele>1795.539</ele>
        <time>2026-03-21T13:36:09Z</time>
      </trkpt>
      <trkpt lat="45.92894" lon="6.50866">
        <ele>1795.885</ele>
        <time>2026-03-21T13:36:14Z</time>
      </trkpt>
      <trkpt lat="45.92894" lon="6.50866">
        <ele>1795.835</ele>
        <time>2026-03-21T13:36:19Z</time>
      </trkpt>
      <trkpt lat="45.92894" lon="6.50866">
        <ele>1795.845</ele>
        <time>2026-03-21T13:36:24Z</time>
      </trkpt>
      <trkpt lat="45.92894" lon="6.50866">
        <ele>1795.845</ele>
        <time>2026-03-21T13:36:29Z</time>
      </trkpt>
      <trkpt lat="45.92894" lon="6.50866">
        <ele>1795.851</ele>
        <time>2026-03-21T13:36:34Z</time>
      </trkpt>
      <trkpt lat="45.92894" lon="6.50866">
        <ele>1795.858</ele>
        <time>2026-03-21T13:36:39Z</time>
      </trkpt>
      <trkpt lat="45.92894" lon="6.50866">
        <ele>1795.156</ele>
        <time>2026-03-21T13:36:44Z</time>
      </trkpt>
      <trkpt lat="45.92894" lon="6.50866">
        <ele>1790.504</ele>
        <time>2026-03-21T13:36:49Z</time>
      </trkpt>
      <trkpt lat="45.92894" lon="6.50866">
        <ele>1788.521</ele>
        <time>2026-03-21T13:36:54Z</time>
      </trkpt>
      <trkpt lat="45.92894" lon="6.50866">
        <ele>1788.066</ele>
        <time>2026-03-21T13:36:59Z</time>
      </trkpt>
      <trkpt lat="45.92895" lon="6.50862">
        <ele>1790.081</ele>
        <time>2026-03-21T13:37:04Z</time>
      </trkpt>
      <trkpt lat="45.92891" lon="6.50858">
        <ele>1792.828</ele>
        <time>2026-03-21T13:37:09Z</time>
      </trkpt>
      <trkpt lat="45.92889" lon="6.50856">
        <ele>1792.113</ele>
        <time>2026-03-21T13:37:14Z</time>
      </trkpt>
      <trkpt lat="45.92893" lon="6.50844">
        <ele>1785.505</ele>
        <time>2026-03-21T13:37:19Z</time>
      </trkpt>
      <trkpt lat="45.92903" lon="6.50841">
        <ele>1780.879</ele>
        <time>2026-03-21T13:37:24Z</time>
      </trkpt>
      <trkpt lat="45.92907" lon="6.50832">
        <ele>1776.943</ele>
        <time>2026-03-21T13:37:29Z</time>
      </trkpt>
      <trkpt lat="45.92912" lon="6.50823">
        <ele>1772.757</ele>
        <time>2026-03-21T13:37:34Z</time>
      </trkpt>
      <trkpt lat="45.92905" lon="6.50806">
        <ele>1773.224</ele>
        <time>2026-03-21T13:37:39Z</time>
      </trkpt>
      <trkpt lat="45.92912" lon="6.50801">
        <ele>1766.783</ele>
        <time>2026-03-21T13:37:44Z</time>
      </trkpt>
      <trkpt lat="45.92925" lon="6.50796">
        <ele>1765.505</ele>
        <time>2026-03-21T13:37:49Z</time>
      </trkpt>
      <trkpt lat="45.92928" lon="6.508">
        <ele>1765.429</ele>
        <time>2026-03-21T13:37:54Z</time>
      </trkpt>
      <trkpt lat="45.92928" lon="6.50802">
        <ele>1764.925</ele>
        <time>2026-03-21T13:37:59Z</time>
      </trkpt>
      <trkpt lat="45.92928" lon="6.50802">
        <ele>1762.383</ele>
        <time>2026-03-21T13:38:04Z</time>
      </trkpt>
      <trkpt lat="45.92928" lon="6.50802">
        <ele>1761.855</ele>
        <time>2026-03-21T13:38:09Z</time>
      </trkpt>
      <trkpt lat="45.92931" lon="6.50802">
        <ele>1756.34</ele>
        <time>2026-03-21T13:38:14Z</time>
      </trkpt>
      <trkpt lat="45.92945" lon="6.508">
        <ele>1746.999</ele>
        <time>2026-03-21T13:38:19Z</time>
      </trkpt>
      <trkpt lat="45.92945" lon="6.50779">
        <ele>1741.439</ele>
        <time>2026-03-21T13:38:24Z</time>
      </trkpt>
      <trkpt lat="45.92954" lon="6.50759">
        <ele>1731.621</ele>
        <time>2026-03-21T13:38:29Z</time>
      </trkpt>
      <trkpt lat="45.92948" lon="6.50747">
        <ele>1731.695</ele>
        <time>2026-03-21T13:38:34Z</time>
      </trkpt>
      <trkpt lat="45.92948" lon="6.50747">
        <ele>1733.242</ele>
        <time>2026-03-21T13:38:39Z</time>
      </trkpt>
      <trkpt lat="45.92948" lon="6.50747">
        <ele>1733.824</ele>
        <time>2026-03-21T13:38:44Z</time>
      </trkpt>
      <trkpt lat="45.92948" lon="6.50747">
        <ele>1736.222</ele>
        <time>2026-03-21T13:38:49Z</time>
      </trkpt>
      <trkpt lat="45.92951" lon="6.50747">
        <ele>1735.428</ele>
        <time>2026-03-21T13:38:54Z</time>
      </trkpt>
      <trkpt lat="45.92953" lon="6.50746">
        <ele>1737.346</ele>
        <time>2026-03-21T13:38:59Z</time>
      </trkpt>
      <trkpt lat="45.92956" lon="6.50745">
        <ele>1736.975</ele>
        <time>2026-03-21T13:39:04Z</time>
      </trkpt>
      <trkpt lat="45.92963" lon="6.50742">
        <ele>1731.022</ele>
        <time>2026-03-21T13:39:09Z</time>
      </trkpt>
      <trkpt lat="45.92981" lon="6.50735">
        <ele>1724.405</ele>
        <time>2026-03-21T13:39:14Z</time>
      </trkpt>
      <trkpt lat="45.92987" lon="6.50717">
        <ele>1706.765</ele>
        <time>2026-03-21T13:39:19Z</time>
      </trkpt>
      <trkpt lat="45.92989" lon="6.50715">
        <ele>1699.033</ele>
        <time>2026-03-21T13:39:24Z</time>
      </trkpt>
      <trkpt lat="45.92999" lon="6.50714">
        <ele>1698.712</ele>
        <time>2026-03-21T13:39:29Z</time>
      </trkpt>
      <trkpt lat="45.92997" lon="6.50702">
        <ele>1694.653</ele>
        <time>2026-03-21T13:39:34Z</time>
      </trkpt>
      <trkpt lat="45.92981" lon="6.50679">
        <ele>1692.165</ele>
        <time>2026-03-21T13:39:39Z</time>
      </trkpt>
      <trkpt lat="45.92968" lon="6.50668">
        <ele>1688.497</ele>
        <time>2026-03-21T13:39:44Z</time>
      </trkpt>
      <trkpt lat="45.92961" lon="6.50664">
        <ele>1689.966</ele>
        <time>2026-03-21T13:39:49Z</time>
      </trkpt>
      <trkpt lat="45.92961" lon="6.50663">
        <ele>1690.694</ele>
        <time>2026-03-21T13:39:54Z</time>
      </trkpt>
      <trkpt lat="45.92961" lon="6.50663">
        <ele>1691.312</ele>
        <time>2026-03-21T13:39:59Z</time>
      </trkpt>
      <trkpt lat="45.92961" lon="6.50663">
        <ele>1691.021</ele>
        <time>2026-03-21T13:40:04Z</time>
      </trkpt>
      <trkpt lat="45.92961" lon="6.50663">
        <ele>1690.605</ele>
        <time>2026-03-21T13:40:09Z</time>
      </trkpt>
      <trkpt lat="45.92961" lon="6.50663">
        <ele>1690.561</ele>
        <time>2026-03-21T13:40:14Z</time>
      </trkpt>
      <trkpt lat="45.92961" lon="6.50663">
        <ele>1690.603</ele>
        <time>2026-03-21T13:40:19Z</time>
      </trkpt>
      <trkpt lat="45.92961" lon="6.50663">
        <ele>1690.645</ele>
        <time>2026-03-21T13:40:24Z</time>
      </trkpt>
      <trkpt lat="45.92961" lon="6.50663">
        <ele>1692.042</ele>
        <time>2026-03-21T13:40:29Z</time>
      </trkpt>
      <trkpt lat="45.92961" lon="6.50663">
        <ele>1693.297</ele>
        <time>2026-03-21T13:40:34Z</time>
      </trkpt>
      <trkpt lat="45.92961" lon="6.50663">
        <ele>1693.182</ele>
        <time>2026-03-21T13:40:39Z</time>
      </trkpt>
      <trkpt lat="45.92961" lon="6.50663">
        <ele>1693.17</ele>
        <time>2026-03-21T13:40:44Z</time>
      </trkpt>
      <trkpt lat="45.92961" lon="6.50663">
        <ele>1693.176</ele>
        <time>2026-03-21T13:40:49Z</time>
      </trkpt>
      <trkpt lat="45.92961" lon="6.50663">
        <ele>1693.172</ele>
        <time>2026-03-21T13:40:54Z</time>
      </trkpt>
      <trkpt lat="45.92961" lon="6.50663">
        <ele>1693.187</ele>
        <time>2026-03-21T13:40:59Z</time>
      </trkpt>
      <trkpt lat="45.92961" lon="6.50663">
        <ele>1696.863</ele>
        <time>2026-03-21T13:41:04Z</time>
      </trkpt>
      <trkpt lat="45.92961" lon="6.50663">
        <ele>1700.51</ele>
        <time>2026-03-21T13:41:09Z</time>
      </trkpt>
      <trkpt lat="45.92961" lon="6.50663">
        <ele>1699.818</ele>
        <time>2026-03-21T13:41:14Z</time>
      </trkpt>
      <trkpt lat="45.92961" lon="6.50663">
        <ele>1700.091</ele>
        <time>2026-03-21T13:41:19Z</time>
      </trkpt>
      <trkpt lat="45.92961" lon="6.50663">
        <ele>1699.954</ele>
        <time>2026-03-21T13:41:24Z</time>
      </trkpt>
      <trkpt lat="45.92961" lon="6.50663">
        <ele>1695.079</ele>
        <time>2026-03-21T13:41:29Z</time>
      </trkpt>
      <trkpt lat="45.92961" lon="6.50663">
        <ele>1693.827</ele>
        <time>2026-03-21T13:41:34Z</time>
      </trkpt>
      <trkpt lat="45.92961" lon="6.50663">
        <ele>1693.814</ele>
        <time>2026-03-21T13:41:39Z</time>
      </trkpt>
      <trkpt lat="45.92962" lon="6.5066">
        <ele>1693.775</ele>
        <time>2026-03-21T13:41:44Z</time>
      </trkpt>
      <trkpt lat="45.92962" lon="6.5066">
        <ele>1693.79</ele>
        <time>2026-03-21T13:41:49Z</time>
      </trkpt>
      <trkpt lat="45.92962" lon="6.5066">
        <ele>1693.754</ele>
        <time>2026-03-21T13:41:54Z</time>
      </trkpt>
      <trkpt lat="45.92962" lon="6.5066">
        <ele>1693.694</ele>
        <time>2026-03-21T13:41:59Z</time>
      </trkpt>
      <trkpt lat="45.92961" lon="6.5066">
        <ele>1693.657</ele>
        <time>2026-03-21T13:42:04Z</time>
      </trkpt>
      <trkpt lat="45.92961" lon="6.5066">
        <ele>1693.626</ele>
        <time>2026-03-21T13:42:09Z</time>
      </trkpt>
      <trkpt lat="45.92961" lon="6.5066">
        <ele>1693.61</ele>
        <time>2026-03-21T13:42:14Z</time>
      </trkpt>
      <trkpt lat="45.92961" lon="6.5066">
        <ele>1693.592</ele>
        <time>2026-03-21T13:42:19Z</time>
      </trkpt>
      <trkpt lat="45.92961" lon="6.5066">
        <ele>1693.595</ele>
        <time>2026-03-21T13:42:24Z</time>
      </trkpt>
      <trkpt lat="45.92955" lon="6.50653">
        <ele>1687.438</ele>
        <time>2026-03-21T13:42:29Z</time>
      </trkpt>
      <trkpt lat="45.92944" lon="6.50629">
        <ele>1682.34</ele>
        <time>2026-03-21T13:42:34Z</time>
      </trkpt>
      <trkpt lat="45.92933" lon="6.50589">
        <ele>1677.655</ele>
        <time>2026-03-21T13:42:39Z</time>
      </trkpt>
      <trkpt lat="45.92933" lon="6.50551">
        <ele>1676.592</ele>
        <time>2026-03-21T13:42:44Z</time>
      </trkpt>
      <trkpt lat="45.92925" lon="6.5053">
        <ele>1677.127</ele>
        <time>2026-03-21T13:42:49Z</time>
      </trkpt>
      <trkpt lat="45.92922" lon="6.50524">
        <ele>1677.019</ele>
        <time>2026-03-21T13:42:54Z</time>
      </trkpt>
      <trkpt lat="45.92917" lon="6.50517">
        <ele>1676.761</ele>
        <time>2026-03-21T13:42:59Z</time>
      </trkpt>
      <trkpt lat="45.92906" lon="6.50501">
        <ele>1675.073</ele>
        <time>2026-03-21T13:43:04Z</time>
      </trkpt>
      <trkpt lat="45.9289" lon="6.50488">
        <ele>1672.935</ele>
        <time>2026-03-21T13:43:09Z</time>
      </trkpt>
      <trkpt lat="45.92885" lon="6.50486">
        <ele>1671.166</ele>
        <time>2026-03-21T13:43:14Z</time>
      </trkpt>
      <trkpt lat="45.92885" lon="6.50486">
        <ele>1671.784</ele>
        <time>2026-03-21T13:43:19Z</time>
      </trkpt>
      <trkpt lat="45.92885" lon="6.50486">
        <ele>1671.915</ele>
        <time>2026-03-21T13:43:24Z</time>
      </trkpt>
      <trkpt lat="45.92885" lon="6.50486">
        <ele>1675.433</ele>
        <time>2026-03-21T13:43:29Z</time>
      </trkpt>
      <trkpt lat="45.92885" lon="6.50486">
        <ele>1669.009</ele>
        <time>2026-03-21T13:43:34Z</time>
      </trkpt>
      <trkpt lat="45.92885" lon="6.50487">
        <ele>1669.697</ele>
        <time>2026-03-21T13:43:39Z</time>
      </trkpt>
      <trkpt lat="45.92884" lon="6.50486">
        <ele>1666.789</ele>
        <time>2026-03-21T13:43:44Z</time>
      </trkpt>
      <trkpt lat="45.92882" lon="6.50486">
        <ele>1665.876</ele>
        <time>2026-03-21T13:43:49Z</time>
      </trkpt>
      <trkpt lat="45.92882" lon="6.50486">
        <ele>1666.004</ele>
        <time>2026-03-21T13:43:54Z</time>
      </trkpt>
      <trkpt lat="45.92874" lon="6.50484">
        <ele>1665.875</ele>
        <time>2026-03-21T13:43:59Z</time>
      </trkpt>
      <trkpt lat="45.92866" lon="6.50467">
        <ele>1661.712</ele>
        <time>2026-03-21T13:44:04Z</time>
      </trkpt>
      <trkpt lat="45.92845" lon="6.50455">
        <ele>1657.443</ele>
        <time>2026-03-21T13:44:09Z</time>
      </trkpt>
      <trkpt lat="45.9283" lon="6.50433">
        <ele>1655.556</ele>
        <time>2026-03-21T13:44:14Z</time>
      </trkpt>
      <trkpt lat="45.92821" lon="6.5042">
        <ele>1654.321</ele>
        <time>2026-03-21T13:44:19Z</time>
      </trkpt>
      <trkpt lat="45.9282" lon="6.50417">
        <ele>1654.018</ele>
        <time>2026-03-21T13:44:24Z</time>
      </trkpt>
      <trkpt lat="45.92817" lon="6.50413">
        <ele>1653.434</ele>
        <time>2026-03-21T13:44:29Z</time>
      </trkpt>
      <trkpt lat="45.92808" lon="6.50395">
        <ele>1650.93</ele>
        <time>2026-03-21T13:44:34Z</time>
      </trkpt>
      <trkpt lat="45.92809" lon="6.5038">
        <ele>1647.107</ele>
        <time>2026-03-21T13:44:39Z</time>
      </trkpt>
      <trkpt lat="45.92809" lon="6.5038">
        <ele>1646.957</ele>
        <time>2026-03-21T13:44:44Z</time>
      </trkpt>
      <trkpt lat="45.92808" lon="6.5038">
        <ele>1646.848</ele>
        <time>2026-03-21T13:44:49Z</time>
      </trkpt>
      <trkpt lat="45.92806" lon="6.5038">
        <ele>1647.382</ele>
        <time>2026-03-21T13:44:54Z</time>
      </trkpt>
      <trkpt lat="45.92806" lon="6.5038">
        <ele>1650.584</ele>
        <time>2026-03-21T13:44:59Z</time>
      </trkpt>
      <trkpt lat="45.92806" lon="6.5038">
        <ele>1649.228</ele>
        <time>2026-03-21T13:45:04Z</time>
      </trkpt>
      <trkpt lat="45.92806" lon="6.5038">
        <ele>1646.914</ele>
        <time>2026-03-21T13:45:09Z</time>
      </trkpt>
      <trkpt lat="45.92806" lon="6.5038">
        <ele>1646.148</ele>
        <time>2026-03-21T13:45:14Z</time>
      </trkpt>
      <trkpt lat="45.92806" lon="6.5038">
        <ele>1646.256</ele>
        <time>2026-03-21T13:45:19Z</time>
      </trkpt>
      <trkpt lat="45.92806" lon="6.5038">
        <ele>1646.9</ele>
        <time>2026-03-21T13:45:24Z</time>
      </trkpt>
      <trkpt lat="45.92806" lon="6.5038">
        <ele>1646.96</ele>
        <time>2026-03-21T13:45:29Z</time>
      </trkpt>
      <trkpt lat="45.92806" lon="6.5038">
        <ele>1647.471</ele>
        <time>2026-03-21T13:45:34Z</time>
      </trkpt>
      <trkpt lat="45.92806" lon="6.5038">
        <ele>1647.61</ele>
        <time>2026-03-21T13:45:39Z</time>
      </trkpt>
      <trkpt lat="45.92806" lon="6.5038">
        <ele>1648.652</ele>
        <time>2026-03-21T13:45:44Z</time>
      </trkpt>
      <trkpt lat="45.92806" lon="6.5038">
        <ele>1647.769</ele>
        <time>2026-03-21T13:45:49Z</time>
      </trkpt>
      <trkpt lat="45.92806" lon="6.5038">
        <ele>1646.794</ele>
        <time>2026-03-21T13:45:54Z</time>
      </trkpt>
      <trkpt lat="45.92798" lon="6.50368">
        <ele>1647.441</ele>
        <time>2026-03-21T13:45:59Z</time>
      </trkpt>
      <trkpt lat="45.92798" lon="6.50368">
        <ele>1647.339</ele>
        <time>2026-03-21T13:46:04Z</time>
      </trkpt>
      <trkpt lat="45.92798" lon="6.50368">
        <ele>1647.386</ele>
        <time>2026-03-21T13:46:09Z</time>
      </trkpt>
      <trkpt lat="45.92798" lon="6.50368">
        <ele>1647.389</ele>
        <time>2026-03-21T13:46:14Z</time>
      </trkpt>
      <trkpt lat="45.92797" lon="6.50364">
        <ele>1646.243</ele>
        <time>2026-03-21T13:46:19Z</time>
      </trkpt>
      <trkpt lat="45.92801" lon="6.50351">
        <ele>1642.459</ele>
        <time>2026-03-21T13:46:24Z</time>
      </trkpt>
      <trkpt lat="45.92804" lon="6.50336">
        <ele>1637.396</ele>
        <time>2026-03-21T13:46:29Z</time>
      </trkpt>
      <trkpt lat="45.928" lon="6.50331">
        <ele>1633.919</ele>
        <time>2026-03-21T13:46:34Z</time>
      </trkpt>
      <trkpt lat="45.928" lon="6.50319">
        <ele>1628.715</ele>
        <time>2026-03-21T13:46:39Z</time>
      </trkpt>
      <trkpt lat="45.92804" lon="6.5031">
        <ele>1622.249</ele>
        <time>2026-03-21T13:46:44Z</time>
      </trkpt>
      <trkpt lat="45.92798" lon="6.50294">
        <ele>1617.139</ele>
        <time>2026-03-21T13:46:49Z</time>
      </trkpt>
      <trkpt lat="45.92804" lon="6.50283">
        <ele>1610.754</ele>
        <time>2026-03-21T13:46:54Z</time>
      </trkpt>
      <trkpt lat="45.92808" lon="6.50265">
        <ele>1604.119</ele>
        <time>2026-03-21T13:46:59Z</time>
      </trkpt>
      <trkpt lat="45.92814" lon="6.50249">
        <ele>1598.948</ele>
        <time>2026-03-21T13:47:04Z</time>
      </trkpt>
      <trkpt lat="45.92823" lon="6.5024">
        <ele>1599.161</ele>
        <time>2026-03-21T13:47:09Z</time>
      </trkpt>
      <trkpt lat="45.92824" lon="6.5024">
        <ele>1599.761</ele>
        <time>2026-03-21T13:47:14Z</time>
      </trkpt>
      <trkpt lat="45.92825" lon="6.5024">
        <ele>1599.663</ele>
        <time>2026-03-21T13:47:19Z</time>
      </trkpt>
      <trkpt lat="45.92826" lon="6.5024">
        <ele>1599.652</ele>
        <time>2026-03-21T13:47:24Z</time>
      </trkpt>
      <trkpt lat="45.92825" lon="6.5024">
        <ele>1599.564</ele>
        <time>2026-03-21T13:47:29Z</time>
      </trkpt>
      <trkpt lat="45.92815" lon="6.5023">
        <ele>1598.222</ele>
        <time>2026-03-21T13:47:34Z</time>
      </trkpt>
      <trkpt lat="45.928" lon="6.50213">
        <ele>1591.673</ele>
        <time>2026-03-21T13:47:39Z</time>
      </trkpt>
      <trkpt lat="45.9278" lon="6.50194">
        <ele>1588.183</ele>
        <time>2026-03-21T13:47:44Z</time>
      </trkpt>
      <trkpt lat="45.92769" lon="6.50178">
        <ele>1586.437</ele>
        <time>2026-03-21T13:47:49Z</time>
      </trkpt>
      <trkpt lat="45.92755" lon="6.50161">
        <ele>1587.275</ele>
        <time>2026-03-21T13:47:54Z</time>
      </trkpt>
      <trkpt lat="45.92745" lon="6.5015">
        <ele>1582.599</ele>
        <time>2026-03-21T13:47:59Z</time>
      </trkpt>
      <trkpt lat="45.92735" lon="6.50124">
        <ele>1579.794</ele>
        <time>2026-03-21T13:48:04Z</time>
      </trkpt>
      <trkpt lat="45.92726" lon="6.50111">
        <ele>1577.543</ele>
        <time>2026-03-21T13:48:09Z</time>
      </trkpt>
      <trkpt lat="45.92713" lon="6.50105">
        <ele>1578.15</ele>
        <time>2026-03-21T13:48:14Z</time>
      </trkpt>
      <trkpt lat="45.927" lon="6.50083">
        <ele>1573.19</ele>
        <time>2026-03-21T13:48:19Z</time>
      </trkpt>
      <trkpt lat="45.92696" lon="6.50071">
        <ele>1569.086</ele>
        <time>2026-03-21T13:48:24Z</time>
      </trkpt>
      <trkpt lat="45.92698" lon="6.50057">
        <ele>1565.885</ele>
        <time>2026-03-21T13:48:29Z</time>
      </trkpt>
      <trkpt lat="45.92698" lon="6.50052">
        <ele>1564.137</ele>
        <time>2026-03-21T13:48:34Z</time>
      </trkpt>
      <trkpt lat="45.92698" lon="6.50052">
        <ele>1563.882</ele>
        <time>2026-03-21T13:48:39Z</time>
      </trkpt>
      <trkpt lat="45.92698" lon="6.50052">
        <ele>1561.749</ele>
        <time>2026-03-21T13:48:44Z</time>
      </trkpt>
      <trkpt lat="45.92698" lon="6.50052">
        <ele>1561.528</ele>
        <time>2026-03-21T13:48:49Z</time>
      </trkpt>
      <trkpt lat="45.92698" lon="6.50052">
        <ele>1561.544</ele>
        <time>2026-03-21T13:48:54Z</time>
      </trkpt>
      <trkpt lat="45.92698" lon="6.50052">
        <ele>1561.551</ele>
        <time>2026-03-21T13:48:59Z</time>
      </trkpt>
      <trkpt lat="45.92698" lon="6.50052">
        <ele>1561.502</ele>
        <time>2026-03-21T13:49:04Z</time>
      </trkpt>
      <trkpt lat="45.92689" lon="6.50048">
        <ele>1561.425</ele>
        <time>2026-03-21T13:49:09Z</time>
      </trkpt>
      <trkpt lat="45.92676" lon="6.50017">
        <ele>1555.9</ele>
        <time>2026-03-21T13:49:14Z</time>
      </trkpt>
      <trkpt lat="45.9268" lon="6.49992">
        <ele>1552.426</ele>
        <time>2026-03-21T13:49:19Z</time>
      </trkpt>
      <trkpt lat="45.92678" lon="6.49982">
        <ele>1553.739</ele>
        <time>2026-03-21T13:49:24Z</time>
      </trkpt>
      <trkpt lat="45.92671" lon="6.49966">
        <ele>1554.926</ele>
        <time>2026-03-21T13:49:29Z</time>
      </trkpt>
      <trkpt lat="45.92668" lon="6.49966">
        <ele>1553.562</ele>
        <time>2026-03-21T13:49:34Z</time>
      </trkpt>
      <trkpt lat="45.92668" lon="6.49966">
        <ele>1555.464</ele>
        <time>2026-03-21T13:49:39Z</time>
      </trkpt>
      <trkpt lat="45.92668" lon="6.49966">
        <ele>1556.233</ele>
        <time>2026-03-21T13:49:44Z</time>
      </trkpt>
      <trkpt lat="45.92668" lon="6.49966">
        <ele>1555.915</ele>
        <time>2026-03-21T13:49:49Z</time>
      </trkpt>
      <trkpt lat="45.92668" lon="6.49966">
        <ele>1555.704</ele>
        <time>2026-03-21T13:49:54Z</time>
      </trkpt>
      <trkpt lat="45.92668" lon="6.49966">
        <ele>1555.409</ele>
        <time>2026-03-21T13:49:59Z</time>
      </trkpt>
      <trkpt lat="45.92668" lon="6.49966">
        <ele>1555.383</ele>
        <time>2026-03-21T13:50:04Z</time>
      </trkpt>
      <trkpt lat="45.92668" lon="6.49966">
        <ele>1555.386</ele>
        <time>2026-03-21T13:50:09Z</time>
      </trkpt>
      <trkpt lat="45.92668" lon="6.49966">
        <ele>1555.369</ele>
        <time>2026-03-21T13:50:14Z</time>
      </trkpt>
      <trkpt lat="45.92668" lon="6.49966">
        <ele>1554.883</ele>
        <time>2026-03-21T13:50:19Z</time>
      </trkpt>
      <trkpt lat="45.92668" lon="6.49966">
        <ele>1554.911</ele>
        <time>2026-03-21T13:50:24Z</time>
      </trkpt>
      <trkpt lat="45.92668" lon="6.49966">
        <ele>1554.929</ele>
        <time>2026-03-21T13:50:29Z</time>
      </trkpt>
      <trkpt lat="45.92668" lon="6.49966">
        <ele>1554.907</ele>
        <time>2026-03-21T13:50:34Z</time>
      </trkpt>
      <trkpt lat="45.92668" lon="6.49966">
        <ele>1554.921</ele>
        <time>2026-03-21T13:50:39Z</time>
      </trkpt>
      <trkpt lat="45.92668" lon="6.49966">
        <ele>1554.925</ele>
        <time>2026-03-21T13:50:44Z</time>
      </trkpt>
      <trkpt lat="45.92668" lon="6.49966">
        <ele>1554.932</ele>
        <time>2026-03-21T13:50:49Z</time>
      </trkpt>
      <trkpt lat="45.92668" lon="6.49966">
        <ele>1554.942</ele>
        <time>2026-03-21T13:50:54Z</time>
      </trkpt>
      <trkpt lat="45.92668" lon="6.49966">
        <ele>1554.967</ele>
        <time>2026-03-21T13:50:59Z</time>
      </trkpt>
      <trkpt lat="45.92668" lon="6.49966">
        <ele>1553.877</ele>
        <time>2026-03-21T13:51:04Z</time>
      </trkpt>
      <trkpt lat="45.92668" lon="6.49966">
        <ele>1552.957</ele>
        <time>2026-03-21T13:51:09Z</time>
      </trkpt>
      <trkpt lat="45.92668" lon="6.49966">
        <ele>1552.999</ele>
        <time>2026-03-21T13:51:14Z</time>
      </trkpt>
      <trkpt lat="45.92668" lon="6.49966">
        <ele>1552.993</ele>
        <time>2026-03-21T13:51:19Z</time>
      </trkpt>
      <trkpt lat="45.92668" lon="6.49966">
        <ele>1553.018</ele>
        <time>2026-03-21T13:51:24Z</time>
      </trkpt>
      <trkpt lat="45.92668" lon="6.49966">
        <ele>1553.029</ele>
        <time>2026-03-21T13:51:29Z</time>
      </trkpt>
      <trkpt lat="45.92668" lon="6.49966">
        <ele>1553.033</ele>
        <time>2026-03-21T13:51:34Z</time>
      </trkpt>
      <trkpt lat="45.92668" lon="6.49966">
        <ele>1553.038</ele>
        <time>2026-03-21T13:51:39Z</time>
      </trkpt>
      <trkpt lat="45.92668" lon="6.49966">
        <ele>1553.926</ele>
        <time>2026-03-21T13:51:44Z</time>
      </trkpt>
      <trkpt lat="45.92668" lon="6.49966">
        <ele>1552.668</ele>
        <time>2026-03-21T13:51:49Z</time>
      </trkpt>
      <trkpt lat="45.92668" lon="6.49966">
        <ele>1552.347</ele>
        <time>2026-03-21T13:51:54Z</time>
      </trkpt>
      <trkpt lat="45.92668" lon="6.49966">
        <ele>1553.416</ele>
        <time>2026-03-21T13:51:59Z</time>
      </trkpt>
      <trkpt lat="45.92668" lon="6.49966">
        <ele>1553.333</ele>
        <time>2026-03-21T13:52:04Z</time>
      </trkpt>
      <trkpt lat="45.92668" lon="6.49966">
        <ele>1553.37</ele>
        <time>2026-03-21T13:52:09Z</time>
      </trkpt>
      <trkpt lat="45.92668" lon="6.49966">
        <ele>1553.371</ele>
        <time>2026-03-21T13:52:14Z</time>
      </trkpt>
      <trkpt lat="45.92668" lon="6.49966">
        <ele>1553.382</ele>
        <time>2026-03-21T13:52:19Z</time>
      </trkpt>
      <trkpt lat="45.92668" lon="6.49966">
        <ele>1553.336</ele>
        <time>2026-03-21T13:52:24Z</time>
      </trkpt>
      <trkpt lat="45.92668" lon="6.49966">
        <ele>1553.316</ele>
        <time>2026-03-21T13:52:29Z</time>
      </trkpt>
      <trkpt lat="45.92673" lon="6.49971">
        <ele>1553.29</ele>
        <time>2026-03-21T13:52:34Z</time>
      </trkpt>
      <trkpt lat="45.92673" lon="6.49971">
        <ele>1552.54</ele>
        <time>2026-03-21T13:52:39Z</time>
      </trkpt>
      <trkpt lat="45.92683" lon="6.49973">
        <ele>1547.712</ele>
        <time>2026-03-21T13:52:44Z</time>
      </trkpt>
      <trkpt lat="45.92697" lon="6.49969">
        <ele>1541.997</ele>
        <time>2026-03-21T13:52:49Z</time>
      </trkpt>
      <trkpt lat="45.92702" lon="6.49948">
        <ele>1534.996</ele>
        <time>2026-03-21T13:52:54Z</time>
      </trkpt>
      <trkpt lat="45.92708" lon="6.49928">
        <ele>1530.989</ele>
        <time>2026-03-21T13:52:59Z</time>
      </trkpt>
      <trkpt lat="45.92719" lon="6.49918">
        <ele>1523.672</ele>
        <time>2026-03-21T13:53:04Z</time>
      </trkpt>
      <trkpt lat="45.92729" lon="6.49924">
        <ele>1520.295</ele>
        <time>2026-03-21T13:53:09Z</time>
      </trkpt>
      <trkpt lat="45.92739" lon="6.49909">
        <ele>1514.717</ele>
        <time>2026-03-21T13:53:14Z</time>
      </trkpt>
      <trkpt lat="45.92754" lon="6.49906">
        <ele>1508.839</ele>
        <time>2026-03-21T13:53:19Z</time>
      </trkpt>
      <trkpt lat="45.92763" lon="6.49913">
        <ele>1507.188</ele>
        <time>2026-03-21T13:53:24Z</time>
      </trkpt>
      <trkpt lat="45.92769" lon="6.49917">
        <ele>1506.872</ele>
        <time>2026-03-21T13:53:29Z</time>
      </trkpt>
      <trkpt lat="45.92773" lon="6.49898">
        <ele>1501.784</ele>
        <time>2026-03-21T13:53:34Z</time>
      </trkpt>
      <trkpt lat="45.92773" lon="6.49898">
        <ele>1501.934</ele>
        <time>2026-03-21T13:53:39Z</time>
      </trkpt>
      <trkpt lat="45.92773" lon="6.49898">
        <ele>1502.479</ele>
        <time>2026-03-21T13:53:44Z</time>
      </trkpt>
      <trkpt lat="45.92773" lon="6.49898">
        <ele>1501.47</ele>
        <time>2026-03-21T13:53:49Z</time>
      </trkpt>
      <trkpt lat="45.92773" lon="6.49898">
        <ele>1501.624</ele>
        <time>2026-03-21T13:53:54Z</time>
      </trkpt>
      <trkpt lat="45.92773" lon="6.49898">
        <ele>1501.634</ele>
        <time>2026-03-21T13:53:59Z</time>
      </trkpt>
      <trkpt lat="45.92773" lon="6.49898">
        <ele>1501.624</ele>
        <time>2026-03-21T13:54:04Z</time>
      </trkpt>
      <trkpt lat="45.92773" lon="6.49898">
        <ele>1501.606</ele>
        <time>2026-03-21T13:54:09Z</time>
      </trkpt>
      <trkpt lat="45.92773" lon="6.49898">
        <ele>1501.606</ele>
        <time>2026-03-21T13:54:14Z</time>
      </trkpt>
      <trkpt lat="45.92773" lon="6.49898">
        <ele>1501.595</ele>
        <time>2026-03-21T13:54:19Z</time>
      </trkpt>
      <trkpt lat="45.92785" lon="6.499">
        <ele>1499.155</ele>
        <time>2026-03-21T13:54:24Z</time>
      </trkpt>
      <trkpt lat="45.92799" lon="6.4987">
        <ele>1493.208</ele>
        <time>2026-03-21T13:54:29Z</time>
      </trkpt>
      <trkpt lat="45.92814" lon="6.4984">
        <ele>1483.835</ele>
        <time>2026-03-21T13:54:34Z</time>
      </trkpt>
      <trkpt lat="45.92832" lon="6.49804">
        <ele>1474.072</ele>
        <time>2026-03-21T13:54:39Z</time>
      </trkpt>
      <trkpt lat="45.92848" lon="6.49763">
        <ele>1467.544</ele>
        <time>2026-03-21T13:54:44Z</time>
      </trkpt>
      <trkpt lat="45.92846" lon="6.49724">
        <ele>1461.123</ele>
        <time>2026-03-21T13:54:49Z</time>
      </trkpt>
      <trkpt lat="45.92856" lon="6.49687">
        <ele>1459.058</ele>
        <time>2026-03-21T13:54:54Z</time>
      </trkpt>
      <trkpt lat="45.92862" lon="6.49672">
        <ele>1460.141</ele>
        <time>2026-03-21T13:54:59Z</time>
      </trkpt>
      <trkpt lat="45.92863" lon="6.49671">
        <ele>1459.353</ele>
        <time>2026-03-21T13:55:04Z</time>
      </trkpt>
      <trkpt lat="45.92863" lon="6.49671">
        <ele>1459.171</ele>
        <time>2026-03-21T13:55:09Z</time>
      </trkpt>
      <trkpt lat="45.92863" lon="6.49671">
        <ele>1459.196</ele>
        <time>2026-03-21T13:55:14Z</time>
      </trkpt>
      <trkpt lat="45.92863" lon="6.49671">
        <ele>1459.189</ele>
        <time>2026-03-21T13:55:19Z</time>
      </trkpt>
      <trkpt lat="45.92863" lon="6.49671">
        <ele>1459.161</ele>
        <time>2026-03-21T13:55:24Z</time>
      </trkpt>
      <trkpt lat="45.92863" lon="6.49671">
        <ele>1459.239</ele>
        <time>2026-03-21T13:55:29Z</time>
      </trkpt>
      <trkpt lat="45.92863" lon="6.49671">
        <ele>1459.337</ele>
        <time>2026-03-21T13:55:34Z</time>
      </trkpt>
      <trkpt lat="45.92863" lon="6.49671">
        <ele>1459.471</ele>
        <time>2026-03-21T13:55:39Z</time>
      </trkpt>
      <trkpt lat="45.92863" lon="6.49671">
        <ele>1458.774</ele>
        <time>2026-03-21T13:55:44Z</time>
      </trkpt>
      <trkpt lat="45.92863" lon="6.49671">
        <ele>1459.321</ele>
        <time>2026-03-21T13:55:49Z</time>
      </trkpt>
      <trkpt lat="45.92863" lon="6.49671">
        <ele>1459.086</ele>
        <time>2026-03-21T13:55:54Z</time>
      </trkpt>
      <trkpt lat="45.92863" lon="6.49671">
        <ele>1459.219</ele>
        <time>2026-03-21T13:55:59Z</time>
      </trkpt>
      <trkpt lat="45.92863" lon="6.49671">
        <ele>1458.734</ele>
        <time>2026-03-21T13:56:04Z</time>
      </trkpt>
      <trkpt lat="45.92863" lon="6.49671">
        <ele>1458.511</ele>
        <time>2026-03-21T13:56:09Z</time>
      </trkpt>
      <trkpt lat="45.92863" lon="6.49671">
        <ele>1457.281</ele>
        <time>2026-03-21T13:56:14Z</time>
      </trkpt>
      <trkpt lat="45.92863" lon="6.49671">
        <ele>1456.819</ele>
        <time>2026-03-21T13:56:19Z</time>
      </trkpt>
      <trkpt lat="45.92863" lon="6.49671">
        <ele>1456.844</ele>
        <time>2026-03-21T13:56:24Z</time>
      </trkpt>
      <trkpt lat="45.92863" lon="6.49671">
        <ele>1456.845</ele>
        <time>2026-03-21T13:56:29Z</time>
      </trkpt>
      <trkpt lat="45.92864" lon="6.49669">
        <ele>1459.485</ele>
        <time>2026-03-21T13:56:34Z</time>
      </trkpt>
      <trkpt lat="45.92865" lon="6.49665">
        <ele>1459.853</ele>
        <time>2026-03-21T13:56:39Z</time>
      </trkpt>
      <trkpt lat="45.92866" lon="6.49661">
        <ele>1459.448</ele>
        <time>2026-03-21T13:56:44Z</time>
      </trkpt>
      <trkpt lat="45.92866" lon="6.49655">
        <ele>1459.479</ele>
        <time>2026-03-21T13:56:49Z</time>
      </trkpt>
      <trkpt lat="45.92866" lon="6.49651">
        <ele>1459.562</ele>
        <time>2026-03-21T13:56:54Z</time>
      </trkpt>
      <trkpt lat="45.92865" lon="6.49647">
        <ele>1458.688</ele>
        <time>2026-03-21T13:56:59Z</time>
      </trkpt>
      <trkpt lat="45.92865" lon="6.49644">
        <ele>1458.785</ele>
        <time>2026-03-21T13:57:04Z</time>
      </trkpt>
      <trkpt lat="45.92864" lon="6.4964">
        <ele>1459.169</ele>
        <time>2026-03-21T13:57:09Z</time>
      </trkpt>
      <trkpt lat="45.92864" lon="6.49636">
        <ele>1459.093</ele>
        <time>2026-03-21T13:57:14Z</time>
      </trkpt>
      <trkpt lat="45.92863" lon="6.49633">
        <ele>1459.476</ele>
        <time>2026-03-21T13:57:19Z</time>
      </trkpt>
      <trkpt lat="45.92862" lon="6.4963">
        <ele>1460.916</ele>
        <time>2026-03-21T13:57:24Z</time>
      </trkpt>
      <trkpt lat="45.92862" lon="6.49624">
        <ele>1462.574</ele>
        <time>2026-03-21T13:57:29Z</time>
      </trkpt>
      <trkpt lat="45.92862" lon="6.49622">
        <ele>1461.972</ele>
        <time>2026-03-21T13:57:34Z</time>
      </trkpt>
      <trkpt lat="45.92862" lon="6.49622">
        <ele>1462.474</ele>
        <time>2026-03-21T13:57:39Z</time>
      </trkpt>
      <trkpt lat="45.92862" lon="6.49622">
        <ele>1462.124</ele>
        <time>2026-03-21T13:57:44Z</time>
      </trkpt>
      <trkpt lat="45.92859" lon="6.49619">
        <ele>1464.425</ele>
        <time>2026-03-21T13:57:49Z</time>
      </trkpt>
      <trkpt lat="45.92858" lon="6.49614">
        <ele>1463.477</ele>
        <time>2026-03-21T13:57:54Z</time>
      </trkpt>
      <trkpt lat="45.92857" lon="6.49609">
        <ele>1463.499</ele>
        <time>2026-03-21T13:57:59Z</time>
      </trkpt>
      <trkpt lat="45.92855" lon="6.49608">
        <ele>1463.791</ele>
        <time>2026-03-21T13:58:04Z</time>
      </trkpt>
      <trkpt lat="45.92854" lon="6.49608">
        <ele>1463.791</ele>
        <time>2026-03-21T13:58:09Z</time>
      </trkpt>
      <trkpt lat="45.92853" lon="6.49605">
        <ele>1463.91</ele>
        <time>2026-03-21T13:58:14Z</time>
      </trkpt>
      <trkpt lat="45.92853" lon="6.49603">
        <ele>1466.797</ele>
        <time>2026-03-21T13:58:19Z</time>
      </trkpt>
      <trkpt lat="45.92853" lon="6.49599">
        <ele>1466.466</ele>
        <time>2026-03-21T13:58:24Z</time>
      </trkpt>
      <trkpt lat="45.92853" lon="6.49596">
        <ele>1468.38</ele>
        <time>2026-03-21T13:58:29Z</time>
      </trkpt>
      <trkpt lat="45.92854" lon="6.49594">
        <ele>1468.643</ele>
        <time>2026-03-21T13:58:34Z</time>
      </trkpt>
      <trkpt lat="45.92855" lon="6.4959">
        <ele>1468.693</ele>
        <time>2026-03-21T13:58:39Z</time>
      </trkpt>
      <trkpt lat="45.92855" lon="6.4959">
        <ele>1468.21</ele>
        <time>2026-03-21T13:58:44Z</time>
      </trkpt>
      <trkpt lat="45.92855" lon="6.4959">
        <ele>1468.1</ele>
        <time>2026-03-21T13:58:49Z</time>
      </trkpt>
      <trkpt lat="45.92855" lon="6.4959">
        <ele>1468.057</ele>
        <time>2026-03-21T13:58:54Z</time>
      </trkpt>
      <trkpt lat="45.92855" lon="6.4959">
        <ele>1468.032</ele>
        <time>2026-03-21T13:58:59Z</time>
      </trkpt>
      <trkpt lat="45.92855" lon="6.4959">
        <ele>1468.049</ele>
        <time>2026-03-21T13:59:04Z</time>
      </trkpt>
      <trkpt lat="45.92855" lon="6.4959">
        <ele>1467.86</ele>
        <time>2026-03-21T13:59:09Z</time>
      </trkpt>
      <trkpt lat="45.92855" lon="6.4959">
        <ele>1467.275</ele>
        <time>2026-03-21T13:59:14Z</time>
      </trkpt>
      <trkpt lat="45.92855" lon="6.4959">
        <ele>1469.291</ele>
        <time>2026-03-21T13:59:19Z</time>
      </trkpt>
      <trkpt lat="45.92855" lon="6.4959">
        <ele>1469.265</ele>
        <time>2026-03-21T13:59:24Z</time>
      </trkpt>
      <trkpt lat="45.92855" lon="6.4959">
        <ele>1468.889</ele>
        <time>2026-03-21T13:59:29Z</time>
      </trkpt>
      <trkpt lat="45.92855" lon="6.4959">
        <ele>1468.828</ele>
        <time>2026-03-21T13:59:34Z</time>
      </trkpt>
      <trkpt lat="45.92855" lon="6.4959">
        <ele>1468.242</ele>
        <time>2026-03-21T13:59:39Z</time>
      </trkpt>
      <trkpt lat="45.92856" lon="6.49584">
        <ele>1467.947</ele>
        <time>2026-03-21T13:59:44Z</time>
      </trkpt>
      <trkpt lat="45.92856" lon="6.49576">
        <ele>1470.244</ele>
        <time>2026-03-21T13:59:49Z</time>
      </trkpt>
      <trkpt lat="45.92855" lon="6.49569">
        <ele>1472.413</ele>
        <time>2026-03-21T13:59:54Z</time>
      </trkpt>
      <trkpt lat="45.92856" lon="6.49565">
        <ele>1472.714</ele>
        <time>2026-03-21T13:59:59Z</time>
      </trkpt>
      <trkpt lat="45.92858" lon="6.49561">
        <ele>1473.179</ele>
        <time>2026-03-21T14:00:04Z</time>
      </trkpt>
      <trkpt lat="45.92858" lon="6.4956">
        <ele>1473.531</ele>
        <time>2026-03-21T14:00:09Z</time>
      </trkpt>
      <trkpt lat="45.92858" lon="6.4956">
        <ele>1473.532</ele>
        <time>2026-03-21T14:00:14Z</time>
      </trkpt>
      <trkpt lat="45.92858" lon="6.4956">
        <ele>1473.537</ele>
        <time>2026-03-21T14:00:19Z</time>
      </trkpt>
      <trkpt lat="45.92858" lon="6.4956">
        <ele>1473.535</ele>
        <time>2026-03-21T14:00:24Z</time>
      </trkpt>
      <trkpt lat="45.92858" lon="6.4956">
        <ele>1473.535</ele>
        <time>2026-03-21T14:00:29Z</time>
      </trkpt>
      <trkpt lat="45.92858" lon="6.4956">
        <ele>1473.541</ele>
        <time>2026-03-21T14:00:34Z</time>
      </trkpt>
      <trkpt lat="45.92858" lon="6.4956">
        <ele>1473.524</ele>
        <time>2026-03-21T14:00:39Z</time>
      </trkpt>
      <trkpt lat="45.92858" lon="6.4956">
        <ele>1473.511</ele>
        <time>2026-03-21T14:00:44Z</time>
      </trkpt>
      <trkpt lat="45.92858" lon="6.4956">
        <ele>1473.403</ele>
        <time>2026-03-21T14:00:49Z</time>
      </trkpt>
      <trkpt lat="45.92858" lon="6.4956">
        <ele>1473.407</ele>
        <time>2026-03-21T14:00:54Z</time>
      </trkpt>
      <trkpt lat="45.92858" lon="6.4956">
        <ele>1473.409</ele>
        <time>2026-03-21T14:00:59Z</time>
      </trkpt>
      <trkpt lat="45.92858" lon="6.4956">
        <ele>1473.405</ele>
        <time>2026-03-21T14:01:04Z</time>
      </trkpt>
      <trkpt lat="45.92858" lon="6.4956">
        <ele>1473.399</ele>
        <time>2026-03-21T14:01:09Z</time>
      </trkpt>
      <trkpt lat="45.92858" lon="6.4956">
        <ele>1473.404</ele>
        <time>2026-03-21T14:01:14Z</time>
      </trkpt>
      <trkpt lat="45.92858" lon="6.4956">
        <ele>1476.2</ele>
        <time>2026-03-21T14:01:19Z</time>
      </trkpt>
      <trkpt lat="45.92858" lon="6.4956">
        <ele>1477.028</ele>
        <time>2026-03-21T14:01:24Z</time>
      </trkpt>
      <trkpt lat="45.92858" lon="6.4956">
        <ele>1477.346</ele>
        <time>2026-03-21T14:01:29Z</time>
      </trkpt>
      <trkpt lat="45.92858" lon="6.4956">
        <ele>1476.847</ele>
        <time>2026-03-21T14:01:34Z</time>
      </trkpt>
      <trkpt lat="45.92858" lon="6.4956">
        <ele>1474.768</ele>
        <time>2026-03-21T14:01:39Z</time>
      </trkpt>
      <trkpt lat="45.92858" lon="6.4956">
        <ele>1474.069</ele>
        <time>2026-03-21T14:01:44Z</time>
      </trkpt>
      <trkpt lat="45.92858" lon="6.4956">
        <ele>1473.885</ele>
        <time>2026-03-21T14:01:49Z</time>
      </trkpt>
      <trkpt lat="45.92858" lon="6.4956">
        <ele>1473.828</ele>
        <time>2026-03-21T14:01:54Z</time>
      </trkpt>
      <trkpt lat="45.92858" lon="6.4956">
        <ele>1473.267</ele>
        <time>2026-03-21T14:01:59Z</time>
      </trkpt>
      <trkpt lat="45.92858" lon="6.4956">
        <ele>1473.149</ele>
        <time>2026-03-21T14:02:04Z</time>
      </trkpt>
      <trkpt lat="45.92858" lon="6.4956">
        <ele>1475.976</ele>
        <time>2026-03-21T14:02:09Z</time>
      </trkpt>
      <trkpt lat="45.92858" lon="6.4956">
        <ele>1476.441</ele>
        <time>2026-03-21T14:02:14Z</time>
      </trkpt>
      <trkpt lat="45.92858" lon="6.4956">
        <ele>1476.084</ele>
        <time>2026-03-21T14:02:19Z</time>
      </trkpt>
      <trkpt lat="45.92858" lon="6.4956">
        <ele>1474.557</ele>
        <time>2026-03-21T14:02:24Z</time>
      </trkpt>
      <trkpt lat="45.92858" lon="6.4956">
        <ele>1473.467</ele>
        <time>2026-03-21T14:02:29Z</time>
      </trkpt>
      <trkpt lat="45.92858" lon="6.4956">
        <ele>1473.44</ele>
        <time>2026-03-21T14:02:34Z</time>
      </trkpt>
      <trkpt lat="45.92858" lon="6.4956">
        <ele>1475.588</ele>
        <time>2026-03-21T14:02:39Z</time>
      </trkpt>
      <trkpt lat="45.92858" lon="6.4956">
        <ele>1476.95</ele>
        <time>2026-03-21T14:02:44Z</time>
      </trkpt>
      <trkpt lat="45.92858" lon="6.4956">
        <ele>1476.545</ele>
        <time>2026-03-21T14:02:49Z</time>
      </trkpt>
      <trkpt lat="45.92858" lon="6.4956">
        <ele>1476.092</ele>
        <time>2026-03-21T14:02:54Z</time>
      </trkpt>
      <trkpt lat="45.92858" lon="6.4956">
        <ele>1476.038</ele>
        <time>2026-03-21T14:02:59Z</time>
      </trkpt>
      <trkpt lat="45.92858" lon="6.4956">
        <ele>1476.025</ele>
        <time>2026-03-21T14:03:04Z</time>
      </trkpt>
      <trkpt lat="45.92858" lon="6.4956">
        <ele>1476.011</ele>
        <time>2026-03-21T14:03:09Z</time>
      </trkpt>
      <trkpt lat="45.92858" lon="6.4956">
        <ele>1475.99</ele>
        <time>2026-03-21T14:03:14Z</time>
      </trkpt>
      <trkpt lat="45.92858" lon="6.4956">
        <ele>1475.978</ele>
        <time>2026-03-21T14:03:19Z</time>
      </trkpt>
      <trkpt lat="45.92858" lon="6.4956">
        <ele>1475.96</ele>
        <time>2026-03-21T14:03:24Z</time>
      </trkpt>
      <trkpt lat="45.92858" lon="6.4956">
        <ele>1475.957</ele>
        <time>2026-03-21T14:03:29Z</time>
      </trkpt>
      <trkpt lat="45.92858" lon="6.4956">
        <ele>1475.011</ele>
        <time>2026-03-21T14:03:34Z</time>
      </trkpt>
      <trkpt lat="45.92858" lon="6.4956">
        <ele>1475.733</ele>
        <time>2026-03-21T14:03:39Z</time>
      </trkpt>
      <trkpt lat="45.92858" lon="6.4956">
        <ele>1475.981</ele>
        <time>2026-03-21T14:03:44Z</time>
      </trkpt>
      <trkpt lat="45.92858" lon="6.4956">
        <ele>1476.147</ele>
        <time>2026-03-21T14:03:49Z</time>
      </trkpt>
      <trkpt lat="45.92858" lon="6.4956">
        <ele>1476.142</ele>
        <time>2026-03-21T14:03:54Z</time>
      </trkpt>
      <trkpt lat="45.92858" lon="6.4956">
        <ele>1476.143</ele>
        <time>2026-03-21T14:03:59Z</time>
      </trkpt>
      <trkpt lat="45.92858" lon="6.4956">
        <ele>1476.216</ele>
        <time>2026-03-21T14:04:04Z</time>
      </trkpt>
      <trkpt lat="45.92858" lon="6.4956">
        <ele>1476.214</ele>
        <time>2026-03-21T14:04:09Z</time>
      </trkpt>
      <trkpt lat="45.92858" lon="6.4956">
        <ele>1476.205</ele>
        <time>2026-03-21T14:04:14Z</time>
      </trkpt>
      <trkpt lat="45.92858" lon="6.4956">
        <ele>1476.195</ele>
        <time>2026-03-21T14:04:19Z</time>
      </trkpt>
      <trkpt lat="45.92858" lon="6.4956">
        <ele>1476.182</ele>
        <time>2026-03-21T14:04:24Z</time>
      </trkpt>
      <trkpt lat="45.92858" lon="6.4956">
        <ele>1474.724</ele>
        <time>2026-03-21T14:04:29Z</time>
      </trkpt>
      <trkpt lat="45.92858" lon="6.4956">
        <ele>1474.147</ele>
        <time>2026-03-21T14:04:34Z</time>
      </trkpt>
      <trkpt lat="45.92858" lon="6.4956">
        <ele>1476.028</ele>
        <time>2026-03-21T14:04:39Z</time>
      </trkpt>
      <trkpt lat="45.92857" lon="6.49559">
        <ele>1477.374</ele>
        <time>2026-03-21T14:04:44Z</time>
      </trkpt>
      <trkpt lat="45.92857" lon="6.49552">
        <ele>1476.1</ele>
        <time>2026-03-21T14:04:49Z</time>
      </trkpt>
      <trkpt lat="45.92854" lon="6.49546">
        <ele>1476.156</ele>
        <time>2026-03-21T14:04:54Z</time>
      </trkpt>
      <trkpt lat="45.92852" lon="6.49541">
        <ele>1476.2</ele>
        <time>2026-03-21T14:04:59Z</time>
      </trkpt>
      <trkpt lat="45.9285" lon="6.49537">
        <ele>1477.38</ele>
        <time>2026-03-21T14:05:04Z</time>
      </trkpt>
      <trkpt lat="45.92848" lon="6.49533">
        <ele>1478.612</ele>
        <time>2026-03-21T14:05:09Z</time>
      </trkpt>
      <trkpt lat="45.92845" lon="6.4953">
        <ele>1478.929</ele>
        <time>2026-03-21T14:05:14Z</time>
      </trkpt>
      <trkpt lat="45.92843" lon="6.49527">
        <ele>1478.725</ele>
        <time>2026-03-21T14:05:19Z</time>
      </trkpt>
      <trkpt lat="45.9284" lon="6.49525">
        <ele>1479.791</ele>
        <time>2026-03-21T14:05:24Z</time>
      </trkpt>
      <trkpt lat="45.92838" lon="6.49522">
        <ele>1480.513</ele>
        <time>2026-03-21T14:05:29Z</time>
      </trkpt>
      <trkpt lat="45.92835" lon="6.49519">
        <ele>1481.069</ele>
        <time>2026-03-21T14:05:34Z</time>
      </trkpt>
      <trkpt lat="45.92833" lon="6.49516">
        <ele>1481.887</ele>
        <time>2026-03-21T14:05:39Z</time>
      </trkpt>
      <trkpt lat="45.9283" lon="6.49513">
        <ele>1482.401</ele>
        <time>2026-03-21T14:05:44Z</time>
      </trkpt>
      <trkpt lat="45.92827" lon="6.49511">
        <ele>1482.16</ele>
        <time>2026-03-21T14:05:49Z</time>
      </trkpt>
      <trkpt lat="45.92823" lon="6.49509">
        <ele>1482.567</ele>
        <time>2026-03-21T14:05:54Z</time>
      </trkpt>
      <trkpt lat="45.92819" lon="6.49508">
        <ele>1483.516</ele>
        <time>2026-03-21T14:05:59Z</time>
      </trkpt>
      <trkpt lat="45.92816" lon="6.49506">
        <ele>1483.93</ele>
        <time>2026-03-21T14:06:04Z</time>
      </trkpt>
      <trkpt lat="45.92812" lon="6.49505">
        <ele>1484.011</ele>
        <time>2026-03-21T14:06:09Z</time>
      </trkpt>
      <trkpt lat="45.92809" lon="6.49504">
        <ele>1484.533</ele>
        <time>2026-03-21T14:06:14Z</time>
      </trkpt>
      <trkpt lat="45.92806" lon="6.49502">
        <ele>1485.389</ele>
        <time>2026-03-21T14:06:19Z</time>
      </trkpt>
      <trkpt lat="45.92803" lon="6.495">
        <ele>1486.3</ele>
        <time>2026-03-21T14:06:24Z</time>
      </trkpt>
      <trkpt lat="45.928" lon="6.49498">
        <ele>1486.942</ele>
        <time>2026-03-21T14:06:29Z</time>
      </trkpt>
      <trkpt lat="45.92797" lon="6.49497">
        <ele>1488.099</ele>
        <time>2026-03-21T14:06:34Z</time>
      </trkpt>
      <trkpt lat="45.92793" lon="6.49496">
        <ele>1488.251</ele>
        <time>2026-03-21T14:06:39Z</time>
      </trkpt>
      <trkpt lat="45.9279" lon="6.49495">
        <ele>1488.157</ele>
        <time>2026-03-21T14:06:44Z</time>
      </trkpt>
      <trkpt lat="45.92787" lon="6.49493">
        <ele>1488.582</ele>
        <time>2026-03-21T14:06:49Z</time>
      </trkpt>
      <trkpt lat="45.92784" lon="6.49492">
        <ele>1489</ele>
        <time>2026-03-21T14:06:54Z</time>
      </trkpt>
      <trkpt lat="45.92782" lon="6.4949">
        <ele>1490.321</ele>
        <time>2026-03-21T14:06:59Z</time>
      </trkpt>
      <trkpt lat="45.92779" lon="6.49489">
        <ele>1490.603</ele>
        <time>2026-03-21T14:07:04Z</time>
      </trkpt>
      <trkpt lat="45.92776" lon="6.49486">
        <ele>1490.957</ele>
        <time>2026-03-21T14:07:09Z</time>
      </trkpt>
      <trkpt lat="45.92774" lon="6.49484">
        <ele>1492.948</ele>
        <time>2026-03-21T14:07:14Z</time>
      </trkpt>
      <trkpt lat="45.92771" lon="6.49482">
        <ele>1493.095</ele>
        <time>2026-03-21T14:07:19Z</time>
      </trkpt>
      <trkpt lat="45.92769" lon="6.49477">
        <ele>1492.982</ele>
        <time>2026-03-21T14:07:24Z</time>
      </trkpt>
      <trkpt lat="45.92766" lon="6.49474">
        <ele>1492.897</ele>
        <time>2026-03-21T14:07:29Z</time>
      </trkpt>
      <trkpt lat="45.92763" lon="6.4947">
        <ele>1493.207</ele>
        <time>2026-03-21T14:07:34Z</time>
      </trkpt>
      <trkpt lat="45.92761" lon="6.49466">
        <ele>1493.793</ele>
        <time>2026-03-21T14:07:39Z</time>
      </trkpt>
      <trkpt lat="45.92758" lon="6.49462">
        <ele>1494.433</ele>
        <time>2026-03-21T14:07:44Z</time>
      </trkpt>
      <trkpt lat="45.92756" lon="6.49458">
        <ele>1494.557</ele>
        <time>2026-03-21T14:07:49Z</time>
      </trkpt>
      <trkpt lat="45.92756" lon="6.49458">
        <ele>1494.353</ele>
        <time>2026-03-21T14:07:54Z</time>
      </trkpt>
      <trkpt lat="45.92756" lon="6.49458">
        <ele>1494.714</ele>
        <time>2026-03-21T14:07:59Z</time>
      </trkpt>
      <trkpt lat="45.92755" lon="6.49457">
        <ele>1494.655</ele>
        <time>2026-03-21T14:08:04Z</time>
      </trkpt>
      <trkpt lat="45.92753" lon="6.49454">
        <ele>1494.633</ele>
        <time>2026-03-21T14:08:09Z</time>
      </trkpt>
      <trkpt lat="45.92753" lon="6.49454">
        <ele>1494.647</ele>
        <time>2026-03-21T14:08:14Z</time>
      </trkpt>
      <trkpt lat="45.92753" lon="6.49454">
        <ele>1494.648</ele>
        <time>2026-03-21T14:08:19Z</time>
      </trkpt>
      <trkpt lat="45.92753" lon="6.49454">
        <ele>1494.649</ele>
        <time>2026-03-21T14:08:24Z</time>
      </trkpt>
      <trkpt lat="45.92752" lon="6.49454">
        <ele>1494.739</ele>
        <time>2026-03-21T14:08:29Z</time>
      </trkpt>
      <trkpt lat="45.92749" lon="6.49448">
        <ele>1494.141</ele>
        <time>2026-03-21T14:08:34Z</time>
      </trkpt>
      <trkpt lat="45.92743" lon="6.49434">
        <ele>1493.46</ele>
        <time>2026-03-21T14:08:39Z</time>
      </trkpt>
      <trkpt lat="45.92736" lon="6.49419">
        <ele>1493.665</ele>
        <time>2026-03-21T14:08:44Z</time>
      </trkpt>
      <trkpt lat="45.92734" lon="6.49407">
        <ele>1493.405</ele>
        <time>2026-03-21T14:08:49Z</time>
      </trkpt>
      <trkpt lat="45.9273" lon="6.49393">
        <ele>1493.275</ele>
        <time>2026-03-21T14:08:54Z</time>
      </trkpt>
      <trkpt lat="45.92727" lon="6.49382">
        <ele>1493.595</ele>
        <time>2026-03-21T14:08:59Z</time>
      </trkpt>
      <trkpt lat="45.92721" lon="6.49372">
        <ele>1493.721</ele>
        <time>2026-03-21T14:09:04Z</time>
      </trkpt>
      <trkpt lat="45.92712" lon="6.49353">
        <ele>1491.523</ele>
        <time>2026-03-21T14:09:09Z</time>
      </trkpt>
      <trkpt lat="45.92705" lon="6.4932">
        <ele>1490.9</ele>
        <time>2026-03-21T14:09:14Z</time>
      </trkpt>
      <trkpt lat="45.92691" lon="6.49291">
        <ele>1487.613</ele>
        <time>2026-03-21T14:09:19Z</time>
      </trkpt>
      <trkpt lat="45.92675" lon="6.49275">
        <ele>1486.338</ele>
        <time>2026-03-21T14:09:24Z</time>
      </trkpt>
      <trkpt lat="45.92667" lon="6.49271">
        <ele>1486.692</ele>
        <time>2026-03-21T14:09:29Z</time>
      </trkpt>
      <trkpt lat="45.92664" lon="6.49271">
        <ele>1487.653</ele>
        <time>2026-03-21T14:09:34Z</time>
      </trkpt>
      <trkpt lat="45.9266" lon="6.49267">
        <ele>1490.804</ele>
        <time>2026-03-21T14:09:39Z</time>
      </trkpt>
      <trkpt lat="45.92657" lon="6.49267">
        <ele>1488.615</ele>
        <time>2026-03-21T14:09:44Z</time>
      </trkpt>
      <trkpt lat="45.92655" lon="6.49267">
        <ele>1487.008</ele>
        <time>2026-03-21T14:09:49Z</time>
      </trkpt>
      <trkpt lat="45.92654" lon="6.49266">
        <ele>1485.24</ele>
        <time>2026-03-21T14:09:54Z</time>
      </trkpt>
      <trkpt lat="45.92653" lon="6.49265">
        <ele>1485.298</ele>
        <time>2026-03-21T14:09:59Z</time>
      </trkpt>
      <trkpt lat="45.92653" lon="6.49265">
        <ele>1485.296</ele>
        <time>2026-03-21T14:10:04Z</time>
      </trkpt>
      <trkpt lat="45.92653" lon="6.49265">
        <ele>1485.245</ele>
        <time>2026-03-21T14:10:09Z</time>
      </trkpt>
      <trkpt lat="45.92653" lon="6.49264">
        <ele>1485.876</ele>
        <time>2026-03-21T14:10:14Z</time>
      </trkpt>
      <trkpt lat="45.92652" lon="6.49263">
        <ele>1486.563</ele>
        <time>2026-03-21T14:10:19Z</time>
      </trkpt>
      <trkpt lat="45.92652" lon="6.49262">
        <ele>1486.695</ele>
        <time>2026-03-21T14:10:24Z</time>
      </trkpt>
      <trkpt lat="45.9265" lon="6.49262">
        <ele>1488.76</ele>
        <time>2026-03-21T14:10:29Z</time>
      </trkpt>
      <trkpt lat="45.92646" lon="6.4926">
        <ele>1488.918</ele>
        <time>2026-03-21T14:10:34Z</time>
      </trkpt>
      <trkpt lat="45.92643" lon="6.49258">
        <ele>1488.979</ele>
        <time>2026-03-21T14:10:39Z</time>
      </trkpt>
      <trkpt lat="45.9264" lon="6.49257">
        <ele>1488.807</ele>
        <time>2026-03-21T14:10:44Z</time>
      </trkpt>
      <trkpt lat="45.92637" lon="6.49254">
        <ele>1488.061</ele>
        <time>2026-03-21T14:10:49Z</time>
      </trkpt>
      <trkpt lat="45.92634" lon="6.49251">
        <ele>1487.416</ele>
        <time>2026-03-21T14:10:54Z</time>
      </trkpt>
      <trkpt lat="45.92632" lon="6.49247">
        <ele>1487.532</ele>
        <time>2026-03-21T14:10:59Z</time>
      </trkpt>
      <trkpt lat="45.92629" lon="6.49243">
        <ele>1487.679</ele>
        <time>2026-03-21T14:11:04Z</time>
      </trkpt>
      <trkpt lat="45.92626" lon="6.49241">
        <ele>1488.262</ele>
        <time>2026-03-21T14:11:09Z</time>
      </trkpt>
      <trkpt lat="45.92624" lon="6.49239">
        <ele>1487.402</ele>
        <time>2026-03-21T14:11:14Z</time>
      </trkpt>
      <trkpt lat="45.92621" lon="6.49236">
        <ele>1488.207</ele>
        <time>2026-03-21T14:11:19Z</time>
      </trkpt>
      <trkpt lat="45.92619" lon="6.49235">
        <ele>1489.52</ele>
        <time>2026-03-21T14:11:24Z</time>
      </trkpt>
      <trkpt lat="45.92618" lon="6.49234">
        <ele>1490.128</ele>
        <time>2026-03-21T14:11:29Z</time>
      </trkpt>
      <trkpt lat="45.92616" lon="6.49233">
        <ele>1489.879</ele>
        <time>2026-03-21T14:11:34Z</time>
      </trkpt>
      <trkpt lat="45.92613" lon="6.49232">
        <ele>1490.176</ele>
        <time>2026-03-21T14:11:39Z</time>
      </trkpt>
      <trkpt lat="45.9261" lon="6.49231">
        <ele>1490.93</ele>
        <time>2026-03-21T14:11:44Z</time>
      </trkpt>
      <trkpt lat="45.92607" lon="6.49229">
        <ele>1490.339</ele>
        <time>2026-03-21T14:11:49Z</time>
      </trkpt>
      <trkpt lat="45.92605" lon="6.4923">
        <ele>1490.153</ele>
        <time>2026-03-21T14:11:54Z</time>
      </trkpt>
      <trkpt lat="45.92602" lon="6.4923">
        <ele>1492.157</ele>
        <time>2026-03-21T14:11:59Z</time>
      </trkpt>
      <trkpt lat="45.926" lon="6.49228">
        <ele>1492.071</ele>
        <time>2026-03-21T14:12:04Z</time>
      </trkpt>
      <trkpt lat="45.926" lon="6.49228">
        <ele>1492.194</ele>
        <time>2026-03-21T14:12:09Z</time>
      </trkpt>
      <trkpt lat="45.92599" lon="6.49227">
        <ele>1491.602</ele>
        <time>2026-03-21T14:12:14Z</time>
      </trkpt>
      <trkpt lat="45.92597" lon="6.49228">
        <ele>1492.013</ele>
        <time>2026-03-21T14:12:19Z</time>
      </trkpt>
      <trkpt lat="45.92597" lon="6.49228">
        <ele>1492.009</ele>
        <time>2026-03-21T14:12:24Z</time>
      </trkpt>
      <trkpt lat="45.92597" lon="6.49228">
        <ele>1492.007</ele>
        <time>2026-03-21T14:12:29Z</time>
      </trkpt>
      <trkpt lat="45.92596" lon="6.49228">
        <ele>1492.449</ele>
        <time>2026-03-21T14:12:34Z</time>
      </trkpt>
      <trkpt lat="45.92592" lon="6.49228">
        <ele>1492.696</ele>
        <time>2026-03-21T14:12:39Z</time>
      </trkpt>
      <trkpt lat="45.92588" lon="6.49228">
        <ele>1492.879</ele>
        <time>2026-03-21T14:12:44Z</time>
      </trkpt>
      <trkpt lat="45.92583" lon="6.49225">
        <ele>1492.76</ele>
        <time>2026-03-21T14:12:49Z</time>
      </trkpt>
      <trkpt lat="45.9258" lon="6.49223">
        <ele>1492.519</ele>
        <time>2026-03-21T14:12:54Z</time>
      </trkpt>
      <trkpt lat="45.92576" lon="6.49222">
        <ele>1492.388</ele>
        <time>2026-03-21T14:12:59Z</time>
      </trkpt>
      <trkpt lat="45.92573" lon="6.49222">
        <ele>1493.382</ele>
        <time>2026-03-21T14:13:04Z</time>
      </trkpt>
      <trkpt lat="45.92572" lon="6.49222">
        <ele>1493.76</ele>
        <time>2026-03-21T14:13:09Z</time>
      </trkpt>
      <trkpt lat="45.92568" lon="6.49222">
        <ele>1493.723</ele>
        <time>2026-03-21T14:13:14Z</time>
      </trkpt>
      <trkpt lat="45.92563" lon="6.4922">
        <ele>1493.557</ele>
        <time>2026-03-21T14:13:19Z</time>
      </trkpt>
      <trkpt lat="45.92559" lon="6.49219">
        <ele>1493.747</ele>
        <time>2026-03-21T14:13:24Z</time>
      </trkpt>
      <trkpt lat="45.92555" lon="6.49218">
        <ele>1494.259</ele>
        <time>2026-03-21T14:13:29Z</time>
      </trkpt>
      <trkpt lat="45.92551" lon="6.49216">
        <ele>1494.728</ele>
        <time>2026-03-21T14:13:34Z</time>
      </trkpt>
      <trkpt lat="45.92548" lon="6.49216">
        <ele>1495.458</ele>
        <time>2026-03-21T14:13:39Z</time>
      </trkpt>
      <trkpt lat="45.92544" lon="6.49216">
        <ele>1495.671</ele>
        <time>2026-03-21T14:13:44Z</time>
      </trkpt>
      <trkpt lat="45.9254" lon="6.49215">
        <ele>1496.052</ele>
        <time>2026-03-21T14:13:49Z</time>
      </trkpt>
      <trkpt lat="45.92536" lon="6.49214">
        <ele>1495.122</ele>
        <time>2026-03-21T14:13:54Z</time>
      </trkpt>
      <trkpt lat="45.92532" lon="6.49211">
        <ele>1495.268</ele>
        <time>2026-03-21T14:13:59Z</time>
      </trkpt>
      <trkpt lat="45.92529" lon="6.49208">
        <ele>1496.028</ele>
        <time>2026-03-21T14:14:04Z</time>
      </trkpt>
      <trkpt lat="45.92525" lon="6.49205">
        <ele>1495.923</ele>
        <time>2026-03-21T14:14:09Z</time>
      </trkpt>
      <trkpt lat="45.92521" lon="6.49203">
        <ele>1495.113</ele>
        <time>2026-03-21T14:14:14Z</time>
      </trkpt>
      <trkpt lat="45.92518" lon="6.49202">
        <ele>1494.831</ele>
        <time>2026-03-21T14:14:19Z</time>
      </trkpt>
      <trkpt lat="45.92514" lon="6.49201">
        <ele>1495.054</ele>
        <time>2026-03-21T14:14:24Z</time>
      </trkpt>
      <trkpt lat="45.9251" lon="6.492">
        <ele>1495.163</ele>
        <time>2026-03-21T14:14:29Z</time>
      </trkpt>
      <trkpt lat="45.92506" lon="6.49199">
        <ele>1495.741</ele>
        <time>2026-03-21T14:14:34Z</time>
      </trkpt>
      <trkpt lat="45.92502" lon="6.49197">
        <ele>1495.857</ele>
        <time>2026-03-21T14:14:39Z</time>
      </trkpt>
      <trkpt lat="45.92498" lon="6.49195">
        <ele>1497.81</ele>
        <time>2026-03-21T14:14:44Z</time>
      </trkpt>
      <trkpt lat="45.92495" lon="6.49192">
        <ele>1497.842</ele>
        <time>2026-03-21T14:14:49Z</time>
      </trkpt>
      <trkpt lat="45.92491" lon="6.4919">
        <ele>1497.651</ele>
        <time>2026-03-21T14:14:54Z</time>
      </trkpt>
      <trkpt lat="45.92489" lon="6.49186">
        <ele>1497.79</ele>
        <time>2026-03-21T14:14:59Z</time>
      </trkpt>
      <trkpt lat="45.92487" lon="6.49184">
        <ele>1497.503</ele>
        <time>2026-03-21T14:15:04Z</time>
      </trkpt>
      <trkpt lat="45.92485" lon="6.49182">
        <ele>1497.565</ele>
        <time>2026-03-21T14:15:09Z</time>
      </trkpt>
      <trkpt lat="45.92484" lon="6.49181">
        <ele>1497.623</ele>
        <time>2026-03-21T14:15:14Z</time>
      </trkpt>
      <trkpt lat="45.92482" lon="6.49179">
        <ele>1497.665</ele>
        <time>2026-03-21T14:15:19Z</time>
      </trkpt>
      <trkpt lat="45.92479" lon="6.49174">
        <ele>1496.892</ele>
        <time>2026-03-21T14:15:24Z</time>
      </trkpt>
      <trkpt lat="45.92477" lon="6.49169">
        <ele>1496.507</ele>
        <time>2026-03-21T14:15:29Z</time>
      </trkpt>
      <trkpt lat="45.92475" lon="6.49167">
        <ele>1497.046</ele>
        <time>2026-03-21T14:15:34Z</time>
      </trkpt>
      <trkpt lat="45.92475" lon="6.49167">
        <ele>1497.045</ele>
        <time>2026-03-21T14:15:39Z</time>
      </trkpt>
      <trkpt lat="45.92475" lon="6.49167">
        <ele>1497.174</ele>
        <time>2026-03-21T14:15:44Z</time>
      </trkpt>
      <trkpt lat="45.92475" lon="6.49167">
        <ele>1497.19</ele>
        <time>2026-03-21T14:15:49Z</time>
      </trkpt>
      <trkpt lat="45.92475" lon="6.49167">
        <ele>1497.522</ele>
        <time>2026-03-21T14:15:54Z</time>
      </trkpt>
      <trkpt lat="45.92475" lon="6.49167">
        <ele>1497.526</ele>
        <time>2026-03-21T14:15:59Z</time>
      </trkpt>
      <trkpt lat="45.92475" lon="6.49167">
        <ele>1497.449</ele>
        <time>2026-03-21T14:16:04Z</time>
      </trkpt>
      <trkpt lat="45.92475" lon="6.49167">
        <ele>1497.589</ele>
        <time>2026-03-21T14:16:09Z</time>
      </trkpt>
      <trkpt lat="45.92475" lon="6.49167">
        <ele>1497.583</ele>
        <time>2026-03-21T14:16:14Z</time>
      </trkpt>
      <trkpt lat="45.92475" lon="6.49167">
        <ele>1497.579</ele>
        <time>2026-03-21T14:16:19Z</time>
      </trkpt>
      <trkpt lat="45.92475" lon="6.49167">
        <ele>1497.772</ele>
        <time>2026-03-21T14:16:24Z</time>
      </trkpt>
      <trkpt lat="45.92475" lon="6.49167">
        <ele>1497.768</ele>
        <time>2026-03-21T14:16:29Z</time>
      </trkpt>
      <trkpt lat="45.92475" lon="6.49167">
        <ele>1497.775</ele>
        <time>2026-03-21T14:16:34Z</time>
      </trkpt>
      <trkpt lat="45.92475" lon="6.49167">
        <ele>1497.781</ele>
        <time>2026-03-21T14:16:39Z</time>
      </trkpt>
      <trkpt lat="45.92475" lon="6.49167">
        <ele>1497.788</ele>
        <time>2026-03-21T14:16:44Z</time>
      </trkpt>
      <trkpt lat="45.92475" lon="6.49167">
        <ele>1497.791</ele>
        <time>2026-03-21T14:16:49Z</time>
      </trkpt>
      <trkpt lat="45.92475" lon="6.49167">
        <ele>1497.789</ele>
        <time>2026-03-21T14:16:54Z</time>
      </trkpt>
      <trkpt lat="45.92475" lon="6.49167">
        <ele>1497.795</ele>
        <time>2026-03-21T14:16:59Z</time>
      </trkpt>
      <trkpt lat="45.92475" lon="6.49167">
        <ele>1497.802</ele>
        <time>2026-03-21T14:17:04Z</time>
      </trkpt>
      <trkpt lat="45.92475" lon="6.49167">
        <ele>1498.047</ele>
        <time>2026-03-21T14:17:09Z</time>
      </trkpt>
      <trkpt lat="45.92475" lon="6.49167">
        <ele>1498.092</ele>
        <time>2026-03-21T14:17:14Z</time>
      </trkpt>
      <trkpt lat="45.92475" lon="6.49167">
        <ele>1498.1</ele>
        <time>2026-03-21T14:17:19Z</time>
      </trkpt>
      <trkpt lat="45.92475" lon="6.49167">
        <ele>1498.11</ele>
        <time>2026-03-21T14:17:24Z</time>
      </trkpt>
      <trkpt lat="45.92472" lon="6.49163">
        <ele>1498.119</ele>
        <time>2026-03-21T14:17:29Z</time>
      </trkpt>
      <trkpt lat="45.92472" lon="6.49163">
        <ele>1498.123</ele>
        <time>2026-03-21T14:17:34Z</time>
      </trkpt>
      <trkpt lat="45.92472" lon="6.49163">
        <ele>1498.125</ele>
        <time>2026-03-21T14:17:39Z</time>
      </trkpt>
      <trkpt lat="45.92472" lon="6.49163">
        <ele>1498.126</ele>
        <time>2026-03-21T14:17:44Z</time>
      </trkpt>
      <trkpt lat="45.92472" lon="6.49163">
        <ele>1498.125</ele>
        <time>2026-03-21T14:17:49Z</time>
      </trkpt>
      <trkpt lat="45.92472" lon="6.49163">
        <ele>1498.127</ele>
        <time>2026-03-21T14:17:54Z</time>
      </trkpt>
      <trkpt lat="45.92472" lon="6.49163">
        <ele>1498.044</ele>
        <time>2026-03-21T14:17:59Z</time>
      </trkpt>
      <trkpt lat="45.92472" lon="6.49163">
        <ele>1498.037</ele>
        <time>2026-03-21T14:18:04Z</time>
      </trkpt>
      <trkpt lat="45.92472" lon="6.49163">
        <ele>1498.035</ele>
        <time>2026-03-21T14:18:09Z</time>
      </trkpt>
      <trkpt lat="45.92472" lon="6.49163">
        <ele>1498.034</ele>
        <time>2026-03-21T14:18:14Z</time>
      </trkpt>
      <trkpt lat="45.92472" lon="6.49163">
        <ele>1498.038</ele>
        <time>2026-03-21T14:18:19Z</time>
      </trkpt>
      <trkpt lat="45.92472" lon="6.49163">
        <ele>1498.04</ele>
        <time>2026-03-21T14:18:24Z</time>
      </trkpt>
      <trkpt lat="45.92465" lon="6.49153">
        <ele>1498</ele>
        <time>2026-03-21T14:18:29Z</time>
      </trkpt>
      <trkpt lat="45.92463" lon="6.49149">
        <ele>1499.105</ele>
        <time>2026-03-21T14:18:34Z</time>
      </trkpt>
      <trkpt lat="45.92463" lon="6.49148">
        <ele>1498.427</ele>
        <time>2026-03-21T14:18:39Z</time>
      </trkpt>
      <trkpt lat="45.92463" lon="6.49148">
        <ele>1498.426</ele>
        <time>2026-03-21T14:18:44Z</time>
      </trkpt>
      <trkpt lat="45.92463" lon="6.49147">
        <ele>1498.485</ele>
        <time>2026-03-21T14:18:49Z</time>
      </trkpt>
      <trkpt lat="45.92456" lon="6.49138">
        <ele>1497.578</ele>
        <time>2026-03-21T14:18:54Z</time>
      </trkpt>
      <trkpt lat="45.92445" lon="6.49127">
        <ele>1493.639</ele>
        <time>2026-03-21T14:18:59Z</time>
      </trkpt>
      <trkpt lat="45.9243" lon="6.49126">
        <ele>1493.998</ele>
        <time>2026-03-21T14:19:04Z</time>
      </trkpt>
      <trkpt lat="45.9241" lon="6.49118">
        <ele>1489.768</ele>
        <time>2026-03-21T14:19:09Z</time>
      </trkpt>
      <trkpt lat="45.92377" lon="6.49116">
        <ele>1483.36</ele>
        <time>2026-03-21T14:19:14Z</time>
      </trkpt>
      <trkpt lat="45.9235" lon="6.49082">
        <ele>1479.414</ele>
        <time>2026-03-21T14:19:19Z</time>
      </trkpt>
      <trkpt lat="45.92319" lon="6.49063">
        <ele>1474.319</ele>
        <time>2026-03-21T14:19:24Z</time>
      </trkpt>
      <trkpt lat="45.92291" lon="6.49045">
        <ele>1469.765</ele>
        <time>2026-03-21T14:19:29Z</time>
      </trkpt>
      <trkpt lat="45.92263" lon="6.49004">
        <ele>1463.94</ele>
        <time>2026-03-21T14:19:34Z</time>
      </trkpt>
      <trkpt lat="45.92234" lon="6.48968">
        <ele>1460.01</ele>
        <time>2026-03-21T14:19:39Z</time>
      </trkpt>
      <trkpt lat="45.92207" lon="6.48931">
        <ele>1457.35</ele>
        <time>2026-03-21T14:19:44Z</time>
      </trkpt>
      <trkpt lat="45.9218" lon="6.48897">
        <ele>1455.118</ele>
        <time>2026-03-21T14:19:49Z</time>
      </trkpt>
      <trkpt lat="45.92167" lon="6.48868">
        <ele>1454.034</ele>
        <time>2026-03-21T14:19:54Z</time>
      </trkpt>
      <trkpt lat="45.92167" lon="6.48862">
        <ele>1454.495</ele>
        <time>2026-03-21T14:19:59Z</time>
      </trkpt>
      <trkpt lat="45.92167" lon="6.48862">
        <ele>1454.725</ele>
        <time>2026-03-21T14:20:04Z</time>
      </trkpt>
      <trkpt lat="45.92167" lon="6.48862">
        <ele>1454.149</ele>
        <time>2026-03-21T14:20:09Z</time>
      </trkpt>
      <trkpt lat="45.92167" lon="6.48862">
        <ele>1454.153</ele>
        <time>2026-03-21T14:20:14Z</time>
      </trkpt>
      <trkpt lat="45.92167" lon="6.48862">
        <ele>1454.223</ele>
        <time>2026-03-21T14:20:19Z</time>
      </trkpt>
      <trkpt lat="45.92167" lon="6.48862">
        <ele>1454.317</ele>
        <time>2026-03-21T14:20:24Z</time>
      </trkpt>
      <trkpt lat="45.92167" lon="6.48862">
        <ele>1454.314</ele>
        <time>2026-03-21T14:20:29Z</time>
      </trkpt>
      <trkpt lat="45.92167" lon="6.48862">
        <ele>1454.315</ele>
        <time>2026-03-21T14:20:34Z</time>
      </trkpt>
      <trkpt lat="45.92167" lon="6.48862">
        <ele>1454.867</ele>
        <time>2026-03-21T14:20:39Z</time>
      </trkpt>
      <trkpt lat="45.92167" lon="6.48862">
        <ele>1454.084</ele>
        <time>2026-03-21T14:20:44Z</time>
      </trkpt>
      <trkpt lat="45.92168" lon="6.48856">
        <ele>1452.657</ele>
        <time>2026-03-21T14:20:49Z</time>
      </trkpt>
      <trkpt lat="45.92167" lon="6.48852">
        <ele>1453.809</ele>
        <time>2026-03-21T14:20:54Z</time>
      </trkpt>
      <trkpt lat="45.92169" lon="6.48847">
        <ele>1453.997</ele>
        <time>2026-03-21T14:20:59Z</time>
      </trkpt>
      <trkpt lat="45.92173" lon="6.48844">
        <ele>1457.131</ele>
        <time>2026-03-21T14:21:04Z</time>
      </trkpt>
      <trkpt lat="45.92174" lon="6.48841">
        <ele>1455.42</ele>
        <time>2026-03-21T14:21:09Z</time>
      </trkpt>
      <trkpt lat="45.92175" lon="6.48836">
        <ele>1454.939</ele>
        <time>2026-03-21T14:21:14Z</time>
      </trkpt>
      <trkpt lat="45.92176" lon="6.48832">
        <ele>1454.91</ele>
        <time>2026-03-21T14:21:19Z</time>
      </trkpt>
      <trkpt lat="45.92178" lon="6.48829">
        <ele>1454.777</ele>
        <time>2026-03-21T14:21:24Z</time>
      </trkpt>
      <trkpt lat="45.92179" lon="6.48825">
        <ele>1456.001</ele>
        <time>2026-03-21T14:21:29Z</time>
      </trkpt>
      <trkpt lat="45.9218" lon="6.48822">
        <ele>1456.223</ele>
        <time>2026-03-21T14:21:34Z</time>
      </trkpt>
      <trkpt lat="45.92181" lon="6.48819">
        <ele>1457.058</ele>
        <time>2026-03-21T14:21:39Z</time>
      </trkpt>
      <trkpt lat="45.92182" lon="6.48814">
        <ele>1457.421</ele>
        <time>2026-03-21T14:21:44Z</time>
      </trkpt>
      <trkpt lat="45.92181" lon="6.4881">
        <ele>1458.722</ele>
        <time>2026-03-21T14:21:49Z</time>
      </trkpt>
      <trkpt lat="45.9218" lon="6.48805">
        <ele>1458.792</ele>
        <time>2026-03-21T14:21:54Z</time>
      </trkpt>
      <trkpt lat="45.9218" lon="6.48801">
        <ele>1458.737</ele>
        <time>2026-03-21T14:21:59Z</time>
      </trkpt>
      <trkpt lat="45.9218" lon="6.48796">
        <ele>1459.257</ele>
        <time>2026-03-21T14:22:04Z</time>
      </trkpt>
      <trkpt lat="45.92179" lon="6.48791">
        <ele>1460.2</ele>
        <time>2026-03-21T14:22:09Z</time>
      </trkpt>
      <trkpt lat="45.92178" lon="6.48787">
        <ele>1460.272</ele>
        <time>2026-03-21T14:22:14Z</time>
      </trkpt>
      <trkpt lat="45.92176" lon="6.48783">
        <ele>1459.391</ele>
        <time>2026-03-21T14:22:19Z</time>
      </trkpt>
      <trkpt lat="45.92175" lon="6.48778">
        <ele>1459.544</ele>
        <time>2026-03-21T14:22:24Z</time>
      </trkpt>
      <trkpt lat="45.92173" lon="6.48774">
        <ele>1459.862</ele>
        <time>2026-03-21T14:22:29Z</time>
      </trkpt>
      <trkpt lat="45.92172" lon="6.48769">
        <ele>1460.044</ele>
        <time>2026-03-21T14:22:34Z</time>
      </trkpt>
      <trkpt lat="45.92171" lon="6.48765">
        <ele>1459.874</ele>
        <time>2026-03-21T14:22:39Z</time>
      </trkpt>
      <trkpt lat="45.9217" lon="6.48761">
        <ele>1460.589</ele>
        <time>2026-03-21T14:22:44Z</time>
      </trkpt>
      <trkpt lat="45.92168" lon="6.48757">
        <ele>1460.683</ele>
        <time>2026-03-21T14:22:49Z</time>
      </trkpt>
      <trkpt lat="45.92168" lon="6.48753">
        <ele>1461.068</ele>
        <time>2026-03-21T14:22:54Z</time>
      </trkpt>
      <trkpt lat="45.92167" lon="6.4875">
        <ele>1461.023</ele>
        <time>2026-03-21T14:22:59Z</time>
      </trkpt>
      <trkpt lat="45.92166" lon="6.48746">
        <ele>1461.836</ele>
        <time>2026-03-21T14:23:04Z</time>
      </trkpt>
      <trkpt lat="45.92165" lon="6.48742">
        <ele>1462.271</ele>
        <time>2026-03-21T14:23:09Z</time>
      </trkpt>
      <trkpt lat="45.92164" lon="6.48738">
        <ele>1463.147</ele>
        <time>2026-03-21T14:23:14Z</time>
      </trkpt>
      <trkpt lat="45.92162" lon="6.48733">
        <ele>1463.362</ele>
        <time>2026-03-21T14:23:19Z</time>
      </trkpt>
      <trkpt lat="45.9216" lon="6.48729">
        <ele>1463.593</ele>
        <time>2026-03-21T14:23:24Z</time>
      </trkpt>
      <trkpt lat="45.92159" lon="6.48725">
        <ele>1464.098</ele>
        <time>2026-03-21T14:23:29Z</time>
      </trkpt>
      <trkpt lat="45.92158" lon="6.48721">
        <ele>1464.192</ele>
        <time>2026-03-21T14:23:34Z</time>
      </trkpt>
      <trkpt lat="45.92157" lon="6.48717">
        <ele>1463.997</ele>
        <time>2026-03-21T14:23:39Z</time>
      </trkpt>
      <trkpt lat="45.92155" lon="6.48712">
        <ele>1464.266</ele>
        <time>2026-03-21T14:23:44Z</time>
      </trkpt>
      <trkpt lat="45.92153" lon="6.48709">
        <ele>1464.144</ele>
        <time>2026-03-21T14:23:49Z</time>
      </trkpt>
      <trkpt lat="45.92151" lon="6.48705">
        <ele>1465.118</ele>
        <time>2026-03-21T14:23:54Z</time>
      </trkpt>
      <trkpt lat="45.92149" lon="6.48701">
        <ele>1465.57</ele>
        <time>2026-03-21T14:23:59Z</time>
      </trkpt>
      <trkpt lat="45.92147" lon="6.48698">
        <ele>1465.366</ele>
        <time>2026-03-21T14:24:04Z</time>
      </trkpt>
      <trkpt lat="45.92144" lon="6.48695">
        <ele>1465.166</ele>
        <time>2026-03-21T14:24:09Z</time>
      </trkpt>
      <trkpt lat="45.92141" lon="6.48691">
        <ele>1464.775</ele>
        <time>2026-03-21T14:24:14Z</time>
      </trkpt>
      <trkpt lat="45.9214" lon="6.4869">
        <ele>1464.528</ele>
        <time>2026-03-21T14:24:19Z</time>
      </trkpt>
      <trkpt lat="45.9214" lon="6.4869">
        <ele>1464.517</ele>
        <time>2026-03-21T14:24:24Z</time>
      </trkpt>
      <trkpt lat="45.9214" lon="6.4869">
        <ele>1464.512</ele>
        <time>2026-03-21T14:24:29Z</time>
      </trkpt>
      <trkpt lat="45.9214" lon="6.4869">
        <ele>1464.508</ele>
        <time>2026-03-21T14:24:34Z</time>
      </trkpt>
      <trkpt lat="45.9214" lon="6.4869">
        <ele>1464.519</ele>
        <time>2026-03-21T14:24:39Z</time>
      </trkpt>
      <trkpt lat="45.9214" lon="6.4869">
        <ele>1464.519</ele>
        <time>2026-03-21T14:24:44Z</time>
      </trkpt>
      <trkpt lat="45.9214" lon="6.4869">
        <ele>1464.515</ele>
        <time>2026-03-21T14:24:49Z</time>
      </trkpt>
      <trkpt lat="45.9214" lon="6.4869">
        <ele>1464.917</ele>
        <time>2026-03-21T14:24:54Z</time>
      </trkpt>
      <trkpt lat="45.9214" lon="6.4869">
        <ele>1464.916</ele>
        <time>2026-03-21T14:24:59Z</time>
      </trkpt>
      <trkpt lat="45.9214" lon="6.4869">
        <ele>1464.913</ele>
        <time>2026-03-21T14:25:04Z</time>
      </trkpt>
      <trkpt lat="45.9214" lon="6.4869">
        <ele>1464.924</ele>
        <time>2026-03-21T14:25:09Z</time>
      </trkpt>
      <trkpt lat="45.9214" lon="6.4869">
        <ele>1464.94</ele>
        <time>2026-03-21T14:25:14Z</time>
      </trkpt>
      <trkpt lat="45.9214" lon="6.4869">
        <ele>1464.953</ele>
        <time>2026-03-21T14:25:19Z</time>
      </trkpt>
      <trkpt lat="45.9214" lon="6.4869">
        <ele>1464.97</ele>
        <time>2026-03-21T14:25:24Z</time>
      </trkpt>
      <trkpt lat="45.9214" lon="6.4869">
        <ele>1465.217</ele>
        <time>2026-03-21T14:25:29Z</time>
      </trkpt>
      <trkpt lat="45.9214" lon="6.4869">
        <ele>1465.206</ele>
        <time>2026-03-21T14:25:34Z</time>
      </trkpt>
      <trkpt lat="45.9214" lon="6.4869">
        <ele>1465.198</ele>
        <time>2026-03-21T14:25:39Z</time>
      </trkpt>
      <trkpt lat="45.9214" lon="6.4869">
        <ele>1465.189</ele>
        <time>2026-03-21T14:25:44Z</time>
      </trkpt>
      <trkpt lat="45.9214" lon="6.4869">
        <ele>1465.183</ele>
        <time>2026-03-21T14:25:49Z</time>
      </trkpt>
      <trkpt lat="45.92139" lon="6.48688">
        <ele>1465.178</ele>
        <time>2026-03-21T14:25:54Z</time>
      </trkpt>
      <trkpt lat="45.92139" lon="6.48688">
        <ele>1465.176</ele>
        <time>2026-03-21T14:25:59Z</time>
      </trkpt>
      <trkpt lat="45.92139" lon="6.48688">
        <ele>1465.178</ele>
        <time>2026-03-21T14:26:04Z</time>
      </trkpt>
      <trkpt lat="45.92139" lon="6.48688">
        <ele>1465.18</ele>
        <time>2026-03-21T14:26:09Z</time>
      </trkpt>
      <trkpt lat="45.92138" lon="6.48686">
        <ele>1465.143</ele>
        <time>2026-03-21T14:26:14Z</time>
      </trkpt>
      <trkpt lat="45.92137" lon="6.48685">
        <ele>1465.039</ele>
        <time>2026-03-21T14:26:19Z</time>
      </trkpt>
      <trkpt lat="45.92137" lon="6.48685">
        <ele>1465.053</ele>
        <time>2026-03-21T14:26:24Z</time>
      </trkpt>
      <trkpt lat="45.92137" lon="6.48685">
        <ele>1465.456</ele>
        <time>2026-03-21T14:26:29Z</time>
      </trkpt>
      <trkpt lat="45.92133" lon="6.48673">
        <ele>1463.675</ele>
        <time>2026-03-21T14:26:34Z</time>
      </trkpt>
      <trkpt lat="45.9213" lon="6.4864">
        <ele>1460.088</ele>
        <time>2026-03-21T14:26:39Z</time>
      </trkpt>
      <trkpt lat="45.92146" lon="6.48609">
        <ele>1458.789</ele>
        <time>2026-03-21T14:26:44Z</time>
      </trkpt>
      <trkpt lat="45.92158" lon="6.48581">
        <ele>1458.72</ele>
        <time>2026-03-21T14:26:49Z</time>
      </trkpt>
      <trkpt lat="45.92171" lon="6.48551">
        <ele>1457.299</ele>
        <time>2026-03-21T14:26:54Z</time>
      </trkpt>
      <trkpt lat="45.92186" lon="6.48516">
        <ele>1453.463</ele>
        <time>2026-03-21T14:26:59Z</time>
      </trkpt>
      <trkpt lat="45.92204" lon="6.48479">
        <ele>1449.731</ele>
        <time>2026-03-21T14:27:04Z</time>
      </trkpt>
      <trkpt lat="45.92223" lon="6.48449">
        <ele>1446.705</ele>
        <time>2026-03-21T14:27:09Z</time>
      </trkpt>
      <trkpt lat="45.92235" lon="6.48437">
        <ele>1447.796</ele>
        <time>2026-03-21T14:27:14Z</time>
      </trkpt>
      <trkpt lat="45.92239" lon="6.48436">
        <ele>1447.648</ele>
        <time>2026-03-21T14:27:19Z</time>
      </trkpt>
      <trkpt lat="45.92244" lon="6.48428">
        <ele>1447.232</ele>
        <time>2026-03-21T14:27:24Z</time>
        <extensions>
          <visugpx:TrkExtension xmlns:visugpx="https://www.visugpx.com/editgpx/">
            <visugpx:node>1</visugpx:node>
            </visugpx:TrkExtension>
        </extensions>
      </trkpt>
    </trkseg>
  </trk>
</gpx>